<?xml version='1.0' encoding='UTF-8'?><gpx version="1.1" creator="JPX - https://github.com/jenetics/jpx" xmlns="http://www.topografix.com/GPX/1/1"><trk><trkseg><trkpt lat="46.0274241" lon="11.9130729"><ele>286.0</ele><time>2026-05-04T13:53:10.401Z</time></trkpt><trkpt lat="46.027431" lon="11.9129564"><ele>286.0</ele><time>2026-05-04T13:56:17.398Z</time></trkpt><trkpt lat="46.0274461" lon="11.9128556"><ele>286.0</ele><time>2026-05-04T13:56:22.399Z</time></trkpt><trkpt lat="46.0274485" lon="11.9127598"><ele>286.0</ele><time>2026-05-04T13:56:40.399Z</time></trkpt><trkpt lat="46.0274385" lon="11.9126481"><ele>286.0</ele><time>2026-05-04T13:56:43.399Z</time></trkpt><trkpt lat="46.0275111" lon="11.912597"><ele>286.0</ele><time>2026-05-04T13:56:47.399Z</time></trkpt><trkpt lat="46.0275861" lon="11.9125888"><ele>286.16666666666663</ele><time>2026-05-04T13:56:50.399Z</time></trkpt><trkpt lat="46.0276623" lon="11.9125861"><ele>286.3333333333333</ele><time>2026-05-04T13:56:53.398Z</time></trkpt><trkpt lat="46.0277413" lon="11.9125841"><ele>286.5</ele><time>2026-05-04T13:56:56.399Z</time></trkpt><trkpt lat="46.027823" lon="11.9125821"><ele>286.6666666666667</ele><time>2026-05-04T13:56:59.398Z</time></trkpt><trkpt lat="46.0279066" lon="11.91258"><ele>286.83333333333337</ele><time>2026-05-04T13:57:02.397Z</time></trkpt><trkpt lat="46.027991" lon="11.9125779"><ele>287.0</ele><time>2026-05-04T13:57:05.4Z</time></trkpt><trkpt lat="46.0280705" lon="11.9125746"><ele>287.0</ele><time>2026-05-04T13:57:08.399Z</time></trkpt><trkpt lat="46.0281431" lon="11.912571"><ele>287.0</ele><time>2026-05-04T13:57:10.398Z</time></trkpt><trkpt lat="46.0282086" lon="11.9125677"><ele>287.0</ele><time>2026-05-04T13:57:12.399Z</time></trkpt><trkpt lat="46.0283022" lon="11.912563"><ele>287.0</ele><time>2026-05-04T13:57:15.399Z</time></trkpt><trkpt lat="46.0283947" lon="11.9125584"><ele>287.0</ele><time>2026-05-04T13:57:18.399Z</time></trkpt><trkpt lat="46.0284855" lon="11.9125538"><ele>287.0</ele><time>2026-05-04T13:57:21.398Z</time></trkpt><trkpt lat="46.0285753" lon="11.912546"><ele>287.0</ele><time>2026-05-04T13:57:24.399Z</time></trkpt><trkpt lat="46.0286669" lon="11.9125338"><ele>287.0</ele><time>2026-05-04T13:57:27.399Z</time></trkpt><trkpt lat="46.0287512" lon="11.9125396"><ele>287.0</ele><time>2026-05-04T13:57:30.4Z</time></trkpt><trkpt lat="46.0288056" lon="11.9126165"><ele>287.0</ele><time>2026-05-04T13:57:33.398Z</time></trkpt><trkpt lat="46.0288313" lon="11.9127396"><ele>287.0</ele><time>2026-05-04T13:57:36.398Z</time></trkpt><trkpt lat="46.0288516" lon="11.9128705"><ele>287.0</ele><time>2026-05-04T13:57:39.399Z</time></trkpt><trkpt lat="46.0288679" lon="11.9129588"><ele>287.14285714285717</ele><time>2026-05-04T13:57:41.399Z</time></trkpt><trkpt lat="46.0288873" lon="11.9130845"><ele>287.2857142857143</ele><time>2026-05-04T13:57:44.399Z</time></trkpt><trkpt lat="46.0289138" lon="11.9132125"><ele>287.42857142857144</ele><time>2026-05-04T13:57:47.398Z</time></trkpt><trkpt lat="46.0289342" lon="11.913299"><ele>287.57142857142856</ele><time>2026-05-04T13:57:49.399Z</time></trkpt><trkpt lat="46.0289464" lon="11.913391"><ele>287.7142857142857</ele><time>2026-05-04T13:57:51.399Z</time></trkpt><trkpt lat="46.0289579" lon="11.9134835"><ele>287.8571428571429</ele><time>2026-05-04T13:57:53.397Z</time></trkpt><trkpt lat="46.0289732" lon="11.9135731"><ele>288.0</ele><time>2026-05-04T13:57:55.398Z</time></trkpt><trkpt lat="46.0289932" lon="11.9136593"><ele>288.14285714285717</ele><time>2026-05-04T13:57:57.4Z</time></trkpt><trkpt lat="46.0290133" lon="11.9137453"><ele>288.2857142857143</ele><time>2026-05-04T13:57:59.398Z</time></trkpt><trkpt lat="46.0290285" lon="11.9138357"><ele>288.42857142857144</ele><time>2026-05-04T13:58:01.399Z</time></trkpt><trkpt lat="46.0290445" lon="11.9139326"><ele>288.57142857142856</ele><time>2026-05-04T13:58:03.4Z</time></trkpt><trkpt lat="46.0290598" lon="11.9140243"><ele>288.7142857142857</ele><time>2026-05-04T13:58:05.398Z</time></trkpt><trkpt lat="46.0290789" lon="11.9141192"><ele>288.8571428571429</ele><time>2026-05-04T13:58:07.399Z</time></trkpt><trkpt lat="46.0291033" lon="11.9142085"><ele>289.0</ele><time>2026-05-04T13:58:09.399Z</time></trkpt><trkpt lat="46.0291392" lon="11.9142886"><ele>289.16666666666663</ele><time>2026-05-04T13:58:11.398Z</time></trkpt><trkpt lat="46.0291761" lon="11.9143706"><ele>289.3333333333333</ele><time>2026-05-04T13:58:13.399Z</time></trkpt><trkpt lat="46.0292145" lon="11.9144531"><ele>289.5</ele><time>2026-05-04T13:58:15.401Z</time></trkpt><trkpt lat="46.0292536" lon="11.91453"><ele>289.6666666666667</ele><time>2026-05-04T13:58:17.399Z</time></trkpt><trkpt lat="46.029317" lon="11.914628"><ele>289.83333333333337</ele><time>2026-05-04T13:58:20.397Z</time></trkpt><trkpt lat="46.0293593" lon="11.914699"><ele>290.0</ele><time>2026-05-04T13:58:22.397Z</time></trkpt><trkpt lat="46.029408" lon="11.9148063"><ele>290.0</ele><time>2026-05-04T13:58:25.399Z</time></trkpt><trkpt lat="46.0293954" lon="11.9147023"><ele>290.0</ele><time>2026-05-04T13:58:32.401Z</time></trkpt><trkpt lat="46.0293553" lon="11.914629"><ele>290.0</ele><time>2026-05-04T13:58:34.399Z</time></trkpt><trkpt lat="46.0293144" lon="11.9145522"><ele>290.0</ele><time>2026-05-04T13:58:36.398Z</time></trkpt><trkpt lat="46.0292687" lon="11.9144768"><ele>290.0</ele><time>2026-05-04T13:58:38.399Z</time></trkpt><trkpt lat="46.0292225" lon="11.9144119"><ele>290.0</ele><time>2026-05-04T13:58:40.398Z</time></trkpt><trkpt lat="46.0291554" lon="11.9143223"><ele>290.0</ele><time>2026-05-04T13:58:43.399Z</time></trkpt><trkpt lat="46.0290707" lon="11.9142985"><ele>289.8571428571429</ele><time>2026-05-04T13:58:46.397Z</time></trkpt><trkpt lat="46.0290091" lon="11.9143208"><ele>289.7142857142857</ele><time>2026-05-04T13:58:48.398Z</time></trkpt><trkpt lat="46.028942" lon="11.9143581"><ele>289.57142857142856</ele><time>2026-05-04T13:58:50.398Z</time></trkpt><trkpt lat="46.0288783" lon="11.9144024"><ele>289.42857142857144</ele><time>2026-05-04T13:58:52.398Z</time></trkpt><trkpt lat="46.0288206" lon="11.91445"><ele>289.2857142857143</ele><time>2026-05-04T13:58:54.4Z</time></trkpt><trkpt lat="46.0287622" lon="11.9145053"><ele>289.14285714285717</ele><time>2026-05-04T13:58:56.398Z</time></trkpt><trkpt lat="46.0287047" lon="11.9145644"><ele>289.0</ele><time>2026-05-04T13:58:58.398Z</time></trkpt><trkpt lat="46.0286424" lon="11.9146129"><ele>289.0</ele><time>2026-05-04T13:59:00.398Z</time></trkpt><trkpt lat="46.028578" lon="11.9146514"><ele>289.0</ele><time>2026-05-04T13:59:02.397Z</time></trkpt><trkpt lat="46.0285049" lon="11.9146792"><ele>289.0</ele><time>2026-05-04T13:59:04.399Z</time></trkpt><trkpt lat="46.0284331" lon="11.9147113"><ele>289.0</ele><time>2026-05-04T13:59:06.399Z</time></trkpt><trkpt lat="46.0283622" lon="11.9147313"><ele>289.0</ele><time>2026-05-04T13:59:08.398Z</time></trkpt><trkpt lat="46.0282888" lon="11.9147355"><ele>289.0</ele><time>2026-05-04T13:59:10.398Z</time></trkpt><trkpt lat="46.0282176" lon="11.914744"><ele>289.0</ele><time>2026-05-04T13:59:12.398Z</time></trkpt><trkpt lat="46.028144" lon="11.9147365"><ele>289.0</ele><time>2026-05-04T13:59:14.399Z</time></trkpt><trkpt lat="46.0280656" lon="11.9147311"><ele>289.0</ele><time>2026-05-04T13:59:16.398Z</time></trkpt><trkpt lat="46.0279838" lon="11.9147342"><ele>289.0</ele><time>2026-05-04T13:59:18.399Z</time></trkpt><trkpt lat="46.0279009" lon="11.9147367"><ele>289.0</ele><time>2026-05-04T13:59:20.398Z</time></trkpt><trkpt lat="46.0278216" lon="11.9147378"><ele>289.0</ele><time>2026-05-04T13:59:22.398Z</time></trkpt><trkpt lat="46.0277429" lon="11.9147358"><ele>289.0</ele><time>2026-05-04T13:59:24.401Z</time></trkpt><trkpt lat="46.0276625" lon="11.9147343"><ele>289.0</ele><time>2026-05-04T13:59:26.398Z</time></trkpt><trkpt lat="46.0275871" lon="11.9147398"><ele>289.0</ele><time>2026-05-04T13:59:28.4Z</time></trkpt><trkpt lat="46.0275158" lon="11.9147415"><ele>289.0</ele><time>2026-05-04T13:59:30.398Z</time></trkpt><trkpt lat="46.0274412" lon="11.9147381"><ele>289.0</ele><time>2026-05-04T13:59:32.399Z</time></trkpt><trkpt lat="46.0273659" lon="11.9147444"><ele>289.0</ele><time>2026-05-04T13:59:34.398Z</time></trkpt><trkpt lat="46.0272941" lon="11.9147413"><ele>289.0</ele><time>2026-05-04T13:59:36.399Z</time></trkpt><trkpt lat="46.0272268" lon="11.9147414"><ele>289.0</ele><time>2026-05-04T13:59:38.399Z</time></trkpt><trkpt lat="46.027154" lon="11.9147364"><ele>288.5</ele><time>2026-05-04T13:59:40.398Z</time></trkpt><trkpt lat="46.0270781" lon="11.9147394"><ele>288.0</ele><time>2026-05-04T13:59:42.398Z</time></trkpt><trkpt lat="46.0270038" lon="11.914726"><ele>287.5</ele><time>2026-05-04T13:59:44.398Z</time></trkpt><trkpt lat="46.0269285" lon="11.9147206"><ele>287.0</ele><time>2026-05-04T13:59:46.398Z</time></trkpt><trkpt lat="46.0268528" lon="11.9147139"><ele>286.5</ele><time>2026-05-04T13:59:48.4Z</time></trkpt><trkpt lat="46.0267748" lon="11.9147179"><ele>286.0</ele><time>2026-05-04T13:59:50.399Z</time></trkpt><trkpt lat="46.0266958" lon="11.9147208"><ele>285.5</ele><time>2026-05-04T13:59:52.399Z</time></trkpt><trkpt lat="46.0266184" lon="11.9147156"><ele>285.0</ele><time>2026-05-04T13:59:54.398Z</time></trkpt><trkpt lat="46.0265358" lon="11.9147136"><ele>284.5</ele><time>2026-05-04T13:59:56.399Z</time></trkpt><trkpt lat="46.0264524" lon="11.9147084"><ele>284.0</ele><time>2026-05-04T13:59:58.399Z</time></trkpt><trkpt lat="46.0263636" lon="11.9147056"><ele>283.5</ele><time>2026-05-04T14:00:00.398Z</time></trkpt><trkpt lat="46.0262696" lon="11.9147008"><ele>283.0</ele><time>2026-05-04T14:00:02.399Z</time></trkpt><trkpt lat="46.0261765" lon="11.9146918"><ele>283.0</ele><time>2026-05-04T14:00:04.401Z</time></trkpt><trkpt lat="46.0260833" lon="11.9146941"><ele>283.0</ele><time>2026-05-04T14:00:06.399Z</time></trkpt><trkpt lat="46.0259902" lon="11.9147009"><ele>283.0</ele><time>2026-05-04T14:00:08.399Z</time></trkpt><trkpt lat="46.0258963" lon="11.9147023"><ele>283.0</ele><time>2026-05-04T14:00:10.399Z</time></trkpt><trkpt lat="46.0257986" lon="11.9146949"><ele>283.0</ele><time>2026-05-04T14:00:12.398Z</time></trkpt><trkpt lat="46.0257006" lon="11.914684"><ele>282.8</ele><time>2026-05-04T14:00:14.398Z</time></trkpt><trkpt lat="46.0255952" lon="11.9146716"><ele>282.6</ele><time>2026-05-04T14:00:16.398Z</time></trkpt><trkpt lat="46.0254883" lon="11.914674"><ele>282.4</ele><time>2026-05-04T14:00:18.401Z</time></trkpt><trkpt lat="46.0253821" lon="11.9146775"><ele>282.2</ele><time>2026-05-04T14:00:20.398Z</time></trkpt><trkpt lat="46.0252766" lon="11.9146768"><ele>282.0</ele><time>2026-05-04T14:00:22.398Z</time></trkpt><trkpt lat="46.025175" lon="11.9146719"><ele>282.0</ele><time>2026-05-04T14:00:24.398Z</time></trkpt><trkpt lat="46.0250727" lon="11.9146697"><ele>282.0</ele><time>2026-05-04T14:00:26.399Z</time></trkpt><trkpt lat="46.0249683" lon="11.914673"><ele>282.0</ele><time>2026-05-04T14:00:28.398Z</time></trkpt><trkpt lat="46.0248622" lon="11.9146718"><ele>282.0</ele><time>2026-05-04T14:00:30.398Z</time></trkpt><trkpt lat="46.0247544" lon="11.9146693"><ele>282.0</ele><time>2026-05-04T14:00:32.399Z</time></trkpt><trkpt lat="46.0246462" lon="11.9146752"><ele>281.4</ele><time>2026-05-04T14:00:34.398Z</time></trkpt><trkpt lat="46.0245377" lon="11.9146771"><ele>280.79999999999995</ele><time>2026-05-04T14:00:36.401Z</time></trkpt><trkpt lat="46.0244249" lon="11.9146788"><ele>280.2</ele><time>2026-05-04T14:00:38.399Z</time></trkpt><trkpt lat="46.0243213" lon="11.9146795"><ele>279.59999999999997</ele><time>2026-05-04T14:00:40.399Z</time></trkpt><trkpt lat="46.0242158" lon="11.9146778"><ele>279.0</ele><time>2026-05-04T14:00:42.4Z</time></trkpt><trkpt lat="46.0241156" lon="11.9146688"><ele>278.4</ele><time>2026-05-04T14:00:44.398Z</time></trkpt><trkpt lat="46.0240186" lon="11.9146502"><ele>277.79999999999995</ele><time>2026-05-04T14:00:46.397Z</time></trkpt><trkpt lat="46.0239186" lon="11.9146049"><ele>277.20000000000005</ele><time>2026-05-04T14:00:48.397Z</time></trkpt><trkpt lat="46.0238155" lon="11.9145602"><ele>276.6</ele><time>2026-05-04T14:00:50.397Z</time></trkpt><trkpt lat="46.0237039" lon="11.9145202"><ele>276.0</ele><time>2026-05-04T14:00:52.398Z</time></trkpt><trkpt lat="46.0235897" lon="11.9144839"><ele>276.0</ele><time>2026-05-04T14:00:54.397Z</time></trkpt><trkpt lat="46.0234737" lon="11.9144535"><ele>276.0</ele><time>2026-05-04T14:00:56.399Z</time></trkpt><trkpt lat="46.0233559" lon="11.9144278"><ele>276.0</ele><time>2026-05-04T14:00:58.398Z</time></trkpt><trkpt lat="46.0232368" lon="11.9144221"><ele>276.0</ele><time>2026-05-04T14:01:00.399Z</time></trkpt><trkpt lat="46.0231164" lon="11.9144094"><ele>275.8333333333333</ele><time>2026-05-04T14:01:02.399Z</time></trkpt><trkpt lat="46.0230008" lon="11.9143889"><ele>275.6666666666667</ele><time>2026-05-04T14:01:04.399Z</time></trkpt><trkpt lat="46.0229044" lon="11.9143753"><ele>275.5</ele><time>2026-05-04T14:01:06.399Z</time></trkpt><trkpt lat="46.0228428" lon="11.9143536"><ele>275.33333333333337</ele><time>2026-05-04T14:01:08.399Z</time></trkpt><trkpt lat="46.0227836" lon="11.9143134"><ele>275.1666666666667</ele><time>2026-05-04T14:01:20.398Z</time></trkpt><trkpt lat="46.0227575" lon="11.9141815"><ele>275.0</ele><time>2026-05-04T14:01:23.398Z</time></trkpt><trkpt lat="46.0227563" lon="11.9140768"><ele>275.0</ele><time>2026-05-04T14:01:25.399Z</time></trkpt><trkpt lat="46.0227591" lon="11.913973"><ele>275.0</ele><time>2026-05-04T14:01:27.4Z</time></trkpt><trkpt lat="46.0227548" lon="11.9138538"><ele>275.0</ele><time>2026-05-04T14:01:29.399Z</time></trkpt><trkpt lat="46.0227588" lon="11.9137372"><ele>275.0</ele><time>2026-05-04T14:01:31.399Z</time></trkpt><trkpt lat="46.0227592" lon="11.9136247"><ele>275.0</ele><time>2026-05-04T14:01:33.399Z</time></trkpt><trkpt lat="46.0227559" lon="11.9135111"><ele>275.0</ele><time>2026-05-04T14:01:35.4Z</time></trkpt><trkpt lat="46.0227481" lon="11.9133998"><ele>275.0</ele><time>2026-05-04T14:01:37.398Z</time></trkpt><trkpt lat="46.0227422" lon="11.9132886"><ele>275.0</ele><time>2026-05-04T14:01:39.398Z</time></trkpt><trkpt lat="46.0227353" lon="11.9131805"><ele>275.0</ele><time>2026-05-04T14:01:41.398Z</time></trkpt><trkpt lat="46.0227314" lon="11.9130724"><ele>275.0</ele><time>2026-05-04T14:01:43.398Z</time></trkpt><trkpt lat="46.0227269" lon="11.9129666"><ele>275.0</ele><time>2026-05-04T14:01:45.399Z</time></trkpt><trkpt lat="46.0227171" lon="11.912859"><ele>275.0</ele><time>2026-05-04T14:01:47.399Z</time></trkpt><trkpt lat="46.0227065" lon="11.9127531"><ele>275.0</ele><time>2026-05-04T14:01:49.398Z</time></trkpt><trkpt lat="46.0227109" lon="11.912647"><ele>275.0</ele><time>2026-05-04T14:01:51.398Z</time></trkpt><trkpt lat="46.022725" lon="11.9125468"><ele>275.0</ele><time>2026-05-04T14:01:53.399Z</time></trkpt><trkpt lat="46.0227275" lon="11.9124448"><ele>275.0</ele><time>2026-05-04T14:01:55.399Z</time></trkpt><trkpt lat="46.0226902" lon="11.9123593"><ele>275.0</ele><time>2026-05-04T14:01:57.398Z</time></trkpt><trkpt lat="46.0226108" lon="11.9123327"><ele>275.0</ele><time>2026-05-04T14:01:59.399Z</time></trkpt><trkpt lat="46.0225298" lon="11.9123542"><ele>275.0</ele><time>2026-05-04T14:02:01.4Z</time></trkpt><trkpt lat="46.0224513" lon="11.9123906"><ele>275.0</ele><time>2026-05-04T14:02:03.399Z</time></trkpt><trkpt lat="46.022375" lon="11.9124314"><ele>275.0</ele><time>2026-05-04T14:02:05.399Z</time></trkpt><trkpt lat="46.0222932" lon="11.9124632"><ele>275.0</ele><time>2026-05-04T14:02:07.398Z</time></trkpt><trkpt lat="46.0222112" lon="11.912484"><ele>275.0</ele><time>2026-05-04T14:02:09.398Z</time></trkpt><trkpt lat="46.0221223" lon="11.9124914"><ele>275.0</ele><time>2026-05-04T14:02:11.399Z</time></trkpt><trkpt lat="46.0220332" lon="11.9124969"><ele>275.0</ele><time>2026-05-04T14:02:13.398Z</time></trkpt><trkpt lat="46.0219441" lon="11.9125068"><ele>275.0</ele><time>2026-05-04T14:02:15.399Z</time></trkpt><trkpt lat="46.0218491" lon="11.9125038"><ele>275.0</ele><time>2026-05-04T14:02:17.398Z</time></trkpt><trkpt lat="46.0217511" lon="11.9124772"><ele>275.0</ele><time>2026-05-04T14:02:19.398Z</time></trkpt><trkpt lat="46.0216605" lon="11.9124568"><ele>275.0</ele><time>2026-05-04T14:02:21.399Z</time></trkpt><trkpt lat="46.0215639" lon="11.9124487"><ele>275.83333333333337</ele><time>2026-05-04T14:02:23.401Z</time></trkpt><trkpt lat="46.0214679" lon="11.912443"><ele>276.6666666666667</ele><time>2026-05-04T14:02:25.401Z</time></trkpt><trkpt lat="46.0213809" lon="11.9124374"><ele>277.5</ele><time>2026-05-04T14:02:27.4Z</time></trkpt><trkpt lat="46.0213064" lon="11.9124237"><ele>278.3333333333333</ele><time>2026-05-04T14:02:29.399Z</time></trkpt><trkpt lat="46.021231" lon="11.9124037"><ele>279.16666666666663</ele><time>2026-05-04T14:02:31.404Z</time></trkpt><trkpt lat="46.021168" lon="11.9124022"><ele>280.0</ele><time>2026-05-04T14:02:33.401Z</time></trkpt><trkpt lat="46.0210744" lon="11.912416"><ele>280.0</ele><time>2026-05-04T14:02:36.401Z</time></trkpt><trkpt lat="46.0210104" lon="11.91244"><ele>280.0</ele><time>2026-05-04T14:02:38.4Z</time></trkpt><trkpt lat="46.0209483" lon="11.9124713"><ele>280.0</ele><time>2026-05-04T14:02:40.4Z</time></trkpt><trkpt lat="46.0208802" lon="11.9125005"><ele>280.0</ele><time>2026-05-04T14:02:42.401Z</time></trkpt><trkpt lat="46.0207975" lon="11.9125312"><ele>280.0</ele><time>2026-05-04T14:02:45.402Z</time></trkpt><trkpt lat="46.0207193" lon="11.9125566"><ele>280.0</ele><time>2026-05-04T14:02:48.401Z</time></trkpt><trkpt lat="46.0206427" lon="11.9125873"><ele>280.0</ele><time>2026-05-04T14:02:51.402Z</time></trkpt><trkpt lat="46.0205726" lon="11.9126469"><ele>281.0</ele><time>2026-05-04T14:02:54.401Z</time></trkpt><trkpt lat="46.0204996" lon="11.912716"><ele>282.0</ele><time>2026-05-04T14:02:57.4Z</time></trkpt><trkpt lat="46.0204417" lon="11.9127925"><ele>283.0</ele><time>2026-05-04T14:03:00.402Z</time></trkpt><trkpt lat="46.0203925" lon="11.9128842"><ele>284.0</ele><time>2026-05-04T14:03:03.402Z</time></trkpt><trkpt lat="46.0203525" lon="11.9129853"><ele>285.0</ele><time>2026-05-04T14:03:06.401Z</time></trkpt><trkpt lat="46.020314" lon="11.913083"><ele>286.0</ele><time>2026-05-04T14:03:09.401Z</time></trkpt><trkpt lat="46.020244" lon="11.9131428"><ele>286.0</ele><time>2026-05-04T14:03:12.403Z</time></trkpt><trkpt lat="46.0201749" lon="11.9132155"><ele>286.0</ele><time>2026-05-04T14:03:15.401Z</time></trkpt><trkpt lat="46.0201169" lon="11.913313"><ele>286.0</ele><time>2026-05-04T14:03:18.4Z</time></trkpt><trkpt lat="46.0200835" lon="11.9133914"><ele>286.0</ele><time>2026-05-04T14:03:20.401Z</time></trkpt><trkpt lat="46.0200438" lon="11.9134937"><ele>286.0</ele><time>2026-05-04T14:03:23.4Z</time></trkpt><trkpt lat="46.0200022" lon="11.9135837"><ele>286.0</ele><time>2026-05-04T14:03:26.402Z</time></trkpt><trkpt lat="46.0199693" lon="11.9136913"><ele>285.5</ele><time>2026-05-04T14:03:29.401Z</time></trkpt><trkpt lat="46.0199716" lon="11.9138286"><ele>285.0</ele><time>2026-05-04T14:03:32.401Z</time></trkpt><trkpt lat="46.0199838" lon="11.9139539"><ele>284.5</ele><time>2026-05-04T14:03:35.4Z</time></trkpt><trkpt lat="46.0200075" lon="11.9140626"><ele>284.0</ele><time>2026-05-04T14:03:38.402Z</time></trkpt><trkpt lat="46.0200333" lon="11.914193"><ele>283.5</ele><time>2026-05-04T14:03:41.402Z</time></trkpt><trkpt lat="46.0200595" lon="11.9142957"><ele>283.0</ele><time>2026-05-04T14:03:43.401Z</time></trkpt><trkpt lat="46.0200715" lon="11.9144012"><ele>282.66666666666663</ele><time>2026-05-04T14:03:45.402Z</time></trkpt><trkpt lat="46.0200711" lon="11.914505"><ele>282.3333333333333</ele><time>2026-05-04T14:03:47.4Z</time></trkpt><trkpt lat="46.0200739" lon="11.9146316"><ele>282.0</ele><time>2026-05-04T14:03:49.401Z</time></trkpt><trkpt lat="46.0200741" lon="11.9147602"><ele>281.6666666666667</ele><time>2026-05-04T14:03:51.401Z</time></trkpt><trkpt lat="46.0200649" lon="11.9149013"><ele>281.33333333333337</ele><time>2026-05-04T14:03:53.401Z</time></trkpt><trkpt lat="46.020053" lon="11.9150408"><ele>281.0</ele><time>2026-05-04T14:03:55.402Z</time></trkpt><trkpt lat="46.0200388" lon="11.91519"><ele>282.83333333333337</ele><time>2026-05-04T14:03:57.401Z</time></trkpt><trkpt lat="46.0199912" lon="11.9152868"><ele>284.6666666666667</ele><time>2026-05-04T14:03:59.399Z</time></trkpt><trkpt lat="46.0199208" lon="11.9152951"><ele>286.5</ele><time>2026-05-04T14:04:01.398Z</time></trkpt><trkpt lat="46.0198567" lon="11.9152786"><ele>288.3333333333333</ele><time>2026-05-04T14:04:03.402Z</time></trkpt><trkpt lat="46.0197637" lon="11.915258"><ele>290.16666666666663</ele><time>2026-05-04T14:04:06.401Z</time></trkpt><trkpt lat="46.0196765" lon="11.915234"><ele>292.0</ele><time>2026-05-04T14:04:09.401Z</time></trkpt><trkpt lat="46.0195955" lon="11.9152068"><ele>291.8333333333333</ele><time>2026-05-04T14:04:12.402Z</time></trkpt><trkpt lat="46.0195144" lon="11.9151869"><ele>291.66666666666663</ele><time>2026-05-04T14:04:15.402Z</time></trkpt><trkpt lat="46.0194369" lon="11.9151729"><ele>291.5</ele><time>2026-05-04T14:04:18.401Z</time></trkpt><trkpt lat="46.0193556" lon="11.9151606"><ele>291.3333333333333</ele><time>2026-05-04T14:04:21.401Z</time></trkpt><trkpt lat="46.0192683" lon="11.9151636"><ele>291.1666666666667</ele><time>2026-05-04T14:04:24.401Z</time></trkpt><trkpt lat="46.0191763" lon="11.9151724"><ele>291.0</ele><time>2026-05-04T14:04:27.401Z</time></trkpt><trkpt lat="46.0191136" lon="11.9151826"><ele>291.0</ele><time>2026-05-04T14:04:29.401Z</time></trkpt><trkpt lat="46.0190325" lon="11.915224"><ele>291.0</ele><time>2026-05-04T14:04:32.402Z</time></trkpt><trkpt lat="46.0189503" lon="11.9152644"><ele>291.0</ele><time>2026-05-04T14:04:35.402Z</time></trkpt><trkpt lat="46.0188787" lon="11.9152876"><ele>291.0</ele><time>2026-05-04T14:04:38.401Z</time></trkpt><trkpt lat="46.0188147" lon="11.9152927"><ele>291.0</ele><time>2026-05-04T14:04:42.403Z</time></trkpt><trkpt lat="46.018752" lon="11.915355"><ele>291.0</ele><time>2026-05-04T14:04:53.401Z</time></trkpt><trkpt lat="46.0186668" lon="11.9153759"><ele>291.0</ele><time>2026-05-04T14:04:56.401Z</time></trkpt><trkpt lat="46.0185865" lon="11.915379"><ele>291.0</ele><time>2026-05-04T14:04:58.4Z</time></trkpt><trkpt lat="46.0185077" lon="11.9153801"><ele>291.0</ele><time>2026-05-04T14:05:00.405Z</time></trkpt><trkpt lat="46.0184368" lon="11.9153765"><ele>291.0</ele><time>2026-05-04T14:05:02.401Z</time></trkpt><trkpt lat="46.0183736" lon="11.9153834"><ele>291.0</ele><time>2026-05-04T14:05:04.401Z</time></trkpt><trkpt lat="46.0183093" lon="11.9154006"><ele>291.0</ele><time>2026-05-04T14:05:06.401Z</time></trkpt><trkpt lat="46.0182263" lon="11.9154322"><ele>291.0</ele><time>2026-05-04T14:05:09.401Z</time></trkpt><trkpt lat="46.0181571" lon="11.915464"><ele>289.8333333333333</ele><time>2026-05-04T14:05:12.4Z</time></trkpt><trkpt lat="46.0180924" lon="11.915511"><ele>288.6666666666667</ele><time>2026-05-04T14:05:15.402Z</time></trkpt><trkpt lat="46.0180345" lon="11.9156037"><ele>287.5</ele><time>2026-05-04T14:05:18.399Z</time></trkpt><trkpt lat="46.018" lon="11.9157165"><ele>286.33333333333337</ele><time>2026-05-04T14:05:21.401Z</time></trkpt><trkpt lat="46.0179736" lon="11.9158093"><ele>285.1666666666667</ele><time>2026-05-04T14:05:23.401Z</time></trkpt><trkpt lat="46.017954" lon="11.9159124"><ele>284.0</ele><time>2026-05-04T14:05:25.402Z</time></trkpt><trkpt lat="46.0179391" lon="11.916033"><ele>283.5</ele><time>2026-05-04T14:05:27.401Z</time></trkpt><trkpt lat="46.0179226" lon="11.9161618"><ele>283.0</ele><time>2026-05-04T14:05:29.401Z</time></trkpt><trkpt lat="46.0179033" lon="11.916281"><ele>282.5</ele><time>2026-05-04T14:05:31.402Z</time></trkpt><trkpt lat="46.0178838" lon="11.9163939"><ele>282.0</ele><time>2026-05-04T14:05:33.401Z</time></trkpt><trkpt lat="46.0178726" lon="11.9165037"><ele>281.5</ele><time>2026-05-04T14:05:35.401Z</time></trkpt><trkpt lat="46.0178439" lon="11.9166138"><ele>281.0</ele><time>2026-05-04T14:05:37.404Z</time></trkpt><trkpt lat="46.0178142" lon="11.9167285"><ele>280.1666666666667</ele><time>2026-05-04T14:05:39.401Z</time></trkpt><trkpt lat="46.0177683" lon="11.9168681"><ele>279.33333333333337</ele><time>2026-05-04T14:05:41.401Z</time></trkpt><trkpt lat="46.0177107" lon="11.9170264"><ele>278.5</ele><time>2026-05-04T14:05:43.4Z</time></trkpt><trkpt lat="46.0176728" lon="11.9171039"><ele>277.6666666666667</ele><time>2026-05-04T14:05:44.401Z</time></trkpt><trkpt lat="46.0176351" lon="11.9171831"><ele>276.8333333333333</ele><time>2026-05-04T14:05:45.402Z</time></trkpt><trkpt lat="46.0175943" lon="11.9172697"><ele>276.0</ele><time>2026-05-04T14:05:46.401Z</time></trkpt><trkpt lat="46.0175568" lon="11.9173582"><ele>276.0</ele><time>2026-05-04T14:05:47.4Z</time></trkpt><trkpt lat="46.0175195" lon="11.9174473"><ele>276.0</ele><time>2026-05-04T14:05:48.403Z</time></trkpt><trkpt lat="46.0174855" lon="11.9175407"><ele>276.0</ele><time>2026-05-04T14:05:49.4Z</time></trkpt><trkpt lat="46.0174544" lon="11.9176327"><ele>276.0</ele><time>2026-05-04T14:05:50.401Z</time></trkpt><trkpt lat="46.0174246" lon="11.917726"><ele>276.0</ele><time>2026-05-04T14:05:51.4Z</time></trkpt><trkpt lat="46.0173922" lon="11.9178157"><ele>276.0</ele><time>2026-05-04T14:05:52.4Z</time></trkpt><trkpt lat="46.0173548" lon="11.9178976"><ele>276.0</ele><time>2026-05-04T14:05:53.401Z</time></trkpt><trkpt lat="46.017317" lon="11.9179713"><ele>276.1666666666667</ele><time>2026-05-04T14:05:54.399Z</time></trkpt><trkpt lat="46.0172414" lon="11.9180898"><ele>276.3333333333333</ele><time>2026-05-04T14:05:56.401Z</time></trkpt><trkpt lat="46.0171772" lon="11.9181998"><ele>276.5</ele><time>2026-05-04T14:05:58.4Z</time></trkpt><trkpt lat="46.0171182" lon="11.9182865"><ele>276.66666666666663</ele><time>2026-05-04T14:06:00.401Z</time></trkpt><trkpt lat="46.0170602" lon="11.9183613"><ele>276.8333333333333</ele><time>2026-05-04T14:06:02.402Z</time></trkpt><trkpt lat="46.0170038" lon="11.9184272"><ele>277.0</ele><time>2026-05-04T14:06:04.4Z</time></trkpt><trkpt lat="46.0169518" lon="11.9184878"><ele>277.0</ele><time>2026-05-04T14:06:06.4Z</time></trkpt><trkpt lat="46.0168941" lon="11.9185471"><ele>277.0</ele><time>2026-05-04T14:06:08.401Z</time></trkpt><trkpt lat="46.0168383" lon="11.9186159"><ele>277.0</ele><time>2026-05-04T14:06:10.401Z</time></trkpt><trkpt lat="46.016778" lon="11.9186786"><ele>277.0</ele><time>2026-05-04T14:06:12.401Z</time></trkpt><trkpt lat="46.0167203" lon="11.9187419"><ele>277.0</ele><time>2026-05-04T14:06:14.401Z</time></trkpt><trkpt lat="46.0166665" lon="11.9188087"><ele>277.0</ele><time>2026-05-04T14:06:16.401Z</time></trkpt><trkpt lat="46.016608" lon="11.9188718"><ele>277.0</ele><time>2026-05-04T14:06:18.402Z</time></trkpt><trkpt lat="46.0165509" lon="11.918937"><ele>277.2857142857143</ele><time>2026-05-04T14:06:20.401Z</time></trkpt><trkpt lat="46.0164942" lon="11.9190017"><ele>277.57142857142856</ele><time>2026-05-04T14:06:22.401Z</time></trkpt><trkpt lat="46.0164355" lon="11.9190659"><ele>277.85714285714283</ele><time>2026-05-04T14:06:24.402Z</time></trkpt><trkpt lat="46.0163766" lon="11.9191323"><ele>278.1428571428571</ele><time>2026-05-04T14:06:26.401Z</time></trkpt><trkpt lat="46.01632" lon="11.9191947"><ele>278.42857142857144</ele><time>2026-05-04T14:06:28.401Z</time></trkpt><trkpt lat="46.0162677" lon="11.9192596"><ele>278.71428571428567</ele><time>2026-05-04T14:06:30.4Z</time></trkpt><trkpt lat="46.0162232" lon="11.9193272"><ele>279.0</ele><time>2026-05-04T14:06:32.399Z</time></trkpt><trkpt lat="46.0161521" lon="11.9194247"><ele>280.4285714285714</ele><time>2026-05-04T14:06:35.398Z</time></trkpt><trkpt lat="46.0160878" lon="11.9194898"><ele>281.85714285714283</ele><time>2026-05-04T14:06:37.398Z</time></trkpt><trkpt lat="46.0160342" lon="11.919543"><ele>283.2857142857143</ele><time>2026-05-04T14:06:39.398Z</time></trkpt><trkpt lat="46.0159834" lon="11.919609"><ele>284.71428571428567</ele><time>2026-05-04T14:06:41.401Z</time></trkpt><trkpt lat="46.0159372" lon="11.9196735"><ele>286.1428571428571</ele><time>2026-05-04T14:06:43.401Z</time></trkpt><trkpt lat="46.0158855" lon="11.9197283"><ele>287.57142857142856</ele><time>2026-05-04T14:06:45.401Z</time></trkpt><trkpt lat="46.0158298" lon="11.919778"><ele>289.0</ele><time>2026-05-04T14:06:47.401Z</time></trkpt><trkpt lat="46.015774" lon="11.9198377"><ele>289.0</ele><time>2026-05-04T14:06:49.401Z</time></trkpt><trkpt lat="46.0157199" lon="11.9198977"><ele>289.0</ele><time>2026-05-04T14:06:51.401Z</time></trkpt><trkpt lat="46.0156706" lon="11.9199656"><ele>289.0</ele><time>2026-05-04T14:06:53.4Z</time></trkpt><trkpt lat="46.0156254" lon="11.9200385"><ele>289.0</ele><time>2026-05-04T14:06:55.402Z</time></trkpt><trkpt lat="46.0155818" lon="11.9201148"><ele>289.0</ele><time>2026-05-04T14:06:57.402Z</time></trkpt><trkpt lat="46.015541" lon="11.9201873"><ele>289.0</ele><time>2026-05-04T14:06:59.401Z</time></trkpt><trkpt lat="46.0154996" lon="11.9202593"><ele>289.0</ele><time>2026-05-04T14:07:01.401Z</time></trkpt><trkpt lat="46.0154499" lon="11.9203267"><ele>289.7142857142857</ele><time>2026-05-04T14:07:03.401Z</time></trkpt><trkpt lat="46.0153994" lon="11.9203887"><ele>290.42857142857144</ele><time>2026-05-04T14:07:05.401Z</time></trkpt><trkpt lat="46.0153392" lon="11.920493"><ele>291.1428571428571</ele><time>2026-05-04T14:07:08.401Z</time></trkpt><trkpt lat="46.0153" lon="11.920564"><ele>291.8571428571429</ele><time>2026-05-04T14:07:10.401Z</time></trkpt><trkpt lat="46.015255" lon="11.9206393"><ele>292.57142857142856</ele><time>2026-05-04T14:07:12.401Z</time></trkpt><trkpt lat="46.0152041" lon="11.9207181"><ele>293.2857142857143</ele><time>2026-05-04T14:07:14.401Z</time></trkpt><trkpt lat="46.01515" lon="11.9207853"><ele>294.0</ele><time>2026-05-04T14:07:16.401Z</time></trkpt><trkpt lat="46.0150861" lon="11.9208508"><ele>295.0</ele><time>2026-05-04T14:07:18.401Z</time></trkpt><trkpt lat="46.0150206" lon="11.9209316"><ele>296.0</ele><time>2026-05-04T14:07:20.4Z</time></trkpt><trkpt lat="46.0149472" lon="11.9210141"><ele>297.0</ele><time>2026-05-04T14:07:22.4Z</time></trkpt><trkpt lat="46.0148704" lon="11.921113"><ele>298.0</ele><time>2026-05-04T14:07:24.401Z</time></trkpt><trkpt lat="46.0147999" lon="11.9212449"><ele>299.0</ele><time>2026-05-04T14:07:26.402Z</time></trkpt><trkpt lat="46.0147433" lon="11.9214005"><ele>296.0</ele><time>2026-05-04T14:07:28.401Z</time></trkpt><trkpt lat="46.0146966" lon="11.9215521"><ele>293.0</ele><time>2026-05-04T14:07:30.402Z</time></trkpt><trkpt lat="46.0146544" lon="11.9216822"><ele>290.0</ele><time>2026-05-04T14:07:32.401Z</time></trkpt><trkpt lat="46.014614" lon="11.9217839"><ele>287.0</ele><time>2026-05-04T14:07:34.4Z</time></trkpt><trkpt lat="46.0145756" lon="11.9218977"><ele>284.0</ele><time>2026-05-04T14:07:36.401Z</time></trkpt><trkpt lat="46.014537" lon="11.9220135"><ele>284.0</ele><time>2026-05-04T14:07:38.4Z</time></trkpt><trkpt lat="46.0144998" lon="11.9221168"><ele>284.0</ele><time>2026-05-04T14:07:40.403Z</time></trkpt><trkpt lat="46.0144627" lon="11.9222191"><ele>284.0</ele><time>2026-05-04T14:07:42.401Z</time></trkpt><trkpt lat="46.0144255" lon="11.922313"><ele>284.0</ele><time>2026-05-04T14:07:44.402Z</time></trkpt><trkpt lat="46.0143883" lon="11.9224053"><ele>284.0</ele><time>2026-05-04T14:07:46.402Z</time></trkpt><trkpt lat="46.0143511" lon="11.922491"><ele>284.0</ele><time>2026-05-04T14:07:48.402Z</time></trkpt><trkpt lat="46.0143151" lon="11.9225836"><ele>282.57142857142856</ele><time>2026-05-04T14:07:50.398Z</time></trkpt><trkpt lat="46.0142877" lon="11.9226848"><ele>281.1428571428571</ele><time>2026-05-04T14:07:52.4Z</time></trkpt><trkpt lat="46.0142499" lon="11.9227766"><ele>279.7142857142857</ele><time>2026-05-04T14:07:54.402Z</time></trkpt><trkpt lat="46.0142079" lon="11.9228579"><ele>278.2857142857143</ele><time>2026-05-04T14:07:56.4Z</time></trkpt><trkpt lat="46.014162" lon="11.922942"><ele>276.8571428571429</ele><time>2026-05-04T14:07:58.399Z</time></trkpt><trkpt lat="46.014111" lon="11.9230247"><ele>275.42857142857144</ele><time>2026-05-04T14:08:00.401Z</time></trkpt><trkpt lat="46.0140553" lon="11.9231041"><ele>274.0</ele><time>2026-05-04T14:08:02.401Z</time></trkpt><trkpt lat="46.0139848" lon="11.9231609"><ele>274.0</ele><time>2026-05-04T14:08:04.401Z</time></trkpt><trkpt lat="46.0139173" lon="11.9232231"><ele>274.0</ele><time>2026-05-04T14:08:06.401Z</time></trkpt><trkpt lat="46.0138746" lon="11.9232975"><ele>274.0</ele><time>2026-05-04T14:08:08.402Z</time></trkpt><trkpt lat="46.0138187" lon="11.9233617"><ele>274.0</ele><time>2026-05-04T14:08:11.401Z</time></trkpt><trkpt lat="46.0138143" lon="11.923253"><ele>274.0</ele><time>2026-05-04T14:08:14.402Z</time></trkpt><trkpt lat="46.013844" lon="11.9231128"><ele>274.0</ele><time>2026-05-04T14:08:16.399Z</time></trkpt><trkpt lat="46.0138783" lon="11.9229619"><ele>274.0</ele><time>2026-05-04T14:08:18.399Z</time></trkpt><trkpt lat="46.0139114" lon="11.9228227"><ele>274.0</ele><time>2026-05-04T14:08:20.402Z</time></trkpt><trkpt lat="46.0139419" lon="11.9226738"><ele>274.0</ele><time>2026-05-04T14:08:22.4Z</time></trkpt><trkpt lat="46.0139739" lon="11.9225244"><ele>274.0</ele><time>2026-05-04T14:08:24.4Z</time></trkpt><trkpt lat="46.0140152" lon="11.9223789"><ele>274.0</ele><time>2026-05-04T14:08:26.401Z</time></trkpt><trkpt lat="46.0140567" lon="11.9222481"><ele>271.5</ele><time>2026-05-04T14:08:28.401Z</time></trkpt><trkpt lat="46.014097" lon="11.9221435"><ele>269.0</ele><time>2026-05-04T14:08:30.401Z</time></trkpt><trkpt lat="46.0141278" lon="11.9220626"><ele>266.5</ele><time>2026-05-04T14:08:32.403Z</time></trkpt><trkpt lat="46.0140816" lon="11.9219931"><ele>264.0</ele><time>2026-05-04T14:08:36.4Z</time></trkpt><trkpt lat="46.0140185" lon="11.9220987"><ele>261.5</ele><time>2026-05-04T14:08:39.4Z</time></trkpt><trkpt lat="46.0139681" lon="11.9221932"><ele>259.0</ele><time>2026-05-04T14:08:41.402Z</time></trkpt><trkpt lat="46.0139212" lon="11.922288"><ele>259.0</ele><time>2026-05-04T14:08:43.401Z</time></trkpt><trkpt lat="46.0138729" lon="11.9223784"><ele>259.0</ele><time>2026-05-04T14:08:45.401Z</time></trkpt><trkpt lat="46.0138217" lon="11.9224589"><ele>259.0</ele><time>2026-05-04T14:08:47.399Z</time></trkpt><trkpt lat="46.0137689" lon="11.9225529"><ele>259.0</ele><time>2026-05-04T14:08:49.401Z</time></trkpt><trkpt lat="46.0137173" lon="11.9226447"><ele>259.0</ele><time>2026-05-04T14:08:51.402Z</time></trkpt><trkpt lat="46.0136627" lon="11.9227329"><ele>259.0</ele><time>2026-05-04T14:08:53.402Z</time></trkpt><trkpt lat="46.0136168" lon="11.9228351"><ele>258.3333333333333</ele><time>2026-05-04T14:08:55.401Z</time></trkpt><trkpt lat="46.0135596" lon="11.9229229"><ele>257.66666666666663</ele><time>2026-05-04T14:08:57.401Z</time></trkpt><trkpt lat="46.0135118" lon="11.9230231"><ele>257.0</ele><time>2026-05-04T14:08:59.401Z</time></trkpt><trkpt lat="46.0134639" lon="11.9231189"><ele>256.3333333333333</ele><time>2026-05-04T14:09:01.4Z</time></trkpt><trkpt lat="46.0134114" lon="11.9232023"><ele>255.66666666666666</ele><time>2026-05-04T14:09:03.4Z</time></trkpt><trkpt lat="46.0133606" lon="11.9232603"><ele>255.0</ele><time>2026-05-04T14:09:05.399Z</time></trkpt><trkpt lat="46.013287" lon="11.9232889"><ele>255.0</ele><time>2026-05-04T14:09:08.398Z</time></trkpt><trkpt lat="46.0132272" lon="11.9232585"><ele>255.0</ele><time>2026-05-04T14:09:11.398Z</time></trkpt><trkpt lat="46.013159" lon="11.9232396"><ele>255.0</ele><time>2026-05-04T14:09:13.399Z</time></trkpt><trkpt lat="46.0130776" lon="11.9232358"><ele>255.0</ele><time>2026-05-04T14:09:15.401Z</time></trkpt><trkpt lat="46.0129859" lon="11.923271"><ele>255.0</ele><time>2026-05-04T14:09:17.399Z</time></trkpt><trkpt lat="46.0128966" lon="11.9232972"><ele>255.0</ele><time>2026-05-04T14:09:19.399Z</time></trkpt><trkpt lat="46.0128232" lon="11.9233574"><ele>253.4</ele><time>2026-05-04T14:09:21.402Z</time></trkpt><trkpt lat="46.0127593" lon="11.9234455"><ele>251.8</ele><time>2026-05-04T14:09:23.401Z</time></trkpt><trkpt lat="46.0126995" lon="11.9235284"><ele>250.2</ele><time>2026-05-04T14:09:25.399Z</time></trkpt><trkpt lat="46.0126219" lon="11.9236207"><ele>248.6</ele><time>2026-05-04T14:09:27.401Z</time></trkpt><trkpt lat="46.0125309" lon="11.9236949"><ele>247.0</ele><time>2026-05-04T14:09:29.4Z</time></trkpt><trkpt lat="46.0124342" lon="11.9237621"><ele>247.0</ele><time>2026-05-04T14:09:31.403Z</time></trkpt><trkpt lat="46.0123258" lon="11.9238222"><ele>247.0</ele><time>2026-05-04T14:09:33.401Z</time></trkpt><trkpt lat="46.0122214" lon="11.9238756"><ele>247.0</ele><time>2026-05-04T14:09:35.401Z</time></trkpt><trkpt lat="46.0121193" lon="11.923931"><ele>247.0</ele><time>2026-05-04T14:09:37.402Z</time></trkpt><trkpt lat="46.0120254" lon="11.9240263"><ele>247.0</ele><time>2026-05-04T14:09:39.403Z</time></trkpt><trkpt lat="46.0119596" lon="11.9241278"><ele>247.0</ele><time>2026-05-04T14:09:41.401Z</time></trkpt><trkpt lat="46.0119188" lon="11.9242266"><ele>247.0</ele><time>2026-05-04T14:09:43.401Z</time></trkpt><trkpt lat="46.0118755" lon="11.9243351"><ele>247.0</ele><time>2026-05-04T14:09:45.4Z</time></trkpt><trkpt lat="46.0118416" lon="11.9244578"><ele>247.0</ele><time>2026-05-04T14:09:47.399Z</time></trkpt><trkpt lat="46.0118085" lon="11.9245912"><ele>247.16666666666666</ele><time>2026-05-04T14:09:49.4Z</time></trkpt><trkpt lat="46.0117846" lon="11.9247282"><ele>247.33333333333331</ele><time>2026-05-04T14:09:51.401Z</time></trkpt><trkpt lat="46.0117722" lon="11.9248511"><ele>247.5</ele><time>2026-05-04T14:09:53.399Z</time></trkpt><trkpt lat="46.0117648" lon="11.9249717"><ele>247.66666666666669</ele><time>2026-05-04T14:09:55.402Z</time></trkpt><trkpt lat="46.0117865" lon="11.9250989"><ele>247.83333333333334</ele><time>2026-05-04T14:09:57.401Z</time></trkpt><trkpt lat="46.0118018" lon="11.9252236"><ele>248.0</ele><time>2026-05-04T14:09:59.402Z</time></trkpt><trkpt lat="46.011804" lon="11.9253429"><ele>248.00000000000003</ele><time>2026-05-04T14:10:01.4Z</time></trkpt><trkpt lat="46.011806" lon="11.9254517"><ele>248.0</ele><time>2026-05-04T14:10:03.401Z</time></trkpt><trkpt lat="46.0118179" lon="11.9255636"><ele>248.0</ele><time>2026-05-04T14:10:05.4Z</time></trkpt><trkpt lat="46.0118449" lon="11.9256812"><ele>248.0</ele><time>2026-05-04T14:10:07.402Z</time></trkpt><trkpt lat="46.0118692" lon="11.9258045"><ele>248.00000000000003</ele><time>2026-05-04T14:10:09.399Z</time></trkpt><trkpt lat="46.011891" lon="11.9259251"><ele>248.0</ele><time>2026-05-04T14:10:11.4Z</time></trkpt><trkpt lat="46.0119208" lon="11.9260431"><ele>247.60000000000002</ele><time>2026-05-04T14:10:13.401Z</time></trkpt><trkpt lat="46.0119417" lon="11.926168"><ele>247.20000000000002</ele><time>2026-05-04T14:10:15.399Z</time></trkpt><trkpt lat="46.0119484" lon="11.9262978"><ele>246.8</ele><time>2026-05-04T14:10:17.399Z</time></trkpt><trkpt lat="46.0119494" lon="11.9264387"><ele>246.4</ele><time>2026-05-04T14:10:19.399Z</time></trkpt><trkpt lat="46.0119419" lon="11.9265785"><ele>246.0</ele><time>2026-05-04T14:10:21.402Z</time></trkpt><trkpt lat="46.0119269" lon="11.9267173"><ele>245.60000000000002</ele><time>2026-05-04T14:10:23.402Z</time></trkpt><trkpt lat="46.0118995" lon="11.9268514"><ele>245.20000000000002</ele><time>2026-05-04T14:10:25.399Z</time></trkpt><trkpt lat="46.0118657" lon="11.9269874"><ele>244.79999999999998</ele><time>2026-05-04T14:10:27.401Z</time></trkpt><trkpt lat="46.011833" lon="11.9271285"><ele>244.39999999999998</ele><time>2026-05-04T14:10:29.4Z</time></trkpt><trkpt lat="46.0117926" lon="11.9272659"><ele>244.0</ele><time>2026-05-04T14:10:31.4Z</time></trkpt><trkpt lat="46.011741" lon="11.9274032"><ele>244.0</ele><time>2026-05-04T14:10:33.401Z</time></trkpt><trkpt lat="46.01168" lon="11.9275388"><ele>244.0</ele><time>2026-05-04T14:10:35.4Z</time></trkpt><trkpt lat="46.0116106" lon="11.9276696"><ele>244.0</ele><time>2026-05-04T14:10:37.403Z</time></trkpt><trkpt lat="46.0115418" lon="11.9277994"><ele>244.0</ele><time>2026-05-04T14:10:39.4Z</time></trkpt><trkpt lat="46.0114752" lon="11.9279318"><ele>243.6</ele><time>2026-05-04T14:10:41.401Z</time></trkpt><trkpt lat="46.0114109" lon="11.9280707"><ele>243.2</ele><time>2026-05-04T14:10:43.401Z</time></trkpt><trkpt lat="46.0113376" lon="11.9281927"><ele>242.79999999999998</ele><time>2026-05-04T14:10:45.402Z</time></trkpt><trkpt lat="46.0112689" lon="11.928316"><ele>242.39999999999998</ele><time>2026-05-04T14:10:47.4Z</time></trkpt><trkpt lat="46.0112033" lon="11.9284377"><ele>242.0</ele><time>2026-05-04T14:10:49.401Z</time></trkpt><trkpt lat="46.0111411" lon="11.9285555"><ele>242.0</ele><time>2026-05-04T14:10:51.4Z</time></trkpt><trkpt lat="46.0111034" lon="11.9286766"><ele>242.0</ele><time>2026-05-04T14:10:53.401Z</time></trkpt><trkpt lat="46.01111" lon="11.9288044"><ele>242.0</ele><time>2026-05-04T14:10:55.402Z</time></trkpt><trkpt lat="46.0111377" lon="11.9289403"><ele>242.0</ele><time>2026-05-04T14:10:57.401Z</time></trkpt><trkpt lat="46.0111651" lon="11.9290787"><ele>242.0</ele><time>2026-05-04T14:10:59.4Z</time></trkpt><trkpt lat="46.0111881" lon="11.9292194"><ele>242.0</ele><time>2026-05-04T14:11:01.402Z</time></trkpt><trkpt lat="46.0112033" lon="11.9293531"><ele>242.0</ele><time>2026-05-04T14:11:03.401Z</time></trkpt><trkpt lat="46.0112063" lon="11.9294905"><ele>242.0</ele><time>2026-05-04T14:11:05.401Z</time></trkpt><trkpt lat="46.0111898" lon="11.9296244"><ele>242.0</ele><time>2026-05-04T14:11:07.402Z</time></trkpt><trkpt lat="46.011163" lon="11.9297543"><ele>242.0</ele><time>2026-05-04T14:11:09.401Z</time></trkpt><trkpt lat="46.0111319" lon="11.9298757"><ele>242.0</ele><time>2026-05-04T14:11:11.402Z</time></trkpt><trkpt lat="46.011095" lon="11.9300036"><ele>242.0</ele><time>2026-05-04T14:11:13.402Z</time></trkpt><trkpt lat="46.0110527" lon="11.9301213"><ele>242.0</ele><time>2026-05-04T14:11:15.399Z</time></trkpt><trkpt lat="46.0110123" lon="11.9302396"><ele>242.0</ele><time>2026-05-04T14:11:17.4Z</time></trkpt><trkpt lat="46.0109769" lon="11.9303663"><ele>242.0</ele><time>2026-05-04T14:11:19.4Z</time></trkpt><trkpt lat="46.0109554" lon="11.9304967"><ele>242.39999999999998</ele><time>2026-05-04T14:11:21.405Z</time></trkpt><trkpt lat="46.010937" lon="11.9306285"><ele>242.79999999999998</ele><time>2026-05-04T14:11:23.4Z</time></trkpt><trkpt lat="46.0109154" lon="11.9307619"><ele>243.2</ele><time>2026-05-04T14:11:25.401Z</time></trkpt><trkpt lat="46.0108973" lon="11.9308955"><ele>243.6</ele><time>2026-05-04T14:11:27.401Z</time></trkpt><trkpt lat="46.0108814" lon="11.9310228"><ele>244.0</ele><time>2026-05-04T14:11:29.401Z</time></trkpt><trkpt lat="46.0108627" lon="11.9311526"><ele>244.79999999999998</ele><time>2026-05-04T14:11:31.401Z</time></trkpt><trkpt lat="46.0108389" lon="11.9312863"><ele>245.59999999999997</ele><time>2026-05-04T14:11:33.402Z</time></trkpt><trkpt lat="46.0108143" lon="11.9314157"><ele>246.4</ele><time>2026-05-04T14:11:35.4Z</time></trkpt><trkpt lat="46.0107877" lon="11.9315442"><ele>247.2</ele><time>2026-05-04T14:11:37.401Z</time></trkpt><trkpt lat="46.0107578" lon="11.9316752"><ele>248.0</ele><time>2026-05-04T14:11:39.402Z</time></trkpt><trkpt lat="46.0107272" lon="11.9318077"><ele>246.2</ele><time>2026-05-04T14:11:41.401Z</time></trkpt><trkpt lat="46.0106987" lon="11.9319398"><ele>244.4</ele><time>2026-05-04T14:11:43.401Z</time></trkpt><trkpt lat="46.0106676" lon="11.9320703"><ele>242.59999999999997</ele><time>2026-05-04T14:11:45.402Z</time></trkpt><trkpt lat="46.0106304" lon="11.9321984"><ele>240.79999999999998</ele><time>2026-05-04T14:11:47.401Z</time></trkpt><trkpt lat="46.0105975" lon="11.9323225"><ele>239.0</ele><time>2026-05-04T14:11:49.401Z</time></trkpt><trkpt lat="46.0105736" lon="11.9324503"><ele>238.83333333333334</ele><time>2026-05-04T14:11:51.402Z</time></trkpt><trkpt lat="46.010561" lon="11.9325738"><ele>238.66666666666669</ele><time>2026-05-04T14:11:53.4Z</time></trkpt><trkpt lat="46.0105531" lon="11.9327024"><ele>238.5</ele><time>2026-05-04T14:11:55.401Z</time></trkpt><trkpt lat="46.0105405" lon="11.9328321"><ele>238.33333333333331</ele><time>2026-05-04T14:11:57.402Z</time></trkpt><trkpt lat="46.0105186" lon="11.9329574"><ele>238.16666666666666</ele><time>2026-05-04T14:11:59.401Z</time></trkpt><trkpt lat="46.0105021" lon="11.9330798"><ele>238.0</ele><time>2026-05-04T14:12:01.4Z</time></trkpt><trkpt lat="46.0104853" lon="11.9332056"><ele>238.0</ele><time>2026-05-04T14:12:03.401Z</time></trkpt><trkpt lat="46.0104665" lon="11.9333433"><ele>238.0</ele><time>2026-05-04T14:12:05.401Z</time></trkpt><trkpt lat="46.0104428" lon="11.9334762"><ele>238.0</ele><time>2026-05-04T14:12:07.403Z</time></trkpt><trkpt lat="46.0104192" lon="11.9336052"><ele>238.0</ele><time>2026-05-04T14:12:09.401Z</time></trkpt><trkpt lat="46.0104035" lon="11.9337412"><ele>238.0</ele><time>2026-05-04T14:12:11.4Z</time></trkpt><trkpt lat="46.0103896" lon="11.9338791"><ele>238.2</ele><time>2026-05-04T14:12:13.401Z</time></trkpt><trkpt lat="46.0103753" lon="11.9340117"><ele>238.4</ele><time>2026-05-04T14:12:15.401Z</time></trkpt><trkpt lat="46.0103601" lon="11.9341415"><ele>238.59999999999997</ele><time>2026-05-04T14:12:17.402Z</time></trkpt><trkpt lat="46.0103456" lon="11.9342773"><ele>238.79999999999998</ele><time>2026-05-04T14:12:19.401Z</time></trkpt><trkpt lat="46.0103301" lon="11.9344102"><ele>239.0</ele><time>2026-05-04T14:12:21.401Z</time></trkpt><trkpt lat="46.0103137" lon="11.934536"><ele>239.2</ele><time>2026-05-04T14:12:23.4Z</time></trkpt><trkpt lat="46.0102994" lon="11.9346664"><ele>239.39999999999998</ele><time>2026-05-04T14:12:25.402Z</time></trkpt><trkpt lat="46.0102903" lon="11.9348036"><ele>239.6</ele><time>2026-05-04T14:12:27.401Z</time></trkpt><trkpt lat="46.0102709" lon="11.9349462"><ele>239.8</ele><time>2026-05-04T14:12:29.401Z</time></trkpt><trkpt lat="46.010253" lon="11.9350917"><ele>240.0</ele><time>2026-05-04T14:12:31.401Z</time></trkpt><trkpt lat="46.0102339" lon="11.935238"><ele>240.0</ele><time>2026-05-04T14:12:33.402Z</time></trkpt><trkpt lat="46.0102194" lon="11.9353819"><ele>240.0</ele><time>2026-05-04T14:12:35.401Z</time></trkpt><trkpt lat="46.0102043" lon="11.9355234"><ele>240.0</ele><time>2026-05-04T14:12:37.402Z</time></trkpt><trkpt lat="46.0101929" lon="11.9356632"><ele>240.0</ele><time>2026-05-04T14:12:39.401Z</time></trkpt><trkpt lat="46.0101923" lon="11.9358024"><ele>240.0</ele><time>2026-05-04T14:12:41.401Z</time></trkpt><trkpt lat="46.0102005" lon="11.935934"><ele>240.5</ele><time>2026-05-04T14:12:43.403Z</time></trkpt><trkpt lat="46.0102182" lon="11.9360589"><ele>241.0</ele><time>2026-05-04T14:12:45.401Z</time></trkpt><trkpt lat="46.0102356" lon="11.9361844"><ele>241.5</ele><time>2026-05-04T14:12:47.403Z</time></trkpt><trkpt lat="46.010247" lon="11.9363121"><ele>242.0</ele><time>2026-05-04T14:12:49.4Z</time></trkpt><trkpt lat="46.0102241" lon="11.9364369"><ele>242.5</ele><time>2026-05-04T14:12:51.401Z</time></trkpt><trkpt lat="46.0101626" lon="11.9365219"><ele>243.0</ele><time>2026-05-04T14:12:53.401Z</time></trkpt><trkpt lat="46.0100858" lon="11.9365633"><ele>243.0</ele><time>2026-05-04T14:12:55.401Z</time></trkpt><trkpt lat="46.0100163" lon="11.9365553"><ele>243.0</ele><time>2026-05-04T14:12:57.401Z</time></trkpt><trkpt lat="46.0099358" lon="11.9365567"><ele>243.0</ele><time>2026-05-04T14:13:00.401Z</time></trkpt><trkpt lat="46.0098988" lon="11.9366324"><ele>243.0</ele><time>2026-05-04T14:13:02.401Z</time></trkpt><trkpt lat="46.009907" lon="11.9367361"><ele>243.0</ele><time>2026-05-04T14:13:04.401Z</time></trkpt><trkpt lat="46.0098924" lon="11.936846"><ele>243.0</ele><time>2026-05-04T14:13:06.4Z</time></trkpt><trkpt lat="46.0098232" lon="11.9369166"><ele>241.66666666666666</ele><time>2026-05-04T14:13:08.402Z</time></trkpt><trkpt lat="46.0097409" lon="11.9369588"><ele>240.33333333333331</ele><time>2026-05-04T14:13:10.403Z</time></trkpt><trkpt lat="46.009655" lon="11.9369978"><ele>239.0</ele><time>2026-05-04T14:13:12.4Z</time></trkpt><trkpt lat="46.0095702" lon="11.9370395"><ele>237.66666666666666</ele><time>2026-05-04T14:13:14.401Z</time></trkpt><trkpt lat="46.0094883" lon="11.9370821"><ele>236.33333333333331</ele><time>2026-05-04T14:13:16.402Z</time></trkpt><trkpt lat="46.009412" lon="11.9371479"><ele>235.0</ele><time>2026-05-04T14:13:18.401Z</time></trkpt><trkpt lat="46.009337" lon="11.937229"><ele>234.99999999999997</ele><time>2026-05-04T14:13:20.403Z</time></trkpt><trkpt lat="46.0092692" lon="11.9373102"><ele>235.0</ele><time>2026-05-04T14:13:22.4Z</time></trkpt><trkpt lat="46.0092044" lon="11.9373849"><ele>235.0</ele><time>2026-05-04T14:13:24.4Z</time></trkpt><trkpt lat="46.0091374" lon="11.9374639"><ele>235.0</ele><time>2026-05-04T14:13:26.401Z</time></trkpt><trkpt lat="46.0090618" lon="11.9375314"><ele>234.99999999999997</ele><time>2026-05-04T14:13:28.401Z</time></trkpt><trkpt lat="46.0089756" lon="11.9375933"><ele>235.0</ele><time>2026-05-04T14:13:30.401Z</time></trkpt><trkpt lat="46.0088943" lon="11.9376534"><ele>235.0</ele><time>2026-05-04T14:13:32.401Z</time></trkpt><trkpt lat="46.0088129" lon="11.9377069"><ele>235.0</ele><time>2026-05-04T14:13:34.401Z</time></trkpt><trkpt lat="46.0087314" lon="11.9377674"><ele>235.0</ele><time>2026-05-04T14:13:36.401Z</time></trkpt><trkpt lat="46.0086514" lon="11.9378296"><ele>235.0</ele><time>2026-05-04T14:13:38.401Z</time></trkpt><trkpt lat="46.0085784" lon="11.937917"><ele>235.0</ele><time>2026-05-04T14:13:40.401Z</time></trkpt><trkpt lat="46.0085065" lon="11.9380075"><ele>235.0</ele><time>2026-05-04T14:13:42.401Z</time></trkpt><trkpt lat="46.0084343" lon="11.9380945"><ele>235.0</ele><time>2026-05-04T14:13:44.401Z</time></trkpt><trkpt lat="46.0083685" lon="11.9381902"><ele>235.0</ele><time>2026-05-04T14:13:46.401Z</time></trkpt><trkpt lat="46.0083077" lon="11.9382856"><ele>235.0</ele><time>2026-05-04T14:13:48.402Z</time></trkpt><trkpt lat="46.0082406" lon="11.9383767"><ele>235.0</ele><time>2026-05-04T14:13:50.403Z</time></trkpt><trkpt lat="46.0081673" lon="11.9384636"><ele>235.2</ele><time>2026-05-04T14:13:52.402Z</time></trkpt><trkpt lat="46.0080922" lon="11.9385544"><ele>235.4</ele><time>2026-05-04T14:13:54.402Z</time></trkpt><trkpt lat="46.0080197" lon="11.9386414"><ele>235.60000000000002</ele><time>2026-05-04T14:13:56.401Z</time></trkpt><trkpt lat="46.0079481" lon="11.9387294"><ele>235.8</ele><time>2026-05-04T14:13:58.403Z</time></trkpt><trkpt lat="46.0078787" lon="11.9388212"><ele>236.0</ele><time>2026-05-04T14:14:00.402Z</time></trkpt><trkpt lat="46.0078041" lon="11.9389125"><ele>236.0</ele><time>2026-05-04T14:14:02.401Z</time></trkpt><trkpt lat="46.0077275" lon="11.9389917"><ele>236.00000000000003</ele><time>2026-05-04T14:14:04.401Z</time></trkpt><trkpt lat="46.0076483" lon="11.939059"><ele>236.00000000000003</ele><time>2026-05-04T14:14:06.401Z</time></trkpt><trkpt lat="46.0075704" lon="11.9391299"><ele>236.0</ele><time>2026-05-04T14:14:08.401Z</time></trkpt><trkpt lat="46.0074911" lon="11.9391998"><ele>236.0</ele><time>2026-05-04T14:14:10.401Z</time></trkpt><trkpt lat="46.0074169" lon="11.9392663"><ele>236.50000000000003</ele><time>2026-05-04T14:14:12.402Z</time></trkpt><trkpt lat="46.0073519" lon="11.9393214"><ele>237.0</ele><time>2026-05-04T14:14:14.404Z</time></trkpt><trkpt lat="46.0072878" lon="11.9393562"><ele>237.5</ele><time>2026-05-04T14:14:16.401Z</time></trkpt><trkpt lat="46.0072223" lon="11.9393371"><ele>238.0</ele><time>2026-05-04T14:14:18.405Z</time></trkpt><trkpt lat="46.0071592" lon="11.9392698"><ele>238.50000000000003</ele><time>2026-05-04T14:14:20.402Z</time></trkpt><trkpt lat="46.0070939" lon="11.9391922"><ele>239.0</ele><time>2026-05-04T14:14:22.401Z</time></trkpt><trkpt lat="46.0070335" lon="11.9391063"><ele>239.00000000000003</ele><time>2026-05-04T14:14:24.404Z</time></trkpt><trkpt lat="46.0069777" lon="11.9390098"><ele>239.0</ele><time>2026-05-04T14:14:26.402Z</time></trkpt><trkpt lat="46.006924" lon="11.9389176"><ele>239.0</ele><time>2026-05-04T14:14:28.401Z</time></trkpt><trkpt lat="46.0068605" lon="11.9388564"><ele>239.0</ele><time>2026-05-04T14:14:30.401Z</time></trkpt><trkpt lat="46.0067922" lon="11.9388596"><ele>239.00000000000003</ele><time>2026-05-04T14:14:32.404Z</time></trkpt><trkpt lat="46.0067437" lon="11.9389275"><ele>239.0</ele><time>2026-05-04T14:14:34.4Z</time></trkpt><trkpt lat="46.006728" lon="11.9390313"><ele>239.00000000000003</ele><time>2026-05-04T14:14:36.402Z</time></trkpt><trkpt lat="46.0066973" lon="11.9391339"><ele>239.0</ele><time>2026-05-04T14:14:38.401Z</time></trkpt><trkpt lat="46.0066709" lon="11.9392419"><ele>239.0</ele><time>2026-05-04T14:14:40.404Z</time></trkpt><trkpt lat="46.0066462" lon="11.9393481"><ele>239.0</ele><time>2026-05-04T14:14:42.401Z</time></trkpt><trkpt lat="46.0066207" lon="11.9394576"><ele>239.00000000000003</ele><time>2026-05-04T14:14:44.401Z</time></trkpt><trkpt lat="46.0065926" lon="11.9395708"><ele>239.0</ele><time>2026-05-04T14:14:46.401Z</time></trkpt><trkpt lat="46.0065627" lon="11.9396803"><ele>238.16666666666669</ele><time>2026-05-04T14:14:48.401Z</time></trkpt><trkpt lat="46.00654" lon="11.9397923"><ele>237.33333333333334</ele><time>2026-05-04T14:14:50.401Z</time></trkpt><trkpt lat="46.0065168" lon="11.9399107"><ele>236.5</ele><time>2026-05-04T14:14:52.402Z</time></trkpt><trkpt lat="46.0064937" lon="11.940036"><ele>235.66666666666669</ele><time>2026-05-04T14:14:54.401Z</time></trkpt><trkpt lat="46.006481" lon="11.9401595"><ele>234.83333333333334</ele><time>2026-05-04T14:14:56.401Z</time></trkpt><trkpt lat="46.0064747" lon="11.9402858"><ele>234.0</ele><time>2026-05-04T14:14:58.401Z</time></trkpt><trkpt lat="46.0064696" lon="11.9404151"><ele>234.0</ele><time>2026-05-04T14:15:00.401Z</time></trkpt><trkpt lat="46.0064719" lon="11.9405554"><ele>233.99999999999997</ele><time>2026-05-04T14:15:02.401Z</time></trkpt><trkpt lat="46.0064772" lon="11.9406916"><ele>233.99999999999997</ele><time>2026-05-04T14:15:04.401Z</time></trkpt><trkpt lat="46.0064869" lon="11.9408235"><ele>234.0</ele><time>2026-05-04T14:15:06.402Z</time></trkpt><trkpt lat="46.0065061" lon="11.9409528"><ele>234.0</ele><time>2026-05-04T14:15:08.402Z</time></trkpt><trkpt lat="46.006537" lon="11.9410742"><ele>234.0</ele><time>2026-05-04T14:15:10.401Z</time></trkpt><trkpt lat="46.0065661" lon="11.9411931"><ele>234.0</ele><time>2026-05-04T14:15:12.402Z</time></trkpt><trkpt lat="46.0065882" lon="11.9413128"><ele>234.0</ele><time>2026-05-04T14:15:14.401Z</time></trkpt><trkpt lat="46.0066072" lon="11.9414344"><ele>234.0</ele><time>2026-05-04T14:15:16.401Z</time></trkpt><trkpt lat="46.0065995" lon="11.9415621"><ele>234.0</ele><time>2026-05-04T14:15:18.401Z</time></trkpt><trkpt lat="46.0065732" lon="11.9416868"><ele>234.0</ele><time>2026-05-04T14:15:20.401Z</time></trkpt><trkpt lat="46.00654" lon="11.9418019"><ele>234.83333333333334</ele><time>2026-05-04T14:15:22.403Z</time></trkpt><trkpt lat="46.0065176" lon="11.9419241"><ele>235.66666666666669</ele><time>2026-05-04T14:15:24.401Z</time></trkpt><trkpt lat="46.0065325" lon="11.9420494"><ele>236.5</ele><time>2026-05-04T14:15:26.402Z</time></trkpt><trkpt lat="46.0065737" lon="11.9421599"><ele>237.33333333333334</ele><time>2026-05-04T14:15:28.402Z</time></trkpt><trkpt lat="46.0066195" lon="11.9422714"><ele>238.16666666666669</ele><time>2026-05-04T14:15:30.401Z</time></trkpt><trkpt lat="46.0066614" lon="11.9423898"><ele>239.0</ele><time>2026-05-04T14:15:32.401Z</time></trkpt><trkpt lat="46.0066933" lon="11.9425097"><ele>239.50000000000003</ele><time>2026-05-04T14:15:34.402Z</time></trkpt><trkpt lat="46.0067053" lon="11.942641"><ele>240.0</ele><time>2026-05-04T14:15:36.401Z</time></trkpt><trkpt lat="46.0067002" lon="11.9427653"><ele>240.5</ele><time>2026-05-04T14:15:38.401Z</time></trkpt><trkpt lat="46.0066686" lon="11.9428822"><ele>241.0</ele><time>2026-05-04T14:15:40.4Z</time></trkpt><trkpt lat="46.00664" lon="11.9429961"><ele>241.50000000000003</ele><time>2026-05-04T14:15:42.401Z</time></trkpt><trkpt lat="46.0066207" lon="11.9430964"><ele>242.0</ele><time>2026-05-04T14:15:44.401Z</time></trkpt><trkpt lat="46.0066009" lon="11.9432025"><ele>241.0</ele><time>2026-05-04T14:15:46.403Z</time></trkpt><trkpt lat="46.0066088" lon="11.9433223"><ele>239.99999999999997</ele><time>2026-05-04T14:15:48.401Z</time></trkpt><trkpt lat="46.0066145" lon="11.9434202"><ele>239.0</ele><time>2026-05-04T14:15:50.401Z</time></trkpt><trkpt lat="46.0066117" lon="11.9435285"><ele>238.0</ele><time>2026-05-04T14:15:52.402Z</time></trkpt><trkpt lat="46.0066199" lon="11.9436425"><ele>236.99999999999997</ele><time>2026-05-04T14:15:54.401Z</time></trkpt><trkpt lat="46.0066266" lon="11.9437356"><ele>236.0</ele><time>2026-05-04T14:15:56.4Z</time></trkpt><trkpt lat="46.0066237" lon="11.9438447"><ele>235.0</ele><time>2026-05-04T14:15:58.401Z</time></trkpt><trkpt lat="46.0066093" lon="11.9439885"><ele>237.83333333333331</ele><time>2026-05-04T14:16:01.401Z</time></trkpt><trkpt lat="46.0066183" lon="11.9441122"><ele>240.66666666666666</ele><time>2026-05-04T14:16:03.401Z</time></trkpt><trkpt lat="46.006625" lon="11.9442322"><ele>243.5</ele><time>2026-05-04T14:16:05.402Z</time></trkpt><trkpt lat="46.0066212" lon="11.9443576"><ele>246.33333333333331</ele><time>2026-05-04T14:16:07.403Z</time></trkpt><trkpt lat="46.0066139" lon="11.9444715"><ele>249.16666666666666</ele><time>2026-05-04T14:16:09.403Z</time></trkpt><trkpt lat="46.0066148" lon="11.9445887"><ele>252.0</ele><time>2026-05-04T14:16:11.402Z</time></trkpt><trkpt lat="46.0066128" lon="11.9446942"><ele>255.14285714285714</ele><time>2026-05-04T14:16:13.401Z</time></trkpt><trkpt lat="46.0066125" lon="11.9447951"><ele>258.2857142857143</ele><time>2026-05-04T14:16:15.4Z</time></trkpt><trkpt lat="46.0066035" lon="11.9448892"><ele>261.42857142857144</ele><time>2026-05-04T14:16:17.401Z</time></trkpt><trkpt lat="46.0065949" lon="11.9449984"><ele>264.57142857142856</ele><time>2026-05-04T14:16:20.402Z</time></trkpt><trkpt lat="46.0065797" lon="11.9450964"><ele>267.7142857142857</ele><time>2026-05-04T14:16:23.402Z</time></trkpt><trkpt lat="46.0065924" lon="11.9452096"><ele>270.8571428571429</ele><time>2026-05-04T14:16:27.401Z</time></trkpt><trkpt lat="46.0065999" lon="11.9453151"><ele>274.0</ele><time>2026-05-04T14:16:31.402Z</time></trkpt><trkpt lat="46.0066129" lon="11.9454038"><ele>272.8333333333333</ele><time>2026-05-04T14:16:34.401Z</time></trkpt><trkpt lat="46.0066416" lon="11.9455009"><ele>271.66666666666663</ele><time>2026-05-04T14:16:37.401Z</time></trkpt><trkpt lat="46.0066822" lon="11.9456046"><ele>270.5</ele><time>2026-05-04T14:16:40.403Z</time></trkpt><trkpt lat="46.0067412" lon="11.9456933"><ele>269.3333333333333</ele><time>2026-05-04T14:16:43.401Z</time></trkpt><trkpt lat="46.0067909" lon="11.9457721"><ele>268.1666666666667</ele><time>2026-05-04T14:16:46.399Z</time></trkpt><trkpt lat="46.0068418" lon="11.9458534"><ele>267.0</ele><time>2026-05-04T14:16:49.401Z</time></trkpt><trkpt lat="46.0068826" lon="11.9459226"><ele>267.0</ele><time>2026-05-04T14:16:52.401Z</time></trkpt><trkpt lat="46.0069542" lon="11.9459912"><ele>267.0</ele><time>2026-05-04T14:16:56.401Z</time></trkpt><trkpt lat="46.007031" lon="11.9460612"><ele>267.0</ele><time>2026-05-04T14:16:59.402Z</time></trkpt><trkpt lat="46.0070992" lon="11.9461338"><ele>267.0</ele><time>2026-05-04T14:17:02.401Z</time></trkpt><trkpt lat="46.0071439" lon="11.9462429"><ele>267.0</ele><time>2026-05-04T14:17:05.401Z</time></trkpt><trkpt lat="46.0072184" lon="11.9463305"><ele>267.0</ele><time>2026-05-04T14:17:08.403Z</time></trkpt><trkpt lat="46.0072874" lon="11.9463824"><ele>267.0</ele><time>2026-05-04T14:17:10.401Z</time></trkpt><trkpt lat="46.0073581" lon="11.946423"><ele>267.0</ele><time>2026-05-04T14:17:12.404Z</time></trkpt><trkpt lat="46.0074295" lon="11.9464515"><ele>267.0</ele><time>2026-05-04T14:17:14.401Z</time></trkpt><trkpt lat="46.0074923" lon="11.9464883"><ele>267.0</ele><time>2026-05-04T14:17:16.4Z</time></trkpt><trkpt lat="46.0075787" lon="11.9465226"><ele>267.0</ele><time>2026-05-04T14:17:18.401Z</time></trkpt><trkpt lat="46.0076674" lon="11.9465605"><ele>267.0</ele><time>2026-05-04T14:17:20.403Z</time></trkpt><trkpt lat="46.0077492" lon="11.9466102"><ele>264.8333333333333</ele><time>2026-05-04T14:17:22.403Z</time></trkpt><trkpt lat="46.0078397" lon="11.9466683"><ele>262.6666666666667</ele><time>2026-05-04T14:17:24.402Z</time></trkpt><trkpt lat="46.0079379" lon="11.9466868"><ele>260.5</ele><time>2026-05-04T14:17:26.401Z</time></trkpt><trkpt lat="46.0080112" lon="11.9466708"><ele>258.33333333333337</ele><time>2026-05-04T14:17:28.401Z</time></trkpt><trkpt lat="46.0081062" lon="11.9466716"><ele>256.1666666666667</ele><time>2026-05-04T14:17:31.402Z</time></trkpt><trkpt lat="46.0081842" lon="11.9466891"><ele>254.0</ele><time>2026-05-04T14:17:33.404Z</time></trkpt><trkpt lat="46.0082713" lon="11.9467219"><ele>249.79999999999998</ele><time>2026-05-04T14:17:35.401Z</time></trkpt><trkpt lat="46.0083559" lon="11.9467743"><ele>245.59999999999997</ele><time>2026-05-04T14:17:37.403Z</time></trkpt><trkpt lat="46.0084606" lon="11.9468431"><ele>241.4</ele><time>2026-05-04T14:17:39.403Z</time></trkpt><trkpt lat="46.0085747" lon="11.9468929"><ele>237.2</ele><time>2026-05-04T14:17:41.4Z</time></trkpt><trkpt lat="46.0086646" lon="11.9469624"><ele>233.0</ele><time>2026-05-04T14:17:43.401Z</time></trkpt><trkpt lat="46.0087323" lon="11.9470667"><ele>233.0</ele><time>2026-05-04T14:17:45.401Z</time></trkpt><trkpt lat="46.0087995" lon="11.9471642"><ele>233.0</ele><time>2026-05-04T14:17:47.402Z</time></trkpt><trkpt lat="46.0088897" lon="11.9472688"><ele>233.0</ele><time>2026-05-04T14:17:49.404Z</time></trkpt><trkpt lat="46.0089692" lon="11.9473757"><ele>233.0</ele><time>2026-05-04T14:17:51.4Z</time></trkpt><trkpt lat="46.0090273" lon="11.9474541"><ele>233.0</ele><time>2026-05-04T14:17:53.401Z</time></trkpt><trkpt lat="46.0090789" lon="11.9475476"><ele>233.33333333333334</ele><time>2026-05-04T14:17:55.401Z</time></trkpt><trkpt lat="46.0091218" lon="11.9476535"><ele>233.66666666666669</ele><time>2026-05-04T14:17:57.401Z</time></trkpt><trkpt lat="46.0091448" lon="11.9477593"><ele>234.0</ele><time>2026-05-04T14:17:59.402Z</time></trkpt><trkpt lat="46.0091603" lon="11.9478705"><ele>234.33333333333331</ele><time>2026-05-04T14:18:02.401Z</time></trkpt><trkpt lat="46.0091819" lon="11.9480058"><ele>234.66666666666666</ele><time>2026-05-04T14:18:05.399Z</time></trkpt><trkpt lat="46.0091952" lon="11.9481165"><ele>235.0</ele><time>2026-05-04T14:18:08.4Z</time></trkpt><trkpt lat="46.0091712" lon="11.9482114"><ele>235.16666666666666</ele><time>2026-05-04T14:18:11.401Z</time></trkpt><trkpt lat="46.0091098" lon="11.9482852"><ele>235.33333333333331</ele><time>2026-05-04T14:18:14.401Z</time></trkpt><trkpt lat="46.009044" lon="11.9483576"><ele>235.5</ele><time>2026-05-04T14:18:17.401Z</time></trkpt><trkpt lat="46.0090013" lon="11.9484272"><ele>235.66666666666669</ele><time>2026-05-04T14:18:20.399Z</time></trkpt><trkpt lat="46.0089373" lon="11.9484692"><ele>235.83333333333334</ele><time>2026-05-04T14:18:23.399Z</time></trkpt><trkpt lat="46.0088644" lon="11.9485119"><ele>236.0</ele><time>2026-05-04T14:18:26.401Z</time></trkpt><trkpt lat="46.0088028" lon="11.9486028"><ele>237.66666666666669</ele><time>2026-05-04T14:18:29.401Z</time></trkpt><trkpt lat="46.0087619" lon="11.948714"><ele>239.33333333333334</ele><time>2026-05-04T14:18:32.402Z</time></trkpt><trkpt lat="46.0087613" lon="11.948831"><ele>241.0</ele><time>2026-05-04T14:18:35.4Z</time></trkpt><trkpt lat="46.0087737" lon="11.9489373"><ele>242.66666666666669</ele><time>2026-05-04T14:18:38.401Z</time></trkpt><trkpt lat="46.0088048" lon="11.9490419"><ele>244.33333333333334</ele><time>2026-05-04T14:18:41.404Z</time></trkpt><trkpt lat="46.0088712" lon="11.9491315"><ele>246.0</ele><time>2026-05-04T14:18:44.401Z</time></trkpt><trkpt lat="46.0089525" lon="11.9491647"><ele>246.0</ele><time>2026-05-04T14:18:47.402Z</time></trkpt><trkpt lat="46.009012" lon="11.949199"><ele>246.0</ele><time>2026-05-04T14:18:49.402Z</time></trkpt><trkpt lat="46.0090747" lon="11.9492175"><ele>246.0</ele><time>2026-05-04T14:18:51.401Z</time></trkpt><trkpt lat="46.0091604" lon="11.9492602"><ele>246.0</ele><time>2026-05-04T14:18:54.402Z</time></trkpt><trkpt lat="46.0092337" lon="11.949311"><ele>246.0</ele><time>2026-05-04T14:18:57.401Z</time></trkpt><trkpt lat="46.0093069" lon="11.9493613"><ele>246.0</ele><time>2026-05-04T14:19:00.401Z</time></trkpt><trkpt lat="46.0093735" lon="11.9494108"><ele>245.33333333333334</ele><time>2026-05-04T14:19:03.401Z</time></trkpt><trkpt lat="46.0094487" lon="11.9494546"><ele>244.66666666666669</ele><time>2026-05-04T14:19:07.401Z</time></trkpt><trkpt lat="46.0095249" lon="11.9494786"><ele>244.0</ele><time>2026-05-04T14:19:10.402Z</time></trkpt><trkpt lat="46.0095885" lon="11.9495253"><ele>243.33333333333334</ele><time>2026-05-04T14:19:13.403Z</time></trkpt><trkpt lat="46.009657" lon="11.9496151"><ele>242.66666666666669</ele><time>2026-05-04T14:19:16.402Z</time></trkpt><trkpt lat="46.0097236" lon="11.9496318"><ele>242.0</ele><time>2026-05-04T14:19:18.4Z</time></trkpt><trkpt lat="46.0097885" lon="11.9496346"><ele>242.00000000000003</ele><time>2026-05-04T14:19:20.402Z</time></trkpt><trkpt lat="46.0098631" lon="11.9497011"><ele>242.0</ele><time>2026-05-04T14:19:23.399Z</time></trkpt><trkpt lat="46.0099326" lon="11.949764"><ele>242.0</ele><time>2026-05-04T14:19:26.401Z</time></trkpt><trkpt lat="46.0099871" lon="11.9498423"><ele>242.0</ele><time>2026-05-04T14:19:29.402Z</time></trkpt><trkpt lat="46.0100313" lon="11.9499217"><ele>242.00000000000003</ele><time>2026-05-04T14:19:31.401Z</time></trkpt><trkpt lat="46.010084" lon="11.9500065"><ele>242.0</ele><time>2026-05-04T14:19:33.401Z</time></trkpt><trkpt lat="46.0101295" lon="11.9500737"><ele>241.85714285714283</ele><time>2026-05-04T14:19:35.401Z</time></trkpt><trkpt lat="46.0101813" lon="11.9501448"><ele>241.7142857142857</ele><time>2026-05-04T14:19:38.401Z</time></trkpt><trkpt lat="46.0102237" lon="11.9502188"><ele>241.57142857142856</ele><time>2026-05-04T14:19:41.402Z</time></trkpt><trkpt lat="46.0102766" lon="11.9502721"><ele>241.42857142857144</ele><time>2026-05-04T14:19:44.401Z</time></trkpt><trkpt lat="46.0103414" lon="11.9503367"><ele>241.2857142857143</ele><time>2026-05-04T14:19:47.4Z</time></trkpt><trkpt lat="46.010352" lon="11.9504595"><ele>241.14285714285717</ele><time>2026-05-04T14:19:50.402Z</time></trkpt><trkpt lat="46.0103157" lon="11.9505649"><ele>241.0</ele><time>2026-05-04T14:19:53.401Z</time></trkpt><trkpt lat="46.01026" lon="11.9506409"><ele>241.0</ele><time>2026-05-04T14:19:56.4Z</time></trkpt><trkpt lat="46.0102025" lon="11.9507051"><ele>241.00000000000003</ele><time>2026-05-04T14:19:59.399Z</time></trkpt><trkpt lat="46.010144" lon="11.9507701"><ele>241.0</ele><time>2026-05-04T14:20:03.4Z</time></trkpt><trkpt lat="46.0100921" lon="11.9508276"><ele>241.0</ele><time>2026-05-04T14:20:07.401Z</time></trkpt><trkpt lat="46.0100399" lon="11.9508913"><ele>241.00000000000003</ele><time>2026-05-04T14:20:11.401Z</time></trkpt><trkpt lat="46.0099815" lon="11.9509519"><ele>241.0</ele><time>2026-05-04T14:20:14.401Z</time></trkpt><trkpt lat="46.0099252" lon="11.9510248"><ele>241.0</ele><time>2026-05-04T14:20:18.401Z</time></trkpt><trkpt lat="46.0098753" lon="11.9511243"><ele>243.85714285714286</ele><time>2026-05-04T14:20:22.402Z</time></trkpt><trkpt lat="46.0098123" lon="11.9511563"><ele>246.71428571428572</ele><time>2026-05-04T14:20:26.4Z</time></trkpt><trkpt lat="46.0097948" lon="11.9510609"><ele>249.57142857142858</ele><time>2026-05-04T14:20:30.402Z</time></trkpt><trkpt lat="46.0097846" lon="11.950942"><ele>252.42857142857144</ele><time>2026-05-04T14:20:34.402Z</time></trkpt><trkpt lat="46.0097602" lon="11.9508306"><ele>255.28571428571428</ele><time>2026-05-04T14:20:38.401Z</time></trkpt><trkpt lat="46.0097226" lon="11.9507527"><ele>258.14285714285717</ele><time>2026-05-04T14:20:41.401Z</time></trkpt><trkpt lat="46.0096831" lon="11.9506688"><ele>261.0</ele><time>2026-05-04T14:20:44.401Z</time></trkpt><trkpt lat="46.0096394" lon="11.9505825"><ele>261.0</ele><time>2026-05-04T14:20:47.401Z</time></trkpt><trkpt lat="46.0096005" lon="11.9504965"><ele>261.0</ele><time>2026-05-04T14:20:50.401Z</time></trkpt><trkpt lat="46.0095624" lon="11.9504115"><ele>261.0</ele><time>2026-05-04T14:20:53.401Z</time></trkpt><trkpt lat="46.009499" lon="11.9503514"><ele>261.0</ele><time>2026-05-04T14:20:56.403Z</time></trkpt><trkpt lat="46.0094248" lon="11.9503862"><ele>261.0</ele><time>2026-05-04T14:21:00.401Z</time></trkpt><trkpt lat="46.0094238" lon="11.950497"><ele>261.0</ele><time>2026-05-04T14:21:04.402Z</time></trkpt><trkpt lat="46.0094523" lon="11.9506081"><ele>261.0</ele><time>2026-05-04T14:21:08.401Z</time></trkpt><trkpt lat="46.009468" lon="11.9506984"><ele>261.0</ele><time>2026-05-04T14:21:11.401Z</time></trkpt><trkpt lat="46.0094723" lon="11.9508165"><ele>261.0</ele><time>2026-05-04T14:21:15.401Z</time></trkpt><trkpt lat="46.0094707" lon="11.9509082"><ele>261.0</ele><time>2026-05-04T14:21:18.4Z</time></trkpt><trkpt lat="46.0094434" lon="11.95099"><ele>261.0</ele><time>2026-05-04T14:21:21.401Z</time></trkpt><trkpt lat="46.0093759" lon="11.9510354"><ele>261.0</ele><time>2026-05-04T14:21:25.402Z</time></trkpt><trkpt lat="46.0093079" lon="11.9509665"><ele>261.0</ele><time>2026-05-04T14:21:29.401Z</time></trkpt><trkpt lat="46.009259" lon="11.9508806"><ele>261.0</ele><time>2026-05-04T14:21:32.402Z</time></trkpt><trkpt lat="46.0091999" lon="11.9507992"><ele>261.0</ele><time>2026-05-04T14:21:36.401Z</time></trkpt><trkpt lat="46.0091503" lon="11.9507429"><ele>261.0</ele><time>2026-05-04T14:21:39.401Z</time></trkpt><trkpt lat="46.0090899" lon="11.9506994"><ele>261.0</ele><time>2026-05-04T14:21:42.401Z</time></trkpt><trkpt lat="46.0090214" lon="11.9507088"><ele>261.0</ele><time>2026-05-04T14:21:45.401Z</time></trkpt><trkpt lat="46.008984" lon="11.9507861"><ele>261.0</ele><time>2026-05-04T14:21:48.402Z</time></trkpt><trkpt lat="46.0089831" lon="11.9508799"><ele>261.0</ele><time>2026-05-04T14:21:51.4Z</time></trkpt><trkpt lat="46.0089958" lon="11.9509883"><ele>267.3333333333333</ele><time>2026-05-04T14:21:54.401Z</time></trkpt><trkpt lat="46.0090169" lon="11.9510993"><ele>273.6666666666667</ele><time>2026-05-04T14:21:57.399Z</time></trkpt><trkpt lat="46.0090333" lon="11.951207"><ele>280.0</ele><time>2026-05-04T14:22:00.401Z</time></trkpt><trkpt lat="46.0090373" lon="11.9513055"><ele>286.33333333333337</ele><time>2026-05-04T14:22:03.401Z</time></trkpt><trkpt lat="46.0090365" lon="11.9514196"><ele>292.6666666666667</ele><time>2026-05-04T14:22:06.4Z</time></trkpt><trkpt lat="46.0090194" lon="11.9515322"><ele>299.0</ele><time>2026-05-04T14:22:10.4Z</time></trkpt><trkpt lat="46.0089997" lon="11.9516407"><ele>300.7142857142857</ele><time>2026-05-04T14:22:14.401Z</time></trkpt><trkpt lat="46.0089787" lon="11.9517543"><ele>302.42857142857144</ele><time>2026-05-04T14:22:18.401Z</time></trkpt><trkpt lat="46.0089624" lon="11.9518431"><ele>304.1428571428571</ele><time>2026-05-04T14:22:21.401Z</time></trkpt><trkpt lat="46.0089399" lon="11.9519529"><ele>305.8571428571429</ele><time>2026-05-04T14:22:25.401Z</time></trkpt><trkpt lat="46.0088976" lon="11.9520281"><ele>307.5714285714286</ele><time>2026-05-04T14:22:29.402Z</time></trkpt><trkpt lat="46.0088208" lon="11.9520056"><ele>309.2857142857143</ele><time>2026-05-04T14:22:33.401Z</time></trkpt><trkpt lat="46.0087598" lon="11.9519823"><ele>311.0</ele><time>2026-05-04T14:22:36.4Z</time></trkpt><trkpt lat="46.0086915" lon="11.9519395"><ele>311.0</ele><time>2026-05-04T14:22:40.401Z</time></trkpt><trkpt lat="46.0086379" lon="11.9518791"><ele>311.0</ele><time>2026-05-04T14:22:44.401Z</time></trkpt><trkpt lat="46.0086213" lon="11.9517579"><ele>311.0</ele><time>2026-05-04T14:22:48.401Z</time></trkpt><trkpt lat="46.0086221" lon="11.9516671"><ele>311.0</ele><time>2026-05-04T14:22:51.403Z</time></trkpt><trkpt lat="46.0086318" lon="11.95155"><ele>311.0</ele><time>2026-05-04T14:22:55.401Z</time></trkpt><trkpt lat="46.0086066" lon="11.9514572"><ele>311.0</ele><time>2026-05-04T14:22:58.4Z</time></trkpt><trkpt lat="46.0085555" lon="11.9513974"><ele>311.0</ele><time>2026-05-04T14:23:01.401Z</time></trkpt><trkpt lat="46.0084849" lon="11.9513564"><ele>309.2857142857143</ele><time>2026-05-04T14:23:05.401Z</time></trkpt><trkpt lat="46.0084198" lon="11.9513409"><ele>307.5714285714286</ele><time>2026-05-04T14:23:08.401Z</time></trkpt><trkpt lat="46.0083407" lon="11.9513214"><ele>305.8571428571429</ele><time>2026-05-04T14:23:12.401Z</time></trkpt><trkpt lat="46.0082614" lon="11.951329"><ele>304.1428571428571</ele><time>2026-05-04T14:23:16.4Z</time></trkpt><trkpt lat="46.0081816" lon="11.9513421"><ele>302.42857142857144</ele><time>2026-05-04T14:23:20.401Z</time></trkpt><trkpt lat="46.0081201" lon="11.9513693"><ele>300.7142857142857</ele><time>2026-05-04T14:23:23.402Z</time></trkpt><trkpt lat="46.0080748" lon="11.9514348"><ele>299.0</ele><time>2026-05-04T14:23:26.401Z</time></trkpt><trkpt lat="46.0080398" lon="11.9515102"><ele>303.83333333333337</ele><time>2026-05-04T14:23:29.401Z</time></trkpt><trkpt lat="46.0080113" lon="11.951618"><ele>308.6666666666667</ele><time>2026-05-04T14:23:33.4Z</time></trkpt><trkpt lat="46.0079797" lon="11.9517251"><ele>313.5</ele><time>2026-05-04T14:23:37.4Z</time></trkpt><trkpt lat="46.0079514" lon="11.9518167"><ele>318.3333333333333</ele><time>2026-05-04T14:23:41.402Z</time></trkpt><trkpt lat="46.0079236" lon="11.9519323"><ele>323.16666666666663</ele><time>2026-05-04T14:23:45.402Z</time></trkpt><trkpt lat="46.0078841" lon="11.9520209"><ele>328.0</ele><time>2026-05-04T14:23:49.401Z</time></trkpt><trkpt lat="46.0078581" lon="11.9521071"><ele>330.71428571428567</ele><time>2026-05-04T14:23:54.402Z</time></trkpt><trkpt lat="46.0078316" lon="11.9522114"><ele>333.42857142857144</ele><time>2026-05-04T14:23:59.402Z</time></trkpt><trkpt lat="46.0078189" lon="11.9523263"><ele>336.1428571428571</ele><time>2026-05-04T14:24:03.401Z</time></trkpt><trkpt lat="46.0078381" lon="11.9524424"><ele>338.85714285714283</ele><time>2026-05-04T14:24:07.399Z</time></trkpt><trkpt lat="46.0078627" lon="11.9525343"><ele>341.57142857142856</ele><time>2026-05-04T14:24:10.4Z</time></trkpt><trkpt lat="46.0078876" lon="11.9526209"><ele>344.2857142857143</ele><time>2026-05-04T14:24:13.401Z</time></trkpt><trkpt lat="46.0079155" lon="11.9527037"><ele>347.0</ele><time>2026-05-04T14:24:16.401Z</time></trkpt><trkpt lat="46.007945" lon="11.9527847"><ele>349.33333333333337</ele><time>2026-05-04T14:24:19.401Z</time></trkpt><trkpt lat="46.0079844" lon="11.9528822"><ele>351.6666666666667</ele><time>2026-05-04T14:24:23.401Z</time></trkpt><trkpt lat="46.0080244" lon="11.9529769"><ele>354.0</ele><time>2026-05-04T14:24:27.401Z</time></trkpt><trkpt lat="46.0080751" lon="11.9530681"><ele>356.3333333333333</ele><time>2026-05-04T14:24:31.401Z</time></trkpt><trkpt lat="46.0081067" lon="11.9531673"><ele>358.66666666666663</ele><time>2026-05-04T14:24:35.401Z</time></trkpt><trkpt lat="46.0081394" lon="11.9532572"><ele>361.0</ele><time>2026-05-04T14:24:39.401Z</time></trkpt><trkpt lat="46.0081709" lon="11.9533586"><ele>363.5714285714286</ele><time>2026-05-04T14:24:43.4Z</time></trkpt><trkpt lat="46.0081803" lon="11.9534496"><ele>366.1428571428571</ele><time>2026-05-04T14:24:47.4Z</time></trkpt><trkpt lat="46.0081593" lon="11.9535406"><ele>368.7142857142857</ele><time>2026-05-04T14:24:51.4Z</time></trkpt><trkpt lat="46.0080935" lon="11.9535805"><ele>371.28571428571433</ele><time>2026-05-04T14:24:55.403Z</time></trkpt><trkpt lat="46.0080255" lon="11.9535435"><ele>373.8571428571429</ele><time>2026-05-04T14:24:59.399Z</time></trkpt><trkpt lat="46.0079618" lon="11.9535213"><ele>376.42857142857144</ele><time>2026-05-04T14:25:03.401Z</time></trkpt><trkpt lat="46.0079138" lon="11.9536053"><ele>379.0</ele><time>2026-05-04T14:25:08.4Z</time></trkpt><trkpt lat="46.0079076" lon="11.9537179"><ele>379.0</ele><time>2026-05-04T14:25:12.4Z</time></trkpt><trkpt lat="46.0079031" lon="11.9538318"><ele>379.0</ele><time>2026-05-04T14:25:16.401Z</time></trkpt><trkpt lat="46.0078939" lon="11.9539408"><ele>379.0</ele><time>2026-05-04T14:25:20.4Z</time></trkpt><trkpt lat="46.0078909" lon="11.954051"><ele>379.0</ele><time>2026-05-04T14:25:24.401Z</time></trkpt><trkpt lat="46.0078963" lon="11.9541561"><ele>379.0</ele><time>2026-05-04T14:25:28.401Z</time></trkpt><trkpt lat="46.0078966" lon="11.9542731"><ele>379.0</ele><time>2026-05-04T14:25:32.399Z</time></trkpt><trkpt lat="46.0079028" lon="11.9543843"><ele>381.3333333333333</ele><time>2026-05-04T14:25:36.401Z</time></trkpt><trkpt lat="46.0078857" lon="11.9544877"><ele>383.66666666666663</ele><time>2026-05-04T14:25:40.4Z</time></trkpt><trkpt lat="46.0078947" lon="11.9546117"><ele>386.0</ele><time>2026-05-04T14:25:44.401Z</time></trkpt><trkpt lat="46.0078959" lon="11.9547096"><ele>388.3333333333333</ele><time>2026-05-04T14:25:48.401Z</time></trkpt><trkpt lat="46.0078942" lon="11.9548146"><ele>390.6666666666667</ele><time>2026-05-04T14:25:52.401Z</time></trkpt><trkpt lat="46.0079044" lon="11.9549083"><ele>393.0</ele><time>2026-05-04T14:25:55.401Z</time></trkpt><trkpt lat="46.0079074" lon="11.9550307"><ele>393.7142857142857</ele><time>2026-05-04T14:25:59.401Z</time></trkpt><trkpt lat="46.0079151" lon="11.9551241"><ele>394.42857142857144</ele><time>2026-05-04T14:26:02.401Z</time></trkpt><trkpt lat="46.0079246" lon="11.9552165"><ele>395.1428571428571</ele><time>2026-05-04T14:26:05.401Z</time></trkpt><trkpt lat="46.0079297" lon="11.9553308"><ele>395.8571428571429</ele><time>2026-05-04T14:26:09.4Z</time></trkpt><trkpt lat="46.0079324" lon="11.9554276"><ele>396.57142857142856</ele><time>2026-05-04T14:26:12.401Z</time></trkpt><trkpt lat="46.007936" lon="11.9555248"><ele>397.2857142857143</ele><time>2026-05-04T14:26:15.401Z</time></trkpt><trkpt lat="46.0079356" lon="11.9556406"><ele>398.0</ele><time>2026-05-04T14:26:19.399Z</time></trkpt><trkpt lat="46.0079273" lon="11.9557521"><ele>397.99999999999994</ele><time>2026-05-04T14:26:23.401Z</time></trkpt><trkpt lat="46.0079236" lon="11.9558631"><ele>398.0</ele><time>2026-05-04T14:26:27.401Z</time></trkpt><trkpt lat="46.0078724" lon="11.9559344"><ele>398.0</ele><time>2026-05-04T14:26:31.401Z</time></trkpt><trkpt lat="46.0078296" lon="11.9558601"><ele>398.0</ele><time>2026-05-04T14:26:35.401Z</time></trkpt><trkpt lat="46.0078113" lon="11.9557472"><ele>398.0</ele><time>2026-05-04T14:26:39.402Z</time></trkpt><trkpt lat="46.0077831" lon="11.9556644"><ele>397.99999999999994</ele><time>2026-05-04T14:26:42.401Z</time></trkpt><trkpt lat="46.0077526" lon="11.9555699"><ele>398.0</ele><time>2026-05-04T14:26:45.401Z</time></trkpt><trkpt lat="46.0076975" lon="11.9555105"><ele>397.99999999999994</ele><time>2026-05-04T14:26:48.401Z</time></trkpt><trkpt lat="46.0076386" lon="11.9555723"><ele>398.0</ele><time>2026-05-04T14:26:52.4Z</time></trkpt><trkpt lat="46.0076474" lon="11.9556888"><ele>398.0</ele><time>2026-05-04T14:26:56.401Z</time></trkpt><trkpt lat="46.0076603" lon="11.9557844"><ele>398.0</ele><time>2026-05-04T14:26:59.402Z</time></trkpt><trkpt lat="46.0076645" lon="11.9559004"><ele>398.0</ele><time>2026-05-04T14:27:03.401Z</time></trkpt><trkpt lat="46.0076631" lon="11.9559987"><ele>397.99999999999994</ele><time>2026-05-04T14:27:07.4Z</time></trkpt><trkpt lat="46.0076065" lon="11.956056"><ele>398.0</ele><time>2026-05-04T14:27:11.401Z</time></trkpt><trkpt lat="46.0075466" lon="11.9559978"><ele>402.57142857142856</ele><time>2026-05-04T14:27:15.401Z</time></trkpt><trkpt lat="46.0074871" lon="11.9559373"><ele>407.1428571428571</ele><time>2026-05-04T14:27:18.4Z</time></trkpt><trkpt lat="46.0074191" lon="11.9558953"><ele>411.71428571428567</ele><time>2026-05-04T14:27:21.401Z</time></trkpt><trkpt lat="46.0073532" lon="11.9559134"><ele>416.2857142857143</ele><time>2026-05-04T14:27:24.402Z</time></trkpt><trkpt lat="46.0072854" lon="11.9559475"><ele>420.8571428571429</ele><time>2026-05-04T14:27:27.402Z</time></trkpt><trkpt lat="46.0072164" lon="11.955986"><ele>425.4285714285714</ele><time>2026-05-04T14:27:31.401Z</time></trkpt><trkpt lat="46.007167" lon="11.9560472"><ele>430.0</ele><time>2026-05-04T14:27:34.402Z</time></trkpt><trkpt lat="46.0071209" lon="11.9561106"><ele>430.0</ele><time>2026-05-04T14:27:37.401Z</time></trkpt><trkpt lat="46.007086" lon="11.9561905"><ele>430.0</ele><time>2026-05-04T14:27:40.402Z</time></trkpt><trkpt lat="46.0070409" lon="11.9562853"><ele>430.0</ele><time>2026-05-04T14:27:44.4Z</time></trkpt><trkpt lat="46.0070157" lon="11.9563834"><ele>430.0</ele><time>2026-05-04T14:27:47.402Z</time></trkpt><trkpt lat="46.0070087" lon="11.9564877"><ele>430.0</ele><time>2026-05-04T14:27:50.401Z</time></trkpt><trkpt lat="46.0069896" lon="11.9565945"><ele>430.0</ele><time>2026-05-04T14:27:53.401Z</time></trkpt><trkpt lat="46.0070037" lon="11.9567093"><ele>430.0</ele><time>2026-05-04T14:27:56.403Z</time></trkpt><trkpt lat="46.0070061" lon="11.9568021"><ele>429.7142857142857</ele><time>2026-05-04T14:27:59.4Z</time></trkpt><trkpt lat="46.0069992" lon="11.9568973"><ele>429.42857142857144</ele><time>2026-05-04T14:28:02.401Z</time></trkpt><trkpt lat="46.0069686" lon="11.9569916"><ele>429.14285714285717</ele><time>2026-05-04T14:28:05.399Z</time></trkpt><trkpt lat="46.0069381" lon="11.9570896"><ele>428.8571428571429</ele><time>2026-05-04T14:28:08.401Z</time></trkpt><trkpt lat="46.0069128" lon="11.9571977"><ele>428.57142857142856</ele><time>2026-05-04T14:28:11.402Z</time></trkpt><trkpt lat="46.006897" lon="11.9573108"><ele>428.28571428571433</ele><time>2026-05-04T14:28:15.402Z</time></trkpt><trkpt lat="46.0068583" lon="11.9573952"><ele>428.0</ele><time>2026-05-04T14:28:18.4Z</time></trkpt><trkpt lat="46.0068016" lon="11.95746"><ele>428.00000000000006</ele><time>2026-05-04T14:28:22.401Z</time></trkpt><trkpt lat="46.0067418" lon="11.9574941"><ele>428.0</ele><time>2026-05-04T14:28:27.402Z</time></trkpt><trkpt lat="46.006683" lon="11.9574617"><ele>428.0</ele><time>2026-05-04T14:28:32.401Z</time></trkpt><trkpt lat="46.0066437" lon="11.95736"><ele>428.0</ele><time>2026-05-04T14:28:37.399Z</time></trkpt><trkpt lat="46.0065986" lon="11.9572596"><ele>428.0</ele><time>2026-05-04T14:28:41.4Z</time></trkpt><trkpt lat="46.0065721" lon="11.9571576"><ele>428.00000000000006</ele><time>2026-05-04T14:28:45.4Z</time></trkpt><trkpt lat="46.0065487" lon="11.9570666"><ele>428.0</ele><time>2026-05-04T14:28:48.402Z</time></trkpt><trkpt lat="46.0065076" lon="11.9569822"><ele>432.5714285714286</ele><time>2026-05-04T14:28:51.401Z</time></trkpt><trkpt lat="46.0064691" lon="11.9569012"><ele>437.1428571428571</ele><time>2026-05-04T14:28:54.402Z</time></trkpt><trkpt lat="46.0064423" lon="11.9568154"><ele>441.71428571428567</ele><time>2026-05-04T14:28:58.401Z</time></trkpt><trkpt lat="46.0064059" lon="11.9567275"><ele>446.2857142857143</ele><time>2026-05-04T14:29:02.401Z</time></trkpt><trkpt lat="46.006363" lon="11.9566292"><ele>450.85714285714283</ele><time>2026-05-04T14:29:06.4Z</time></trkpt><trkpt lat="46.0063367" lon="11.9565328"><ele>455.4285714285714</ele><time>2026-05-04T14:29:10.403Z</time></trkpt><trkpt lat="46.0063088" lon="11.9564286"><ele>459.99999999999994</ele><time>2026-05-04T14:29:14.4Z</time></trkpt><trkpt lat="46.0062865" lon="11.9563416"><ele>460.1428571428571</ele><time>2026-05-04T14:29:18.401Z</time></trkpt><trkpt lat="46.006252" lon="11.9562535"><ele>460.2857142857143</ele><time>2026-05-04T14:29:22.4Z</time></trkpt><trkpt lat="46.0062077" lon="11.9561552"><ele>460.42857142857144</ele><time>2026-05-04T14:29:26.401Z</time></trkpt><trkpt lat="46.0061655" lon="11.9560551"><ele>460.57142857142856</ele><time>2026-05-04T14:29:30.4Z</time></trkpt><trkpt lat="46.0061162" lon="11.9559754"><ele>460.7142857142858</ele><time>2026-05-04T14:29:34.4Z</time></trkpt><trkpt lat="46.0060533" lon="11.9559329"><ele>460.8571428571429</ele><time>2026-05-04T14:29:37.401Z</time></trkpt><trkpt lat="46.0059943" lon="11.95589"><ele>461.0</ele><time>2026-05-04T14:29:40.402Z</time></trkpt><trkpt lat="46.0059205" lon="11.9558327"><ele>461.0</ele><time>2026-05-04T14:29:44.401Z</time></trkpt><trkpt lat="46.0058566" lon="11.9557748"><ele>461.00000000000006</ele><time>2026-05-04T14:29:48.401Z</time></trkpt><trkpt lat="46.0057985" lon="11.955733"><ele>461.0</ele><time>2026-05-04T14:29:51.402Z</time></trkpt><trkpt lat="46.0057335" lon="11.9556759"><ele>461.0</ele><time>2026-05-04T14:29:55.401Z</time></trkpt><trkpt lat="46.0056975" lon="11.9555932"><ele>461.00000000000006</ele><time>2026-05-04T14:29:59.401Z</time></trkpt><trkpt lat="46.0056734" lon="11.9554855"><ele>461.0</ele><time>2026-05-04T14:30:04.401Z</time></trkpt><trkpt lat="46.0056538" lon="11.9553968"><ele>461.0</ele><time>2026-05-04T14:30:08.402Z</time></trkpt><trkpt lat="46.0056193" lon="11.9553129"><ele>467.3333333333333</ele><time>2026-05-04T14:30:13.403Z</time></trkpt><trkpt lat="46.0055861" lon="11.9552248"><ele>473.66666666666663</ele><time>2026-05-04T14:30:17.4Z</time></trkpt><trkpt lat="46.005565" lon="11.955135"><ele>480.0</ele><time>2026-05-04T14:30:21.403Z</time></trkpt><trkpt lat="46.0055399" lon="11.9550217"><ele>486.33333333333337</ele><time>2026-05-04T14:30:25.4Z</time></trkpt><trkpt lat="46.0055069" lon="11.9549212"><ele>492.6666666666667</ele><time>2026-05-04T14:30:30.401Z</time></trkpt><trkpt lat="46.0054608" lon="11.9548173"><ele>499.0</ele><time>2026-05-04T14:30:34.401Z</time></trkpt><trkpt lat="46.005418" lon="11.954731"><ele>499.00000000000006</ele><time>2026-05-04T14:30:37.399Z</time></trkpt><trkpt lat="46.0053804" lon="11.9546521"><ele>499.0</ele><time>2026-05-04T14:30:41.4Z</time></trkpt><trkpt lat="46.0053336" lon="11.9545537"><ele>499.0</ele><time>2026-05-04T14:30:45.402Z</time></trkpt><trkpt lat="46.00529" lon="11.95446"><ele>499.0</ele><time>2026-05-04T14:30:49.402Z</time></trkpt><trkpt lat="46.0052233" lon="11.9543849"><ele>499.00000000000006</ele><time>2026-05-04T14:30:53.398Z</time></trkpt><trkpt lat="46.0051583" lon="11.9543558"><ele>499.0</ele><time>2026-05-04T14:30:57.401Z</time></trkpt><trkpt lat="46.0050811" lon="11.9543334"><ele>499.00000000000006</ele><time>2026-05-04T14:31:01.401Z</time></trkpt><trkpt lat="46.0050267" lon="11.9542694"><ele>499.0</ele><time>2026-05-04T14:31:04.402Z</time></trkpt><trkpt lat="46.0049832" lon="11.9541781"><ele>499.0</ele><time>2026-05-04T14:31:08.402Z</time></trkpt><trkpt lat="46.0049761" lon="11.9540763"><ele>499.0</ele><time>2026-05-04T14:31:12.401Z</time></trkpt><trkpt lat="46.0049675" lon="11.9539603"><ele>499.00000000000006</ele><time>2026-05-04T14:31:16.401Z</time></trkpt><trkpt lat="46.0049656" lon="11.953858"><ele>499.0</ele><time>2026-05-04T14:31:20.399Z</time></trkpt><trkpt lat="46.0049338" lon="11.9537469"><ele>502.4285714285715</ele><time>2026-05-04T14:31:24.4Z</time></trkpt><trkpt lat="46.0049066" lon="11.9536491"><ele>505.8571428571429</ele><time>2026-05-04T14:31:27.401Z</time></trkpt><trkpt lat="46.0048883" lon="11.9535484"><ele>509.2857142857143</ele><time>2026-05-04T14:31:30.402Z</time></trkpt><trkpt lat="46.0048977" lon="11.9534472"><ele>512.7142857142858</ele><time>2026-05-04T14:31:34.403Z</time></trkpt><trkpt lat="46.0048794" lon="11.9533363"><ele>516.1428571428571</ele><time>2026-05-04T14:31:38.401Z</time></trkpt><trkpt lat="46.0048507" lon="11.953246"><ele>519.5714285714286</ele><time>2026-05-04T14:31:42.401Z</time></trkpt><trkpt lat="46.0048239" lon="11.9531624"><ele>523.0</ele><time>2026-05-04T14:31:45.401Z</time></trkpt><trkpt lat="46.0047883" lon="11.9530845"><ele>522.9999999999999</ele><time>2026-05-04T14:31:48.399Z</time></trkpt><trkpt lat="46.0047448" lon="11.9530039"><ele>523.0</ele><time>2026-05-04T14:31:52.4Z</time></trkpt><trkpt lat="46.0047192" lon="11.9529144"><ele>523.0</ele><time>2026-05-04T14:31:56.401Z</time></trkpt><trkpt lat="46.0046927" lon="11.952831"><ele>523.0</ele><time>2026-05-04T14:31:59.403Z</time></trkpt><trkpt lat="46.0046559" lon="11.9527257"><ele>523.0</ele><time>2026-05-04T14:32:03.402Z</time></trkpt><trkpt lat="46.0046367" lon="11.9526154"><ele>522.9999999999999</ele><time>2026-05-04T14:32:07.401Z</time></trkpt><trkpt lat="46.0046114" lon="11.9525036"><ele>523.0</ele><time>2026-05-04T14:32:11.401Z</time></trkpt><trkpt lat="46.0045702" lon="11.9524236"><ele>521.5714285714286</ele><time>2026-05-04T14:32:14.4Z</time></trkpt><trkpt lat="46.0045288" lon="11.952327"><ele>520.1428571428571</ele><time>2026-05-04T14:32:18.401Z</time></trkpt><trkpt lat="46.004507" lon="11.952236"><ele>518.7142857142858</ele><time>2026-05-04T14:32:21.401Z</time></trkpt><trkpt lat="46.0044877" lon="11.9521404"><ele>517.2857142857142</ele><time>2026-05-04T14:32:24.401Z</time></trkpt><trkpt lat="46.0044455" lon="11.9520727"><ele>515.8571428571429</ele><time>2026-05-04T14:32:27.401Z</time></trkpt><trkpt lat="46.0043662" lon="11.9520515"><ele>514.4285714285714</ele><time>2026-05-04T14:32:31.402Z</time></trkpt><trkpt lat="46.0042914" lon="11.9520453"><ele>513.0</ele><time>2026-05-04T14:32:35.402Z</time></trkpt><trkpt lat="46.0042961" lon="11.9519422"><ele>513.0000000000001</ele><time>2026-05-04T14:32:39.401Z</time></trkpt><trkpt lat="46.0042984" lon="11.95185"><ele>513.0</ele><time>2026-05-04T14:32:43.4Z</time></trkpt><trkpt lat="46.0042646" lon="11.9519427"><ele>513.0</ele><time>2026-05-04T14:37:47.4Z</time></trkpt><trkpt lat="46.0042193" lon="11.9520452"><ele>513.0</ele><time>2026-05-04T14:37:51.402Z</time></trkpt><trkpt lat="46.0041777" lon="11.952136"><ele>513.0</ele><time>2026-05-04T14:37:54.4Z</time></trkpt><trkpt lat="46.0041417" lon="11.9522289"><ele>513.0000000000001</ele><time>2026-05-04T14:37:58.4Z</time></trkpt><trkpt lat="46.0040951" lon="11.9523205"><ele>513.0</ele><time>2026-05-04T14:38:02.402Z</time></trkpt><trkpt lat="46.0040471" lon="11.9524069"><ele>512.2857142857143</ele><time>2026-05-04T14:38:06.4Z</time></trkpt><trkpt lat="46.0039967" lon="11.9524632"><ele>511.57142857142856</ele><time>2026-05-04T14:38:09.4Z</time></trkpt><trkpt lat="46.0039429" lon="11.9525258"><ele>510.8571428571429</ele><time>2026-05-04T14:38:12.399Z</time></trkpt><trkpt lat="46.0038953" lon="11.9526003"><ele>510.14285714285717</ele><time>2026-05-04T14:38:15.401Z</time></trkpt><trkpt lat="46.0038525" lon="11.9526873"><ele>509.42857142857144</ele><time>2026-05-04T14:38:18.4Z</time></trkpt><trkpt lat="46.0038189" lon="11.9527809"><ele>508.7142857142857</ele><time>2026-05-04T14:38:22.4Z</time></trkpt><trkpt lat="46.0038088" lon="11.9528905"><ele>508.0</ele><time>2026-05-04T14:38:26.398Z</time></trkpt><trkpt lat="46.0038214" lon="11.9529815"><ele>511.42857142857144</ele><time>2026-05-04T14:38:29.398Z</time></trkpt><trkpt lat="46.0038348" lon="11.9530762"><ele>514.8571428571429</ele><time>2026-05-04T14:38:33.401Z</time></trkpt><trkpt lat="46.0038617" lon="11.9531803"><ele>518.2857142857142</ele><time>2026-05-04T14:38:37.4Z</time></trkpt><trkpt lat="46.0038812" lon="11.953287"><ele>521.7142857142858</ele><time>2026-05-04T14:38:41.4Z</time></trkpt><trkpt lat="46.0038918" lon="11.953386"><ele>525.1428571428571</ele><time>2026-05-04T14:38:45.4Z</time></trkpt><trkpt lat="46.0038783" lon="11.953485"><ele>528.5714285714286</ele><time>2026-05-04T14:38:49.4Z</time></trkpt><trkpt lat="46.0038309" lon="11.9535867"><ele>532.0</ele><time>2026-05-04T14:38:53.4Z</time></trkpt><trkpt lat="46.0037858" lon="11.9536886"><ele>535.7142857142857</ele><time>2026-05-04T14:38:57.402Z</time></trkpt><trkpt lat="46.0037646" lon="11.9537852"><ele>539.4285714285714</ele><time>2026-05-04T14:39:01.399Z</time></trkpt><trkpt lat="46.0037663" lon="11.9538851"><ele>543.1428571428571</ele><time>2026-05-04T14:39:05.401Z</time></trkpt><trkpt lat="46.0037645" lon="11.9539785"><ele>546.8571428571429</ele><time>2026-05-04T14:39:09.4Z</time></trkpt><trkpt lat="46.0037802" lon="11.9540829"><ele>550.5714285714286</ele><time>2026-05-04T14:39:13.398Z</time></trkpt><trkpt lat="46.0037872" lon="11.95419"><ele>554.2857142857142</ele><time>2026-05-04T14:39:17.4Z</time></trkpt><trkpt lat="46.0037818" lon="11.954304"><ele>558.0</ele><time>2026-05-04T14:39:21.4Z</time></trkpt><trkpt lat="46.0037587" lon="11.9544113"><ele>560.2857142857142</ele><time>2026-05-04T14:39:25.402Z</time></trkpt><trkpt lat="46.003757" lon="11.9545125"><ele>562.5714285714286</ele><time>2026-05-04T14:39:29.401Z</time></trkpt><trkpt lat="46.0037041" lon="11.9545846"><ele>564.8571428571429</ele><time>2026-05-04T14:39:34.399Z</time></trkpt><trkpt lat="46.0036329" lon="11.9545415"><ele>567.1428571428571</ele><time>2026-05-04T14:39:39.4Z</time></trkpt><trkpt lat="46.0035798" lon="11.9544815"><ele>569.4285714285714</ele><time>2026-05-04T14:39:42.4Z</time></trkpt><trkpt lat="46.0035297" lon="11.9544013"><ele>571.7142857142857</ele><time>2026-05-04T14:39:46.4Z</time></trkpt><trkpt lat="46.0034622" lon="11.9543986"><ele>574.0</ele><time>2026-05-04T14:39:50.401Z</time></trkpt><trkpt lat="46.0034008" lon="11.954428"><ele>574.0</ele><time>2026-05-04T14:39:53.4Z</time></trkpt><trkpt lat="46.0033482" lon="11.954486"><ele>574.0</ele><time>2026-05-04T14:39:57.401Z</time></trkpt><trkpt lat="46.003347" lon="11.9545768"><ele>574.0</ele><time>2026-05-04T14:40:01.4Z</time></trkpt><trkpt lat="46.0033828" lon="11.954687"><ele>574.0</ele><time>2026-05-04T14:40:05.403Z</time></trkpt><trkpt lat="46.0034093" lon="11.9548033"><ele>574.0</ele><time>2026-05-04T14:40:09.4Z</time></trkpt><trkpt lat="46.0034608" lon="11.9548802"><ele>574.0</ele><time>2026-05-04T14:40:12.4Z</time></trkpt><trkpt lat="46.0035058" lon="11.9549468"><ele>574.0</ele><time>2026-05-04T14:40:15.4Z</time></trkpt><trkpt lat="46.0035578" lon="11.9550269"><ele>576.0</ele><time>2026-05-04T14:40:18.4Z</time></trkpt><trkpt lat="46.0036027" lon="11.955097"><ele>578.0</ele><time>2026-05-04T14:40:21.4Z</time></trkpt><trkpt lat="46.0036606" lon="11.9551596"><ele>580.0</ele><time>2026-05-04T14:40:24.4Z</time></trkpt><trkpt lat="46.0037133" lon="11.9552135"><ele>582.0</ele><time>2026-05-04T14:40:27.401Z</time></trkpt><trkpt lat="46.0037662" lon="11.9553042"><ele>584.0</ele><time>2026-05-04T14:40:31.4Z</time></trkpt><trkpt lat="46.0038014" lon="11.9553974"><ele>586.0</ele><time>2026-05-04T14:40:35.402Z</time></trkpt><trkpt lat="46.0038224" lon="11.9554989"><ele>588.0</ele><time>2026-05-04T14:40:39.4Z</time></trkpt><trkpt lat="46.0038409" lon="11.9556083"><ele>588.0</ele><time>2026-05-04T14:40:43.4Z</time></trkpt><trkpt lat="46.003855" lon="11.9557119"><ele>588.0</ele><time>2026-05-04T14:40:47.4Z</time></trkpt><trkpt lat="46.0038642" lon="11.9558169"><ele>588.0</ele><time>2026-05-04T14:40:51.4Z</time></trkpt><trkpt lat="46.0038706" lon="11.955916"><ele>588.0</ele><time>2026-05-04T14:40:55.399Z</time></trkpt><trkpt lat="46.0038626" lon="11.9560141"><ele>588.0</ele><time>2026-05-04T14:40:58.4Z</time></trkpt><trkpt lat="46.0038572" lon="11.9561069"><ele>588.0</ele><time>2026-05-04T14:41:01.401Z</time></trkpt><trkpt lat="46.0038248" lon="11.9562142"><ele>588.0</ele><time>2026-05-04T14:41:05.4Z</time></trkpt><trkpt lat="46.0038149" lon="11.9563132"><ele>588.7142857142857</ele><time>2026-05-04T14:41:08.401Z</time></trkpt><trkpt lat="46.0038041" lon="11.9564149"><ele>589.4285714285714</ele><time>2026-05-04T14:41:11.4Z</time></trkpt><trkpt lat="46.003781" lon="11.9565289"><ele>590.1428571428571</ele><time>2026-05-04T14:41:15.401Z</time></trkpt><trkpt lat="46.0037449" lon="11.956604"><ele>590.8571428571429</ele><time>2026-05-04T14:41:18.401Z</time></trkpt><trkpt lat="46.0037084" lon="11.9566827"><ele>591.5714285714286</ele><time>2026-05-04T14:41:21.401Z</time></trkpt><trkpt lat="46.0036602" lon="11.9567623"><ele>592.2857142857142</ele><time>2026-05-04T14:41:24.4Z</time></trkpt><trkpt lat="46.0036118" lon="11.9568372"><ele>593.0</ele><time>2026-05-04T14:41:28.4Z</time></trkpt><trkpt lat="46.0035563" lon="11.9568909"><ele>591.4285714285713</ele><time>2026-05-04T14:41:32.401Z</time></trkpt><trkpt lat="46.0034916" lon="11.9569278"><ele>589.8571428571429</ele><time>2026-05-04T14:41:36.401Z</time></trkpt><trkpt lat="46.0034394" lon="11.9570002"><ele>588.2857142857142</ele><time>2026-05-04T14:41:40.399Z</time></trkpt><trkpt lat="46.0033755" lon="11.9570566"><ele>586.7142857142857</ele><time>2026-05-04T14:41:44.399Z</time></trkpt><trkpt lat="46.0033178" lon="11.9571094"><ele>585.1428571428571</ele><time>2026-05-04T14:41:47.399Z</time></trkpt><trkpt lat="46.003256" lon="11.9571561"><ele>583.5714285714286</ele><time>2026-05-04T14:41:51.4Z</time></trkpt><trkpt lat="46.0031791" lon="11.9571575"><ele>582.0</ele><time>2026-05-04T14:41:55.401Z</time></trkpt><trkpt lat="46.003107" lon="11.9571385"><ele>587.1428571428571</ele><time>2026-05-04T14:41:59.399Z</time></trkpt><trkpt lat="46.0030443" lon="11.9571247"><ele>592.2857142857142</ele><time>2026-05-04T14:42:02.4Z</time></trkpt><trkpt lat="46.0029686" lon="11.9571066"><ele>597.4285714285714</ele><time>2026-05-04T14:42:06.4Z</time></trkpt><trkpt lat="46.0029099" lon="11.957068"><ele>602.5714285714286</ele><time>2026-05-04T14:42:09.401Z</time></trkpt><trkpt lat="46.0028568" lon="11.957017"><ele>607.7142857142858</ele><time>2026-05-04T14:42:13.401Z</time></trkpt><trkpt lat="46.0028135" lon="11.9569296"><ele>612.8571428571429</ele><time>2026-05-04T14:42:17.4Z</time></trkpt><trkpt lat="46.0027913" lon="11.9568334"><ele>618.0</ele><time>2026-05-04T14:42:20.401Z</time></trkpt><trkpt lat="46.0027762" lon="11.9567453"><ele>617.6666666666666</ele><time>2026-05-04T14:42:23.402Z</time></trkpt><trkpt lat="46.0027582" lon="11.9566519"><ele>617.3333333333334</ele><time>2026-05-04T14:42:27.402Z</time></trkpt><trkpt lat="46.0027418" lon="11.9565463"><ele>617.0</ele><time>2026-05-04T14:42:31.402Z</time></trkpt><trkpt lat="46.0027015" lon="11.9564534"><ele>616.6666666666667</ele><time>2026-05-04T14:42:35.401Z</time></trkpt><trkpt lat="46.0026327" lon="11.9564064"><ele>616.3333333333334</ele><time>2026-05-04T14:42:39.401Z</time></trkpt><trkpt lat="46.0025503" lon="11.9563962"><ele>616.0</ele><time>2026-05-04T14:42:43.402Z</time></trkpt><trkpt lat="46.0024748" lon="11.956409"><ele>617.1428571428571</ele><time>2026-05-04T14:42:47.401Z</time></trkpt><trkpt lat="46.0024126" lon="11.9564277"><ele>618.2857142857142</ele><time>2026-05-04T14:42:50.403Z</time></trkpt><trkpt lat="46.002343" lon="11.9564834"><ele>619.4285714285714</ele><time>2026-05-04T14:42:54.399Z</time></trkpt><trkpt lat="46.0023467" lon="11.9565884"><ele>620.5714285714286</ele><time>2026-05-04T14:43:00.4Z</time></trkpt><trkpt lat="46.002377" lon="11.9566799"><ele>621.7142857142857</ele><time>2026-05-04T14:43:04.4Z</time></trkpt><trkpt lat="46.002387" lon="11.9567937"><ele>622.8571428571429</ele><time>2026-05-04T14:43:08.402Z</time></trkpt><trkpt lat="46.0023709" lon="11.9568884"><ele>624.0</ele><time>2026-05-04T14:43:11.404Z</time></trkpt><trkpt lat="46.0023503" lon="11.9570004"><ele>626.1428571428572</ele><time>2026-05-04T14:43:14.401Z</time></trkpt><trkpt lat="46.0023411" lon="11.9571014"><ele>628.2857142857142</ele><time>2026-05-04T14:43:17.4Z</time></trkpt><trkpt lat="46.0023287" lon="11.957205"><ele>630.4285714285714</ele><time>2026-05-04T14:43:20.403Z</time></trkpt><trkpt lat="46.0023205" lon="11.9573043"><ele>632.5714285714287</ele><time>2026-05-04T14:43:23.401Z</time></trkpt><trkpt lat="46.0023084" lon="11.9574171"><ele>634.7142857142858</ele><time>2026-05-04T14:43:26.402Z</time></trkpt><trkpt lat="46.0023014" lon="11.9575369"><ele>636.8571428571429</ele><time>2026-05-04T14:43:30.4Z</time></trkpt><trkpt lat="46.0022891" lon="11.957627"><ele>639.0</ele><time>2026-05-04T14:43:33.402Z</time></trkpt><trkpt lat="46.0022742" lon="11.9577178"><ele>640.4285714285714</ele><time>2026-05-04T14:43:36.401Z</time></trkpt><trkpt lat="46.0022283" lon="11.9578182"><ele>641.8571428571429</ele><time>2026-05-04T14:43:40.402Z</time></trkpt><trkpt lat="46.0021811" lon="11.957879"><ele>643.2857142857142</ele><time>2026-05-04T14:43:43.402Z</time></trkpt><trkpt lat="46.0021191" lon="11.9579649"><ele>644.7142857142858</ele><time>2026-05-04T14:43:47.401Z</time></trkpt><trkpt lat="46.0020654" lon="11.9580219"><ele>646.1428571428571</ele><time>2026-05-04T14:43:50.402Z</time></trkpt><trkpt lat="46.0020092" lon="11.9580735"><ele>647.5714285714286</ele><time>2026-05-04T14:43:53.401Z</time></trkpt><trkpt lat="46.0019328" lon="11.9580434"><ele>649.0</ele><time>2026-05-04T14:43:57.401Z</time></trkpt><trkpt lat="46.0019133" lon="11.9579432"><ele>648.9999999999999</ele><time>2026-05-04T14:44:02.402Z</time></trkpt><trkpt lat="46.0018791" lon="11.9578653"><ele>649.0</ele><time>2026-05-04T14:44:05.401Z</time></trkpt><trkpt lat="46.0018427" lon="11.9577823"><ele>649.0</ele><time>2026-05-04T14:44:08.401Z</time></trkpt><trkpt lat="46.0018021" lon="11.9576772"><ele>649.0</ele><time>2026-05-04T14:44:13.401Z</time></trkpt><trkpt lat="46.0017996" lon="11.9575713"><ele>649.0</ele><time>2026-05-04T14:44:16.402Z</time></trkpt><trkpt lat="46.001788" lon="11.9574577"><ele>648.9999999999999</ele><time>2026-05-04T14:44:20.401Z</time></trkpt><trkpt lat="46.0017317" lon="11.957406"><ele>649.0</ele><time>2026-05-04T14:44:23.402Z</time></trkpt><trkpt lat="46.0016506" lon="11.9574262"><ele>651.0</ele><time>2026-05-04T14:44:27.403Z</time></trkpt><trkpt lat="46.0015696" lon="11.9574421"><ele>653.0</ele><time>2026-05-04T14:44:31.401Z</time></trkpt><trkpt lat="46.0014924" lon="11.9574184"><ele>655.0</ele><time>2026-05-04T14:44:35.401Z</time></trkpt><trkpt lat="46.0014219" lon="11.957403"><ele>657.0</ele><time>2026-05-04T14:44:38.401Z</time></trkpt><trkpt lat="46.0013524" lon="11.9573588"><ele>659.0</ele><time>2026-05-04T14:44:41.4Z</time></trkpt><trkpt lat="46.0012936" lon="11.9573016"><ele>661.0</ele><time>2026-05-04T14:44:44.401Z</time></trkpt><trkpt lat="46.0012331" lon="11.9572486"><ele>661.0</ele><time>2026-05-04T14:44:47.401Z</time></trkpt><trkpt lat="46.0011737" lon="11.9571992"><ele>661.0</ele><time>2026-05-04T14:44:50.402Z</time></trkpt><trkpt lat="46.0011194" lon="11.957148"><ele>661.0</ele><time>2026-05-04T14:44:53.402Z</time></trkpt><trkpt lat="46.0010605" lon="11.9570994"><ele>661.0</ele><time>2026-05-04T14:44:57.401Z</time></trkpt><trkpt lat="46.0009975" lon="11.9570849"><ele>661.0</ele><time>2026-05-04T14:45:00.4Z</time></trkpt><trkpt lat="46.0009256" lon="11.9570871"><ele>661.0</ele><time>2026-05-04T14:45:03.403Z</time></trkpt><trkpt lat="46.0008639" lon="11.9571088"><ele>661.0</ele><time>2026-05-04T14:45:06.403Z</time></trkpt><trkpt lat="46.000808" lon="11.9571799"><ele>662.7142857142857</ele><time>2026-05-04T14:45:10.401Z</time></trkpt><trkpt lat="46.0007736" lon="11.957262"><ele>664.4285714285714</ele><time>2026-05-04T14:45:14.401Z</time></trkpt><trkpt lat="46.0007868" lon="11.9573639"><ele>666.1428571428571</ele><time>2026-05-04T14:45:18.4Z</time></trkpt><trkpt lat="46.0007932" lon="11.9574794"><ele>667.8571428571429</ele><time>2026-05-04T14:45:22.401Z</time></trkpt><trkpt lat="46.0007654" lon="11.9575717"><ele>669.5714285714286</ele><time>2026-05-04T14:45:26.4Z</time></trkpt><trkpt lat="46.0007104" lon="11.9576439"><ele>671.2857142857143</ele><time>2026-05-04T14:45:30.401Z</time></trkpt><trkpt lat="46.0006447" lon="11.9576275"><ele>673.0</ele><time>2026-05-04T14:45:34.402Z</time></trkpt><trkpt lat="46.0005878" lon="11.9575824"><ele>673.0</ele><time>2026-05-04T14:45:38.401Z</time></trkpt><trkpt lat="46.0005363" lon="11.9575236"><ele>673.0</ele><time>2026-05-04T14:45:42.401Z</time></trkpt><trkpt lat="46.0004706" lon="11.9575059"><ele>673.0</ele><time>2026-05-04T14:45:46.401Z</time></trkpt><trkpt lat="46.0004302" lon="11.9575877"><ele>673.0</ele><time>2026-05-04T14:45:50.401Z</time></trkpt><trkpt lat="46.0004296" lon="11.957698"><ele>673.0</ele><time>2026-05-04T14:45:55.402Z</time></trkpt><trkpt lat="46.0003763" lon="11.9577702"><ele>673.0</ele><time>2026-05-04T14:46:00.404Z</time></trkpt><trkpt lat="46.0003603" lon="11.9576752"><ele>673.0</ele><time>2026-05-04T14:46:04.401Z</time></trkpt><trkpt lat="46.0003478" lon="11.9575646"><ele>673.0</ele><time>2026-05-04T14:46:09.401Z</time></trkpt><trkpt lat="46.0002919" lon="11.9574811"><ele>673.0</ele><time>2026-05-04T14:46:13.4Z</time></trkpt><trkpt lat="46.0002321" lon="11.9574127"><ele>673.0</ele><time>2026-05-04T14:46:16.402Z</time></trkpt><trkpt lat="46.0001671" lon="11.95737"><ele>673.0</ele><time>2026-05-04T14:46:19.403Z</time></trkpt><trkpt lat="46.0000898" lon="11.9573437"><ele>673.0</ele><time>2026-05-04T14:46:22.4Z</time></trkpt><trkpt lat="46.0000092" lon="11.957338"><ele>673.0</ele><time>2026-05-04T14:46:25.4Z</time></trkpt><trkpt lat="45.9999289" lon="11.9573467"><ele>673.0</ele><time>2026-05-04T14:46:28.402Z</time></trkpt><trkpt lat="45.9998543" lon="11.9573466"><ele>673.0</ele><time>2026-05-04T14:46:31.401Z</time></trkpt><trkpt lat="45.9997847" lon="11.9573472"><ele>673.0</ele><time>2026-05-04T14:46:33.402Z</time></trkpt><trkpt lat="45.9997086" lon="11.9573365"><ele>673.0</ele><time>2026-05-04T14:46:35.402Z</time></trkpt><trkpt lat="45.9996381" lon="11.9573017"><ele>673.0</ele><time>2026-05-04T14:46:37.401Z</time></trkpt><trkpt lat="45.9995804" lon="11.9572587"><ele>673.0</ele><time>2026-05-04T14:46:39.402Z</time></trkpt><trkpt lat="45.9995103" lon="11.9572017"><ele>673.0</ele><time>2026-05-04T14:46:42.4Z</time></trkpt><trkpt lat="45.9994276" lon="11.957158"><ele>673.0</ele><time>2026-05-04T14:46:45.4Z</time></trkpt><trkpt lat="45.9993669" lon="11.9571224"><ele>673.0</ele><time>2026-05-04T14:46:47.401Z</time></trkpt><trkpt lat="45.9992862" lon="11.9570832"><ele>673.0</ele><time>2026-05-04T14:46:50.401Z</time></trkpt><trkpt lat="45.9991996" lon="11.9570498"><ele>673.0</ele><time>2026-05-04T14:46:53.399Z</time></trkpt><trkpt lat="45.9991042" lon="11.9570367"><ele>673.0</ele><time>2026-05-04T14:46:56.401Z</time></trkpt><trkpt lat="45.9990366" lon="11.9570337"><ele>673.0</ele><time>2026-05-04T14:46:58.4Z</time></trkpt><trkpt lat="45.9989676" lon="11.9570358"><ele>674.3333333333334</ele><time>2026-05-04T14:47:00.401Z</time></trkpt><trkpt lat="45.9988952" lon="11.9570129"><ele>675.6666666666667</ele><time>2026-05-04T14:47:02.401Z</time></trkpt><trkpt lat="45.9988259" lon="11.9569677"><ele>677.0</ele><time>2026-05-04T14:47:04.401Z</time></trkpt><trkpt lat="45.9987312" lon="11.9569385"><ele>678.3333333333334</ele><time>2026-05-04T14:47:06.4Z</time></trkpt><trkpt lat="45.9986482" lon="11.9569138"><ele>679.6666666666666</ele><time>2026-05-04T14:47:08.402Z</time></trkpt><trkpt lat="45.9985731" lon="11.9568707"><ele>681.0</ele><time>2026-05-04T14:47:10.401Z</time></trkpt><trkpt lat="45.998489" lon="11.9568607"><ele>681.0</ele><time>2026-05-04T14:47:12.401Z</time></trkpt><trkpt lat="45.9984121" lon="11.9568957"><ele>681.0</ele><time>2026-05-04T14:47:14.4Z</time></trkpt><trkpt lat="45.9983518" lon="11.9569454"><ele>681.0</ele><time>2026-05-04T14:47:16.4Z</time></trkpt><trkpt lat="45.9982861" lon="11.9570133"><ele>681.0</ele><time>2026-05-04T14:47:19.401Z</time></trkpt><trkpt lat="45.998216" lon="11.9570729"><ele>681.0</ele><time>2026-05-04T14:47:22.402Z</time></trkpt><trkpt lat="45.9981338" lon="11.9571359"><ele>681.0</ele><time>2026-05-04T14:47:25.401Z</time></trkpt><trkpt lat="45.9980553" lon="11.9571956"><ele>680.3333333333334</ele><time>2026-05-04T14:47:28.401Z</time></trkpt><trkpt lat="45.9979825" lon="11.9572723"><ele>679.6666666666666</ele><time>2026-05-04T14:47:31.4Z</time></trkpt><trkpt lat="45.9979092" lon="11.9573505"><ele>679.0</ele><time>2026-05-04T14:47:34.4Z</time></trkpt><trkpt lat="45.9978423" lon="11.957429"><ele>678.3333333333333</ele><time>2026-05-04T14:47:37.4Z</time></trkpt><trkpt lat="45.9977757" lon="11.9574972"><ele>677.6666666666666</ele><time>2026-05-04T14:47:40.401Z</time></trkpt><trkpt lat="45.9977007" lon="11.9575779"><ele>677.0</ele><time>2026-05-04T14:47:43.4Z</time></trkpt><trkpt lat="45.9976396" lon="11.9576289"><ele>678.7142857142857</ele><time>2026-05-04T14:47:45.401Z</time></trkpt><trkpt lat="45.9975732" lon="11.9576711"><ele>680.4285714285714</ele><time>2026-05-04T14:47:47.401Z</time></trkpt><trkpt lat="45.9975047" lon="11.9577117"><ele>682.1428571428571</ele><time>2026-05-04T14:47:49.401Z</time></trkpt><trkpt lat="45.9974436" lon="11.9577448"><ele>683.8571428571429</ele><time>2026-05-04T14:47:51.4Z</time></trkpt><trkpt lat="45.9973827" lon="11.9577911"><ele>685.5714285714286</ele><time>2026-05-04T14:47:53.4Z</time></trkpt><trkpt lat="45.9973218" lon="11.9578508"><ele>687.2857142857142</ele><time>2026-05-04T14:47:55.4Z</time></trkpt><trkpt lat="45.9972721" lon="11.9579083"><ele>689.0</ele><time>2026-05-04T14:47:57.401Z</time></trkpt><trkpt lat="45.9972035" lon="11.9579899"><ele>689.0</ele><time>2026-05-04T14:48:00.401Z</time></trkpt><trkpt lat="45.9971269" lon="11.9580509"><ele>689.0</ele><time>2026-05-04T14:48:03.4Z</time></trkpt><trkpt lat="45.9970602" lon="11.9581215"><ele>689.0</ele><time>2026-05-04T14:48:06.401Z</time></trkpt><trkpt lat="45.9969836" lon="11.9581931"><ele>689.0</ele><time>2026-05-04T14:48:09.401Z</time></trkpt><trkpt lat="45.9969358" lon="11.9582591"><ele>689.0</ele><time>2026-05-04T14:48:11.401Z</time></trkpt><trkpt lat="45.996893" lon="11.9583359"><ele>689.0</ele><time>2026-05-04T14:48:13.401Z</time></trkpt><trkpt lat="45.9968578" lon="11.9584133"><ele>684.8333333333333</ele><time>2026-05-04T14:48:15.399Z</time></trkpt><trkpt lat="45.9968056" lon="11.9585074"><ele>680.6666666666666</ele><time>2026-05-04T14:48:18.4Z</time></trkpt><trkpt lat="45.9967546" lon="11.9586009"><ele>676.5</ele><time>2026-05-04T14:48:21.401Z</time></trkpt><trkpt lat="45.9967059" lon="11.9586964"><ele>672.3333333333334</ele><time>2026-05-04T14:48:24.401Z</time></trkpt><trkpt lat="45.9966623" lon="11.9587972"><ele>668.1666666666667</ele><time>2026-05-04T14:48:27.4Z</time></trkpt><trkpt lat="45.9966331" lon="11.9588799"><ele>664.0</ele><time>2026-05-04T14:48:29.401Z</time></trkpt><trkpt lat="45.9965903" lon="11.9589919"><ele>664.0</ele><time>2026-05-04T14:48:32.402Z</time></trkpt><trkpt lat="45.9965528" lon="11.9590894"><ele>664.0</ele><time>2026-05-04T14:48:35.401Z</time></trkpt><trkpt lat="45.9965095" lon="11.9591796"><ele>664.0</ele><time>2026-05-04T14:48:38.4Z</time></trkpt><trkpt lat="45.9964598" lon="11.9592384"><ele>664.0</ele><time>2026-05-04T14:48:40.4Z</time></trkpt><trkpt lat="45.9964108" lon="11.9593098"><ele>664.0</ele><time>2026-05-04T14:48:42.4Z</time></trkpt><trkpt lat="45.996353" lon="11.9594052"><ele>664.0</ele><time>2026-05-04T14:48:45.401Z</time></trkpt><trkpt lat="45.9962847" lon="11.9594571"><ele>668.3333333333334</ele><time>2026-05-04T14:48:48.399Z</time></trkpt><trkpt lat="45.9962178" lon="11.9594852"><ele>672.6666666666667</ele><time>2026-05-04T14:48:51.4Z</time></trkpt><trkpt lat="45.9961465" lon="11.9595049"><ele>677.0</ele><time>2026-05-04T14:48:54.4Z</time></trkpt><trkpt lat="45.996072" lon="11.9595257"><ele>681.3333333333334</ele><time>2026-05-04T14:48:57.4Z</time></trkpt><trkpt lat="45.9959973" lon="11.9595472"><ele>685.6666666666666</ele><time>2026-05-04T14:49:00.4Z</time></trkpt><trkpt lat="45.9959138" lon="11.9595919"><ele>690.0</ele><time>2026-05-04T14:49:03.401Z</time></trkpt><trkpt lat="45.9958374" lon="11.9596385"><ele>689.1666666666666</ele><time>2026-05-04T14:49:06.398Z</time></trkpt><trkpt lat="45.9957814" lon="11.9596942"><ele>688.3333333333334</ele><time>2026-05-04T14:49:10.399Z</time></trkpt><trkpt lat="45.9957506" lon="11.9597748"><ele>687.5</ele><time>2026-05-04T14:49:13.4Z</time></trkpt><trkpt lat="45.9957006" lon="11.9598775"><ele>686.6666666666667</ele><time>2026-05-04T14:49:16.4Z</time></trkpt><trkpt lat="45.9956473" lon="11.959981"><ele>685.8333333333334</ele><time>2026-05-04T14:49:19.4Z</time></trkpt><trkpt lat="45.9956148" lon="11.9600814"><ele>685.0</ele><time>2026-05-04T14:49:22.401Z</time></trkpt><trkpt lat="45.9955791" lon="11.9601819"><ele>685.0</ele><time>2026-05-04T14:49:25.401Z</time></trkpt><trkpt lat="45.9955506" lon="11.9602919"><ele>685.0</ele><time>2026-05-04T14:49:28.401Z</time></trkpt><trkpt lat="45.9955191" lon="11.9603938"><ele>685.0</ele><time>2026-05-04T14:49:31.401Z</time></trkpt><trkpt lat="45.9954895" lon="11.9604939"><ele>685.0</ele><time>2026-05-04T14:49:34.401Z</time></trkpt><trkpt lat="45.995441" lon="11.9605826"><ele>685.0</ele><time>2026-05-04T14:49:37.4Z</time></trkpt><trkpt lat="45.9953907" lon="11.9606617"><ele>685.0</ele><time>2026-05-04T14:49:40.401Z</time></trkpt><trkpt lat="45.9953443" lon="11.9607281"><ele>685.0</ele><time>2026-05-04T14:49:43.402Z</time></trkpt><trkpt lat="45.9953027" lon="11.9608224"><ele>685.0</ele><time>2026-05-04T14:49:46.401Z</time></trkpt><trkpt lat="45.9952809" lon="11.9609203"><ele>685.0</ele><time>2026-05-04T14:49:49.401Z</time></trkpt><trkpt lat="45.9952688" lon="11.9610212"><ele>685.0</ele><time>2026-05-04T14:49:52.401Z</time></trkpt><trkpt lat="45.995243" lon="11.9611294"><ele>685.0</ele><time>2026-05-04T14:49:56.4Z</time></trkpt><trkpt lat="45.9952742" lon="11.9610241"><ele>685.0</ele><time>2026-05-04T14:50:55.399Z</time></trkpt><trkpt lat="45.995293" lon="11.960928"><ele>685.0</ele><time>2026-05-04T14:50:58.398Z</time></trkpt><trkpt lat="45.9953058" lon="11.9608294"><ele>685.0</ele><time>2026-05-04T14:51:01.4Z</time></trkpt><trkpt lat="45.9953421" lon="11.9607514"><ele>685.0</ele><time>2026-05-04T14:51:04.4Z</time></trkpt><trkpt lat="45.9953907" lon="11.9606876"><ele>685.0</ele><time>2026-05-04T14:51:07.399Z</time></trkpt><trkpt lat="45.995439" lon="11.9605992"><ele>685.0</ele><time>2026-05-04T14:51:10.401Z</time></trkpt><trkpt lat="45.9954837" lon="11.9604867"><ele>685.0</ele><time>2026-05-04T14:51:13.399Z</time></trkpt><trkpt lat="45.9955129" lon="11.9603951"><ele>685.0</ele><time>2026-05-04T14:51:15.399Z</time></trkpt><trkpt lat="45.9955393" lon="11.9603051"><ele>685.0</ele><time>2026-05-04T14:51:17.402Z</time></trkpt><trkpt lat="45.9955614" lon="11.9602159"><ele>685.0</ele><time>2026-05-04T14:51:19.4Z</time></trkpt><trkpt lat="45.9955946" lon="11.9600911"><ele>685.0</ele><time>2026-05-04T14:51:22.402Z</time></trkpt><trkpt lat="45.9956357" lon="11.9600096"><ele>685.0</ele><time>2026-05-04T14:51:24.398Z</time></trkpt><trkpt lat="45.9956797" lon="11.9598938"><ele>685.0</ele><time>2026-05-04T14:51:27.4Z</time></trkpt><trkpt lat="45.9957212" lon="11.9597901"><ele>685.0</ele><time>2026-05-04T14:51:30.401Z</time></trkpt><trkpt lat="45.9957819" lon="11.9597072"><ele>685.0</ele><time>2026-05-04T14:51:33.403Z</time></trkpt><trkpt lat="45.9958419" lon="11.9596412"><ele>685.8333333333334</ele><time>2026-05-04T14:51:36.401Z</time></trkpt><trkpt lat="45.9959115" lon="11.9596058"><ele>686.6666666666667</ele><time>2026-05-04T14:51:39.399Z</time></trkpt><trkpt lat="45.9959995" lon="11.9595831"><ele>687.5</ele><time>2026-05-04T14:51:42.402Z</time></trkpt><trkpt lat="45.9960931" lon="11.9595639"><ele>688.3333333333334</ele><time>2026-05-04T14:51:45.401Z</time></trkpt><trkpt lat="45.9961791" lon="11.959526"><ele>689.1666666666666</ele><time>2026-05-04T14:51:48.4Z</time></trkpt><trkpt lat="45.9962367" lon="11.9594889"><ele>690.0</ele><time>2026-05-04T14:51:50.4Z</time></trkpt><trkpt lat="45.9962962" lon="11.9594423"><ele>690.0</ele><time>2026-05-04T14:51:52.399Z</time></trkpt><trkpt lat="45.9963577" lon="11.9593913"><ele>690.0</ele><time>2026-05-04T14:51:54.402Z</time></trkpt><trkpt lat="45.9964213" lon="11.9593045"><ele>690.0</ele><time>2026-05-04T14:51:57.398Z</time></trkpt><trkpt lat="45.9964856" lon="11.9592191"><ele>690.0</ele><time>2026-05-04T14:52:00.401Z</time></trkpt><trkpt lat="45.9965374" lon="11.959144"><ele>690.0</ele><time>2026-05-04T14:52:03.401Z</time></trkpt><trkpt lat="45.9965786" lon="11.9590422"><ele>690.0</ele><time>2026-05-04T14:52:06.399Z</time></trkpt><trkpt lat="45.9966138" lon="11.9589233"><ele>689.8333333333334</ele><time>2026-05-04T14:52:09.4Z</time></trkpt><trkpt lat="45.9966543" lon="11.958807"><ele>689.6666666666666</ele><time>2026-05-04T14:52:12.401Z</time></trkpt><trkpt lat="45.996702" lon="11.9586938"><ele>689.5</ele><time>2026-05-04T14:52:15.4Z</time></trkpt><trkpt lat="45.9967523" lon="11.9585838"><ele>689.3333333333333</ele><time>2026-05-04T14:52:18.4Z</time></trkpt><trkpt lat="45.9967966" lon="11.9584807"><ele>689.1666666666666</ele><time>2026-05-04T14:52:21.401Z</time></trkpt><trkpt lat="45.9968336" lon="11.9583971"><ele>689.0</ele><time>2026-05-04T14:52:23.397Z</time></trkpt><trkpt lat="45.9968766" lon="11.9583256"><ele>689.0</ele><time>2026-05-04T14:52:25.399Z</time></trkpt><trkpt lat="45.9969374" lon="11.9582171"><ele>689.0</ele><time>2026-05-04T14:52:28.401Z</time></trkpt><trkpt lat="45.9969894" lon="11.9581558"><ele>689.0</ele><time>2026-05-04T14:52:30.398Z</time></trkpt><trkpt lat="45.9970434" lon="11.9580995"><ele>689.0</ele><time>2026-05-04T14:52:32.399Z</time></trkpt><trkpt lat="45.997096" lon="11.9580448"><ele>689.0</ele><time>2026-05-04T14:52:34.4Z</time></trkpt><trkpt lat="45.9971504" lon="11.957996"><ele>689.0</ele><time>2026-05-04T14:52:36.4Z</time></trkpt><trkpt lat="45.997204" lon="11.9579427"><ele>689.0</ele><time>2026-05-04T14:52:38.401Z</time></trkpt><trkpt lat="45.9972863" lon="11.9578653"><ele>689.0</ele><time>2026-05-04T14:52:41.401Z</time></trkpt><trkpt lat="45.9973489" lon="11.9578016"><ele>689.0</ele><time>2026-05-04T14:52:43.4Z</time></trkpt><trkpt lat="45.9974149" lon="11.95774"><ele>689.0</ele><time>2026-05-04T14:52:45.401Z</time></trkpt><trkpt lat="45.9974841" lon="11.9576916"><ele>689.0</ele><time>2026-05-04T14:52:47.4Z</time></trkpt><trkpt lat="45.9975549" lon="11.9576507"><ele>689.0</ele><time>2026-05-04T14:52:49.402Z</time></trkpt><trkpt lat="45.9976236" lon="11.9576097"><ele>689.0</ele><time>2026-05-04T14:52:51.4Z</time></trkpt><trkpt lat="45.9976788" lon="11.957564"><ele>689.0</ele><time>2026-05-04T14:52:53.401Z</time></trkpt><trkpt lat="45.9977297" lon="11.9575082"><ele>687.2857142857142</ele><time>2026-05-04T14:52:55.4Z</time></trkpt><trkpt lat="45.9977772" lon="11.9574458"><ele>685.5714285714286</ele><time>2026-05-04T14:52:57.399Z</time></trkpt><trkpt lat="45.9978187" lon="11.9573763"><ele>683.8571428571429</ele><time>2026-05-04T14:52:59.401Z</time></trkpt><trkpt lat="45.9978705" lon="11.9573159"><ele>682.1428571428571</ele><time>2026-05-04T14:53:01.4Z</time></trkpt><trkpt lat="45.9979299" lon="11.9572564"><ele>680.4285714285714</ele><time>2026-05-04T14:53:03.4Z</time></trkpt><trkpt lat="45.9979933" lon="11.9571869"><ele>678.7142857142857</ele><time>2026-05-04T14:53:06.398Z</time></trkpt><trkpt lat="45.998053" lon="11.9571503"><ele>677.0</ele><time>2026-05-04T14:53:21.4Z</time></trkpt><trkpt lat="45.9981235" lon="11.9570957"><ele>676.9999999999999</ele><time>2026-05-04T14:53:24.4Z</time></trkpt><trkpt lat="45.9981825" lon="11.9570488"><ele>677.0</ele><time>2026-05-04T14:53:26.402Z</time></trkpt><trkpt lat="45.9982406" lon="11.9569947"><ele>677.0</ele><time>2026-05-04T14:53:28.401Z</time></trkpt><trkpt lat="45.9983021" lon="11.9569531"><ele>677.0</ele><time>2026-05-04T14:53:30.4Z</time></trkpt><trkpt lat="45.998368" lon="11.9569114"><ele>677.0</ele><time>2026-05-04T14:53:32.4Z</time></trkpt><trkpt lat="45.9984436" lon="11.9568885"><ele>676.9999999999999</ele><time>2026-05-04T14:53:34.4Z</time></trkpt><trkpt lat="45.9985179" lon="11.9568839"><ele>677.0</ele><time>2026-05-04T14:53:36.401Z</time></trkpt><trkpt lat="45.9985986" lon="11.9569154"><ele>677.5714285714286</ele><time>2026-05-04T14:53:39.401Z</time></trkpt><trkpt lat="45.9986631" lon="11.9569447"><ele>678.1428571428571</ele><time>2026-05-04T14:53:42.402Z</time></trkpt><trkpt lat="45.9987365" lon="11.9569808"><ele>678.7142857142858</ele><time>2026-05-04T14:53:45.4Z</time></trkpt><trkpt lat="45.9988112" lon="11.9570032"><ele>679.2857142857142</ele><time>2026-05-04T14:53:48.402Z</time></trkpt><trkpt lat="45.9988802" lon="11.9570304"><ele>679.8571428571429</ele><time>2026-05-04T14:53:51.401Z</time></trkpt><trkpt lat="45.9989552" lon="11.9570585"><ele>680.4285714285714</ele><time>2026-05-04T14:53:55.4Z</time></trkpt><trkpt lat="45.9990198" lon="11.9570377"><ele>681.0</ele><time>2026-05-04T14:53:58.4Z</time></trkpt><trkpt lat="45.9990907" lon="11.9570237"><ele>681.0000000000001</ele><time>2026-05-04T14:54:01.398Z</time></trkpt><trkpt lat="45.9991662" lon="11.9570345"><ele>681.0</ele><time>2026-05-04T14:54:04.4Z</time></trkpt><trkpt lat="45.9992314" lon="11.9570676"><ele>681.0</ele><time>2026-05-04T14:54:07.4Z</time></trkpt><trkpt lat="45.9992939" lon="11.9571018"><ele>681.0</ele><time>2026-05-04T14:54:10.401Z</time></trkpt><trkpt lat="45.999372" lon="11.9571197"><ele>681.0</ele><time>2026-05-04T14:54:14.4Z</time></trkpt><trkpt lat="45.9994352" lon="11.9571624"><ele>681.0000000000001</ele><time>2026-05-04T14:54:18.399Z</time></trkpt><trkpt lat="45.9994924" lon="11.9572042"><ele>681.0</ele><time>2026-05-04T14:54:21.4Z</time></trkpt><trkpt lat="45.9995533" lon="11.9572821"><ele>679.8571428571429</ele><time>2026-05-04T14:54:24.4Z</time></trkpt><trkpt lat="45.9996198" lon="11.9573483"><ele>678.7142857142858</ele><time>2026-05-04T14:54:27.401Z</time></trkpt><trkpt lat="45.9996811" lon="11.9573785"><ele>677.5714285714287</ele><time>2026-05-04T14:54:30.4Z</time></trkpt><trkpt lat="45.9997564" lon="11.9573722"><ele>676.4285714285714</ele><time>2026-05-04T14:54:33.401Z</time></trkpt><trkpt lat="45.9998317" lon="11.9573624"><ele>675.2857142857142</ele><time>2026-05-04T14:54:36.4Z</time></trkpt><trkpt lat="45.9999006" lon="11.9573407"><ele>674.1428571428572</ele><time>2026-05-04T14:54:39.402Z</time></trkpt><trkpt lat="45.9999639" lon="11.957321"><ele>673.0</ele><time>2026-05-04T14:54:42.401Z</time></trkpt><trkpt lat="46.0000385" lon="11.9573146"><ele>673.0</ele><time>2026-05-04T14:54:45.401Z</time></trkpt><trkpt lat="46.0001065" lon="11.9573359"><ele>673.0</ele><time>2026-05-04T14:54:48.4Z</time></trkpt><trkpt lat="46.0001659" lon="11.9573794"><ele>673.0</ele><time>2026-05-04T14:54:51.4Z</time></trkpt><trkpt lat="46.0002232" lon="11.9574269"><ele>673.0</ele><time>2026-05-04T14:54:54.4Z</time></trkpt><trkpt lat="46.0002685" lon="11.9574991"><ele>673.0</ele><time>2026-05-04T14:54:57.402Z</time></trkpt><trkpt lat="46.0002992" lon="11.9575836"><ele>673.0</ele><time>2026-05-04T14:55:00.401Z</time></trkpt><trkpt lat="46.000321" lon="11.9576716"><ele>673.0</ele><time>2026-05-04T14:55:03.401Z</time></trkpt><trkpt lat="46.0003562" lon="11.9577788"><ele>676.2857142857143</ele><time>2026-05-04T14:55:07.398Z</time></trkpt><trkpt lat="46.0004323" lon="11.9578392"><ele>679.5714285714286</ele><time>2026-05-04T14:55:10.4Z</time></trkpt><trkpt lat="46.0004835" lon="11.9579084"><ele>682.8571428571429</ele><time>2026-05-04T14:55:13.403Z</time></trkpt><trkpt lat="46.0005216" lon="11.9580077"><ele>686.1428571428571</ele><time>2026-05-04T14:55:17.4Z</time></trkpt><trkpt lat="46.0005591" lon="11.9580818"><ele>689.4285714285714</ele><time>2026-05-04T14:55:20.4Z</time></trkpt><trkpt lat="46.0005897" lon="11.9581688"><ele>692.7142857142857</ele><time>2026-05-04T14:55:23.398Z</time></trkpt><trkpt lat="46.0006272" lon="11.9582658"><ele>696.0</ele><time>2026-05-04T14:55:26.4Z</time></trkpt><trkpt lat="46.0006558" lon="11.9583606"><ele>697.1428571428571</ele><time>2026-05-04T14:55:29.4Z</time></trkpt><trkpt lat="46.0006881" lon="11.9584484"><ele>698.2857142857143</ele><time>2026-05-04T14:55:32.4Z</time></trkpt><trkpt lat="46.0007262" lon="11.9585594"><ele>699.4285714285714</ele><time>2026-05-04T14:55:36.398Z</time></trkpt><trkpt lat="46.0007335" lon="11.958651"><ele>700.5714285714286</ele><time>2026-05-04T14:55:39.4Z</time></trkpt><trkpt lat="46.0007047" lon="11.9587521"><ele>701.7142857142857</ele><time>2026-05-04T14:55:42.4Z</time></trkpt><trkpt lat="46.0006959" lon="11.9588513"><ele>702.8571428571429</ele><time>2026-05-04T14:55:45.401Z</time></trkpt><trkpt lat="46.0006697" lon="11.9589635"><ele>704.0</ele><time>2026-05-04T14:55:49.402Z</time></trkpt><trkpt lat="46.00064" lon="11.959051"><ele>704.0</ele><time>2026-05-04T14:55:52.401Z</time></trkpt><trkpt lat="46.0006006" lon="11.9591527"><ele>704.0</ele><time>2026-05-04T14:55:56.401Z</time></trkpt><trkpt lat="46.0005891" lon="11.9592479"><ele>704.0</ele><time>2026-05-04T14:55:59.402Z</time></trkpt><trkpt lat="46.0005623" lon="11.9593503"><ele>704.0</ele><time>2026-05-04T14:56:02.401Z</time></trkpt><trkpt lat="46.0005418" lon="11.9594397"><ele>704.0</ele><time>2026-05-04T14:56:05.401Z</time></trkpt><trkpt lat="46.0005132" lon="11.9595401"><ele>704.0</ele><time>2026-05-04T14:56:08.401Z</time></trkpt><trkpt lat="46.0005017" lon="11.9596522"><ele>704.0</ele><time>2026-05-04T14:56:11.399Z</time></trkpt><trkpt lat="46.0004759" lon="11.9597745"><ele>703.0</ele><time>2026-05-04T14:56:14.4Z</time></trkpt><trkpt lat="46.0004463" lon="11.9598866"><ele>702.0</ele><time>2026-05-04T14:56:17.399Z</time></trkpt><trkpt lat="46.0004121" lon="11.9600009"><ele>701.0</ele><time>2026-05-04T14:56:20.402Z</time></trkpt><trkpt lat="46.0003568" lon="11.9600941"><ele>700.0</ele><time>2026-05-04T14:56:23.4Z</time></trkpt><trkpt lat="46.000282" lon="11.9601649"><ele>699.0</ele><time>2026-05-04T14:56:26.4Z</time></trkpt><trkpt lat="46.0002312" lon="11.9602251"><ele>698.0</ele><time>2026-05-04T14:56:28.403Z</time></trkpt><trkpt lat="46.0001964" lon="11.960316"><ele>696.0</ele><time>2026-05-04T14:56:30.402Z</time></trkpt><trkpt lat="46.0001622" lon="11.9604156"><ele>694.0</ele><time>2026-05-04T14:56:32.401Z</time></trkpt><trkpt lat="46.0001232" lon="11.9604993"><ele>692.0</ele><time>2026-05-04T14:56:34.401Z</time></trkpt><trkpt lat="46.0000812" lon="11.9605706"><ele>690.0</ele><time>2026-05-04T14:56:36.401Z</time></trkpt><trkpt lat="46.0000313" lon="11.9606259"><ele>688.0</ele><time>2026-05-04T14:56:38.401Z</time></trkpt><trkpt lat="45.9999605" lon="11.9606926"><ele>686.0</ele><time>2026-05-04T14:56:41.401Z</time></trkpt><trkpt lat="45.9998801" lon="11.9607694"><ele>686.0</ele><time>2026-05-04T14:56:44.401Z</time></trkpt><trkpt lat="45.9998236" lon="11.9608219"><ele>686.0</ele><time>2026-05-04T14:56:46.401Z</time></trkpt><trkpt lat="45.9997742" lon="11.9608789"><ele>686.0</ele><time>2026-05-04T14:56:48.402Z</time></trkpt><trkpt lat="45.9996989" lon="11.9609483"><ele>686.0</ele><time>2026-05-04T14:56:51.401Z</time></trkpt><trkpt lat="45.9996378" lon="11.9609942"><ele>686.0</ele><time>2026-05-04T14:56:53.401Z</time></trkpt><trkpt lat="45.9995811" lon="11.9610365"><ele>686.0</ele><time>2026-05-04T14:56:55.401Z</time></trkpt><trkpt lat="45.999497" lon="11.9610841"><ele>686.0</ele><time>2026-05-04T14:56:58.401Z</time></trkpt><trkpt lat="45.9994361" lon="11.9611085"><ele>686.5714285714286</ele><time>2026-05-04T14:57:00.402Z</time></trkpt><trkpt lat="45.9993513" lon="11.9611499"><ele>687.1428571428571</ele><time>2026-05-04T14:57:03.402Z</time></trkpt><trkpt lat="45.9992835" lon="11.9611775"><ele>687.7142857142858</ele><time>2026-05-04T14:57:05.402Z</time></trkpt><trkpt lat="45.999197" lon="11.9612165"><ele>688.2857142857142</ele><time>2026-05-04T14:57:08.401Z</time></trkpt><trkpt lat="45.9991366" lon="11.9612443"><ele>688.8571428571429</ele><time>2026-05-04T14:57:10.401Z</time></trkpt><trkpt lat="45.9990721" lon="11.961262"><ele>689.4285714285714</ele><time>2026-05-04T14:57:12.401Z</time></trkpt><trkpt lat="45.9990108" lon="11.9612854"><ele>690.0</ele><time>2026-05-04T14:57:14.401Z</time></trkpt><trkpt lat="45.998928" lon="11.9613149"><ele>690.0</ele><time>2026-05-04T14:57:17.401Z</time></trkpt><trkpt lat="45.9988504" lon="11.9613375"><ele>690.0</ele><time>2026-05-04T14:57:20.401Z</time></trkpt><trkpt lat="45.9987766" lon="11.961355"><ele>690.0</ele><time>2026-05-04T14:57:23.401Z</time></trkpt><trkpt lat="45.9987091" lon="11.9613543"><ele>690.0</ele><time>2026-05-04T14:57:26.398Z</time></trkpt><trkpt lat="45.9986356" lon="11.9613531"><ele>690.0</ele><time>2026-05-04T14:57:29.401Z</time></trkpt><trkpt lat="45.9985685" lon="11.96137"><ele>690.0</ele><time>2026-05-04T14:57:32.401Z</time></trkpt><trkpt lat="45.9984991" lon="11.9613999"><ele>690.0</ele><time>2026-05-04T14:57:35.398Z</time></trkpt><trkpt lat="45.9984238" lon="11.9614465"><ele>690.0</ele><time>2026-05-04T14:57:38.401Z</time></trkpt><trkpt lat="45.9983626" lon="11.9614934"><ele>690.0</ele><time>2026-05-04T14:57:41.402Z</time></trkpt><trkpt lat="45.9983101" lon="11.9615697"><ele>690.0</ele><time>2026-05-04T14:57:44.402Z</time></trkpt><trkpt lat="45.9982812" lon="11.9616649"><ele>690.0</ele><time>2026-05-04T14:57:48.402Z</time></trkpt><trkpt lat="45.9982628" lon="11.9617705"><ele>690.0</ele><time>2026-05-04T14:57:52.401Z</time></trkpt><trkpt lat="45.9982432" lon="11.9618667"><ele>690.0</ele><time>2026-05-04T14:57:55.402Z</time></trkpt><trkpt lat="45.998179" lon="11.9619375"><ele>690.0</ele><time>2026-05-04T14:57:59.401Z</time></trkpt><trkpt lat="45.9981036" lon="11.9619081"><ele>692.8571428571429</ele><time>2026-05-04T14:58:03.402Z</time></trkpt><trkpt lat="45.9980263" lon="11.9618917"><ele>695.7142857142857</ele><time>2026-05-04T14:58:07.4Z</time></trkpt><trkpt lat="45.9979619" lon="11.9618704"><ele>698.5714285714286</ele><time>2026-05-04T14:58:10.399Z</time></trkpt><trkpt lat="45.9978995" lon="11.9618313"><ele>701.4285714285714</ele><time>2026-05-04T14:58:13.401Z</time></trkpt><trkpt lat="45.9978344" lon="11.9617758"><ele>704.2857142857143</ele><time>2026-05-04T14:58:17.399Z</time></trkpt><trkpt lat="45.9977747" lon="11.9617355"><ele>707.1428571428571</ele><time>2026-05-04T14:58:20.402Z</time></trkpt><trkpt lat="45.99772" lon="11.9616841"><ele>710.0</ele><time>2026-05-04T14:58:23.4Z</time></trkpt><trkpt lat="45.9976354" lon="11.9616694"><ele>710.0</ele><time>2026-05-04T14:58:27.402Z</time></trkpt><trkpt lat="45.9975686" lon="11.9616519"><ele>710.0</ele><time>2026-05-04T14:58:30.402Z</time></trkpt><trkpt lat="45.9974999" lon="11.9616122"><ele>710.0</ele><time>2026-05-04T14:58:34.401Z</time></trkpt><trkpt lat="45.9974476" lon="11.9615557"><ele>710.0</ele><time>2026-05-04T14:58:37.401Z</time></trkpt><trkpt lat="45.9973912" lon="11.9615014"><ele>710.0</ele><time>2026-05-04T14:58:40.402Z</time></trkpt><trkpt lat="45.9973106" lon="11.961481"><ele>710.0</ele><time>2026-05-04T14:58:44.402Z</time></trkpt><trkpt lat="45.9972344" lon="11.9615173"><ele>710.0</ele><time>2026-05-04T14:58:47.401Z</time></trkpt><trkpt lat="45.9971535" lon="11.9615203"><ele>711.7142857142857</ele><time>2026-05-04T14:58:50.401Z</time></trkpt><trkpt lat="45.9970736" lon="11.9615643"><ele>713.4285714285714</ele><time>2026-05-04T14:58:53.401Z</time></trkpt><trkpt lat="45.9970052" lon="11.9615963"><ele>715.1428571428571</ele><time>2026-05-04T14:58:56.402Z</time></trkpt><trkpt lat="45.9969425" lon="11.9616263"><ele>716.8571428571429</ele><time>2026-05-04T14:58:59.401Z</time></trkpt><trkpt lat="45.9968598" lon="11.9616531"><ele>718.5714285714286</ele><time>2026-05-04T14:59:03.401Z</time></trkpt><trkpt lat="45.9967965" lon="11.9616698"><ele>720.2857142857143</ele><time>2026-05-04T14:59:06.401Z</time></trkpt><trkpt lat="45.9967247" lon="11.9616944"><ele>722.0</ele><time>2026-05-04T14:59:10.402Z</time></trkpt><trkpt lat="45.9966699" lon="11.9617571"><ele>726.2857142857143</ele><time>2026-05-04T14:59:13.401Z</time></trkpt><trkpt lat="45.9966229" lon="11.9618275"><ele>730.5714285714286</ele><time>2026-05-04T14:59:16.4Z</time></trkpt><trkpt lat="45.9965665" lon="11.9618788"><ele>734.8571428571429</ele><time>2026-05-04T14:59:19.401Z</time></trkpt><trkpt lat="45.9965233" lon="11.9619586"><ele>739.1428571428571</ele><time>2026-05-04T14:59:23.401Z</time></trkpt><trkpt lat="45.9964899" lon="11.9620414"><ele>743.4285714285713</ele><time>2026-05-04T14:59:27.402Z</time></trkpt><trkpt lat="45.9964446" lon="11.962134"><ele>747.7142857142857</ele><time>2026-05-04T14:59:32.4Z</time></trkpt><trkpt lat="45.9964145" lon="11.9622239"><ele>752.0</ele><time>2026-05-04T14:59:36.402Z</time></trkpt><trkpt lat="45.9963787" lon="11.9623576"><ele>752.0</ele><time>2026-05-04T15:01:01.402Z</time></trkpt><trkpt lat="45.9963423" lon="11.9624598"><ele>752.0</ele><time>2026-05-04T15:01:05.401Z</time></trkpt><trkpt lat="45.9963095" lon="11.9625628"><ele>752.0</ele><time>2026-05-04T15:01:09.401Z</time></trkpt><trkpt lat="45.9963046" lon="11.9626532"><ele>752.0</ele><time>2026-05-04T15:01:13.401Z</time></trkpt><trkpt lat="45.996328" lon="11.962751"><ele>752.0</ele><time>2026-05-04T15:01:17.401Z</time></trkpt><trkpt lat="45.9963475" lon="11.9628468"><ele>752.0</ele><time>2026-05-04T15:01:21.4Z</time></trkpt><trkpt lat="45.9963777" lon="11.9629376"><ele>752.0</ele><time>2026-05-04T15:01:26.403Z</time></trkpt><trkpt lat="45.9964288" lon="11.9630024"><ele>752.2857142857142</ele><time>2026-05-04T15:01:30.402Z</time></trkpt><trkpt lat="45.9964828" lon="11.9630769"><ele>752.5714285714286</ele><time>2026-05-04T15:01:34.402Z</time></trkpt><trkpt lat="45.9965388" lon="11.963142"><ele>752.8571428571429</ele><time>2026-05-04T15:01:38.401Z</time></trkpt><trkpt lat="45.9966004" lon="11.9632036"><ele>753.1428571428571</ele><time>2026-05-04T15:01:42.402Z</time></trkpt><trkpt lat="45.9966619" lon="11.9632489"><ele>753.4285714285714</ele><time>2026-05-04T15:01:46.4Z</time></trkpt><trkpt lat="45.9967162" lon="11.9633208"><ele>753.7142857142857</ele><time>2026-05-04T15:01:51.4Z</time></trkpt><trkpt lat="45.9967675" lon="11.9633808"><ele>754.0</ele><time>2026-05-04T15:01:55.401Z</time></trkpt><trkpt lat="45.9968567" lon="11.9634455"><ele>751.5714285714286</ele><time>2026-05-04T15:02:32.4Z</time></trkpt><trkpt lat="45.9969275" lon="11.9634546"><ele>749.1428571428571</ele><time>2026-05-04T15:02:36.402Z</time></trkpt><trkpt lat="45.9969981" lon="11.9634724"><ele>746.7142857142858</ele><time>2026-05-04T15:02:40.401Z</time></trkpt><trkpt lat="45.9970718" lon="11.9635135"><ele>744.2857142857142</ele><time>2026-05-04T15:02:45.402Z</time></trkpt><trkpt lat="45.9970883" lon="11.9635709"><ele>741.8571428571429</ele><time>2026-05-04T15:05:51.399Z</time></trkpt><trkpt lat="45.9970261" lon="11.9635287"><ele>739.4285714285714</ele><time>2026-05-04T15:06:02.401Z</time></trkpt><trkpt lat="45.9969571" lon="11.9635177"><ele>737.0</ele><time>2026-05-04T15:06:08.399Z</time></trkpt><trkpt lat="45.9968905" lon="11.963505"><ele>737.0000000000001</ele><time>2026-05-04T15:06:15.402Z</time></trkpt><trkpt lat="45.9968211" lon="11.9634943"><ele>737.0</ele><time>2026-05-04T15:06:21.4Z</time></trkpt><trkpt lat="45.9967764" lon="11.9634152"><ele>737.0</ele><time>2026-05-04T15:06:27.401Z</time></trkpt><trkpt lat="45.9967185" lon="11.9633574"><ele>737.0</ele><time>2026-05-04T15:06:43.4Z</time></trkpt><trkpt lat="45.9966707" lon="11.9632929"><ele>737.0</ele><time>2026-05-04T15:06:48.401Z</time></trkpt><trkpt lat="45.9965988" lon="11.9632486"><ele>737.0000000000001</ele><time>2026-05-04T15:06:52.399Z</time></trkpt><trkpt lat="45.9965407" lon="11.9631872"><ele>737.0</ele><time>2026-05-04T15:06:56.4Z</time></trkpt><trkpt lat="45.9964728" lon="11.9631224"><ele>739.5</ele><time>2026-05-04T15:07:00.401Z</time></trkpt><trkpt lat="45.9964239" lon="11.9630454"><ele>742.0</ele><time>2026-05-04T15:07:03.401Z</time></trkpt><trkpt lat="45.9963876" lon="11.9629452"><ele>744.5</ele><time>2026-05-04T15:07:06.4Z</time></trkpt><trkpt lat="45.9963606" lon="11.9628302"><ele>747.0</ele><time>2026-05-04T15:07:10.401Z</time></trkpt><trkpt lat="45.9963552" lon="11.9627324"><ele>749.5</ele><time>2026-05-04T15:07:13.4Z</time></trkpt><trkpt lat="45.9963805" lon="11.962633"><ele>752.0</ele><time>2026-05-04T15:07:17.4Z</time></trkpt><trkpt lat="45.9963747" lon="11.9625205"><ele>752.0</ele><time>2026-05-04T15:07:21.401Z</time></trkpt><trkpt lat="45.9963941" lon="11.9624112"><ele>752.0</ele><time>2026-05-04T15:07:25.401Z</time></trkpt><trkpt lat="45.996426" lon="11.9623315"><ele>752.0</ele><time>2026-05-04T15:07:28.4Z</time></trkpt><trkpt lat="45.9964574" lon="11.9622511"><ele>752.0</ele><time>2026-05-04T15:07:30.401Z</time></trkpt><trkpt lat="45.9964896" lon="11.962138"><ele>752.0</ele><time>2026-05-04T15:07:33.401Z</time></trkpt><trkpt lat="45.9965079" lon="11.9620494"><ele>752.0</ele><time>2026-05-04T15:07:36.4Z</time></trkpt><trkpt lat="45.9965606" lon="11.9619502"><ele>752.0</ele><time>2026-05-04T15:07:40.402Z</time></trkpt><trkpt lat="45.9966132" lon="11.9618904"><ele>752.0</ele><time>2026-05-04T15:07:43.404Z</time></trkpt><trkpt lat="45.9966589" lon="11.9618198"><ele>752.0</ele><time>2026-05-04T15:07:47.4Z</time></trkpt><trkpt lat="45.9966629" lon="11.9617266"><ele>752.0</ele><time>2026-05-04T15:07:55.402Z</time></trkpt><trkpt lat="45.9965912" lon="11.9617295"><ele>752.0</ele><time>2026-05-04T15:08:16.399Z</time></trkpt><trkpt lat="45.9965247" lon="11.9617445"><ele>752.0</ele><time>2026-05-04T15:08:19.401Z</time></trkpt><trkpt lat="45.996452" lon="11.9617403"><ele>752.0</ele><time>2026-05-04T15:08:22.4Z</time></trkpt><trkpt lat="45.9963836" lon="11.9617297"><ele>752.0</ele><time>2026-05-04T15:08:26.4Z</time></trkpt><trkpt lat="45.9963202" lon="11.9617021"><ele>752.0</ele><time>2026-05-04T15:08:29.402Z</time></trkpt><trkpt lat="45.9962388" lon="11.9616558"><ele>752.0</ele><time>2026-05-04T15:08:32.401Z</time></trkpt><trkpt lat="45.9961774" lon="11.9616167"><ele>752.0</ele><time>2026-05-04T15:08:35.402Z</time></trkpt><trkpt lat="45.9961201" lon="11.9615781"><ele>752.0</ele><time>2026-05-04T15:08:38.4Z</time></trkpt><trkpt lat="45.9960585" lon="11.961553"><ele>752.0</ele><time>2026-05-04T15:08:41.401Z</time></trkpt><trkpt lat="45.9959878" lon="11.9615911"><ele>752.0</ele><time>2026-05-04T15:08:45.404Z</time></trkpt><trkpt lat="45.9959385" lon="11.9616613"><ele>752.0</ele><time>2026-05-04T15:08:49.401Z</time></trkpt><trkpt lat="45.9959089" lon="11.9617538"><ele>752.0</ele><time>2026-05-04T15:08:53.4Z</time></trkpt><trkpt lat="45.9958627" lon="11.9618352"><ele>752.0</ele><time>2026-05-04T15:08:58.401Z</time></trkpt><trkpt lat="45.9958235" lon="11.9619278"><ele>752.0</ele><time>2026-05-04T15:09:02.401Z</time></trkpt><trkpt lat="45.9957977" lon="11.9620251"><ele>752.0</ele><time>2026-05-04T15:09:05.402Z</time></trkpt><trkpt lat="45.9957835" lon="11.962116"><ele>752.0</ele><time>2026-05-04T15:09:08.402Z</time></trkpt><trkpt lat="45.9957592" lon="11.9622189"><ele>752.0</ele><time>2026-05-04T15:09:12.401Z</time></trkpt><trkpt lat="45.9957207" lon="11.9623206"><ele>752.0</ele><time>2026-05-04T15:09:15.402Z</time></trkpt><trkpt lat="45.995718" lon="11.9624394"><ele>750.5</ele><time>2026-05-04T15:09:19.4Z</time></trkpt><trkpt lat="45.9957353" lon="11.9625302"><ele>749.0</ele><time>2026-05-04T15:09:22.4Z</time></trkpt><trkpt lat="45.9957485" lon="11.9626438"><ele>747.5</ele><time>2026-05-04T15:09:26.398Z</time></trkpt><trkpt lat="45.9957498" lon="11.9627569"><ele>746.0</ele><time>2026-05-04T15:09:30.404Z</time></trkpt><trkpt lat="45.9957516" lon="11.9628497"><ele>744.5</ele><time>2026-05-04T15:09:33.402Z</time></trkpt><trkpt lat="45.9957605" lon="11.9629542"><ele>743.0</ele><time>2026-05-04T15:09:36.402Z</time></trkpt><trkpt lat="45.9957299" lon="11.9630773"><ele>743.0</ele><time>2026-05-04T15:09:39.401Z</time></trkpt><trkpt lat="45.9956838" lon="11.9631538"><ele>743.0</ele><time>2026-05-04T15:09:41.402Z</time></trkpt><trkpt lat="45.9956176" lon="11.9631995"><ele>743.0</ele><time>2026-05-04T15:09:44.401Z</time></trkpt><trkpt lat="45.9955646" lon="11.9632699"><ele>743.0</ele><time>2026-05-04T15:09:48.401Z</time></trkpt><trkpt lat="45.9954928" lon="11.9633007"><ele>743.0</ele><time>2026-05-04T15:09:52.402Z</time></trkpt><trkpt lat="45.9954086" lon="11.9632948"><ele>743.0</ele><time>2026-05-04T15:09:56.401Z</time></trkpt><trkpt lat="45.9953439" lon="11.9632781"><ele>743.0</ele><time>2026-05-04T15:09:59.401Z</time></trkpt><trkpt lat="45.9952774" lon="11.9632912"><ele>743.0</ele><time>2026-05-04T15:10:02.401Z</time></trkpt><trkpt lat="45.9952008" lon="11.9633246"><ele>743.0</ele><time>2026-05-04T15:10:05.401Z</time></trkpt><trkpt lat="45.9951405" lon="11.963378"><ele>743.0</ele><time>2026-05-04T15:10:08.402Z</time></trkpt><trkpt lat="45.9950931" lon="11.9634498"><ele>743.0</ele><time>2026-05-04T15:10:12.402Z</time></trkpt><trkpt lat="45.9950475" lon="11.9635284"><ele>743.0</ele><time>2026-05-04T15:10:15.401Z</time></trkpt><trkpt lat="45.995009" lon="11.9636044"><ele>743.0</ele><time>2026-05-04T15:10:18.401Z</time></trkpt><trkpt lat="45.9949628" lon="11.9637052"><ele>743.0</ele><time>2026-05-04T15:10:22.399Z</time></trkpt><trkpt lat="45.9949163" lon="11.9637805"><ele>741.2857142857143</ele><time>2026-05-04T15:10:25.402Z</time></trkpt><trkpt lat="45.9948565" lon="11.9638582"><ele>739.5714285714286</ele><time>2026-05-04T15:10:29.402Z</time></trkpt><trkpt lat="45.9948048" lon="11.9639363"><ele>737.8571428571429</ele><time>2026-05-04T15:10:33.401Z</time></trkpt><trkpt lat="45.9947487" lon="11.9639955"><ele>736.1428571428571</ele><time>2026-05-04T15:10:37.401Z</time></trkpt><trkpt lat="45.9946846" lon="11.9640105"><ele>734.4285714285713</ele><time>2026-05-04T15:10:41.402Z</time></trkpt><trkpt lat="45.9946199" lon="11.9640169"><ele>732.7142857142857</ele><time>2026-05-04T15:10:44.401Z</time></trkpt><trkpt lat="45.9945422" lon="11.9640235"><ele>731.0</ele><time>2026-05-04T15:10:48.401Z</time></trkpt><trkpt lat="45.99447" lon="11.9640564"><ele>731.0</ele><time>2026-05-04T15:10:53.402Z</time></trkpt><trkpt lat="45.9944129" lon="11.9641351"><ele>731.0</ele><time>2026-05-04T15:10:57.402Z</time></trkpt><trkpt lat="45.9943709" lon="11.9642152"><ele>731.0</ele><time>2026-05-04T15:11:00.404Z</time></trkpt><trkpt lat="45.9943254" lon="11.9642993"><ele>731.0</ele><time>2026-05-04T15:11:03.401Z</time></trkpt><trkpt lat="45.9942899" lon="11.9643907"><ele>731.0</ele><time>2026-05-04T15:11:06.401Z</time></trkpt><trkpt lat="45.9942649" lon="11.9644745"><ele>731.0</ele><time>2026-05-04T15:11:09.402Z</time></trkpt><trkpt lat="45.9942397" lon="11.9645684"><ele>731.0</ele><time>2026-05-04T15:11:12.402Z</time></trkpt><trkpt lat="45.9942375" lon="11.9646744"><ele>728.5714285714286</ele><time>2026-05-04T15:11:16.402Z</time></trkpt><trkpt lat="45.9942814" lon="11.9647523"><ele>726.1428571428571</ele><time>2026-05-04T15:13:32.4Z</time></trkpt><trkpt lat="45.9943442" lon="11.9647978"><ele>723.7142857142858</ele><time>2026-05-04T15:13:35.398Z</time></trkpt><trkpt lat="45.9944063" lon="11.9648358"><ele>721.2857142857142</ele><time>2026-05-04T15:13:37.398Z</time></trkpt><trkpt lat="45.9944814" lon="11.9648795"><ele>718.8571428571429</ele><time>2026-05-04T15:13:39.398Z</time></trkpt><trkpt lat="45.9945473" lon="11.9649195"><ele>716.4285714285714</ele><time>2026-05-04T15:13:41.398Z</time></trkpt><trkpt lat="45.9946203" lon="11.9649667"><ele>714.0</ele><time>2026-05-04T15:13:44.404Z</time></trkpt><trkpt lat="45.994684" lon="11.9650126"><ele>711.2857142857143</ele><time>2026-05-04T15:13:47.398Z</time></trkpt><trkpt lat="45.9947336" lon="11.9650786"><ele>708.5714285714286</ele><time>2026-05-04T15:13:50.399Z</time></trkpt><trkpt lat="45.994797" lon="11.9651586"><ele>705.8571428571429</ele><time>2026-05-04T15:13:54.399Z</time></trkpt><trkpt lat="45.9948376" lon="11.9652326"><ele>703.1428571428571</ele><time>2026-05-04T15:13:57.399Z</time></trkpt><trkpt lat="45.9948473" lon="11.9653238"><ele>700.4285714285714</ele><time>2026-05-04T15:14:01.402Z</time></trkpt><trkpt lat="45.9948929" lon="11.9654121"><ele>697.7142857142858</ele><time>2026-05-04T15:14:06.401Z</time></trkpt><trkpt lat="45.9949535" lon="11.9654698"><ele>695.0</ele><time>2026-05-04T15:14:09.401Z</time></trkpt><trkpt lat="45.9950157" lon="11.9655269"><ele>693.8333333333333</ele><time>2026-05-04T15:14:12.401Z</time></trkpt><trkpt lat="45.9950657" lon="11.9655994"><ele>692.6666666666666</ele><time>2026-05-04T15:14:15.401Z</time></trkpt><trkpt lat="45.9951278" lon="11.9656739"><ele>691.5</ele><time>2026-05-04T15:14:19.401Z</time></trkpt><trkpt lat="45.9951876" lon="11.9657324"><ele>690.3333333333334</ele><time>2026-05-04T15:14:22.4Z</time></trkpt><trkpt lat="45.9952708" lon="11.9658015"><ele>689.1666666666667</ele><time>2026-05-04T15:14:25.399Z</time></trkpt><trkpt lat="45.9953378" lon="11.9658759"><ele>688.0</ele><time>2026-05-04T15:14:28.399Z</time></trkpt><trkpt lat="45.9953813" lon="11.9659484"><ele>684.0000000000001</ele><time>2026-05-04T15:14:31.4Z</time></trkpt><trkpt lat="45.99539" lon="11.9660431"><ele>680.0</ele><time>2026-05-04T15:14:34.399Z</time></trkpt><trkpt lat="45.995385" lon="11.9661527"><ele>676.0</ele><time>2026-05-04T15:14:38.4Z</time></trkpt><trkpt lat="45.995361" lon="11.9662565"><ele>672.0</ele><time>2026-05-04T15:14:41.401Z</time></trkpt><trkpt lat="45.9953332" lon="11.96637"><ele>668.0</ele><time>2026-05-04T15:14:44.4Z</time></trkpt><trkpt lat="45.9952981" lon="11.9664466"><ele>664.0000000000001</ele><time>2026-05-04T15:14:47.399Z</time></trkpt><trkpt lat="45.9952626" lon="11.9665265"><ele>660.0</ele><time>2026-05-04T15:14:51.4Z</time></trkpt><trkpt lat="45.9952233" lon="11.9666029"><ele>660.0000000000001</ele><time>2026-05-04T15:14:58.4Z</time></trkpt><trkpt lat="45.9951758" lon="11.9666903"><ele>660.0</ele><time>2026-05-04T15:15:03.4Z</time></trkpt><trkpt lat="45.9951479" lon="11.9667742"><ele>660.0</ele><time>2026-05-04T15:15:06.399Z</time></trkpt><trkpt lat="45.9951318" lon="11.9668755"><ele>660.0</ele><time>2026-05-04T15:15:10.401Z</time></trkpt><trkpt lat="45.9951031" lon="11.966965"><ele>660.0</ele><time>2026-05-04T15:15:13.402Z</time></trkpt><trkpt lat="45.9950571" lon="11.9670615"><ele>660.0000000000001</ele><time>2026-05-04T15:15:17.401Z</time></trkpt><trkpt lat="45.9950463" lon="11.9671619"><ele>660.0</ele><time>2026-05-04T15:15:21.401Z</time></trkpt><trkpt lat="45.9950208" lon="11.967259"><ele>657.5714285714287</ele><time>2026-05-04T15:15:24.401Z</time></trkpt><trkpt lat="45.9950085" lon="11.967363"><ele>655.1428571428571</ele><time>2026-05-04T15:15:27.401Z</time></trkpt><trkpt lat="45.9950063" lon="11.9674576"><ele>652.7142857142858</ele><time>2026-05-04T15:15:30.401Z</time></trkpt><trkpt lat="45.994985" lon="11.9675429"><ele>650.2857142857143</ele><time>2026-05-04T15:15:33.401Z</time></trkpt><trkpt lat="45.9949609" lon="11.9676328"><ele>647.8571428571429</ele><time>2026-05-04T15:15:36.402Z</time></trkpt><trkpt lat="45.9949386" lon="11.9677333"><ele>645.4285714285714</ele><time>2026-05-04T15:15:39.401Z</time></trkpt><trkpt lat="45.9949338" lon="11.9678424"><ele>643.0</ele><time>2026-05-04T15:15:43.4Z</time></trkpt><trkpt lat="45.9949956" lon="11.9679073"><ele>639.7142857142857</ele><time>2026-05-04T15:15:47.4Z</time></trkpt><trkpt lat="45.9950692" lon="11.9679444"><ele>636.4285714285714</ele><time>2026-05-04T15:15:51.401Z</time></trkpt><trkpt lat="45.995149" lon="11.9679631"><ele>633.1428571428571</ele><time>2026-05-04T15:15:55.4Z</time></trkpt><trkpt lat="45.9952125" lon="11.9679524"><ele>629.8571428571429</ele><time>2026-05-04T15:15:58.401Z</time></trkpt><trkpt lat="45.9952709" lon="11.9679176"><ele>626.5714285714286</ele><time>2026-05-04T15:16:02.4Z</time></trkpt><trkpt lat="45.995323" lon="11.9678474"><ele>623.2857142857143</ele><time>2026-05-04T15:16:05.402Z</time></trkpt><trkpt lat="45.9953753" lon="11.9677876"><ele>620.0</ele><time>2026-05-04T15:16:09.402Z</time></trkpt><trkpt lat="45.9954454" lon="11.9677448"><ele>620.0</ele><time>2026-05-04T15:16:13.401Z</time></trkpt><trkpt lat="45.9955105" lon="11.9677097"><ele>620.0</ele><time>2026-05-04T15:16:16.4Z</time></trkpt><trkpt lat="45.995574" lon="11.9677375"><ele>620.0</ele><time>2026-05-04T15:16:19.401Z</time></trkpt><trkpt lat="45.9956122" lon="11.9678304"><ele>620.0</ele><time>2026-05-04T15:16:24.401Z</time></trkpt><trkpt lat="45.9956677" lon="11.9679493"><ele>620.0</ele><time>2026-05-04T15:16:27.401Z</time></trkpt><trkpt lat="45.9957205" lon="11.9680483"><ele>620.0</ele><time>2026-05-04T15:16:29.401Z</time></trkpt><trkpt lat="45.9957641" lon="11.968121"><ele>620.0</ele><time>2026-05-04T15:16:31.401Z</time></trkpt><trkpt lat="45.9958159" lon="11.9681909"><ele>620.0</ele><time>2026-05-04T15:16:35.402Z</time></trkpt><trkpt lat="45.9958768" lon="11.9682189"><ele>620.0</ele><time>2026-05-04T15:16:39.401Z</time></trkpt><trkpt lat="45.9959477" lon="11.9682509"><ele>620.0</ele><time>2026-05-04T15:16:43.401Z</time></trkpt><trkpt lat="45.9960276" lon="11.9682706"><ele>620.0</ele><time>2026-05-04T15:16:47.401Z</time></trkpt><trkpt lat="45.9960954" lon="11.9682776"><ele>620.0</ele><time>2026-05-04T15:16:50.4Z</time></trkpt><trkpt lat="45.9961736" lon="11.9682769"><ele>620.0</ele><time>2026-05-04T15:16:53.401Z</time></trkpt><trkpt lat="45.996268" lon="11.9682915"><ele>617.0</ele><time>2026-05-04T15:16:56.401Z</time></trkpt><trkpt lat="45.9963592" lon="11.9683371"><ele>614.0</ele><time>2026-05-04T15:16:59.4Z</time></trkpt><trkpt lat="45.996423" lon="11.9683763"><ele>611.0</ele><time>2026-05-04T15:17:01.402Z</time></trkpt><trkpt lat="45.9965109" lon="11.9684258"><ele>608.0</ele><time>2026-05-04T15:17:04.402Z</time></trkpt><trkpt lat="45.9965742" lon="11.9684664"><ele>605.0</ele><time>2026-05-04T15:17:06.402Z</time></trkpt><trkpt lat="45.9966363" lon="11.9685115"><ele>602.0</ele><time>2026-05-04T15:17:08.401Z</time></trkpt><trkpt lat="45.996697" lon="11.9685464"><ele>596.8333333333333</ele><time>2026-05-04T15:17:10.402Z</time></trkpt><trkpt lat="45.9967696" lon="11.9685804"><ele>591.6666666666666</ele><time>2026-05-04T15:17:13.401Z</time></trkpt><trkpt lat="45.9968643" lon="11.9686015"><ele>586.5</ele><time>2026-05-04T15:17:19.4Z</time></trkpt><trkpt lat="45.9969281" lon="11.9686177"><ele>581.3333333333334</ele><time>2026-05-04T15:17:23.401Z</time></trkpt><trkpt lat="45.9969917" lon="11.9686309"><ele>576.1666666666667</ele><time>2026-05-04T15:17:26.4Z</time></trkpt><trkpt lat="45.997074" lon="11.9686276"><ele>571.0</ele><time>2026-05-04T15:17:29.4Z</time></trkpt><trkpt lat="45.9972185" lon="11.9686002"><ele>571.0</ele><time>2026-05-04T15:17:35.401Z</time></trkpt><trkpt lat="45.9972886" lon="11.968643"><ele>571.0</ele><time>2026-05-04T15:17:39.402Z</time></trkpt><trkpt lat="45.9973431" lon="11.9687188"><ele>571.0</ele><time>2026-05-04T15:17:43.402Z</time></trkpt><trkpt lat="45.9973865" lon="11.9688026"><ele>571.0</ele><time>2026-05-04T15:17:46.4Z</time></trkpt><trkpt lat="45.9974094" lon="11.9688996"><ele>571.0</ele><time>2026-05-04T15:17:49.4Z</time></trkpt><trkpt lat="45.9974017" lon="11.9689972"><ele>571.0</ele><time>2026-05-04T15:17:52.401Z</time></trkpt><trkpt lat="45.9973773" lon="11.9690944"><ele>571.0</ele><time>2026-05-04T15:17:55.401Z</time></trkpt><trkpt lat="45.997344" lon="11.9692258"><ele>568.5</ele><time>2026-05-04T15:17:58.403Z</time></trkpt><trkpt lat="45.9973062" lon="11.9693564"><ele>566.0</ele><time>2026-05-04T15:18:01.4Z</time></trkpt><trkpt lat="45.9972706" lon="11.9694382"><ele>563.5</ele><time>2026-05-04T15:18:03.401Z</time></trkpt><trkpt lat="45.9972312" lon="11.9695118"><ele>561.0</ele><time>2026-05-04T15:18:05.401Z</time></trkpt><trkpt lat="45.9971821" lon="11.9696109"><ele>558.5</ele><time>2026-05-04T15:18:08.4Z</time></trkpt><trkpt lat="45.9971291" lon="11.9697305"><ele>556.0</ele><time>2026-05-04T15:18:11.401Z</time></trkpt><trkpt lat="45.9970885" lon="11.969803"><ele>556.0</ele><time>2026-05-04T15:18:13.401Z</time></trkpt><trkpt lat="45.9970395" lon="11.9698625"><ele>556.0</ele><time>2026-05-04T15:18:15.401Z</time></trkpt><trkpt lat="45.9969887" lon="11.9699284"><ele>556.0</ele><time>2026-05-04T15:18:17.399Z</time></trkpt><trkpt lat="45.9969324" lon="11.9700068"><ele>556.0</ele><time>2026-05-04T15:18:20.4Z</time></trkpt><trkpt lat="45.9968715" lon="11.9700764"><ele>556.0</ele><time>2026-05-04T15:18:23.401Z</time></trkpt><trkpt lat="45.99681" lon="11.9701766"><ele>556.0</ele><time>2026-05-04T15:18:26.399Z</time></trkpt><trkpt lat="45.9967716" lon="11.9702535"><ele>556.0</ele><time>2026-05-04T15:18:28.399Z</time></trkpt><trkpt lat="45.9967371" lon="11.9703562"><ele>553.3333333333334</ele><time>2026-05-04T15:18:31.401Z</time></trkpt><trkpt lat="45.9967153" lon="11.9704478"><ele>550.6666666666667</ele><time>2026-05-04T15:18:34.402Z</time></trkpt><trkpt lat="45.9966522" lon="11.9704161"><ele>548.0</ele><time>2026-05-04T15:18:51.397Z</time></trkpt><trkpt lat="45.996579" lon="11.970476"><ele>545.3333333333334</ele><time>2026-05-04T15:19:06.399Z</time></trkpt><trkpt lat="45.9964858" lon="11.9704442"><ele>542.6666666666666</ele><time>2026-05-04T15:19:09.399Z</time></trkpt><trkpt lat="45.9964072" lon="11.9704305"><ele>540.0</ele><time>2026-05-04T15:19:11.399Z</time></trkpt><trkpt lat="45.9963171" lon="11.9704453"><ele>540.0</ele><time>2026-05-04T15:19:13.401Z</time></trkpt><trkpt lat="45.9962255" lon="11.9704756"><ele>540.0</ele><time>2026-05-04T15:19:15.4Z</time></trkpt><trkpt lat="45.9961416" lon="11.9705091"><ele>540.0</ele><time>2026-05-04T15:19:18.399Z</time></trkpt><trkpt lat="45.996079" lon="11.9705447"><ele>540.0</ele><time>2026-05-04T15:19:21.401Z</time></trkpt><trkpt lat="45.9960032" lon="11.9705996"><ele>540.0</ele><time>2026-05-04T15:19:25.401Z</time></trkpt><trkpt lat="45.9959347" lon="11.9706643"><ele>540.0</ele><time>2026-05-04T15:19:28.401Z</time></trkpt><trkpt lat="45.9958715" lon="11.970706"><ele>541.4285714285714</ele><time>2026-05-04T15:19:31.4Z</time></trkpt><trkpt lat="45.9957993" lon="11.9707231"><ele>542.8571428571428</ele><time>2026-05-04T15:19:36.398Z</time></trkpt><trkpt lat="45.9957341" lon="11.9707471"><ele>544.2857142857142</ele><time>2026-05-04T15:19:40.4Z</time></trkpt><trkpt lat="45.9956627" lon="11.9707593"><ele>545.7142857142857</ele><time>2026-05-04T15:19:44.401Z</time></trkpt><trkpt lat="45.9955937" lon="11.9707416"><ele>547.1428571428571</ele><time>2026-05-04T15:19:48.4Z</time></trkpt><trkpt lat="45.9955277" lon="11.9707131"><ele>548.5714285714286</ele><time>2026-05-04T15:19:52.4Z</time></trkpt><trkpt lat="45.9954615" lon="11.9707038"><ele>550.0</ele><time>2026-05-04T15:19:56.398Z</time></trkpt><trkpt lat="45.9953919" lon="11.9706935"><ele>550.0</ele><time>2026-05-04T15:20:01.4Z</time></trkpt><trkpt lat="45.995329" lon="11.9707328"><ele>550.0</ele><time>2026-05-04T15:20:06.401Z</time></trkpt><trkpt lat="45.9952659" lon="11.9707881"><ele>550.0</ele><time>2026-05-04T15:20:11.398Z</time></trkpt><trkpt lat="45.9952063" lon="11.9708323"><ele>550.0</ele><time>2026-05-04T15:20:17.4Z</time></trkpt><trkpt lat="45.99528" lon="11.9708178"><ele>550.0</ele><time>2026-05-04T15:20:49.4Z</time></trkpt><trkpt lat="45.9953367" lon="11.9707772"><ele>550.0</ele><time>2026-05-04T15:20:53.4Z</time></trkpt><trkpt lat="45.9954114" lon="11.9707867"><ele>550.0</ele><time>2026-05-04T15:20:57.401Z</time></trkpt><trkpt lat="45.9954751" lon="11.9707947"><ele>550.0</ele><time>2026-05-04T15:21:00.401Z</time></trkpt><trkpt lat="45.9955602" lon="11.9708015"><ele>550.0</ele><time>2026-05-04T15:21:04.402Z</time></trkpt><trkpt lat="45.995626" lon="11.9708128"><ele>550.0</ele><time>2026-05-04T15:21:07.401Z</time></trkpt><trkpt lat="45.9956907" lon="11.9708243"><ele>550.0</ele><time>2026-05-04T15:21:10.401Z</time></trkpt><trkpt lat="45.9957679" lon="11.9708283"><ele>550.0</ele><time>2026-05-04T15:21:14.402Z</time></trkpt><trkpt lat="45.9958425" lon="11.9708094"><ele>550.0</ele><time>2026-05-04T15:21:17.401Z</time></trkpt><trkpt lat="45.9958999" lon="11.9707709"><ele>550.0</ele><time>2026-05-04T15:21:19.4Z</time></trkpt><trkpt lat="45.9959743" lon="11.9707083"><ele>548.3333333333334</ele><time>2026-05-04T15:21:21.4Z</time></trkpt><trkpt lat="45.996043" lon="11.9706652"><ele>546.6666666666667</ele><time>2026-05-04T15:21:23.401Z</time></trkpt><trkpt lat="45.9961411" lon="11.9706388"><ele>545.0</ele><time>2026-05-04T15:21:26.402Z</time></trkpt><trkpt lat="45.9962291" lon="11.970613"><ele>543.3333333333334</ele><time>2026-05-04T15:21:28.402Z</time></trkpt><trkpt lat="45.9963134" lon="11.9705971"><ele>541.6666666666666</ele><time>2026-05-04T15:21:30.402Z</time></trkpt><trkpt lat="45.9963912" lon="11.970594"><ele>540.0</ele><time>2026-05-04T15:21:33.401Z</time></trkpt><trkpt lat="45.9964674" lon="11.9706046"><ele>540.0</ele><time>2026-05-04T15:21:36.401Z</time></trkpt><trkpt lat="45.99654" lon="11.9706033"><ele>540.0</ele><time>2026-05-04T15:21:39.402Z</time></trkpt><trkpt lat="45.9966069" lon="11.9705466"><ele>540.0</ele><time>2026-05-04T15:21:42.401Z</time></trkpt><trkpt lat="45.9966665" lon="11.9704844"><ele>540.0</ele><time>2026-05-04T15:21:45.401Z</time></trkpt><trkpt lat="45.996738" lon="11.970439"><ele>540.0</ele><time>2026-05-04T15:21:50.401Z</time></trkpt><trkpt lat="45.9968123" lon="11.9704167"><ele>540.0</ele><time>2026-05-04T15:21:54.4Z</time></trkpt><trkpt lat="45.9968826" lon="11.9704134"><ele>540.0</ele><time>2026-05-04T15:21:57.403Z</time></trkpt><trkpt lat="45.9969488" lon="11.970405"><ele>538.7142857142857</ele><time>2026-05-04T15:22:00.401Z</time></trkpt><trkpt lat="45.9970234" lon="11.9703948"><ele>537.4285714285713</ele><time>2026-05-04T15:22:03.402Z</time></trkpt><trkpt lat="45.9970918" lon="11.9704046"><ele>536.1428571428571</ele><time>2026-05-04T15:22:06.401Z</time></trkpt><trkpt lat="45.9971552" lon="11.9704096"><ele>534.8571428571429</ele><time>2026-05-04T15:22:09.401Z</time></trkpt><trkpt lat="45.9972178" lon="11.9704358"><ele>533.5714285714287</ele><time>2026-05-04T15:22:12.401Z</time></trkpt><trkpt lat="45.9972782" lon="11.9704702"><ele>532.2857142857143</ele><time>2026-05-04T15:22:15.401Z</time></trkpt><trkpt lat="45.9973572" lon="11.9704978"><ele>531.0</ele><time>2026-05-04T15:22:18.401Z</time></trkpt><trkpt lat="45.9974375" lon="11.9705238"><ele>527.4285714285714</ele><time>2026-05-04T15:22:21.401Z</time></trkpt><trkpt lat="45.9975133" lon="11.9705807"><ele>523.8571428571429</ele><time>2026-05-04T15:22:24.401Z</time></trkpt><trkpt lat="45.9975908" lon="11.9706335"><ele>520.2857142857143</ele><time>2026-05-04T15:22:27.508Z</time></trkpt><trkpt lat="45.997659" lon="11.9706602"><ele>516.7142857142858</ele><time>2026-05-04T15:22:30.399Z</time></trkpt><trkpt lat="45.9977273" lon="11.970658"><ele>513.1428571428571</ele><time>2026-05-04T15:22:33.401Z</time></trkpt><trkpt lat="45.9977943" lon="11.9706515"><ele>509.57142857142867</ele><time>2026-05-04T15:22:36.402Z</time></trkpt><trkpt lat="45.9978583" lon="11.9706333"><ele>506.00000000000006</ele><time>2026-05-04T15:22:39.401Z</time></trkpt><trkpt lat="45.997924" lon="11.9705928"><ele>505.99999999999994</ele><time>2026-05-04T15:22:42.401Z</time></trkpt><trkpt lat="45.9979961" lon="11.9705409"><ele>506.0</ele><time>2026-05-04T15:22:45.401Z</time></trkpt><trkpt lat="45.9980638" lon="11.9704834"><ele>506.0</ele><time>2026-05-04T15:22:48.401Z</time></trkpt><trkpt lat="45.9981354" lon="11.9704148"><ele>506.0</ele><time>2026-05-04T15:22:51.401Z</time></trkpt><trkpt lat="45.9982001" lon="11.9703407"><ele>505.99999999999994</ele><time>2026-05-04T15:22:54.4Z</time></trkpt><trkpt lat="45.9982644" lon="11.9702942"><ele>506.0</ele><time>2026-05-04T15:22:56.402Z</time></trkpt><trkpt lat="45.998346" lon="11.9702366"><ele>504.16666666666663</ele><time>2026-05-04T15:22:59.401Z</time></trkpt><trkpt lat="45.9984275" lon="11.9701561"><ele>502.3333333333333</ele><time>2026-05-04T15:23:02.399Z</time></trkpt><trkpt lat="45.9984891" lon="11.9700728"><ele>500.5</ele><time>2026-05-04T15:23:04.398Z</time></trkpt><trkpt lat="45.9985539" lon="11.9699822"><ele>498.66666666666663</ele><time>2026-05-04T15:23:06.401Z</time></trkpt><trkpt lat="45.9986185" lon="11.9698991"><ele>496.8333333333333</ele><time>2026-05-04T15:23:08.404Z</time></trkpt><trkpt lat="45.998676" lon="11.9698222"><ele>495.0</ele><time>2026-05-04T15:23:10.401Z</time></trkpt><trkpt lat="45.9987229" lon="11.9697348"><ele>495.0</ele><time>2026-05-04T15:23:12.401Z</time></trkpt><trkpt lat="45.9987681" lon="11.9696573"><ele>495.0</ele><time>2026-05-04T15:23:14.401Z</time></trkpt><trkpt lat="45.9988127" lon="11.9695742"><ele>495.0</ele><time>2026-05-04T15:23:16.401Z</time></trkpt><trkpt lat="45.9988536" lon="11.9694735"><ele>495.0</ele><time>2026-05-04T15:23:18.4Z</time></trkpt><trkpt lat="45.9988885" lon="11.9693695"><ele>495.0</ele><time>2026-05-04T15:23:20.401Z</time></trkpt><trkpt lat="45.9989147" lon="11.9692619"><ele>495.0</ele><time>2026-05-04T15:23:22.403Z</time></trkpt><trkpt lat="45.9989421" lon="11.969148"><ele>496.3333333333333</ele><time>2026-05-04T15:23:24.401Z</time></trkpt><trkpt lat="45.9989763" lon="11.9690239"><ele>497.66666666666663</ele><time>2026-05-04T15:23:27.402Z</time></trkpt><trkpt lat="45.9989993" lon="11.9689259"><ele>499.0</ele><time>2026-05-04T15:23:29.401Z</time></trkpt><trkpt lat="45.9990347" lon="11.9688352"><ele>500.3333333333333</ele><time>2026-05-04T15:23:31.401Z</time></trkpt><trkpt lat="45.9990876" lon="11.9687456"><ele>501.66666666666663</ele><time>2026-05-04T15:23:33.4Z</time></trkpt><trkpt lat="45.9991321" lon="11.9686783"><ele>503.0</ele><time>2026-05-04T15:23:35.401Z</time></trkpt><trkpt lat="45.9991906" lon="11.9685887"><ele>499.7142857142857</ele><time>2026-05-04T15:23:38.401Z</time></trkpt><trkpt lat="45.9992373" lon="11.9684946"><ele>496.42857142857144</ele><time>2026-05-04T15:23:41.401Z</time></trkpt><trkpt lat="45.9992813" lon="11.9684258"><ele>493.14285714285717</ele><time>2026-05-04T15:23:44.4Z</time></trkpt><trkpt lat="45.9993384" lon="11.968354"><ele>489.8571428571429</ele><time>2026-05-04T15:23:47.401Z</time></trkpt><trkpt lat="45.9993905" lon="11.9682878"><ele>486.57142857142856</ele><time>2026-05-04T15:23:50.401Z</time></trkpt><trkpt lat="45.9994379" lon="11.9682216"><ele>483.28571428571433</ele><time>2026-05-04T15:23:52.404Z</time></trkpt><trkpt lat="45.9995143" lon="11.9681873"><ele>480.0</ele><time>2026-05-04T15:23:55.402Z</time></trkpt><trkpt lat="45.9995827" lon="11.9681661"><ele>480.0</ele><time>2026-05-04T15:23:57.402Z</time></trkpt><trkpt lat="45.9996692" lon="11.9681732"><ele>480.0</ele><time>2026-05-04T15:24:00.401Z</time></trkpt><trkpt lat="45.9997785" lon="11.9681749"><ele>480.0</ele><time>2026-05-04T15:24:03.402Z</time></trkpt><trkpt lat="45.9998582" lon="11.9681797"><ele>480.0</ele><time>2026-05-04T15:24:06.401Z</time></trkpt><trkpt lat="45.9999442" lon="11.9681566"><ele>480.0</ele><time>2026-05-04T15:24:09.402Z</time></trkpt><trkpt lat="46.0000106" lon="11.968136"><ele>480.0</ele><time>2026-05-04T15:24:11.399Z</time></trkpt><trkpt lat="46.0000832" lon="11.9681205"><ele>480.0</ele><time>2026-05-04T15:24:13.401Z</time></trkpt><trkpt lat="46.000149" lon="11.96811"><ele>480.0</ele><time>2026-05-04T15:24:15.401Z</time></trkpt><trkpt lat="46.0002706" lon="11.9681069"><ele>480.0</ele><time>2026-05-04T15:24:19.401Z</time></trkpt><trkpt lat="46.0003503" lon="11.9681044"><ele>480.0</ele><time>2026-05-04T15:24:21.401Z</time></trkpt><trkpt lat="46.0004278" lon="11.9681007"><ele>480.0</ele><time>2026-05-04T15:24:23.401Z</time></trkpt><trkpt lat="46.0005068" lon="11.968091"><ele>480.0</ele><time>2026-05-04T15:24:25.401Z</time></trkpt><trkpt lat="46.0005907" lon="11.968067"><ele>480.0</ele><time>2026-05-04T15:24:27.402Z</time></trkpt><trkpt lat="46.0007035" lon="11.9680557"><ele>480.0</ele><time>2026-05-04T15:24:31.401Z</time></trkpt><trkpt lat="46.0007762" lon="11.9680283"><ele>480.0</ele><time>2026-05-04T15:24:34.401Z</time></trkpt><trkpt lat="46.0008678" lon="11.9679834"><ele>480.0</ele><time>2026-05-04T15:24:37.402Z</time></trkpt><trkpt lat="46.0009404" lon="11.9679581"><ele>480.0</ele><time>2026-05-04T15:24:39.401Z</time></trkpt><trkpt lat="46.0010075" lon="11.9679074"><ele>480.0</ele><time>2026-05-04T15:24:41.402Z</time></trkpt><trkpt lat="46.0010998" lon="11.9678429"><ele>481.1666666666667</ele><time>2026-05-04T15:24:43.402Z</time></trkpt><trkpt lat="46.0011857" lon="11.9677741"><ele>482.33333333333337</ele><time>2026-05-04T15:24:45.4Z</time></trkpt><trkpt lat="46.0012612" lon="11.967717"><ele>483.5</ele><time>2026-05-04T15:24:47.401Z</time></trkpt><trkpt lat="46.0013317" lon="11.9676582"><ele>484.6666666666667</ele><time>2026-05-04T15:24:49.401Z</time></trkpt><trkpt lat="46.0013989" lon="11.9675872"><ele>485.83333333333337</ele><time>2026-05-04T15:24:51.401Z</time></trkpt><trkpt lat="46.0014553" lon="11.9674892"><ele>487.0</ele><time>2026-05-04T15:24:53.4Z</time></trkpt><trkpt lat="46.0014971" lon="11.9673701"><ele>487.00000000000006</ele><time>2026-05-04T15:24:55.4Z</time></trkpt><trkpt lat="46.0015456" lon="11.9672537"><ele>487.0</ele><time>2026-05-04T15:24:57.401Z</time></trkpt><trkpt lat="46.0015907" lon="11.9671303"><ele>487.0</ele><time>2026-05-04T15:24:59.401Z</time></trkpt><trkpt lat="46.0016265" lon="11.9670298"><ele>487.0</ele><time>2026-05-04T15:25:01.4Z</time></trkpt><trkpt lat="46.0016588" lon="11.9669484"><ele>487.00000000000006</ele><time>2026-05-04T15:25:03.402Z</time></trkpt><trkpt lat="46.0016944" lon="11.9668509"><ele>487.0</ele><time>2026-05-04T15:25:06.4Z</time></trkpt><trkpt lat="46.0017172" lon="11.9667626"><ele>482.83333333333337</ele><time>2026-05-04T15:25:09.401Z</time></trkpt><trkpt lat="46.0017456" lon="11.9666569"><ele>478.6666666666667</ele><time>2026-05-04T15:25:12.401Z</time></trkpt><trkpt lat="46.0017815" lon="11.9665374"><ele>474.5</ele><time>2026-05-04T15:25:15.4Z</time></trkpt><trkpt lat="46.0018228" lon="11.9664618"><ele>470.33333333333337</ele><time>2026-05-04T15:25:17.4Z</time></trkpt><trkpt lat="46.0018751" lon="11.9663889"><ele>466.1666666666667</ele><time>2026-05-04T15:25:19.4Z</time></trkpt><trkpt lat="46.0019497" lon="11.9663012"><ele>462.0</ele><time>2026-05-04T15:25:21.401Z</time></trkpt><trkpt lat="46.0020204" lon="11.9662147"><ele>462.0</ele><time>2026-05-04T15:25:23.4Z</time></trkpt><trkpt lat="46.0020868" lon="11.966128"><ele>462.0</ele><time>2026-05-04T15:25:25.401Z</time></trkpt><trkpt lat="46.0021379" lon="11.9660525"><ele>462.0</ele><time>2026-05-04T15:25:27.4Z</time></trkpt><trkpt lat="46.0021927" lon="11.9659675"><ele>462.0</ele><time>2026-05-04T15:25:29.4Z</time></trkpt><trkpt lat="46.0022348" lon="11.9658862"><ele>462.0</ele><time>2026-05-04T15:25:31.401Z</time></trkpt><trkpt lat="46.0022711" lon="11.9657864"><ele>462.0</ele><time>2026-05-04T15:25:33.401Z</time></trkpt><trkpt lat="46.0023053" lon="11.9656635"><ele>464.5</ele><time>2026-05-04T15:25:35.4Z</time></trkpt><trkpt lat="46.0023404" lon="11.965555"><ele>467.0</ele><time>2026-05-04T15:25:37.4Z</time></trkpt><trkpt lat="46.0023968" lon="11.9654873"><ele>469.5</ele><time>2026-05-04T15:25:39.401Z</time></trkpt><trkpt lat="46.0024625" lon="11.9654285"><ele>472.0</ele><time>2026-05-04T15:25:41.398Z</time></trkpt><trkpt lat="46.0025161" lon="11.9653336"><ele>474.5</ele><time>2026-05-04T15:25:43.401Z</time></trkpt><trkpt lat="46.0025805" lon="11.9652073"><ele>477.0</ele><time>2026-05-04T15:25:45.401Z</time></trkpt><trkpt lat="46.0026368" lon="11.9650987"><ele>474.3333333333333</ele><time>2026-05-04T15:25:47.401Z</time></trkpt><trkpt lat="46.0026912" lon="11.9650214"><ele>471.66666666666663</ele><time>2026-05-04T15:25:49.4Z</time></trkpt><trkpt lat="46.0027491" lon="11.9649238"><ele>469.0</ele><time>2026-05-04T15:25:52.401Z</time></trkpt><trkpt lat="46.0027958" lon="11.9648214"><ele>466.3333333333333</ele><time>2026-05-04T15:25:55.4Z</time></trkpt><trkpt lat="46.0028471" lon="11.9647549"><ele>463.66666666666663</ele><time>2026-05-04T15:25:57.402Z</time></trkpt><trkpt lat="46.002893" lon="11.9646735"><ele>461.0</ele><time>2026-05-04T15:25:59.4Z</time></trkpt><trkpt lat="46.0029433" lon="11.9645885"><ele>460.99999999999994</ele><time>2026-05-04T15:26:01.401Z</time></trkpt><trkpt lat="46.0030092" lon="11.9644999"><ele>461.0</ele><time>2026-05-04T15:26:03.401Z</time></trkpt><trkpt lat="46.0030738" lon="11.9644296"><ele>461.0</ele><time>2026-05-04T15:26:05.401Z</time></trkpt><trkpt lat="46.0031465" lon="11.9643865"><ele>461.0</ele><time>2026-05-04T15:26:07.401Z</time></trkpt><trkpt lat="46.0032099" lon="11.964362"><ele>460.99999999999994</ele><time>2026-05-04T15:26:09.4Z</time></trkpt><trkpt lat="46.0032789" lon="11.9643084"><ele>461.0</ele><time>2026-05-04T15:26:11.399Z</time></trkpt><trkpt lat="46.0033524" lon="11.964248"><ele>459.42857142857144</ele><time>2026-05-04T15:26:13.4Z</time></trkpt><trkpt lat="46.0034203" lon="11.9641886"><ele>457.8571428571429</ele><time>2026-05-04T15:26:15.401Z</time></trkpt><trkpt lat="46.0034872" lon="11.9641366"><ele>456.28571428571433</ele><time>2026-05-04T15:26:17.401Z</time></trkpt><trkpt lat="46.00355" lon="11.9641096"><ele>454.7142857142858</ele><time>2026-05-04T15:26:19.402Z</time></trkpt><trkpt lat="46.00364" lon="11.9640943"><ele>453.14285714285717</ele><time>2026-05-04T15:26:22.4Z</time></trkpt><trkpt lat="46.0037084" lon="11.9640808"><ele>451.57142857142867</ele><time>2026-05-04T15:26:24.399Z</time></trkpt><trkpt lat="46.0037708" lon="11.964061"><ele>450.00000000000006</ele><time>2026-05-04T15:26:26.401Z</time></trkpt><trkpt lat="46.0038493" lon="11.9640359"><ele>450.0</ele><time>2026-05-04T15:26:28.401Z</time></trkpt><trkpt lat="46.0039112" lon="11.9640075"><ele>450.0</ele><time>2026-05-04T15:26:30.401Z</time></trkpt><trkpt lat="46.0039868" lon="11.9639813"><ele>450.0</ele><time>2026-05-04T15:26:32.402Z</time></trkpt><trkpt lat="46.0040695" lon="11.963931"><ele>450.0</ele><time>2026-05-04T15:26:35.401Z</time></trkpt><trkpt lat="46.0041366" lon="11.963885"><ele>450.0</ele><time>2026-05-04T15:26:38.402Z</time></trkpt><trkpt lat="46.0042226" lon="11.9638414"><ele>450.0</ele><time>2026-05-04T15:26:41.401Z</time></trkpt><trkpt lat="46.0042818" lon="11.9638096"><ele>448.28571428571433</ele><time>2026-05-04T15:26:43.4Z</time></trkpt><trkpt lat="46.0043448" lon="11.9637792"><ele>446.57142857142856</ele><time>2026-05-04T15:26:45.401Z</time></trkpt><trkpt lat="46.0044104" lon="11.963743"><ele>444.8571428571429</ele><time>2026-05-04T15:26:47.4Z</time></trkpt><trkpt lat="46.0044712" lon="11.9637119"><ele>443.14285714285717</ele><time>2026-05-04T15:26:49.4Z</time></trkpt><trkpt lat="46.0045347" lon="11.9636939"><ele>441.42857142857144</ele><time>2026-05-04T15:26:51.401Z</time></trkpt><trkpt lat="46.0046248" lon="11.9636883"><ele>439.7142857142857</ele><time>2026-05-04T15:26:54.4Z</time></trkpt><trkpt lat="46.0047097" lon="11.9636513"><ele>438.0</ele><time>2026-05-04T15:26:57.401Z</time></trkpt><trkpt lat="46.0047799" lon="11.9635981"><ele>438.0</ele><time>2026-05-04T15:27:00.4Z</time></trkpt><trkpt lat="46.0048422" lon="11.9635464"><ele>438.0</ele><time>2026-05-04T15:27:03.4Z</time></trkpt><trkpt lat="46.0049102" lon="11.9635154"><ele>438.0</ele><time>2026-05-04T15:27:06.399Z</time></trkpt><trkpt lat="46.0049909" lon="11.9635126"><ele>438.0</ele><time>2026-05-04T15:27:09.401Z</time></trkpt><trkpt lat="46.005063" lon="11.9634928"><ele>438.0</ele><time>2026-05-04T15:27:11.401Z</time></trkpt><trkpt lat="46.0051261" lon="11.9634435"><ele>438.0</ele><time>2026-05-04T15:27:13.4Z</time></trkpt><trkpt lat="46.0051738" lon="11.9633418"><ele>439.14285714285717</ele><time>2026-05-04T15:27:16.4Z</time></trkpt><trkpt lat="46.0051925" lon="11.9632263"><ele>440.2857142857143</ele><time>2026-05-04T15:27:19.4Z</time></trkpt><trkpt lat="46.0051898" lon="11.9631198"><ele>441.42857142857144</ele><time>2026-05-04T15:27:22.4Z</time></trkpt><trkpt lat="46.0051761" lon="11.9630079"><ele>442.57142857142856</ele><time>2026-05-04T15:27:25.4Z</time></trkpt><trkpt lat="46.0051676" lon="11.9629173"><ele>443.71428571428567</ele><time>2026-05-04T15:27:28.401Z</time></trkpt><trkpt lat="46.0051527" lon="11.9628291"><ele>444.85714285714283</ele><time>2026-05-04T15:27:31.401Z</time></trkpt><trkpt lat="46.0051593" lon="11.9627143"><ele>446.0</ele><time>2026-05-04T15:27:35.401Z</time></trkpt><trkpt lat="46.0051869" lon="11.9626282"><ele>446.0</ele><time>2026-05-04T15:27:38.4Z</time></trkpt><trkpt lat="46.0052385" lon="11.9625506"><ele>446.0</ele><time>2026-05-04T15:27:43.4Z</time></trkpt><trkpt lat="46.0052861" lon="11.9624874"><ele>446.0</ele><time>2026-05-04T15:27:46.4Z</time></trkpt><trkpt lat="46.0053415" lon="11.9624203"><ele>446.0</ele><time>2026-05-04T15:27:50.4Z</time></trkpt><trkpt lat="46.0054006" lon="11.9623555"><ele>446.0</ele><time>2026-05-04T15:27:54.402Z</time></trkpt><trkpt lat="46.005468" lon="11.962288"><ele>446.0</ele><time>2026-05-04T15:27:58.4Z</time></trkpt><trkpt lat="46.0055238" lon="11.9622129"><ele>446.0</ele><time>2026-05-04T15:28:01.401Z</time></trkpt><trkpt lat="46.0055679" lon="11.9621284"><ele>446.66666666666663</ele><time>2026-05-04T15:28:05.403Z</time></trkpt><trkpt lat="46.0056082" lon="11.9620451"><ele>447.3333333333333</ele><time>2026-05-04T15:28:09.4Z</time></trkpt><trkpt lat="46.0056611" lon="11.9619715"><ele>448.0</ele><time>2026-05-04T15:28:12.401Z</time></trkpt><trkpt lat="46.0057208" lon="11.9619044"><ele>448.66666666666663</ele><time>2026-05-04T15:28:16.4Z</time></trkpt><trkpt lat="46.0057833" lon="11.9618391"><ele>449.3333333333333</ele><time>2026-05-04T15:28:20.401Z</time></trkpt><trkpt lat="46.0058639" lon="11.9617836"><ele>450.0</ele><time>2026-05-04T15:28:23.4Z</time></trkpt><trkpt lat="46.0059393" lon="11.9617665"><ele>444.5</ele><time>2026-05-04T15:28:26.4Z</time></trkpt><trkpt lat="46.0060124" lon="11.9617365"><ele>439.0</ele><time>2026-05-04T15:28:29.401Z</time></trkpt><trkpt lat="46.0060891" lon="11.9617095"><ele>433.5</ele><time>2026-05-04T15:28:32.4Z</time></trkpt><trkpt lat="46.00617" lon="11.9616984"><ele>428.0</ele><time>2026-05-04T15:28:35.399Z</time></trkpt><trkpt lat="46.006255" lon="11.9616495"><ele>422.5</ele><time>2026-05-04T15:28:38.4Z</time></trkpt><trkpt lat="46.0063287" lon="11.9615969"><ele>417.0</ele><time>2026-05-04T15:28:41.4Z</time></trkpt><trkpt lat="46.0063839" lon="11.9615476"><ele>416.7142857142857</ele><time>2026-05-04T15:28:43.4Z</time></trkpt><trkpt lat="46.0064428" lon="11.9614936"><ele>416.4285714285714</ele><time>2026-05-04T15:28:45.4Z</time></trkpt><trkpt lat="46.0064962" lon="11.961444"><ele>416.1428571428571</ele><time>2026-05-04T15:28:47.399Z</time></trkpt><trkpt lat="46.0065587" lon="11.961425"><ele>415.8571428571429</ele><time>2026-05-04T15:28:49.401Z</time></trkpt><trkpt lat="46.0066224" lon="11.9614058"><ele>415.57142857142856</ele><time>2026-05-04T15:28:51.4Z</time></trkpt><trkpt lat="46.0067165" lon="11.9613958"><ele>415.2857142857143</ele><time>2026-05-04T15:28:54.401Z</time></trkpt><trkpt lat="46.0067816" lon="11.9614162"><ele>415.0</ele><time>2026-05-04T15:28:56.4Z</time></trkpt><trkpt lat="46.0068605" lon="11.9614362"><ele>410.33333333333337</ele><time>2026-05-04T15:28:58.401Z</time></trkpt><trkpt lat="46.0069369" lon="11.9614504"><ele>405.6666666666667</ele><time>2026-05-04T15:29:00.4Z</time></trkpt><trkpt lat="46.0070129" lon="11.9614576"><ele>401.0</ele><time>2026-05-04T15:29:02.4Z</time></trkpt><trkpt lat="46.0070841" lon="11.9614697"><ele>396.33333333333337</ele><time>2026-05-04T15:29:04.401Z</time></trkpt><trkpt lat="46.0071588" lon="11.9614912"><ele>391.6666666666667</ele><time>2026-05-04T15:29:07.4Z</time></trkpt><trkpt lat="46.0072441" lon="11.9615008"><ele>387.0</ele><time>2026-05-04T15:29:11.399Z</time></trkpt><trkpt lat="46.0073371" lon="11.9615191"><ele>387.0</ele><time>2026-05-04T15:29:14.401Z</time></trkpt><trkpt lat="46.0074031" lon="11.9615383"><ele>387.0</ele><time>2026-05-04T15:29:16.4Z</time></trkpt><trkpt lat="46.0074879" lon="11.9615544"><ele>387.0</ele><time>2026-05-04T15:29:19.4Z</time></trkpt><trkpt lat="46.0075727" lon="11.9615439"><ele>387.0</ele><time>2026-05-04T15:29:22.4Z</time></trkpt><trkpt lat="46.0076324" lon="11.9615069"><ele>387.0</ele><time>2026-05-04T15:29:24.4Z</time></trkpt><trkpt lat="46.0076966" lon="11.9614641"><ele>387.0</ele><time>2026-05-04T15:29:26.399Z</time></trkpt><trkpt lat="46.007786" lon="11.9614595"><ele>383.5</ele><time>2026-05-04T15:29:29.4Z</time></trkpt><trkpt lat="46.0078509" lon="11.9614871"><ele>380.0</ele><time>2026-05-04T15:29:31.401Z</time></trkpt><trkpt lat="46.0079185" lon="11.9615488"><ele>376.5</ele><time>2026-05-04T15:29:34.4Z</time></trkpt><trkpt lat="46.0079795" lon="11.961635"><ele>373.0</ele><time>2026-05-04T15:29:37.4Z</time></trkpt><trkpt lat="46.0080257" lon="11.9617481"><ele>369.5</ele><time>2026-05-04T15:29:40.401Z</time></trkpt><trkpt lat="46.0080597" lon="11.9618312"><ele>366.0</ele><time>2026-05-04T15:29:42.399Z</time></trkpt><trkpt lat="46.0080942" lon="11.9619473"><ele>366.0</ele><time>2026-05-04T15:29:45.401Z</time></trkpt><trkpt lat="46.0081266" lon="11.9620274"><ele>366.0</ele><time>2026-05-04T15:29:47.4Z</time></trkpt><trkpt lat="46.008177" lon="11.9621247"><ele>366.0</ele><time>2026-05-04T15:29:50.401Z</time></trkpt><trkpt lat="46.0082342" lon="11.9621865"><ele>366.0</ele><time>2026-05-04T15:29:53.401Z</time></trkpt><trkpt lat="46.0083039" lon="11.9622082"><ele>366.0</ele><time>2026-05-04T15:29:56.4Z</time></trkpt><trkpt lat="46.0084165" lon="11.9620538"><ele>366.0</ele><time>2026-05-04T15:30:03.403Z</time></trkpt><trkpt lat="46.0084411" lon="11.961963"><ele>361.0</ele><time>2026-05-04T15:30:05.401Z</time></trkpt><trkpt lat="46.008483" lon="11.9618399"><ele>356.0</ele><time>2026-05-04T15:30:08.401Z</time></trkpt><trkpt lat="46.0085072" lon="11.9617327"><ele>351.0</ele><time>2026-05-04T15:30:10.403Z</time></trkpt><trkpt lat="46.0085174" lon="11.9616149"><ele>346.0</ele><time>2026-05-04T15:30:12.401Z</time></trkpt><trkpt lat="46.0085229" lon="11.9615212"><ele>341.0</ele><time>2026-05-04T15:30:14.402Z</time></trkpt><trkpt lat="46.0085435" lon="11.9614055"><ele>336.0</ele><time>2026-05-04T15:30:17.401Z</time></trkpt><trkpt lat="46.008604" lon="11.9613728"><ele>336.0</ele><time>2026-05-04T15:30:20.401Z</time></trkpt><trkpt lat="46.0086717" lon="11.9614122"><ele>336.0</ele><time>2026-05-04T15:30:23.401Z</time></trkpt><trkpt lat="46.0087107" lon="11.961498"><ele>336.0</ele><time>2026-05-04T15:30:26.401Z</time></trkpt><trkpt lat="46.0087475" lon="11.9615861"><ele>336.0</ele><time>2026-05-04T15:30:29.401Z</time></trkpt><trkpt lat="46.0087989" lon="11.9616697"><ele>336.0</ele><time>2026-05-04T15:30:32.4Z</time></trkpt><trkpt lat="46.0088614" lon="11.9617611"><ele>336.0</ele><time>2026-05-04T15:30:35.402Z</time></trkpt><trkpt lat="46.0089211" lon="11.9618114"><ele>335.42857142857144</ele><time>2026-05-04T15:30:38.402Z</time></trkpt><trkpt lat="46.0089936" lon="11.9618139"><ele>334.8571428571429</ele><time>2026-05-04T15:30:41.401Z</time></trkpt><trkpt lat="46.0090743" lon="11.9618111"><ele>334.2857142857143</ele><time>2026-05-04T15:30:44.4Z</time></trkpt><trkpt lat="46.0091375" lon="11.9618219"><ele>333.7142857142857</ele><time>2026-05-04T15:30:46.401Z</time></trkpt><trkpt lat="46.0091997" lon="11.9618429"><ele>333.14285714285717</ele><time>2026-05-04T15:30:48.4Z</time></trkpt><trkpt lat="46.0092606" lon="11.9619075"><ele>332.57142857142856</ele><time>2026-05-04T15:30:51.401Z</time></trkpt><trkpt lat="46.0093234" lon="11.9619514"><ele>332.0</ele><time>2026-05-04T15:30:54.401Z</time></trkpt><trkpt lat="46.0093888" lon="11.9619379"><ele>327.6666666666667</ele><time>2026-05-04T15:30:58.401Z</time></trkpt><trkpt lat="46.0094513" lon="11.9618842"><ele>323.33333333333337</ele><time>2026-05-04T15:31:01.402Z</time></trkpt><trkpt lat="46.0095249" lon="11.9618363"><ele>319.0</ele><time>2026-05-04T15:31:04.401Z</time></trkpt><trkpt lat="46.0096093" lon="11.9617869"><ele>314.6666666666667</ele><time>2026-05-04T15:31:07.402Z</time></trkpt><trkpt lat="46.0096904" lon="11.9617842"><ele>310.3333333333333</ele><time>2026-05-04T15:31:10.401Z</time></trkpt><trkpt lat="46.0097742" lon="11.961814"><ele>306.0</ele><time>2026-05-04T15:31:13.403Z</time></trkpt><trkpt lat="46.0098488" lon="11.9618511"><ele>306.0</ele><time>2026-05-04T15:31:16.401Z</time></trkpt><trkpt lat="46.0099154" lon="11.9618911"><ele>306.0</ele><time>2026-05-04T15:31:19.4Z</time></trkpt><trkpt lat="46.0099849" lon="11.9619355"><ele>306.0</ele><time>2026-05-04T15:31:22.401Z</time></trkpt><trkpt lat="46.0100567" lon="11.9619366"><ele>306.0</ele><time>2026-05-04T15:31:25.4Z</time></trkpt><trkpt lat="46.0101058" lon="11.9618722"><ele>306.0</ele><time>2026-05-04T15:31:28.401Z</time></trkpt><trkpt lat="46.01012" lon="11.9617549"><ele>306.0</ele><time>2026-05-04T15:31:31.4Z</time></trkpt><trkpt lat="46.0101259" lon="11.9616415"><ele>306.0</ele><time>2026-05-04T15:31:34.401Z</time></trkpt><trkpt lat="46.0101245" lon="11.9615217"><ele>303.3333333333333</ele><time>2026-05-04T15:31:37.404Z</time></trkpt><trkpt lat="46.0100842" lon="11.961404"><ele>300.6666666666667</ele><time>2026-05-04T15:31:40.401Z</time></trkpt><trkpt lat="46.0100664" lon="11.9612722"><ele>298.0</ele><time>2026-05-04T15:31:43.401Z</time></trkpt><trkpt lat="46.0101001" lon="11.9611681"><ele>295.33333333333337</ele><time>2026-05-04T15:31:45.405Z</time></trkpt><trkpt lat="46.0101447" lon="11.9610681"><ele>292.6666666666667</ele><time>2026-05-04T15:31:47.399Z</time></trkpt><trkpt lat="46.0101866" lon="11.960967"><ele>290.0</ele><time>2026-05-04T15:31:49.401Z</time></trkpt><trkpt lat="46.0102109" lon="11.9608534"><ele>290.0</ele><time>2026-05-04T15:31:51.401Z</time></trkpt><trkpt lat="46.0102056" lon="11.9607595"><ele>290.0</ele><time>2026-05-04T15:31:53.401Z</time></trkpt><trkpt lat="46.0101957" lon="11.9606606"><ele>290.0</ele><time>2026-05-04T15:31:55.4Z</time></trkpt><trkpt lat="46.0101976" lon="11.9605352"><ele>290.0</ele><time>2026-05-04T15:31:57.401Z</time></trkpt><trkpt lat="46.0102081" lon="11.9604144"><ele>290.0</ele><time>2026-05-04T15:31:59.401Z</time></trkpt><trkpt lat="46.0102156" lon="11.9603015"><ele>290.0</ele><time>2026-05-04T15:32:01.4Z</time></trkpt><trkpt lat="46.0102145" lon="11.9601797"><ele>290.0</ele><time>2026-05-04T15:32:03.4Z</time></trkpt><trkpt lat="46.010194" lon="11.9600435"><ele>290.0</ele><time>2026-05-04T15:32:05.401Z</time></trkpt><trkpt lat="46.0101797" lon="11.9599126"><ele>290.0</ele><time>2026-05-04T15:32:07.401Z</time></trkpt><trkpt lat="46.010183" lon="11.9597717"><ele>290.0</ele><time>2026-05-04T15:32:09.402Z</time></trkpt><trkpt lat="46.0101887" lon="11.9596427"><ele>290.0</ele><time>2026-05-04T15:32:11.4Z</time></trkpt><trkpt lat="46.0101676" lon="11.9595042"><ele>289.5</ele><time>2026-05-04T15:32:13.401Z</time></trkpt><trkpt lat="46.0101364" lon="11.959374"><ele>289.0</ele><time>2026-05-04T15:32:15.403Z</time></trkpt><trkpt lat="46.0101177" lon="11.9592556"><ele>288.5</ele><time>2026-05-04T15:32:17.401Z</time></trkpt><trkpt lat="46.0101421" lon="11.959158"><ele>288.0</ele><time>2026-05-04T15:32:19.4Z</time></trkpt><trkpt lat="46.0101845" lon="11.9590897"><ele>287.5</ele><time>2026-05-04T15:32:21.401Z</time></trkpt><trkpt lat="46.0102239" lon="11.9590061"><ele>287.0</ele><time>2026-05-04T15:32:23.401Z</time></trkpt><trkpt lat="46.0102466" lon="11.9589009"><ele>285.83333333333337</ele><time>2026-05-04T15:32:25.4Z</time></trkpt><trkpt lat="46.0102529" lon="11.9587864"><ele>284.6666666666667</ele><time>2026-05-04T15:32:27.401Z</time></trkpt><trkpt lat="46.010239" lon="11.9586669"><ele>283.5</ele><time>2026-05-04T15:32:29.401Z</time></trkpt><trkpt lat="46.0102169" lon="11.9585361"><ele>282.3333333333333</ele><time>2026-05-04T15:32:31.401Z</time></trkpt><trkpt lat="46.0102046" lon="11.9584142"><ele>281.16666666666663</ele><time>2026-05-04T15:32:33.401Z</time></trkpt><trkpt lat="46.0101925" lon="11.9582918"><ele>280.0</ele><time>2026-05-04T15:32:35.401Z</time></trkpt><trkpt lat="46.0101689" lon="11.9581845"><ele>278.66666666666663</ele><time>2026-05-04T15:32:37.401Z</time></trkpt><trkpt lat="46.0101556" lon="11.9580858"><ele>277.3333333333333</ele><time>2026-05-04T15:32:39.401Z</time></trkpt><trkpt lat="46.0101504" lon="11.9579713"><ele>276.0</ele><time>2026-05-04T15:32:41.401Z</time></trkpt><trkpt lat="46.0101422" lon="11.9578556"><ele>274.6666666666667</ele><time>2026-05-04T15:32:43.399Z</time></trkpt><trkpt lat="46.0101276" lon="11.9577443"><ele>273.33333333333337</ele><time>2026-05-04T15:32:45.402Z</time></trkpt><trkpt lat="46.0101014" lon="11.9576333"><ele>272.0</ele><time>2026-05-04T15:32:47.402Z</time></trkpt><trkpt lat="46.0100926" lon="11.9575195"><ele>271.33333333333337</ele><time>2026-05-04T15:32:49.401Z</time></trkpt><trkpt lat="46.0100904" lon="11.9574153"><ele>270.6666666666667</ele><time>2026-05-04T15:32:51.403Z</time></trkpt><trkpt lat="46.0100824" lon="11.9572997"><ele>270.0</ele><time>2026-05-04T15:32:53.4Z</time></trkpt><trkpt lat="46.0100649" lon="11.9571874"><ele>269.3333333333333</ele><time>2026-05-04T15:32:55.401Z</time></trkpt><trkpt lat="46.0100429" lon="11.9570876"><ele>268.66666666666663</ele><time>2026-05-04T15:32:57.4Z</time></trkpt><trkpt lat="46.0100101" lon="11.9569606"><ele>268.0</ele><time>2026-05-04T15:32:59.4Z</time></trkpt><trkpt lat="46.0099839" lon="11.9568476"><ele>275.16666666666663</ele><time>2026-05-04T15:33:01.401Z</time></trkpt><trkpt lat="46.0099606" lon="11.956743"><ele>282.3333333333333</ele><time>2026-05-04T15:33:03.401Z</time></trkpt><trkpt lat="46.0099361" lon="11.9566333"><ele>289.5</ele><time>2026-05-04T15:33:05.401Z</time></trkpt><trkpt lat="46.0099137" lon="11.9565238"><ele>296.6666666666667</ele><time>2026-05-04T15:33:07.401Z</time></trkpt><trkpt lat="46.0098928" lon="11.9564259"><ele>303.83333333333337</ele><time>2026-05-04T15:33:09.401Z</time></trkpt><trkpt lat="46.0098763" lon="11.956331"><ele>311.0</ele><time>2026-05-04T15:33:11.402Z</time></trkpt><trkpt lat="46.0098593" lon="11.9561991"><ele>311.0</ele><time>2026-05-04T15:33:14.402Z</time></trkpt><trkpt lat="46.0098352" lon="11.9560932"><ele>311.0</ele><time>2026-05-04T15:33:16.402Z</time></trkpt><trkpt lat="46.0098085" lon="11.955991"><ele>311.0</ele><time>2026-05-04T15:33:18.403Z</time></trkpt><trkpt lat="46.0097914" lon="11.9558949"><ele>311.0</ele><time>2026-05-04T15:33:20.401Z</time></trkpt><trkpt lat="46.0097688" lon="11.9558044"><ele>311.0</ele><time>2026-05-04T15:33:22.404Z</time></trkpt><trkpt lat="46.0097472" lon="11.9557097"><ele>311.0</ele><time>2026-05-04T15:33:24.399Z</time></trkpt><trkpt lat="46.0097174" lon="11.95562"><ele>311.0</ele><time>2026-05-04T15:33:26.4Z</time></trkpt><trkpt lat="46.0096845" lon="11.9554976"><ele>310.6666666666667</ele><time>2026-05-04T15:33:29.4Z</time></trkpt><trkpt lat="46.0096546" lon="11.955379"><ele>310.33333333333337</ele><time>2026-05-04T15:33:32.401Z</time></trkpt><trkpt lat="46.0096393" lon="11.9552842"><ele>310.0</ele><time>2026-05-04T15:33:35.401Z</time></trkpt><trkpt lat="46.0096122" lon="11.9551585"><ele>309.6666666666667</ele><time>2026-05-04T15:33:38.402Z</time></trkpt><trkpt lat="46.0095793" lon="11.9550482"><ele>309.3333333333333</ele><time>2026-05-04T15:33:41.4Z</time></trkpt><trkpt lat="46.0095381" lon="11.9549344"><ele>309.0</ele><time>2026-05-04T15:33:44.401Z</time></trkpt><trkpt lat="46.0095148" lon="11.9548333"><ele>308.0</ele><time>2026-05-04T15:33:47.401Z</time></trkpt><trkpt lat="46.0094946" lon="11.9547286"><ele>307.0</ele><time>2026-05-04T15:33:50.402Z</time></trkpt><trkpt lat="46.0094728" lon="11.9546298"><ele>306.0</ele><time>2026-05-04T15:33:53.402Z</time></trkpt><trkpt lat="46.009467" lon="11.9545325"><ele>305.0</ele><time>2026-05-04T15:33:56.398Z</time></trkpt><trkpt lat="46.0094631" lon="11.9544366"><ele>304.0</ele><time>2026-05-04T15:33:59.4Z</time></trkpt><trkpt lat="46.0094641" lon="11.9543138"><ele>303.0</ele><time>2026-05-04T15:34:02.4Z</time></trkpt><trkpt lat="46.0094498" lon="11.9541704"><ele>302.6666666666667</ele><time>2026-05-04T15:34:05.401Z</time></trkpt><trkpt lat="46.009437" lon="11.9540625"><ele>302.3333333333333</ele><time>2026-05-04T15:34:07.402Z</time></trkpt><trkpt lat="46.0094243" lon="11.953943"><ele>302.0</ele><time>2026-05-04T15:34:09.402Z</time></trkpt><trkpt lat="46.0094027" lon="11.9538357"><ele>301.66666666666663</ele><time>2026-05-04T15:34:11.401Z</time></trkpt><trkpt lat="46.0093667" lon="11.9537408"><ele>301.3333333333333</ele><time>2026-05-04T15:34:13.401Z</time></trkpt><trkpt lat="46.0093412" lon="11.95364"><ele>301.0</ele><time>2026-05-04T15:34:15.402Z</time></trkpt><trkpt lat="46.0093176" lon="11.9535367"><ele>301.0</ele><time>2026-05-04T15:34:17.401Z</time></trkpt><trkpt lat="46.0092998" lon="11.9534337"><ele>301.0</ele><time>2026-05-04T15:34:19.399Z</time></trkpt><trkpt lat="46.0092799" lon="11.953337"><ele>301.0</ele><time>2026-05-04T15:34:21.401Z</time></trkpt><trkpt lat="46.0092728" lon="11.953243"><ele>301.0</ele><time>2026-05-04T15:34:23.4Z</time></trkpt><trkpt lat="46.0092631" lon="11.9531442"><ele>301.0</ele><time>2026-05-04T15:34:25.4Z</time></trkpt><trkpt lat="46.0092418" lon="11.9530459"><ele>301.0</ele><time>2026-05-04T15:34:27.402Z</time></trkpt><trkpt lat="46.0091959" lon="11.9529426"><ele>301.0</ele><time>2026-05-04T15:34:29.401Z</time></trkpt><trkpt lat="46.0091526" lon="11.9528542"><ele>302.66666666666663</ele><time>2026-05-04T15:34:31.4Z</time></trkpt><trkpt lat="46.0091162" lon="11.9527303"><ele>304.3333333333333</ele><time>2026-05-04T15:34:34.403Z</time></trkpt><trkpt lat="46.0091007" lon="11.952635"><ele>306.0</ele><time>2026-05-04T15:34:36.4Z</time></trkpt><trkpt lat="46.0090859" lon="11.9525086"><ele>307.6666666666667</ele><time>2026-05-04T15:34:39.4Z</time></trkpt><trkpt lat="46.0090715" lon="11.9524185"><ele>309.33333333333337</ele><time>2026-05-04T15:34:41.403Z</time></trkpt><trkpt lat="46.0090574" lon="11.9522972"><ele>311.0</ele><time>2026-05-04T15:34:44.4Z</time></trkpt><trkpt lat="46.0090464" lon="11.9522073"><ele>311.0</ele><time>2026-05-04T15:34:46.402Z</time></trkpt><trkpt lat="46.0090381" lon="11.9521019"><ele>311.0</ele><time>2026-05-04T15:34:48.4Z</time></trkpt><trkpt lat="46.0090409" lon="11.9519715"><ele>311.0</ele><time>2026-05-04T15:34:50.4Z</time></trkpt><trkpt lat="46.0090573" lon="11.9518094"><ele>311.0</ele><time>2026-05-04T15:34:52.401Z</time></trkpt><trkpt lat="46.009071" lon="11.951719"><ele>311.0</ele><time>2026-05-04T15:34:53.4Z</time></trkpt><trkpt lat="46.0091014" lon="11.9515635"><ele>309.0</ele><time>2026-05-04T15:34:55.4Z</time></trkpt><trkpt lat="46.0091147" lon="11.951424"><ele>307.0</ele><time>2026-05-04T15:34:57.402Z</time></trkpt><trkpt lat="46.0090991" lon="11.951285"><ele>305.0</ele><time>2026-05-04T15:34:59.402Z</time></trkpt><trkpt lat="46.0090769" lon="11.951165"><ele>303.0</ele><time>2026-05-04T15:35:01.402Z</time></trkpt><trkpt lat="46.0090604" lon="11.9510504"><ele>301.0</ele><time>2026-05-04T15:35:03.401Z</time></trkpt><trkpt lat="46.0090531" lon="11.9509478"><ele>299.0</ele><time>2026-05-04T15:35:05.4Z</time></trkpt><trkpt lat="46.0090716" lon="11.9508329"><ele>296.0</ele><time>2026-05-04T15:35:07.401Z</time></trkpt><trkpt lat="46.009156" lon="11.9508101"><ele>293.0</ele><time>2026-05-04T15:35:10.4Z</time></trkpt><trkpt lat="46.0092288" lon="11.9508734"><ele>290.0</ele><time>2026-05-04T15:35:13.399Z</time></trkpt><trkpt lat="46.0092899" lon="11.9509577"><ele>287.0</ele><time>2026-05-04T15:35:16.401Z</time></trkpt><trkpt lat="46.0093452" lon="11.9510526"><ele>284.0</ele><time>2026-05-04T15:35:19.4Z</time></trkpt><trkpt lat="46.0094106" lon="11.9510933"><ele>281.0</ele><time>2026-05-04T15:35:22.399Z</time></trkpt><trkpt lat="46.009474" lon="11.9510368"><ele>279.1666666666667</ele><time>2026-05-04T15:35:25.4Z</time></trkpt><trkpt lat="46.0094966" lon="11.9509437"><ele>277.33333333333337</ele><time>2026-05-04T15:35:27.401Z</time></trkpt><trkpt lat="46.0094907" lon="11.9508404"><ele>275.5</ele><time>2026-05-04T15:35:29.401Z</time></trkpt><trkpt lat="46.0094835" lon="11.9507402"><ele>273.6666666666667</ele><time>2026-05-04T15:35:31.401Z</time></trkpt><trkpt lat="46.0094679" lon="11.9506516"><ele>271.8333333333333</ele><time>2026-05-04T15:35:33.402Z</time></trkpt><trkpt lat="46.009437" lon="11.9505297"><ele>270.0</ele><time>2026-05-04T15:35:36.402Z</time></trkpt><trkpt lat="46.009401" lon="11.9504146"><ele>268.5</ele><time>2026-05-04T15:35:39.399Z</time></trkpt><trkpt lat="46.009443" lon="11.9503423"><ele>267.0</ele><time>2026-05-04T15:35:42.4Z</time></trkpt><trkpt lat="46.0095171" lon="11.9503461"><ele>265.5</ele><time>2026-05-04T15:35:45.401Z</time></trkpt><trkpt lat="46.0095673" lon="11.9504349"><ele>264.0</ele><time>2026-05-04T15:35:48.402Z</time></trkpt><trkpt lat="46.0096117" lon="11.9505592"><ele>262.5</ele><time>2026-05-04T15:35:51.4Z</time></trkpt><trkpt lat="46.0096519" lon="11.9506511"><ele>261.0</ele><time>2026-05-04T15:35:53.4Z</time></trkpt><trkpt lat="46.0096892" lon="11.9507447"><ele>261.0</ele><time>2026-05-04T15:35:55.4Z</time></trkpt><trkpt lat="46.0097215" lon="11.9508382"><ele>261.0</ele><time>2026-05-04T15:35:57.402Z</time></trkpt><trkpt lat="46.0097478" lon="11.9509358"><ele>261.0</ele><time>2026-05-04T15:35:59.4Z</time></trkpt><trkpt lat="46.0097567" lon="11.9510333"><ele>261.0</ele><time>2026-05-04T15:36:01.402Z</time></trkpt><trkpt lat="46.0097639" lon="11.9511423"><ele>261.0</ele><time>2026-05-04T15:36:03.4Z</time></trkpt><trkpt lat="46.0097885" lon="11.9512263"><ele>261.0</ele><time>2026-05-04T15:36:05.4Z</time></trkpt><trkpt lat="46.0098599" lon="11.9511757"><ele>261.0</ele><time>2026-05-04T15:36:08.401Z</time></trkpt><trkpt lat="46.0099031" lon="11.9510763"><ele>262.8</ele><time>2026-05-04T15:36:10.4Z</time></trkpt><trkpt lat="46.009955" lon="11.9509825"><ele>264.6</ele><time>2026-05-04T15:36:12.4Z</time></trkpt><trkpt lat="46.0100279" lon="11.9508945"><ele>266.4</ele><time>2026-05-04T15:36:14.4Z</time></trkpt><trkpt lat="46.0101183" lon="11.9508145"><ele>268.2</ele><time>2026-05-04T15:36:16.4Z</time></trkpt><trkpt lat="46.0102035" lon="11.9507232"><ele>270.0</ele><time>2026-05-04T15:36:18.399Z</time></trkpt><trkpt lat="46.0102755" lon="11.9506081"><ele>266.42857142857144</ele><time>2026-05-04T15:36:20.399Z</time></trkpt><trkpt lat="46.0103275" lon="11.9505003"><ele>262.85714285714283</ele><time>2026-05-04T15:36:22.397Z</time></trkpt><trkpt lat="46.0103709" lon="11.9504206"><ele>259.2857142857143</ele><time>2026-05-04T15:36:25.399Z</time></trkpt><trkpt lat="46.0103739" lon="11.9505208"><ele>255.71428571428572</ele><time>2026-05-04T15:36:28.398Z</time></trkpt><trkpt lat="46.0103522" lon="11.950617"><ele>252.14285714285714</ele><time>2026-05-04T15:36:30.402Z</time></trkpt><trkpt lat="46.010339" lon="11.950717"><ele>248.57142857142856</ele><time>2026-05-04T15:36:32.401Z</time></trkpt><trkpt lat="46.0103291" lon="11.9508246"><ele>245.0</ele><time>2026-05-04T15:36:34.4Z</time></trkpt><trkpt lat="46.0103172" lon="11.9509492"><ele>245.0</ele><time>2026-05-04T15:36:36.402Z</time></trkpt><trkpt lat="46.0103094" lon="11.9510881"><ele>245.0</ele><time>2026-05-04T15:36:38.4Z</time></trkpt><trkpt lat="46.0103067" lon="11.9512303"><ele>245.0</ele><time>2026-05-04T15:36:40.4Z</time></trkpt><trkpt lat="46.0103173" lon="11.951374"><ele>245.0</ele><time>2026-05-04T15:36:42.401Z</time></trkpt><trkpt lat="46.0103298" lon="11.9515173"><ele>245.0</ele><time>2026-05-04T15:36:44.399Z</time></trkpt><trkpt lat="46.0103584" lon="11.9516637"><ele>245.6</ele><time>2026-05-04T15:36:46.403Z</time></trkpt><trkpt lat="46.0103756" lon="11.9518053"><ele>246.2</ele><time>2026-05-04T15:36:48.401Z</time></trkpt><trkpt lat="46.0103969" lon="11.9519398"><ele>246.8</ele><time>2026-05-04T15:36:50.403Z</time></trkpt><trkpt lat="46.0104236" lon="11.9520821"><ele>247.4</ele><time>2026-05-04T15:36:52.4Z</time></trkpt><trkpt lat="46.0104575" lon="11.95221"><ele>248.0</ele><time>2026-05-04T15:36:54.4Z</time></trkpt><trkpt lat="46.0104952" lon="11.9523263"><ele>248.0</ele><time>2026-05-04T15:36:56.4Z</time></trkpt><trkpt lat="46.0105266" lon="11.952441"><ele>248.0</ele><time>2026-05-04T15:36:58.4Z</time></trkpt><trkpt lat="46.0105571" lon="11.9525636"><ele>248.0</ele><time>2026-05-04T15:37:00.401Z</time></trkpt><trkpt lat="46.0105976" lon="11.9526831"><ele>248.0</ele><time>2026-05-04T15:37:02.4Z</time></trkpt><trkpt lat="46.010637" lon="11.9528032"><ele>248.0</ele><time>2026-05-04T15:37:04.401Z</time></trkpt><trkpt lat="46.0106695" lon="11.9529246"><ele>249.2</ele><time>2026-05-04T15:37:06.401Z</time></trkpt><trkpt lat="46.0106982" lon="11.9530487"><ele>250.4</ele><time>2026-05-04T15:37:08.401Z</time></trkpt><trkpt lat="46.0107107" lon="11.9531799"><ele>251.59999999999997</ele><time>2026-05-04T15:37:10.4Z</time></trkpt><trkpt lat="46.0107125" lon="11.9533126"><ele>252.79999999999998</ele><time>2026-05-04T15:37:12.4Z</time></trkpt><trkpt lat="46.0107072" lon="11.9534536"><ele>254.0</ele><time>2026-05-04T15:37:14.402Z</time></trkpt><trkpt lat="46.0107024" lon="11.9535908"><ele>255.0</ele><time>2026-05-04T15:37:16.4Z</time></trkpt><trkpt lat="46.0107014" lon="11.9537295"><ele>255.99999999999997</ele><time>2026-05-04T15:37:18.4Z</time></trkpt><trkpt lat="46.0107069" lon="11.9538704"><ele>257.0</ele><time>2026-05-04T15:37:20.4Z</time></trkpt><trkpt lat="46.0107149" lon="11.9540106"><ele>258.0</ele><time>2026-05-04T15:37:22.4Z</time></trkpt><trkpt lat="46.0107294" lon="11.9541499"><ele>259.0</ele><time>2026-05-04T15:37:24.402Z</time></trkpt><trkpt lat="46.0107537" lon="11.9542804"><ele>259.2</ele><time>2026-05-04T15:37:26.4Z</time></trkpt><trkpt lat="46.0107785" lon="11.9544093"><ele>259.4</ele><time>2026-05-04T15:37:28.401Z</time></trkpt><trkpt lat="46.0108075" lon="11.9545412"><ele>259.6</ele><time>2026-05-04T15:37:30.401Z</time></trkpt><trkpt lat="46.0108417" lon="11.9546696"><ele>259.8</ele><time>2026-05-04T15:37:32.4Z</time></trkpt><trkpt lat="46.0108656" lon="11.954803"><ele>260.0</ele><time>2026-05-04T15:37:34.401Z</time></trkpt><trkpt lat="46.0108875" lon="11.954944"><ele>254.4</ele><time>2026-05-04T15:37:36.401Z</time></trkpt><trkpt lat="46.0109007" lon="11.9550904"><ele>248.8</ele><time>2026-05-04T15:37:38.4Z</time></trkpt><trkpt lat="46.0109129" lon="11.9552365"><ele>243.2</ele><time>2026-05-04T15:37:40.4Z</time></trkpt><trkpt lat="46.0109211" lon="11.9553717"><ele>237.6</ele><time>2026-05-04T15:37:42.4Z</time></trkpt><trkpt lat="46.0109304" lon="11.9555225"><ele>232.0</ele><time>2026-05-04T15:37:44.4Z</time></trkpt><trkpt lat="46.0109351" lon="11.9556718"><ele>232.0</ele><time>2026-05-04T15:37:46.4Z</time></trkpt><trkpt lat="46.0109351" lon="11.955816"><ele>232.0</ele><time>2026-05-04T15:37:48.4Z</time></trkpt><trkpt lat="46.0109399" lon="11.9559548"><ele>232.0</ele><time>2026-05-04T15:37:50.401Z</time></trkpt><trkpt lat="46.0109515" lon="11.9560829"><ele>232.0</ele><time>2026-05-04T15:37:52.4Z</time></trkpt><trkpt lat="46.0109644" lon="11.956212"><ele>232.0</ele><time>2026-05-04T15:37:54.401Z</time></trkpt><trkpt lat="46.0109773" lon="11.9563434"><ele>232.39999999999998</ele><time>2026-05-04T15:37:56.398Z</time></trkpt><trkpt lat="46.0109992" lon="11.9564791"><ele>232.79999999999998</ele><time>2026-05-04T15:37:58.4Z</time></trkpt><trkpt lat="46.0110186" lon="11.9566166"><ele>233.2</ele><time>2026-05-04T15:38:00.401Z</time></trkpt><trkpt lat="46.0110377" lon="11.9567466"><ele>233.6</ele><time>2026-05-04T15:38:02.4Z</time></trkpt><trkpt lat="46.0110602" lon="11.9568751"><ele>234.0</ele><time>2026-05-04T15:38:04.403Z</time></trkpt><trkpt lat="46.0110808" lon="11.9570028"><ele>234.66666666666666</ele><time>2026-05-04T15:38:06.4Z</time></trkpt><trkpt lat="46.0110985" lon="11.9571318"><ele>235.33333333333331</ele><time>2026-05-04T15:38:08.4Z</time></trkpt><trkpt lat="46.0111115" lon="11.9572552"><ele>236.0</ele><time>2026-05-04T15:38:10.4Z</time></trkpt><trkpt lat="46.0111241" lon="11.9573841"><ele>236.66666666666666</ele><time>2026-05-04T15:38:12.401Z</time></trkpt><trkpt lat="46.0111197" lon="11.9575186"><ele>237.33333333333331</ele><time>2026-05-04T15:38:14.401Z</time></trkpt><trkpt lat="46.0111207" lon="11.9576446"><ele>238.0</ele><time>2026-05-04T15:38:16.401Z</time></trkpt><trkpt lat="46.0111196" lon="11.9577675"><ele>238.99999999999997</ele><time>2026-05-04T15:38:18.4Z</time></trkpt><trkpt lat="46.0111213" lon="11.9578946"><ele>240.0</ele><time>2026-05-04T15:38:20.402Z</time></trkpt><trkpt lat="46.0111307" lon="11.9580165"><ele>241.0</ele><time>2026-05-04T15:38:22.398Z</time></trkpt><trkpt lat="46.0111413" lon="11.9581402"><ele>242.0</ele><time>2026-05-04T15:38:24.401Z</time></trkpt><trkpt lat="46.0111613" lon="11.9582614"><ele>242.99999999999997</ele><time>2026-05-04T15:38:26.397Z</time></trkpt><trkpt lat="46.0111883" lon="11.9583865"><ele>244.0</ele><time>2026-05-04T15:38:28.399Z</time></trkpt><trkpt lat="46.0112153" lon="11.9585214"><ele>244.79999999999998</ele><time>2026-05-04T15:38:30.399Z</time></trkpt><trkpt lat="46.0112483" lon="11.9586419"><ele>245.59999999999997</ele><time>2026-05-04T15:38:32.399Z</time></trkpt><trkpt lat="46.0112863" lon="11.9587612"><ele>246.4</ele><time>2026-05-04T15:38:34.401Z</time></trkpt><trkpt lat="46.0113337" lon="11.9588822"><ele>247.2</ele><time>2026-05-04T15:38:36.4Z</time></trkpt><trkpt lat="46.0113893" lon="11.958999"><ele>248.0</ele><time>2026-05-04T15:38:38.401Z</time></trkpt><trkpt lat="46.0114435" lon="11.9591064"><ele>248.4</ele><time>2026-05-04T15:38:40.397Z</time></trkpt><trkpt lat="46.0115033" lon="11.9592146"><ele>248.8</ele><time>2026-05-04T15:38:42.401Z</time></trkpt><trkpt lat="46.0115602" lon="11.9593285"><ele>249.2</ele><time>2026-05-04T15:38:44.401Z</time></trkpt><trkpt lat="46.0116114" lon="11.9594454"><ele>249.6</ele><time>2026-05-04T15:38:46.4Z</time></trkpt><trkpt lat="46.011656" lon="11.9595724"><ele>250.0</ele><time>2026-05-04T15:38:48.4Z</time></trkpt><trkpt lat="46.0116937" lon="11.959702"><ele>245.8</ele><time>2026-05-04T15:38:50.399Z</time></trkpt><trkpt lat="46.0117166" lon="11.9598356"><ele>241.6</ele><time>2026-05-04T15:38:52.4Z</time></trkpt><trkpt lat="46.011726" lon="11.9599725"><ele>237.39999999999998</ele><time>2026-05-04T15:38:54.4Z</time></trkpt><trkpt lat="46.0117267" lon="11.9601104"><ele>233.2</ele><time>2026-05-04T15:38:56.401Z</time></trkpt><trkpt lat="46.0117222" lon="11.9602536"><ele>229.0</ele><time>2026-05-04T15:38:58.401Z</time></trkpt><trkpt lat="46.0117194" lon="11.9604009"><ele>228.6</ele><time>2026-05-04T15:39:00.401Z</time></trkpt><trkpt lat="46.0117141" lon="11.9605514"><ele>228.2</ele><time>2026-05-04T15:39:02.4Z</time></trkpt><trkpt lat="46.0117096" lon="11.9606994"><ele>227.79999999999998</ele><time>2026-05-04T15:39:04.4Z</time></trkpt><trkpt lat="46.011709" lon="11.9608418"><ele>227.39999999999998</ele><time>2026-05-04T15:39:06.401Z</time></trkpt><trkpt lat="46.0117103" lon="11.9609789"><ele>227.0</ele><time>2026-05-04T15:39:08.401Z</time></trkpt><trkpt lat="46.0117066" lon="11.9611068"><ele>226.66666666666669</ele><time>2026-05-04T15:39:10.401Z</time></trkpt><trkpt lat="46.0117009" lon="11.9612363"><ele>226.33333333333334</ele><time>2026-05-04T15:39:12.4Z</time></trkpt><trkpt lat="46.0116946" lon="11.9613634"><ele>226.0</ele><time>2026-05-04T15:39:14.4Z</time></trkpt><trkpt lat="46.0116892" lon="11.9614914"><ele>225.66666666666669</ele><time>2026-05-04T15:39:16.4Z</time></trkpt><trkpt lat="46.011682" lon="11.9616193"><ele>225.33333333333334</ele><time>2026-05-04T15:39:18.399Z</time></trkpt><trkpt lat="46.0116764" lon="11.9617491"><ele>225.0</ele><time>2026-05-04T15:39:20.401Z</time></trkpt><trkpt lat="46.0116652" lon="11.9618885"><ele>225.4</ele><time>2026-05-04T15:39:22.4Z</time></trkpt><trkpt lat="46.0116505" lon="11.9620306"><ele>225.8</ele><time>2026-05-04T15:39:24.399Z</time></trkpt><trkpt lat="46.0116323" lon="11.9621735"><ele>226.2</ele><time>2026-05-04T15:39:26.403Z</time></trkpt><trkpt lat="46.0116003" lon="11.9623085"><ele>226.6</ele><time>2026-05-04T15:39:28.4Z</time></trkpt><trkpt lat="46.0115606" lon="11.9624391"><ele>227.0</ele><time>2026-05-04T15:39:30.401Z</time></trkpt><trkpt lat="46.0115143" lon="11.9625667"><ele>227.0</ele><time>2026-05-04T15:39:32.4Z</time></trkpt><trkpt lat="46.0114733" lon="11.962693"><ele>227.0</ele><time>2026-05-04T15:39:34.403Z</time></trkpt><trkpt lat="46.0114423" lon="11.9628156"><ele>227.0</ele><time>2026-05-04T15:39:36.4Z</time></trkpt><trkpt lat="46.0114048" lon="11.9629345"><ele>227.0</ele><time>2026-05-04T15:39:38.399Z</time></trkpt><trkpt lat="46.0113636" lon="11.963049"><ele>227.0</ele><time>2026-05-04T15:39:40.401Z</time></trkpt><trkpt lat="46.0113231" lon="11.9631639"><ele>227.0</ele><time>2026-05-04T15:39:42.4Z</time></trkpt><trkpt lat="46.011283" lon="11.9632867"><ele>227.0</ele><time>2026-05-04T15:39:44.402Z</time></trkpt><trkpt lat="46.0112459" lon="11.9634077"><ele>227.0</ele><time>2026-05-04T15:39:46.401Z</time></trkpt><trkpt lat="46.0112076" lon="11.9635288"><ele>227.0</ele><time>2026-05-04T15:39:48.402Z</time></trkpt><trkpt lat="46.0111675" lon="11.9636473"><ele>227.0</ele><time>2026-05-04T15:39:50.402Z</time></trkpt><trkpt lat="46.0111257" lon="11.963767"><ele>226.2</ele><time>2026-05-04T15:39:52.4Z</time></trkpt><trkpt lat="46.011083" lon="11.9638871"><ele>225.39999999999998</ele><time>2026-05-04T15:39:54.401Z</time></trkpt><trkpt lat="46.0110475" lon="11.9640127"><ele>224.60000000000002</ele><time>2026-05-04T15:39:56.403Z</time></trkpt><trkpt lat="46.0110147" lon="11.9641371"><ele>223.8</ele><time>2026-05-04T15:39:58.401Z</time></trkpt><trkpt lat="46.0109826" lon="11.9642613"><ele>223.0</ele><time>2026-05-04T15:40:00.401Z</time></trkpt><trkpt lat="46.0109486" lon="11.9643791"><ele>222.99999999999997</ele><time>2026-05-04T15:40:02.401Z</time></trkpt><trkpt lat="46.0109142" lon="11.9645007"><ele>223.0</ele><time>2026-05-04T15:40:04.402Z</time></trkpt><trkpt lat="46.0108847" lon="11.9646199"><ele>223.0</ele><time>2026-05-04T15:40:06.402Z</time></trkpt><trkpt lat="46.010855" lon="11.9647406"><ele>223.0</ele><time>2026-05-04T15:40:08.402Z</time></trkpt><trkpt lat="46.0108306" lon="11.964863"><ele>222.99999999999997</ele><time>2026-05-04T15:40:10.401Z</time></trkpt><trkpt lat="46.0108043" lon="11.9649775"><ele>223.0</ele><time>2026-05-04T15:40:12.402Z</time></trkpt><trkpt lat="46.0107845" lon="11.9650829"><ele>223.16666666666666</ele><time>2026-05-04T15:40:14.403Z</time></trkpt><trkpt lat="46.0107659" lon="11.9651855"><ele>223.33333333333331</ele><time>2026-05-04T15:40:18.403Z</time></trkpt><trkpt lat="46.0107409" lon="11.9652992"><ele>223.5</ele><time>2026-05-04T15:40:22.403Z</time></trkpt><trkpt lat="46.0107243" lon="11.9653888"><ele>223.66666666666669</ele><time>2026-05-04T15:40:24.401Z</time></trkpt><trkpt lat="46.0107112" lon="11.9654912"><ele>223.83333333333334</ele><time>2026-05-04T15:40:26.401Z</time></trkpt><trkpt lat="46.0107002" lon="11.9656032"><ele>224.0</ele><time>2026-05-04T15:40:28.403Z</time></trkpt><trkpt lat="46.0106949" lon="11.9657196"><ele>224.00000000000003</ele><time>2026-05-04T15:40:30.402Z</time></trkpt><trkpt lat="46.0106759" lon="11.9658357"><ele>224.0</ele><time>2026-05-04T15:40:32.401Z</time></trkpt><trkpt lat="46.0106461" lon="11.9659547"><ele>224.0</ele><time>2026-05-04T15:40:34.402Z</time></trkpt><trkpt lat="46.0106221" lon="11.9660659"><ele>224.0</ele><time>2026-05-04T15:40:36.402Z</time></trkpt><trkpt lat="46.0105973" lon="11.9661708"><ele>224.00000000000003</ele><time>2026-05-04T15:40:38.401Z</time></trkpt><trkpt lat="46.0105685" lon="11.9662695"><ele>224.0</ele><time>2026-05-04T15:40:40.402Z</time></trkpt><trkpt lat="46.0105409" lon="11.9663719"><ele>224.00000000000003</ele><time>2026-05-04T15:40:42.399Z</time></trkpt><trkpt lat="46.0105202" lon="11.9664858"><ele>224.0</ele><time>2026-05-04T15:40:44.4Z</time></trkpt><trkpt lat="46.0105049" lon="11.966605"><ele>224.0</ele><time>2026-05-04T15:40:46.401Z</time></trkpt><trkpt lat="46.0104924" lon="11.9667233"><ele>224.0</ele><time>2026-05-04T15:40:48.401Z</time></trkpt><trkpt lat="46.0104821" lon="11.9668372"><ele>224.00000000000003</ele><time>2026-05-04T15:40:50.401Z</time></trkpt><trkpt lat="46.0104696" lon="11.9669383"><ele>224.0</ele><time>2026-05-04T15:40:52.4Z</time></trkpt><trkpt lat="46.0104721" lon="11.9670681"><ele>224.14285714285714</ele><time>2026-05-04T15:40:55.401Z</time></trkpt><trkpt lat="46.0105224" lon="11.9671232"><ele>224.28571428571428</ele><time>2026-05-04T15:40:57.401Z</time></trkpt><trkpt lat="46.0105948" lon="11.9671164"><ele>224.42857142857144</ele><time>2026-05-04T15:40:59.401Z</time></trkpt><trkpt lat="46.0106675" lon="11.967071"><ele>224.57142857142858</ele><time>2026-05-04T15:41:01.401Z</time></trkpt><trkpt lat="46.0107314" lon="11.9670145"><ele>224.71428571428572</ele><time>2026-05-04T15:41:03.401Z</time></trkpt><trkpt lat="46.0107877" lon="11.9669678"><ele>224.8571428571429</ele><time>2026-05-04T15:41:05.401Z</time></trkpt><trkpt lat="46.0108451" lon="11.9669275"><ele>225.00000000000003</ele><time>2026-05-04T15:41:07.401Z</time></trkpt><trkpt lat="46.0109073" lon="11.9668914"><ele>225.0</ele><time>2026-05-04T15:41:09.404Z</time></trkpt><trkpt lat="46.0109726" lon="11.9668483"><ele>225.0</ele><time>2026-05-04T15:41:11.401Z</time></trkpt><trkpt lat="46.0110363" lon="11.9667895"><ele>225.0</ele><time>2026-05-04T15:41:13.402Z</time></trkpt><trkpt lat="46.0111038" lon="11.9667248"><ele>225.0</ele><time>2026-05-04T15:41:15.402Z</time></trkpt><trkpt lat="46.0111707" lon="11.9666655"><ele>225.0</ele><time>2026-05-04T15:41:17.401Z</time></trkpt><trkpt lat="46.0112386" lon="11.9666055"><ele>225.0</ele><time>2026-05-04T15:41:19.4Z</time></trkpt><trkpt lat="46.011306" lon="11.9665488"><ele>225.0</ele><time>2026-05-04T15:41:21.4Z</time></trkpt><trkpt lat="46.0113725" lon="11.9664922"><ele>225.0</ele><time>2026-05-04T15:41:23.401Z</time></trkpt><trkpt lat="46.0114393" lon="11.9664408"><ele>225.0</ele><time>2026-05-04T15:41:25.4Z</time></trkpt><trkpt lat="46.0115057" lon="11.9664511"><ele>225.0</ele><time>2026-05-04T15:41:27.401Z</time></trkpt><trkpt lat="46.0115586" lon="11.9665138"><ele>225.0</ele><time>2026-05-04T15:41:29.401Z</time></trkpt><trkpt lat="46.0116119" lon="11.9665937"><ele>225.0</ele><time>2026-05-04T15:41:31.402Z</time></trkpt><trkpt lat="46.011674" lon="11.9666824"><ele>225.0</ele><time>2026-05-04T15:41:33.403Z</time></trkpt><trkpt lat="46.0117366" lon="11.9667788"><ele>225.0</ele><time>2026-05-04T15:41:35.402Z</time></trkpt><trkpt lat="46.011805" lon="11.9668738"><ele>225.0</ele><time>2026-05-04T15:41:37.402Z</time></trkpt><trkpt lat="46.0118703" lon="11.9669643"><ele>225.0</ele><time>2026-05-04T15:41:39.401Z</time></trkpt><trkpt lat="46.0119368" lon="11.9670488"><ele>225.0</ele><time>2026-05-04T15:41:41.402Z</time></trkpt><trkpt lat="46.0120021" lon="11.9671401"><ele>225.0</ele><time>2026-05-04T15:41:43.4Z</time></trkpt><trkpt lat="46.0120705" lon="11.9672275"><ele>225.0</ele><time>2026-05-04T15:41:45.402Z</time></trkpt><trkpt lat="46.0121338" lon="11.9673197"><ele>225.0</ele><time>2026-05-04T15:41:47.402Z</time></trkpt><trkpt lat="46.0121939" lon="11.9674127"><ele>225.0</ele><time>2026-05-04T15:41:49.4Z</time></trkpt><trkpt lat="46.0122452" lon="11.9675067"><ele>225.0</ele><time>2026-05-04T15:41:51.401Z</time></trkpt><trkpt lat="46.012301" lon="11.9676068"><ele>225.0</ele><time>2026-05-04T15:41:53.401Z</time></trkpt><trkpt lat="46.0123599" lon="11.9677041"><ele>224.8</ele><time>2026-05-04T15:41:55.4Z</time></trkpt><trkpt lat="46.0124173" lon="11.9678104"><ele>224.6</ele><time>2026-05-04T15:41:57.402Z</time></trkpt><trkpt lat="46.0124732" lon="11.9679199"><ele>224.39999999999998</ele><time>2026-05-04T15:41:59.401Z</time></trkpt><trkpt lat="46.0125352" lon="11.9680131"><ele>224.2</ele><time>2026-05-04T15:42:01.401Z</time></trkpt><trkpt lat="46.012614" lon="11.968089"><ele>224.0</ele><time>2026-05-04T15:42:03.402Z</time></trkpt><trkpt lat="46.0126922" lon="11.9681318"><ele>224.0</ele><time>2026-05-04T15:42:05.401Z</time></trkpt><trkpt lat="46.0127794" lon="11.9681498"><ele>223.99999999999997</ele><time>2026-05-04T15:42:07.402Z</time></trkpt><trkpt lat="46.0128723" lon="11.968148"><ele>223.99999999999997</ele><time>2026-05-04T15:42:09.402Z</time></trkpt><trkpt lat="46.0129657" lon="11.9681356"><ele>224.0</ele><time>2026-05-04T15:42:11.402Z</time></trkpt><trkpt lat="46.0130585" lon="11.9681124"><ele>224.0</ele><time>2026-05-04T15:42:13.402Z</time></trkpt><trkpt lat="46.0131518" lon="11.9680972"><ele>224.0</ele><time>2026-05-04T15:42:15.401Z</time></trkpt><trkpt lat="46.013242" lon="11.9680827"><ele>223.99999999999997</ele><time>2026-05-04T15:42:17.401Z</time></trkpt><trkpt lat="46.0133352" lon="11.9680655"><ele>223.99999999999997</ele><time>2026-05-04T15:42:19.401Z</time></trkpt><trkpt lat="46.0134277" lon="11.9680619"><ele>224.0</ele><time>2026-05-04T15:42:21.402Z</time></trkpt><trkpt lat="46.0135208" lon="11.9680739"><ele>224.0</ele><time>2026-05-04T15:42:23.401Z</time></trkpt><trkpt lat="46.0136152" lon="11.968097"><ele>223.79999999999998</ele><time>2026-05-04T15:42:25.401Z</time></trkpt><trkpt lat="46.0137123" lon="11.9681224"><ele>223.59999999999997</ele><time>2026-05-04T15:42:27.399Z</time></trkpt><trkpt lat="46.0138109" lon="11.9681481"><ele>223.4</ele><time>2026-05-04T15:42:29.399Z</time></trkpt><trkpt lat="46.0139071" lon="11.9681699"><ele>223.2</ele><time>2026-05-04T15:42:31.4Z</time></trkpt><trkpt lat="46.0139978" lon="11.9681898"><ele>223.0</ele><time>2026-05-04T15:42:33.4Z</time></trkpt><trkpt lat="46.0140875" lon="11.968216"><ele>223.4</ele><time>2026-05-04T15:42:35.4Z</time></trkpt><trkpt lat="46.0141761" lon="11.9682519"><ele>223.8</ele><time>2026-05-04T15:42:37.4Z</time></trkpt><trkpt lat="46.0142613" lon="11.9683043"><ele>224.2</ele><time>2026-05-04T15:42:39.401Z</time></trkpt><trkpt lat="46.0143332" lon="11.9683882"><ele>224.6</ele><time>2026-05-04T15:42:41.401Z</time></trkpt><trkpt lat="46.014393" lon="11.9684841"><ele>225.0</ele><time>2026-05-04T15:42:43.401Z</time></trkpt><trkpt lat="46.0144425" lon="11.968584"><ele>225.0</ele><time>2026-05-04T15:42:45.402Z</time></trkpt><trkpt lat="46.0144805" lon="11.9686869"><ele>225.0</ele><time>2026-05-04T15:42:47.402Z</time></trkpt><trkpt lat="46.0145191" lon="11.9688052"><ele>225.0</ele><time>2026-05-04T15:42:49.401Z</time></trkpt><trkpt lat="46.014569" lon="11.9689233"><ele>225.0</ele><time>2026-05-04T15:42:51.4Z</time></trkpt><trkpt lat="46.0146385" lon="11.969032"><ele>225.0</ele><time>2026-05-04T15:42:53.401Z</time></trkpt><trkpt lat="46.0147214" lon="11.9691182"><ele>225.0</ele><time>2026-05-04T15:42:55.4Z</time></trkpt><trkpt lat="46.014815" lon="11.9691851"><ele>225.0</ele><time>2026-05-04T15:42:57.402Z</time></trkpt><trkpt lat="46.0149135" lon="11.9692479"><ele>225.0</ele><time>2026-05-04T15:42:59.402Z</time></trkpt><trkpt lat="46.0150026" lon="11.9693286"><ele>225.0</ele><time>2026-05-04T15:43:01.401Z</time></trkpt><trkpt lat="46.0150715" lon="11.9694311"><ele>225.0</ele><time>2026-05-04T15:43:03.402Z</time></trkpt><trkpt lat="46.0151293" lon="11.9695394"><ele>225.0</ele><time>2026-05-04T15:43:05.401Z</time></trkpt><trkpt lat="46.0151814" lon="11.9696413"><ele>225.0</ele><time>2026-05-04T15:43:07.401Z</time></trkpt><trkpt lat="46.0152339" lon="11.9697417"><ele>225.0</ele><time>2026-05-04T15:43:09.401Z</time></trkpt><trkpt lat="46.0152948" lon="11.9698495"><ele>225.0</ele><time>2026-05-04T15:43:11.402Z</time></trkpt><trkpt lat="46.0153528" lon="11.9699665"><ele>225.0</ele><time>2026-05-04T15:43:13.401Z</time></trkpt><trkpt lat="46.0154002" lon="11.9700858"><ele>224.6</ele><time>2026-05-04T15:43:15.401Z</time></trkpt><trkpt lat="46.0154393" lon="11.9702076"><ele>224.2</ele><time>2026-05-04T15:43:17.4Z</time></trkpt><trkpt lat="46.0154768" lon="11.9703316"><ele>223.8</ele><time>2026-05-04T15:43:19.403Z</time></trkpt><trkpt lat="46.0155142" lon="11.9704562"><ele>223.4</ele><time>2026-05-04T15:43:21.4Z</time></trkpt><trkpt lat="46.0155528" lon="11.9705802"><ele>223.0</ele><time>2026-05-04T15:43:23.4Z</time></trkpt><trkpt lat="46.0155893" lon="11.9706992"><ele>223.0</ele><time>2026-05-04T15:43:25.4Z</time></trkpt><trkpt lat="46.0156212" lon="11.9708196"><ele>223.0</ele><time>2026-05-04T15:43:27.401Z</time></trkpt><trkpt lat="46.0156443" lon="11.9709455"><ele>223.0</ele><time>2026-05-04T15:43:29.402Z</time></trkpt><trkpt lat="46.0156642" lon="11.9710779"><ele>223.0</ele><time>2026-05-04T15:43:31.401Z</time></trkpt><trkpt lat="46.0156797" lon="11.9712128"><ele>223.0</ele><time>2026-05-04T15:43:33.401Z</time></trkpt><trkpt lat="46.0156923" lon="11.9713568"><ele>222.99999999999997</ele><time>2026-05-04T15:43:35.401Z</time></trkpt><trkpt lat="46.0156934" lon="11.9714766"><ele>223.0</ele><time>2026-05-04T15:43:37.401Z</time></trkpt><trkpt lat="46.0156931" lon="11.9715903"><ele>223.0</ele><time>2026-05-04T15:43:40.402Z</time></trkpt><trkpt lat="46.0157536" lon="11.9716416"><ele>223.0</ele><time>2026-05-04T15:43:43.399Z</time></trkpt><trkpt lat="46.0158208" lon="11.9716657"><ele>222.99999999999997</ele><time>2026-05-04T15:43:45.401Z</time></trkpt><trkpt lat="46.0159079" lon="11.9716689"><ele>223.0</ele><time>2026-05-04T15:43:47.4Z</time></trkpt><trkpt lat="46.0159963" lon="11.9716705"><ele>223.49999999999997</ele><time>2026-05-04T15:43:49.401Z</time></trkpt><trkpt lat="46.0160861" lon="11.9716597"><ele>224.0</ele><time>2026-05-04T15:43:51.401Z</time></trkpt><trkpt lat="46.016171" lon="11.971644"><ele>224.5</ele><time>2026-05-04T15:43:53.4Z</time></trkpt><trkpt lat="46.016247" lon="11.9716201"><ele>225.0</ele><time>2026-05-04T15:43:55.4Z</time></trkpt><trkpt lat="46.016322" lon="11.9715987"><ele>225.49999999999997</ele><time>2026-05-04T15:43:57.401Z</time></trkpt><trkpt lat="46.0164047" lon="11.9716084"><ele>226.0</ele><time>2026-05-04T15:43:59.401Z</time></trkpt><trkpt lat="46.0164905" lon="11.9716369"><ele>225.99999999999997</ele><time>2026-05-04T15:44:01.4Z</time></trkpt><trkpt lat="46.0165744" lon="11.971669"><ele>226.0</ele><time>2026-05-04T15:44:03.401Z</time></trkpt><trkpt lat="46.0166583" lon="11.9717095"><ele>226.0</ele><time>2026-05-04T15:44:05.403Z</time></trkpt><trkpt lat="46.0167385" lon="11.9717512"><ele>226.0</ele><time>2026-05-04T15:44:07.4Z</time></trkpt><trkpt lat="46.0168182" lon="11.9717849"><ele>225.99999999999997</ele><time>2026-05-04T15:44:09.399Z</time></trkpt><trkpt lat="46.0168933" lon="11.971802"><ele>226.0</ele><time>2026-05-04T15:44:11.4Z</time></trkpt><trkpt lat="46.0169539" lon="11.97177"><ele>226.0</ele><time>2026-05-04T15:44:13.402Z</time></trkpt><trkpt lat="46.0169931" lon="11.9716958"><ele>226.0</ele><time>2026-05-04T15:44:15.401Z</time></trkpt><trkpt lat="46.0170041" lon="11.9715883"><ele>226.0</ele><time>2026-05-04T15:44:17.401Z</time></trkpt><trkpt lat="46.0170006" lon="11.9714775"><ele>226.0</ele><time>2026-05-04T15:44:19.4Z</time></trkpt><trkpt lat="46.0169914" lon="11.9713666"><ele>226.0</ele><time>2026-05-04T15:44:21.401Z</time></trkpt><trkpt lat="46.0169811" lon="11.9712565"><ele>226.0</ele><time>2026-05-04T15:44:23.4Z</time></trkpt><trkpt lat="46.0169731" lon="11.9711459"><ele>226.0</ele><time>2026-05-04T15:44:25.402Z</time></trkpt><trkpt lat="46.0169632" lon="11.9710375"><ele>226.66666666666666</ele><time>2026-05-04T15:44:27.401Z</time></trkpt><trkpt lat="46.0169543" lon="11.9709252"><ele>227.33333333333331</ele><time>2026-05-04T15:44:29.401Z</time></trkpt><trkpt lat="46.0169469" lon="11.9708104"><ele>228.0</ele><time>2026-05-04T15:44:31.402Z</time></trkpt><trkpt lat="46.0169444" lon="11.9706957"><ele>228.66666666666669</ele><time>2026-05-04T15:44:33.4Z</time></trkpt><trkpt lat="46.0169422" lon="11.9705876"><ele>229.33333333333334</ele><time>2026-05-04T15:44:35.401Z</time></trkpt><trkpt lat="46.016937" lon="11.9704683"><ele>230.0</ele><time>2026-05-04T15:44:37.401Z</time></trkpt><trkpt lat="46.0169376" lon="11.9703435"><ele>230.00000000000003</ele><time>2026-05-04T15:44:39.402Z</time></trkpt><trkpt lat="46.0169349" lon="11.9702202"><ele>230.0</ele><time>2026-05-04T15:44:41.401Z</time></trkpt><trkpt lat="46.016932" lon="11.9700966"><ele>230.0</ele><time>2026-05-04T15:44:43.4Z</time></trkpt><trkpt lat="46.0169392" lon="11.9699684"><ele>230.0</ele><time>2026-05-04T15:44:45.401Z</time></trkpt><trkpt lat="46.016945" lon="11.9698471"><ele>230.00000000000003</ele><time>2026-05-04T15:44:47.4Z</time></trkpt><trkpt lat="46.0169406" lon="11.9697269"><ele>230.0</ele><time>2026-05-04T15:44:49.401Z</time></trkpt><trkpt lat="46.0169331" lon="11.9696075"><ele>229.83333333333334</ele><time>2026-05-04T15:44:51.401Z</time></trkpt><trkpt lat="46.0169255" lon="11.9694878"><ele>229.66666666666669</ele><time>2026-05-04T15:44:53.4Z</time></trkpt><trkpt lat="46.0169248" lon="11.9693626"><ele>229.5</ele><time>2026-05-04T15:44:55.402Z</time></trkpt><trkpt lat="46.0169216" lon="11.969238"><ele>229.33333333333331</ele><time>2026-05-04T15:44:57.402Z</time></trkpt><trkpt lat="46.0169137" lon="11.9691123"><ele>229.16666666666666</ele><time>2026-05-04T15:44:59.401Z</time></trkpt><trkpt lat="46.0169077" lon="11.9689838"><ele>229.0</ele><time>2026-05-04T15:45:01.4Z</time></trkpt><trkpt lat="46.0168983" lon="11.9688555"><ele>229.0</ele><time>2026-05-04T15:45:03.401Z</time></trkpt><trkpt lat="46.0168937" lon="11.9687254"><ele>228.99999999999997</ele><time>2026-05-04T15:45:05.401Z</time></trkpt><trkpt lat="46.016893" lon="11.9685896"><ele>228.99999999999997</ele><time>2026-05-04T15:45:07.4Z</time></trkpt><trkpt lat="46.0168848" lon="11.968456"><ele>229.0</ele><time>2026-05-04T15:45:09.401Z</time></trkpt><trkpt lat="46.0168747" lon="11.9683234"><ele>229.0</ele><time>2026-05-04T15:45:11.4Z</time></trkpt><trkpt lat="46.0168679" lon="11.9681901"><ele>228.83333333333331</ele><time>2026-05-04T15:45:13.4Z</time></trkpt><trkpt lat="46.0168607" lon="11.9680586"><ele>228.66666666666666</ele><time>2026-05-04T15:45:15.402Z</time></trkpt><trkpt lat="46.0168509" lon="11.9679319"><ele>228.5</ele><time>2026-05-04T15:45:17.403Z</time></trkpt><trkpt lat="46.0168442" lon="11.9678033"><ele>228.33333333333331</ele><time>2026-05-04T15:45:19.401Z</time></trkpt><trkpt lat="46.0168294" lon="11.9676761"><ele>228.16666666666666</ele><time>2026-05-04T15:45:21.401Z</time></trkpt><trkpt lat="46.0168117" lon="11.9675495"><ele>228.0</ele><time>2026-05-04T15:45:23.4Z</time></trkpt><trkpt lat="46.0167985" lon="11.9674208"><ele>228.4</ele><time>2026-05-04T15:45:25.399Z</time></trkpt><trkpt lat="46.0167846" lon="11.967291"><ele>228.8</ele><time>2026-05-04T15:45:27.402Z</time></trkpt><trkpt lat="46.0167618" lon="11.9671657"><ele>229.2</ele><time>2026-05-04T15:45:29.401Z</time></trkpt><trkpt lat="46.0167418" lon="11.9670381"><ele>229.6</ele><time>2026-05-04T15:45:31.401Z</time></trkpt><trkpt lat="46.016734" lon="11.9669092"><ele>230.0</ele><time>2026-05-04T15:45:33.402Z</time></trkpt><trkpt lat="46.0167304" lon="11.9667793"><ele>230.4</ele><time>2026-05-04T15:45:35.401Z</time></trkpt><trkpt lat="46.0167237" lon="11.9666478"><ele>230.8</ele><time>2026-05-04T15:45:37.403Z</time></trkpt><trkpt lat="46.0167101" lon="11.966515"><ele>231.2</ele><time>2026-05-04T15:45:39.401Z</time></trkpt><trkpt lat="46.0167028" lon="11.9663817"><ele>231.6</ele><time>2026-05-04T15:45:41.399Z</time></trkpt><trkpt lat="46.0167008" lon="11.9662476"><ele>232.0</ele><time>2026-05-04T15:45:43.402Z</time></trkpt><trkpt lat="46.0166996" lon="11.9661141"><ele>232.0</ele><time>2026-05-04T15:45:45.401Z</time></trkpt><trkpt lat="46.0166929" lon="11.9659809"><ele>232.0</ele><time>2026-05-04T15:45:47.402Z</time></trkpt><trkpt lat="46.0166879" lon="11.965851"><ele>232.0</ele><time>2026-05-04T15:45:49.401Z</time></trkpt><trkpt lat="46.016688" lon="11.9657195"><ele>232.0</ele><time>2026-05-04T15:45:51.401Z</time></trkpt><trkpt lat="46.0166851" lon="11.9655852"><ele>232.0</ele><time>2026-05-04T15:45:53.401Z</time></trkpt><trkpt lat="46.0166792" lon="11.9654547"><ele>232.0</ele><time>2026-05-04T15:45:55.404Z</time></trkpt><trkpt lat="46.0166726" lon="11.9653252"><ele>232.0</ele><time>2026-05-04T15:45:57.402Z</time></trkpt><trkpt lat="46.0166685" lon="11.9651893"><ele>232.0</ele><time>2026-05-04T15:45:59.402Z</time></trkpt><trkpt lat="46.0166668" lon="11.9650552"><ele>232.0</ele><time>2026-05-04T15:46:01.399Z</time></trkpt><trkpt lat="46.0166599" lon="11.9649251"><ele>232.0</ele><time>2026-05-04T15:46:03.401Z</time></trkpt><trkpt lat="46.0166508" lon="11.9647909"><ele>231.83333333333331</ele><time>2026-05-04T15:46:05.399Z</time></trkpt><trkpt lat="46.0166448" lon="11.964658"><ele>231.66666666666666</ele><time>2026-05-04T15:46:07.402Z</time></trkpt><trkpt lat="46.01664" lon="11.9645282"><ele>231.5</ele><time>2026-05-04T15:46:09.403Z</time></trkpt><trkpt lat="46.0166434" lon="11.9644018"><ele>231.33333333333331</ele><time>2026-05-04T15:46:11.4Z</time></trkpt><trkpt lat="46.0166496" lon="11.9642769"><ele>231.16666666666666</ele><time>2026-05-04T15:46:13.403Z</time></trkpt><trkpt lat="46.0166866" lon="11.9641789"><ele>231.0</ele><time>2026-05-04T15:46:15.401Z</time></trkpt><trkpt lat="46.0167458" lon="11.9641376"><ele>230.83333333333334</ele><time>2026-05-04T15:46:17.398Z</time></trkpt><trkpt lat="46.0168032" lon="11.9640998"><ele>230.66666666666669</ele><time>2026-05-04T15:46:19.4Z</time></trkpt><trkpt lat="46.0168643" lon="11.9640301"><ele>230.5</ele><time>2026-05-04T15:46:21.401Z</time></trkpt><trkpt lat="46.0168938" lon="11.9639218"><ele>230.33333333333334</ele><time>2026-05-04T15:46:23.401Z</time></trkpt><trkpt lat="46.0168982" lon="11.9637922"><ele>230.16666666666669</ele><time>2026-05-04T15:46:25.4Z</time></trkpt><trkpt lat="46.0168876" lon="11.963658"><ele>230.0</ele><time>2026-05-04T15:46:27.402Z</time></trkpt><trkpt lat="46.0168772" lon="11.9635209"><ele>230.0</ele><time>2026-05-04T15:46:29.402Z</time></trkpt><trkpt lat="46.0168724" lon="11.9633833"><ele>230.0</ele><time>2026-05-04T15:46:31.401Z</time></trkpt><trkpt lat="46.0168722" lon="11.9632399"><ele>230.0</ele><time>2026-05-04T15:46:33.4Z</time></trkpt><trkpt lat="46.0168661" lon="11.9630999"><ele>230.0</ele><time>2026-05-04T15:46:35.399Z</time></trkpt><trkpt lat="46.0168575" lon="11.9629618"><ele>230.0</ele><time>2026-05-04T15:46:37.402Z</time></trkpt><trkpt lat="46.0168516" lon="11.9628204"><ele>230.4</ele><time>2026-05-04T15:46:39.402Z</time></trkpt><trkpt lat="46.0168455" lon="11.9626816"><ele>230.8</ele><time>2026-05-04T15:46:41.401Z</time></trkpt><trkpt lat="46.016837" lon="11.9625419"><ele>231.2</ele><time>2026-05-04T15:46:43.399Z</time></trkpt><trkpt lat="46.0168273" lon="11.9624051"><ele>231.6</ele><time>2026-05-04T15:46:45.401Z</time></trkpt><trkpt lat="46.0168245" lon="11.9622741"><ele>232.0</ele><time>2026-05-04T15:46:47.401Z</time></trkpt><trkpt lat="46.0168214" lon="11.9621358"><ele>232.0</ele><time>2026-05-04T15:46:49.399Z</time></trkpt><trkpt lat="46.0168165" lon="11.961997"><ele>232.0</ele><time>2026-05-04T15:46:51.401Z</time></trkpt><trkpt lat="46.0168101" lon="11.9618586"><ele>232.0</ele><time>2026-05-04T15:46:53.401Z</time></trkpt><trkpt lat="46.0168064" lon="11.9617202"><ele>232.0</ele><time>2026-05-04T15:46:55.4Z</time></trkpt><trkpt lat="46.0168053" lon="11.961582"><ele>232.0</ele><time>2026-05-04T15:46:57.401Z</time></trkpt><trkpt lat="46.0168079" lon="11.9614458"><ele>232.0</ele><time>2026-05-04T15:46:59.401Z</time></trkpt><trkpt lat="46.0168149" lon="11.9613124"><ele>232.0</ele><time>2026-05-04T15:47:01.401Z</time></trkpt><trkpt lat="46.0168329" lon="11.9611812"><ele>232.0</ele><time>2026-05-04T15:47:03.401Z</time></trkpt><trkpt lat="46.0168767" lon="11.9610657"><ele>232.0</ele><time>2026-05-04T15:47:05.402Z</time></trkpt><trkpt lat="46.0169313" lon="11.9609596"><ele>232.0</ele><time>2026-05-04T15:47:07.4Z</time></trkpt><trkpt lat="46.0169777" lon="11.9608439"><ele>231.8</ele><time>2026-05-04T15:47:09.401Z</time></trkpt><trkpt lat="46.0170222" lon="11.9607261"><ele>231.6</ele><time>2026-05-04T15:47:11.402Z</time></trkpt><trkpt lat="46.0170691" lon="11.9606071"><ele>231.40000000000003</ele><time>2026-05-04T15:47:13.4Z</time></trkpt><trkpt lat="46.0171118" lon="11.9604811"><ele>231.20000000000002</ele><time>2026-05-04T15:47:15.401Z</time></trkpt><trkpt lat="46.017148" lon="11.9603478"><ele>231.0</ele><time>2026-05-04T15:47:17.4Z</time></trkpt><trkpt lat="46.0171874" lon="11.9602135"><ele>231.0</ele><time>2026-05-04T15:47:19.399Z</time></trkpt><trkpt lat="46.0172383" lon="11.960093"><ele>231.00000000000003</ele><time>2026-05-04T15:47:21.401Z</time></trkpt><trkpt lat="46.0173043" lon="11.9599905"><ele>231.00000000000003</ele><time>2026-05-04T15:47:23.401Z</time></trkpt><trkpt lat="46.0173856" lon="11.9599094"><ele>231.0</ele><time>2026-05-04T15:47:25.402Z</time></trkpt><trkpt lat="46.0174693" lon="11.9598386"><ele>231.0</ele><time>2026-05-04T15:47:27.401Z</time></trkpt><trkpt lat="46.0175561" lon="11.9597798"><ele>231.0</ele><time>2026-05-04T15:47:29.401Z</time></trkpt><trkpt lat="46.0176404" lon="11.9597223"><ele>231.00000000000003</ele><time>2026-05-04T15:47:31.4Z</time></trkpt><trkpt lat="46.0177231" lon="11.9596708"><ele>231.00000000000003</ele><time>2026-05-04T15:47:33.401Z</time></trkpt><trkpt lat="46.0178043" lon="11.9596187"><ele>231.0</ele><time>2026-05-04T15:47:35.401Z</time></trkpt><trkpt lat="46.0178852" lon="11.9595696"><ele>231.0</ele><time>2026-05-04T15:47:37.403Z</time></trkpt><trkpt lat="46.0179698" lon="11.9595246"><ele>231.0</ele><time>2026-05-04T15:47:39.402Z</time></trkpt><trkpt lat="46.0180595" lon="11.9594956"><ele>231.00000000000003</ele><time>2026-05-04T15:47:41.4Z</time></trkpt><trkpt lat="46.0181523" lon="11.9594621"><ele>231.00000000000003</ele><time>2026-05-04T15:47:43.401Z</time></trkpt><trkpt lat="46.0182539" lon="11.9594174"><ele>231.0</ele><time>2026-05-04T15:47:45.401Z</time></trkpt><trkpt lat="46.0183626" lon="11.9593503"><ele>231.0</ele><time>2026-05-04T15:47:47.4Z</time></trkpt><trkpt lat="46.0184197" lon="11.9593111"><ele>231.0</ele><time>2026-05-04T15:47:48.401Z</time></trkpt><trkpt lat="46.0184803" lon="11.9592658"><ele>231.0</ele><time>2026-05-04T15:47:49.4Z</time></trkpt><trkpt lat="46.0185454" lon="11.959219"><ele>231.0</ele><time>2026-05-04T15:47:50.4Z</time></trkpt><trkpt lat="46.0186105" lon="11.9591774"><ele>231.0</ele><time>2026-05-04T15:47:51.402Z</time></trkpt><trkpt lat="46.0186751" lon="11.9591365"><ele>231.0</ele><time>2026-05-04T15:47:52.4Z</time></trkpt><trkpt lat="46.018738" lon="11.9590911"><ele>231.0</ele><time>2026-05-04T15:47:53.4Z</time></trkpt><trkpt lat="46.0187972" lon="11.9590506"><ele>231.0</ele><time>2026-05-04T15:47:54.4Z</time></trkpt><trkpt lat="46.0189036" lon="11.958977"><ele>231.0</ele><time>2026-05-04T15:47:56.4Z</time></trkpt><trkpt lat="46.0190059" lon="11.9589001"><ele>231.00000000000003</ele><time>2026-05-04T15:47:58.402Z</time></trkpt><trkpt lat="46.0191064" lon="11.9588298"><ele>231.00000000000003</ele><time>2026-05-04T15:48:00.4Z</time></trkpt><trkpt lat="46.0192039" lon="11.9587552"><ele>231.0</ele><time>2026-05-04T15:48:02.4Z</time></trkpt><trkpt lat="46.019293" lon="11.9586852"><ele>231.0</ele><time>2026-05-04T15:48:04.4Z</time></trkpt><trkpt lat="46.0193813" lon="11.958611"><ele>231.4</ele><time>2026-05-04T15:48:06.401Z</time></trkpt><trkpt lat="46.0194689" lon="11.9585346"><ele>231.8</ele><time>2026-05-04T15:48:08.401Z</time></trkpt><trkpt lat="46.0195574" lon="11.9584558"><ele>232.20000000000002</ele><time>2026-05-04T15:48:10.402Z</time></trkpt><trkpt lat="46.019646" lon="11.9583859"><ele>232.60000000000002</ele><time>2026-05-04T15:48:12.4Z</time></trkpt><trkpt lat="46.0197367" lon="11.9583202"><ele>233.0</ele><time>2026-05-04T15:48:14.401Z</time></trkpt><trkpt lat="46.0198299" lon="11.9582471"><ele>233.2</ele><time>2026-05-04T15:48:16.4Z</time></trkpt><trkpt lat="46.0199206" lon="11.9581753"><ele>233.4</ele><time>2026-05-04T15:48:18.403Z</time></trkpt><trkpt lat="46.020014" lon="11.9581052"><ele>233.59999999999997</ele><time>2026-05-04T15:48:20.401Z</time></trkpt><trkpt lat="46.0201048" lon="11.9580269"><ele>233.79999999999998</ele><time>2026-05-04T15:48:22.402Z</time></trkpt><trkpt lat="46.02019" lon="11.9579554"><ele>234.0</ele><time>2026-05-04T15:48:24.401Z</time></trkpt><trkpt lat="46.0202805" lon="11.9578857"><ele>234.2</ele><time>2026-05-04T15:48:26.401Z</time></trkpt><trkpt lat="46.0203736" lon="11.9578179"><ele>234.39999999999998</ele><time>2026-05-04T15:48:28.4Z</time></trkpt><trkpt lat="46.0204613" lon="11.9577452"><ele>234.6</ele><time>2026-05-04T15:48:30.399Z</time></trkpt><trkpt lat="46.0205417" lon="11.9576819"><ele>234.8</ele><time>2026-05-04T15:48:32.402Z</time></trkpt><trkpt lat="46.0206169" lon="11.9576222"><ele>235.0</ele><time>2026-05-04T15:48:34.401Z</time></trkpt><trkpt lat="46.0206947" lon="11.9575609"><ele>235.33333333333331</ele><time>2026-05-04T15:48:36.4Z</time></trkpt><trkpt lat="46.020777" lon="11.957496"><ele>235.66666666666666</ele><time>2026-05-04T15:48:38.402Z</time></trkpt><trkpt lat="46.020856" lon="11.9574188"><ele>236.0</ele><time>2026-05-04T15:48:40.4Z</time></trkpt><trkpt lat="46.0209319" lon="11.9573534"><ele>236.33333333333331</ele><time>2026-05-04T15:48:42.401Z</time></trkpt><trkpt lat="46.0210011" lon="11.9573043"><ele>236.66666666666666</ele><time>2026-05-04T15:48:44.4Z</time></trkpt><trkpt lat="46.0210706" lon="11.9572589"><ele>237.0</ele><time>2026-05-04T15:48:46.402Z</time></trkpt><trkpt lat="46.0211384" lon="11.9572051"><ele>237.0</ele><time>2026-05-04T15:48:48.4Z</time></trkpt><trkpt lat="46.0211962" lon="11.957159"><ele>237.0</ele><time>2026-05-04T15:48:50.4Z</time></trkpt><trkpt lat="46.0212743" lon="11.9571482"><ele>237.0</ele><time>2026-05-04T15:48:53.401Z</time></trkpt><trkpt lat="46.0213105" lon="11.9572664"><ele>237.0</ele><time>2026-05-04T15:48:56.402Z</time></trkpt><trkpt lat="46.0213401" lon="11.9573791"><ele>237.0</ele><time>2026-05-04T15:48:58.402Z</time></trkpt><trkpt lat="46.0213753" lon="11.957526"><ele>237.0</ele><time>2026-05-04T15:49:00.401Z</time></trkpt><trkpt lat="46.0214229" lon="11.9576817"><ele>237.0</ele><time>2026-05-04T15:49:02.401Z</time></trkpt><trkpt lat="46.021455" lon="11.9578415"><ele>237.0</ele><time>2026-05-04T15:49:04.4Z</time></trkpt><trkpt lat="46.0214886" lon="11.9580122"><ele>237.0</ele><time>2026-05-04T15:49:06.4Z</time></trkpt><trkpt lat="46.0215213" lon="11.958175"><ele>237.0</ele><time>2026-05-04T15:49:08.401Z</time></trkpt><trkpt lat="46.0215499" lon="11.9583257"><ele>236.8</ele><time>2026-05-04T15:49:10.399Z</time></trkpt><trkpt lat="46.0215723" lon="11.9584632"><ele>236.6</ele><time>2026-05-04T15:49:12.401Z</time></trkpt><trkpt lat="46.0216001" lon="11.9585979"><ele>236.40000000000003</ele><time>2026-05-04T15:49:14.4Z</time></trkpt><trkpt lat="46.0216249" lon="11.958724"><ele>236.20000000000002</ele><time>2026-05-04T15:49:16.402Z</time></trkpt><trkpt lat="46.0216524" lon="11.9588585"><ele>236.0</ele><time>2026-05-04T15:49:18.4Z</time></trkpt><trkpt lat="46.0216742" lon="11.9589988"><ele>237.60000000000002</ele><time>2026-05-04T15:49:20.401Z</time></trkpt><trkpt lat="46.0216939" lon="11.9591192"><ele>239.20000000000002</ele><time>2026-05-04T15:49:22.4Z</time></trkpt><trkpt lat="46.0217094" lon="11.9592459"><ele>240.79999999999998</ele><time>2026-05-04T15:49:24.402Z</time></trkpt><trkpt lat="46.0217341" lon="11.9593882"><ele>242.39999999999998</ele><time>2026-05-04T15:49:26.4Z</time></trkpt><trkpt lat="46.0217661" lon="11.9595262"><ele>244.0</ele><time>2026-05-04T15:49:28.402Z</time></trkpt><trkpt lat="46.0218114" lon="11.9596647"><ele>244.0</ele><time>2026-05-04T15:49:30.4Z</time></trkpt><trkpt lat="46.0218583" lon="11.9598032"><ele>243.99999999999997</ele><time>2026-05-04T15:49:32.4Z</time></trkpt><trkpt lat="46.0219174" lon="11.9599426"><ele>243.99999999999997</ele><time>2026-05-04T15:49:34.399Z</time></trkpt><trkpt lat="46.0219689" lon="11.9600819"><ele>244.0</ele><time>2026-05-04T15:49:36.401Z</time></trkpt><trkpt lat="46.0220112" lon="11.9602255"><ele>244.0</ele><time>2026-05-04T15:49:38.4Z</time></trkpt><trkpt lat="46.0220581" lon="11.9603747"><ele>243.79999999999998</ele><time>2026-05-04T15:49:40.401Z</time></trkpt><trkpt lat="46.0221023" lon="11.9605314"><ele>243.59999999999997</ele><time>2026-05-04T15:49:42.4Z</time></trkpt><trkpt lat="46.0221416" lon="11.9606851"><ele>243.4</ele><time>2026-05-04T15:49:44.4Z</time></trkpt><trkpt lat="46.0221755" lon="11.9608336"><ele>243.2</ele><time>2026-05-04T15:49:46.403Z</time></trkpt><trkpt lat="46.022202" lon="11.9609847"><ele>243.0</ele><time>2026-05-04T15:49:48.4Z</time></trkpt><trkpt lat="46.0222303" lon="11.9611402"><ele>243.0</ele><time>2026-05-04T15:49:50.4Z</time></trkpt><trkpt lat="46.0222557" lon="11.9612926"><ele>243.0</ele><time>2026-05-04T15:49:52.401Z</time></trkpt><trkpt lat="46.0222798" lon="11.9614423"><ele>243.0</ele><time>2026-05-04T15:49:54.4Z</time></trkpt><trkpt lat="46.0223038" lon="11.9615946"><ele>243.0</ele><time>2026-05-04T15:49:56.401Z</time></trkpt><trkpt lat="46.0223259" lon="11.9617549"><ele>243.0</ele><time>2026-05-04T15:49:58.4Z</time></trkpt><trkpt lat="46.0223504" lon="11.9619106"><ele>243.0</ele><time>2026-05-04T15:50:00.4Z</time></trkpt><trkpt lat="46.0223742" lon="11.9620661"><ele>243.0</ele><time>2026-05-04T15:50:02.401Z</time></trkpt><trkpt lat="46.0223987" lon="11.9622212"><ele>243.0</ele><time>2026-05-04T15:50:04.401Z</time></trkpt><trkpt lat="46.0224251" lon="11.9623732"><ele>243.0</ele><time>2026-05-04T15:50:06.402Z</time></trkpt><trkpt lat="46.0224526" lon="11.9625242"><ele>243.0</ele><time>2026-05-04T15:50:08.4Z</time></trkpt><trkpt lat="46.0224815" lon="11.962673"><ele>244.4</ele><time>2026-05-04T15:50:10.401Z</time></trkpt><trkpt lat="46.0225115" lon="11.9628178"><ele>245.8</ele><time>2026-05-04T15:50:12.4Z</time></trkpt><trkpt lat="46.0225446" lon="11.9629614"><ele>247.2</ele><time>2026-05-04T15:50:14.401Z</time></trkpt><trkpt lat="46.022578" lon="11.9631154"><ele>248.6</ele><time>2026-05-04T15:50:16.4Z</time></trkpt><trkpt lat="46.022612" lon="11.9632663"><ele>250.0</ele><time>2026-05-04T15:50:18.399Z</time></trkpt><trkpt lat="46.0226464" lon="11.9634167"><ele>250.0</ele><time>2026-05-04T15:50:20.402Z</time></trkpt><trkpt lat="46.0226823" lon="11.9635666"><ele>250.0</ele><time>2026-05-04T15:50:22.4Z</time></trkpt><trkpt lat="46.0227142" lon="11.9637168"><ele>250.0</ele><time>2026-05-04T15:50:24.4Z</time></trkpt><trkpt lat="46.0227468" lon="11.9638591"><ele>250.0</ele><time>2026-05-04T15:50:26.4Z</time></trkpt><trkpt lat="46.0227783" lon="11.9640007"><ele>250.0</ele><time>2026-05-04T15:50:28.401Z</time></trkpt><trkpt lat="46.0228092" lon="11.9641413"><ele>249.0</ele><time>2026-05-04T15:50:30.4Z</time></trkpt><trkpt lat="46.0228451" lon="11.9642874"><ele>248.0</ele><time>2026-05-04T15:50:32.401Z</time></trkpt><trkpt lat="46.0228795" lon="11.9644355"><ele>247.0</ele><time>2026-05-04T15:50:34.401Z</time></trkpt><trkpt lat="46.0229131" lon="11.964584"><ele>246.0</ele><time>2026-05-04T15:50:36.402Z</time></trkpt><trkpt lat="46.0229482" lon="11.9647313"><ele>245.0</ele><time>2026-05-04T15:50:38.403Z</time></trkpt><trkpt lat="46.022988" lon="11.96488"><ele>245.0</ele><time>2026-05-04T15:50:40.401Z</time></trkpt><trkpt lat="46.0230279" lon="11.9650251"><ele>245.0</ele><time>2026-05-04T15:50:42.4Z</time></trkpt><trkpt lat="46.0230715" lon="11.9651732"><ele>245.0</ele><time>2026-05-04T15:50:44.4Z</time></trkpt><trkpt lat="46.0231119" lon="11.9653182"><ele>245.0</ele><time>2026-05-04T15:50:46.401Z</time></trkpt><trkpt lat="46.0231505" lon="11.9654695"><ele>245.0</ele><time>2026-05-04T15:50:48.4Z</time></trkpt><trkpt lat="46.0231921" lon="11.9656152"><ele>244.8</ele><time>2026-05-04T15:50:50.4Z</time></trkpt><trkpt lat="46.0232337" lon="11.9657611"><ele>244.6</ele><time>2026-05-04T15:50:52.401Z</time></trkpt><trkpt lat="46.0232764" lon="11.9659047"><ele>244.39999999999998</ele><time>2026-05-04T15:50:54.4Z</time></trkpt><trkpt lat="46.0233199" lon="11.9660488"><ele>244.2</ele><time>2026-05-04T15:50:56.401Z</time></trkpt><trkpt lat="46.0233647" lon="11.9661955"><ele>244.0</ele><time>2026-05-04T15:50:58.401Z</time></trkpt><trkpt lat="46.0234076" lon="11.9663395"><ele>244.2</ele><time>2026-05-04T15:51:00.4Z</time></trkpt><trkpt lat="46.0234486" lon="11.9664776"><ele>244.39999999999998</ele><time>2026-05-04T15:51:02.399Z</time></trkpt><trkpt lat="46.0234891" lon="11.9666186"><ele>244.6</ele><time>2026-05-04T15:51:04.398Z</time></trkpt><trkpt lat="46.0235379" lon="11.9667572"><ele>244.8</ele><time>2026-05-04T15:51:06.399Z</time></trkpt><trkpt lat="46.0236043" lon="11.9668771"><ele>245.0</ele><time>2026-05-04T15:51:08.4Z</time></trkpt><trkpt lat="46.023681" lon="11.9669845"><ele>245.0</ele><time>2026-05-04T15:51:10.401Z</time></trkpt><trkpt lat="46.0237655" lon="11.9670841"><ele>245.0</ele><time>2026-05-04T15:51:12.4Z</time></trkpt><trkpt lat="46.0238549" lon="11.9671793"><ele>245.0</ele><time>2026-05-04T15:51:14.4Z</time></trkpt><trkpt lat="46.0239429" lon="11.9672731"><ele>245.0</ele><time>2026-05-04T15:51:16.4Z</time></trkpt><trkpt lat="46.0240243" lon="11.9673754"><ele>245.0</ele><time>2026-05-04T15:51:18.401Z</time></trkpt><trkpt lat="46.0240999" lon="11.9674843"><ele>245.66666666666669</ele><time>2026-05-04T15:51:20.399Z</time></trkpt><trkpt lat="46.0241719" lon="11.9675872"><ele>246.33333333333334</ele><time>2026-05-04T15:51:22.399Z</time></trkpt><trkpt lat="46.0242353" lon="11.9676848"><ele>247.0</ele><time>2026-05-04T15:51:24.4Z</time></trkpt><trkpt lat="46.0242864" lon="11.9677611"><ele>247.66666666666669</ele><time>2026-05-04T15:51:26.4Z</time></trkpt><trkpt lat="46.0243556" lon="11.9677333"><ele>248.33333333333334</ele><time>2026-05-04T15:51:29.4Z</time></trkpt><trkpt lat="46.0243847" lon="11.9676445"><ele>249.0</ele><time>2026-05-04T15:51:32.4Z</time></trkpt><trkpt lat="46.0244416" lon="11.9675395"><ele>249.0</ele><time>2026-05-04T15:52:00.401Z</time></trkpt><trkpt lat="46.024515" lon="11.9674803"><ele>249.0</ele><time>2026-05-04T15:52:04.4Z</time></trkpt><trkpt lat="46.0245876" lon="11.9674649"><ele>249.0</ele><time>2026-05-04T15:52:08.4Z</time></trkpt><trkpt lat="46.0246599" lon="11.9674837"><ele>249.0</ele><time>2026-05-04T15:52:13.401Z</time></trkpt><trkpt lat="46.0247247" lon="11.9675224"><ele>249.0</ele><time>2026-05-04T15:52:38.4Z</time></trkpt><trkpt lat="46.0247922" lon="11.9675826"><ele>249.0</ele><time>2026-05-04T15:52:42.401Z</time></trkpt><trkpt lat="46.0248608" lon="11.9675964"><ele>249.0</ele><time>2026-05-04T15:52:45.4Z</time></trkpt><trkpt lat="46.0249242" lon="11.9675401"><ele>248.99999999999997</ele><time>2026-05-04T15:52:49.401Z</time></trkpt><trkpt lat="46.0249216" lon="11.967438"><ele>249.0</ele><time>2026-05-04T15:52:53.4Z</time></trkpt><trkpt lat="46.0248799" lon="11.9673558"><ele>249.0</ele><time>2026-05-04T15:52:56.398Z</time></trkpt><trkpt lat="46.0248198" lon="11.9672809"><ele>248.99999999999997</ele><time>2026-05-04T15:52:59.4Z</time></trkpt><trkpt lat="46.024756" lon="11.9672264"><ele>249.0</ele><time>2026-05-04T15:53:02.401Z</time></trkpt><trkpt lat="46.0246928" lon="11.9671865"><ele>249.0</ele><time>2026-05-04T15:53:05.399Z</time></trkpt><trkpt lat="46.0246299" lon="11.967101"><ele>249.66666666666666</ele><time>2026-05-04T15:53:09.4Z</time></trkpt><trkpt lat="46.024569" lon="11.9670246"><ele>250.33333333333331</ele><time>2026-05-04T15:53:12.401Z</time></trkpt><trkpt lat="46.0245337" lon="11.966948"><ele>251.0</ele><time>2026-05-04T15:53:15.401Z</time></trkpt><trkpt lat="46.0244985" lon="11.9668584"><ele>251.66666666666666</ele><time>2026-05-04T15:53:18.4Z</time></trkpt><trkpt lat="46.0244905" lon="11.9667472"><ele>252.33333333333331</ele><time>2026-05-04T15:53:22.4Z</time></trkpt><trkpt lat="46.024528" lon="11.966645"><ele>253.0</ele><time>2026-05-04T15:53:26.4Z</time></trkpt><trkpt lat="46.0245952" lon="11.9665902"><ele>254.83333333333331</ele><time>2026-05-04T15:53:29.402Z</time></trkpt><trkpt lat="46.024669" lon="11.9665441"><ele>256.66666666666663</ele><time>2026-05-04T15:53:32.401Z</time></trkpt><trkpt lat="46.0247342" lon="11.9664764"><ele>258.5</ele><time>2026-05-04T15:53:35.401Z</time></trkpt><trkpt lat="46.0247624" lon="11.9663865"><ele>260.3333333333333</ele><time>2026-05-04T15:53:38.4Z</time></trkpt><trkpt lat="46.0247907" lon="11.9662904"><ele>262.1666666666667</ele><time>2026-05-04T15:53:41.401Z</time></trkpt><trkpt lat="46.0248609" lon="11.9662226"><ele>264.0</ele><time>2026-05-04T15:53:45.399Z</time></trkpt><trkpt lat="46.0249232" lon="11.9661464"><ele>264.0</ele><time>2026-05-04T15:53:48.4Z</time></trkpt><trkpt lat="46.0249519" lon="11.9660385"><ele>264.0</ele><time>2026-05-04T15:53:51.401Z</time></trkpt><trkpt lat="46.0249641" lon="11.9659439"><ele>264.0</ele><time>2026-05-04T15:53:53.4Z</time></trkpt><trkpt lat="46.0249745" lon="11.9658181"><ele>264.0</ele><time>2026-05-04T15:53:56.4Z</time></trkpt><trkpt lat="46.0250137" lon="11.9657122"><ele>264.0</ele><time>2026-05-04T15:53:59.401Z</time></trkpt><trkpt lat="46.0250522" lon="11.9656252"><ele>264.0</ele><time>2026-05-04T15:54:02.402Z</time></trkpt><trkpt lat="46.0250978" lon="11.9655367"><ele>267.85714285714283</ele><time>2026-05-04T15:54:06.401Z</time></trkpt><trkpt lat="46.0251453" lon="11.9654673"><ele>271.7142857142857</ele><time>2026-05-04T15:54:09.401Z</time></trkpt><trkpt lat="46.0252103" lon="11.9654016"><ele>275.57142857142856</ele><time>2026-05-04T15:54:13.401Z</time></trkpt><trkpt lat="46.0252628" lon="11.9653339"><ele>279.42857142857144</ele><time>2026-05-04T15:54:16.4Z</time></trkpt><trkpt lat="46.0253244" lon="11.9652598"><ele>283.2857142857143</ele><time>2026-05-04T15:54:20.4Z</time></trkpt><trkpt lat="46.0253782" lon="11.965204"><ele>287.1428571428571</ele><time>2026-05-04T15:54:23.401Z</time></trkpt><trkpt lat="46.0254443" lon="11.9651484"><ele>291.0</ele><time>2026-05-04T15:54:26.402Z</time></trkpt><trkpt lat="46.0254935" lon="11.9650736"><ele>293.42857142857144</ele><time>2026-05-04T15:54:29.402Z</time></trkpt><trkpt lat="46.025546" lon="11.9650106"><ele>295.85714285714283</ele><time>2026-05-04T15:54:32.401Z</time></trkpt><trkpt lat="46.0255937" lon="11.9649291"><ele>298.2857142857143</ele><time>2026-05-04T15:54:35.401Z</time></trkpt><trkpt lat="46.0256392" lon="11.9648475"><ele>300.7142857142857</ele><time>2026-05-04T15:54:38.403Z</time></trkpt><trkpt lat="46.0256803" lon="11.9647784"><ele>303.1428571428571</ele><time>2026-05-04T15:54:41.401Z</time></trkpt><trkpt lat="46.0257217" lon="11.9647081"><ele>305.57142857142856</ele><time>2026-05-04T15:54:45.402Z</time></trkpt><trkpt lat="46.0257588" lon="11.9646094"><ele>308.0</ele><time>2026-05-04T15:54:49.401Z</time></trkpt><trkpt lat="46.0257754" lon="11.9644773"><ele>308.0</ele><time>2026-05-04T15:55:37.398Z</time></trkpt><trkpt lat="46.0257546" lon="11.9643625"><ele>308.0</ele><time>2026-05-04T15:55:41.399Z</time></trkpt><trkpt lat="46.0257715" lon="11.9642581"><ele>308.0</ele><time>2026-05-04T15:55:44.398Z</time></trkpt><trkpt lat="46.0257889" lon="11.9641509"><ele>308.0</ele><time>2026-05-04T15:55:47.402Z</time></trkpt><trkpt lat="46.0258336" lon="11.9640475"><ele>308.0</ele><time>2026-05-04T15:55:50.403Z</time></trkpt><trkpt lat="46.0258742" lon="11.963956"><ele>308.0</ele><time>2026-05-04T15:55:53.401Z</time></trkpt><trkpt lat="46.0259448" lon="11.9638809"><ele>308.42857142857144</ele><time>2026-05-04T15:55:56.401Z</time></trkpt><trkpt lat="46.0260025" lon="11.9638133"><ele>308.8571428571429</ele><time>2026-05-04T15:55:59.402Z</time></trkpt><trkpt lat="46.0260456" lon="11.9637265"><ele>309.2857142857143</ele><time>2026-05-04T15:56:02.403Z</time></trkpt><trkpt lat="46.0260761" lon="11.963636"><ele>309.7142857142857</ele><time>2026-05-04T15:56:05.403Z</time></trkpt><trkpt lat="46.0261007" lon="11.9635285"><ele>310.14285714285717</ele><time>2026-05-04T15:56:08.401Z</time></trkpt><trkpt lat="46.0261287" lon="11.9634411"><ele>310.57142857142856</ele><time>2026-05-04T15:56:11.403Z</time></trkpt><trkpt lat="46.0261676" lon="11.9633685"><ele>311.0</ele><time>2026-05-04T15:56:14.401Z</time></trkpt><trkpt lat="46.0261995" lon="11.9632836"><ele>314.0</ele><time>2026-05-04T15:56:17.403Z</time></trkpt><trkpt lat="46.0262537" lon="11.9631786"><ele>317.0</ele><time>2026-05-04T15:56:21.404Z</time></trkpt><trkpt lat="46.0262987" lon="11.9630815"><ele>320.0</ele><time>2026-05-04T15:56:24.404Z</time></trkpt><trkpt lat="46.0263446" lon="11.9629911"><ele>323.0</ele><time>2026-05-04T15:56:27.403Z</time></trkpt><trkpt lat="46.0263722" lon="11.9628885"><ele>326.0</ele><time>2026-05-04T15:56:30.401Z</time></trkpt><trkpt lat="46.0264009" lon="11.962794"><ele>329.0</ele><time>2026-05-04T15:56:33.401Z</time></trkpt><trkpt lat="46.0264132" lon="11.9626954"><ele>329.0</ele><time>2026-05-04T15:56:36.402Z</time></trkpt><trkpt lat="46.0264068" lon="11.9625972"><ele>329.0</ele><time>2026-05-04T15:56:39.402Z</time></trkpt><trkpt lat="46.0264196" lon="11.9624913"><ele>329.0</ele><time>2026-05-04T15:56:42.399Z</time></trkpt><trkpt lat="46.0264434" lon="11.9623816"><ele>329.0</ele><time>2026-05-04T15:56:46.401Z</time></trkpt><trkpt lat="46.0263879" lon="11.9623275"><ele>329.0</ele><time>2026-05-04T15:56:53.403Z</time></trkpt><trkpt lat="46.0263198" lon="11.9623591"><ele>329.0</ele><time>2026-05-04T15:56:57.404Z</time></trkpt><trkpt lat="46.0262551" lon="11.9623935"><ele>329.0</ele><time>2026-05-04T15:57:00.401Z</time></trkpt><trkpt lat="46.0261831" lon="11.9624508"><ele>329.0</ele><time>2026-05-04T15:57:04.402Z</time></trkpt><trkpt lat="46.0261234" lon="11.9624933"><ele>329.0</ele><time>2026-05-04T15:57:07.403Z</time></trkpt><trkpt lat="46.0260619" lon="11.9625287"><ele>329.0</ele><time>2026-05-04T15:57:10.401Z</time></trkpt><trkpt lat="46.0259997" lon="11.9625607"><ele>329.0</ele><time>2026-05-04T15:57:13.403Z</time></trkpt><trkpt lat="46.0259359" lon="11.9625797"><ele>329.0</ele><time>2026-05-04T15:57:16.402Z</time></trkpt><trkpt lat="46.0258622" lon="11.9626052"><ele>329.0</ele><time>2026-05-04T15:57:19.403Z</time></trkpt><trkpt lat="46.0257807" lon="11.9626506"><ele>329.0</ele><time>2026-05-04T15:57:22.402Z</time></trkpt><trkpt lat="46.0257038" lon="11.9626905"><ele>331.0</ele><time>2026-05-04T15:57:25.399Z</time></trkpt><trkpt lat="46.0256351" lon="11.9627282"><ele>333.0</ele><time>2026-05-04T15:57:28.402Z</time></trkpt><trkpt lat="46.0255652" lon="11.9627594"><ele>335.0</ele><time>2026-05-04T15:57:31.4Z</time></trkpt><trkpt lat="46.0255028" lon="11.962774"><ele>337.0</ele><time>2026-05-04T15:57:34.403Z</time></trkpt><trkpt lat="46.0254405" lon="11.962799"><ele>339.0</ele><time>2026-05-04T15:57:37.404Z</time></trkpt><trkpt lat="46.0253812" lon="11.9628417"><ele>341.0</ele><time>2026-05-04T15:57:40.402Z</time></trkpt><trkpt lat="46.0253215" lon="11.9628956"><ele>343.0</ele><time>2026-05-04T15:57:43.403Z</time></trkpt><trkpt lat="46.0252647" lon="11.9629511"><ele>343.0</ele><time>2026-05-04T15:57:46.403Z</time></trkpt><trkpt lat="46.0252028" lon="11.9630071"><ele>343.0</ele><time>2026-05-04T15:57:49.402Z</time></trkpt><trkpt lat="46.0251358" lon="11.9630651"><ele>343.0</ele><time>2026-05-04T15:57:52.403Z</time></trkpt><trkpt lat="46.0250685" lon="11.9631092"><ele>343.0</ele><time>2026-05-04T15:57:55.403Z</time></trkpt><trkpt lat="46.0249863" lon="11.963109"><ele>343.0</ele><time>2026-05-04T15:57:59.401Z</time></trkpt><trkpt lat="46.0249218" lon="11.9630651"><ele>343.0</ele><time>2026-05-04T15:58:02.403Z</time></trkpt><trkpt lat="46.0248634" lon="11.9630086"><ele>343.0</ele><time>2026-05-04T15:58:05.401Z</time></trkpt><trkpt lat="46.0248151" lon="11.9629292"><ele>342.8333333333333</ele><time>2026-05-04T15:58:08.401Z</time></trkpt><trkpt lat="46.0247567" lon="11.9628437"><ele>342.66666666666663</ele><time>2026-05-04T15:58:11.403Z</time></trkpt><trkpt lat="46.0247013" lon="11.9627505"><ele>342.5</ele><time>2026-05-04T15:58:14.403Z</time></trkpt><trkpt lat="46.0246527" lon="11.9626563"><ele>342.3333333333333</ele><time>2026-05-04T15:58:17.401Z</time></trkpt><trkpt lat="46.0246067" lon="11.9625492"><ele>342.1666666666667</ele><time>2026-05-04T15:58:20.401Z</time></trkpt><trkpt lat="46.0245896" lon="11.9624609"><ele>342.0</ele><time>2026-05-04T15:58:22.403Z</time></trkpt><trkpt lat="46.0246074" lon="11.9623457"><ele>342.8333333333333</ele><time>2026-05-04T15:58:25.402Z</time></trkpt><trkpt lat="46.0246723" lon="11.9622536"><ele>343.6666666666667</ele><time>2026-05-04T15:58:28.404Z</time></trkpt><trkpt lat="46.0247418" lon="11.9621643"><ele>344.5</ele><time>2026-05-04T15:58:31.403Z</time></trkpt><trkpt lat="46.0248087" lon="11.9620656"><ele>345.33333333333337</ele><time>2026-05-04T15:58:34.4Z</time></trkpt><trkpt lat="46.0248574" lon="11.9620029"><ele>346.1666666666667</ele><time>2026-05-04T15:58:36.403Z</time></trkpt><trkpt lat="46.0249151" lon="11.961903"><ele>347.0</ele><time>2026-05-04T15:58:39.403Z</time></trkpt><trkpt lat="46.0249031" lon="11.9617832"><ele>347.0</ele><time>2026-05-04T15:58:42.403Z</time></trkpt><trkpt lat="46.0248717" lon="11.9617039"><ele>347.0</ele><time>2026-05-04T15:58:44.403Z</time></trkpt><trkpt lat="46.0248235" lon="11.9615916"><ele>347.0</ele><time>2026-05-04T15:58:47.401Z</time></trkpt><trkpt lat="46.0247762" lon="11.9614921"><ele>347.0</ele><time>2026-05-04T15:58:50.401Z</time></trkpt><trkpt lat="46.0247164" lon="11.9613986"><ele>347.0</ele><time>2026-05-04T15:58:53.403Z</time></trkpt><trkpt lat="46.024666" lon="11.9612926"><ele>347.0</ele><time>2026-05-04T15:58:56.401Z</time></trkpt><trkpt lat="46.024649" lon="11.9612048"><ele>347.5</ele><time>2026-05-04T15:58:58.401Z</time></trkpt><trkpt lat="46.0246584" lon="11.9610812"><ele>348.0</ele><time>2026-05-04T15:59:01.403Z</time></trkpt><trkpt lat="46.0246693" lon="11.9609828"><ele>348.5</ele><time>2026-05-04T15:59:04.4Z</time></trkpt><trkpt lat="46.0246233" lon="11.960898"><ele>349.0</ele><time>2026-05-04T15:59:07.401Z</time></trkpt><trkpt lat="46.0245433" lon="11.9608388"><ele>349.5</ele><time>2026-05-04T15:59:10.402Z</time></trkpt><trkpt lat="46.0244928" lon="11.9607777"><ele>350.0</ele><time>2026-05-04T15:59:12.402Z</time></trkpt><trkpt lat="46.0244735" lon="11.9606812"><ele>350.1666666666667</ele><time>2026-05-04T15:59:14.402Z</time></trkpt><trkpt lat="46.0244993" lon="11.9605466"><ele>350.33333333333337</ele><time>2026-05-04T15:59:16.401Z</time></trkpt><trkpt lat="46.0245328" lon="11.9603804"><ele>350.5</ele><time>2026-05-04T15:59:18.403Z</time></trkpt><trkpt lat="46.0245383" lon="11.9602842"><ele>350.6666666666667</ele><time>2026-05-04T15:59:19.403Z</time></trkpt><trkpt lat="46.0245419" lon="11.9601842"><ele>350.8333333333333</ele><time>2026-05-04T15:59:20.403Z</time></trkpt><trkpt lat="46.0245406" lon="11.9600773"><ele>351.0</ele><time>2026-05-04T15:59:21.403Z</time></trkpt><trkpt lat="46.024542" lon="11.9599736"><ele>350.28571428571433</ele><time>2026-05-04T15:59:22.402Z</time></trkpt><trkpt lat="46.0245549" lon="11.95987"><ele>349.57142857142856</ele><time>2026-05-04T15:59:23.401Z</time></trkpt><trkpt lat="46.0245786" lon="11.9597738"><ele>348.8571428571429</ele><time>2026-05-04T15:59:24.403Z</time></trkpt><trkpt lat="46.0246126" lon="11.9596876"><ele>348.14285714285717</ele><time>2026-05-04T15:59:25.403Z</time></trkpt><trkpt lat="46.0246518" lon="11.9596089"><ele>347.42857142857144</ele><time>2026-05-04T15:59:26.402Z</time></trkpt><trkpt lat="46.0246934" lon="11.9595336"><ele>346.7142857142857</ele><time>2026-05-04T15:59:27.402Z</time></trkpt><trkpt lat="46.0247375" lon="11.9594631"><ele>346.0</ele><time>2026-05-04T15:59:28.402Z</time></trkpt><trkpt lat="46.0247846" lon="11.9593949"><ele>346.0</ele><time>2026-05-04T15:59:29.403Z</time></trkpt><trkpt lat="46.024833" lon="11.9593291"><ele>346.0</ele><time>2026-05-04T15:59:30.398Z</time></trkpt><trkpt lat="46.0248886" lon="11.959273"><ele>346.0</ele><time>2026-05-04T15:59:31.398Z</time></trkpt><trkpt lat="46.0249451" lon="11.9592233"><ele>346.0</ele><time>2026-05-04T15:59:32.401Z</time></trkpt><trkpt lat="46.0249997" lon="11.9591752"><ele>346.0</ele><time>2026-05-04T15:59:33.401Z</time></trkpt><trkpt lat="46.0251038" lon="11.9590821"><ele>346.0</ele><time>2026-05-04T15:59:35.4Z</time></trkpt><trkpt lat="46.0251922" lon="11.9590075"><ele>347.8333333333333</ele><time>2026-05-04T15:59:37.402Z</time></trkpt><trkpt lat="46.0252593" lon="11.9589437"><ele>349.66666666666663</ele><time>2026-05-04T15:59:39.4Z</time></trkpt><trkpt lat="46.0253131" lon="11.9588961"><ele>351.5</ele><time>2026-05-04T15:59:41.403Z</time></trkpt><trkpt lat="46.0253938" lon="11.9588578"><ele>353.3333333333333</ele><time>2026-05-04T15:59:44.403Z</time></trkpt><trkpt lat="46.0254716" lon="11.9588351"><ele>355.1666666666667</ele><time>2026-05-04T15:59:47.402Z</time></trkpt><trkpt lat="46.0255536" lon="11.9587985"><ele>357.0</ele><time>2026-05-04T15:59:50.401Z</time></trkpt><trkpt lat="46.025621" lon="11.9587435"><ele>357.0</ele><time>2026-05-04T15:59:53.401Z</time></trkpt><trkpt lat="46.0256834" lon="11.9586795"><ele>357.0</ele><time>2026-05-04T15:59:56.403Z</time></trkpt><trkpt lat="46.0257371" lon="11.9586012"><ele>357.0</ele><time>2026-05-04T15:59:59.4Z</time></trkpt><trkpt lat="46.0257702" lon="11.9584953"><ele>357.0</ele><time>2026-05-04T16:00:02.401Z</time></trkpt><trkpt lat="46.0257904" lon="11.9584061"><ele>357.0</ele><time>2026-05-04T16:00:04.403Z</time></trkpt><trkpt lat="46.0258088" lon="11.9583083"><ele>357.0</ele><time>2026-05-04T16:00:06.401Z</time></trkpt><trkpt lat="46.025831" lon="11.958198"><ele>357.0</ele><time>2026-05-04T16:00:08.403Z</time></trkpt><trkpt lat="46.0258548" lon="11.9580729"><ele>357.8333333333333</ele><time>2026-05-04T16:00:10.402Z</time></trkpt><trkpt lat="46.0258659" lon="11.9579477"><ele>358.6666666666667</ele><time>2026-05-04T16:00:12.401Z</time></trkpt><trkpt lat="46.0258645" lon="11.9578301"><ele>359.5</ele><time>2026-05-04T16:00:14.401Z</time></trkpt><trkpt lat="46.0258596" lon="11.9577267"><ele>360.33333333333337</ele><time>2026-05-04T16:00:16.402Z</time></trkpt><trkpt lat="46.0258515" lon="11.957621"><ele>361.1666666666667</ele><time>2026-05-04T16:00:18.399Z</time></trkpt><trkpt lat="46.0258438" lon="11.957517"><ele>362.0</ele><time>2026-05-04T16:00:20.402Z</time></trkpt><trkpt lat="46.0258303" lon="11.9574143"><ele>362.0</ele><time>2026-05-04T16:00:22.401Z</time></trkpt><trkpt lat="46.025812" lon="11.9573162"><ele>362.0</ele><time>2026-05-04T16:00:24.403Z</time></trkpt><trkpt lat="46.0257932" lon="11.9572029"><ele>362.0</ele><time>2026-05-04T16:00:26.404Z</time></trkpt><trkpt lat="46.0257854" lon="11.9570864"><ele>362.0</ele><time>2026-05-04T16:00:28.403Z</time></trkpt><trkpt lat="46.0257862" lon="11.9569671"><ele>362.0</ele><time>2026-05-04T16:00:30.403Z</time></trkpt><trkpt lat="46.0257958" lon="11.9568396"><ele>362.0</ele><time>2026-05-04T16:00:32.404Z</time></trkpt><trkpt lat="46.0258015" lon="11.9567057"><ele>364.0</ele><time>2026-05-04T16:00:34.402Z</time></trkpt><trkpt lat="46.0258005" lon="11.9565785"><ele>366.0</ele><time>2026-05-04T16:00:36.4Z</time></trkpt><trkpt lat="46.0257945" lon="11.9564578"><ele>368.0</ele><time>2026-05-04T16:00:38.403Z</time></trkpt><trkpt lat="46.0257812" lon="11.9563292"><ele>370.0</ele><time>2026-05-04T16:00:40.404Z</time></trkpt><trkpt lat="46.0257677" lon="11.9562121"><ele>372.0</ele><time>2026-05-04T16:00:42.403Z</time></trkpt><trkpt lat="46.0257517" lon="11.9560995"><ele>374.0</ele><time>2026-05-04T16:00:44.402Z</time></trkpt><trkpt lat="46.0257286" lon="11.9559857"><ele>374.0</ele><time>2026-05-04T16:00:46.4Z</time></trkpt><trkpt lat="46.0257037" lon="11.9558747"><ele>374.0</ele><time>2026-05-04T16:00:48.403Z</time></trkpt><trkpt lat="46.0256834" lon="11.955762"><ele>374.0</ele><time>2026-05-04T16:00:50.403Z</time></trkpt><trkpt lat="46.0256702" lon="11.9556445"><ele>374.0</ele><time>2026-05-04T16:00:52.402Z</time></trkpt><trkpt lat="46.025652" lon="11.9555319"><ele>374.0</ele><time>2026-05-04T16:00:54.401Z</time></trkpt><trkpt lat="46.0256295" lon="11.9554276"><ele>374.0</ele><time>2026-05-04T16:00:56.402Z</time></trkpt><trkpt lat="46.0256105" lon="11.955324"><ele>373.6</ele><time>2026-05-04T16:00:58.398Z</time></trkpt><trkpt lat="46.0255748" lon="11.9552135"><ele>373.2</ele><time>2026-05-04T16:01:00.402Z</time></trkpt><trkpt lat="46.0255323" lon="11.9550908"><ele>372.8</ele><time>2026-05-04T16:01:02.403Z</time></trkpt><trkpt lat="46.025481" lon="11.9549495"><ele>372.40000000000003</ele><time>2026-05-04T16:01:04.402Z</time></trkpt><trkpt lat="46.0254254" lon="11.9547894"><ele>372.0</ele><time>2026-05-04T16:01:06.401Z</time></trkpt><trkpt lat="46.0253984" lon="11.9547032"><ele>371.8333333333333</ele><time>2026-05-04T16:01:07.403Z</time></trkpt><trkpt lat="46.0253717" lon="11.9546148"><ele>371.6666666666667</ele><time>2026-05-04T16:01:08.403Z</time></trkpt><trkpt lat="46.0253486" lon="11.9545287"><ele>371.5</ele><time>2026-05-04T16:01:09.402Z</time></trkpt><trkpt lat="46.0253261" lon="11.9544427"><ele>371.33333333333337</ele><time>2026-05-04T16:01:10.402Z</time></trkpt><trkpt lat="46.0253049" lon="11.9543527"><ele>371.1666666666667</ele><time>2026-05-04T16:01:11.402Z</time></trkpt><trkpt lat="46.0252843" lon="11.9542644"><ele>371.0</ele><time>2026-05-04T16:01:12.403Z</time></trkpt><trkpt lat="46.0252597" lon="11.9540871"><ele>369.0</ele><time>2026-05-04T16:01:14.402Z</time></trkpt><trkpt lat="46.0252574" lon="11.9539924"><ele>367.0</ele><time>2026-05-04T16:01:15.403Z</time></trkpt><trkpt lat="46.0252518" lon="11.9538025"><ele>365.0</ele><time>2026-05-04T16:01:17.403Z</time></trkpt><trkpt lat="46.0252411" lon="11.9536983"><ele>363.0</ele><time>2026-05-04T16:01:18.402Z</time></trkpt><trkpt lat="46.0252212" lon="11.9536037"><ele>361.0</ele><time>2026-05-04T16:01:19.402Z</time></trkpt><trkpt lat="46.0251916" lon="11.9535137"><ele>359.0</ele><time>2026-05-04T16:01:20.402Z</time></trkpt><trkpt lat="46.0251577" lon="11.9534274"><ele>357.1666666666667</ele><time>2026-05-04T16:01:21.402Z</time></trkpt><trkpt lat="46.0251236" lon="11.9533399"><ele>355.33333333333337</ele><time>2026-05-04T16:01:22.402Z</time></trkpt><trkpt lat="46.0250956" lon="11.9532507"><ele>353.5</ele><time>2026-05-04T16:01:23.401Z</time></trkpt><trkpt lat="46.0250764" lon="11.9531598"><ele>351.6666666666667</ele><time>2026-05-04T16:01:24.4Z</time></trkpt><trkpt lat="46.0250673" lon="11.9529904"><ele>349.8333333333333</ele><time>2026-05-04T16:01:26.402Z</time></trkpt><trkpt lat="46.0250975" lon="11.9528422"><ele>348.0</ele><time>2026-05-04T16:01:28.402Z</time></trkpt><trkpt lat="46.0251202" lon="11.9526986"><ele>348.0</ele><time>2026-05-04T16:01:30.404Z</time></trkpt><trkpt lat="46.0251158" lon="11.9525551"><ele>348.0</ele><time>2026-05-04T16:01:32.402Z</time></trkpt><trkpt lat="46.0250888" lon="11.9524227"><ele>348.0</ele><time>2026-05-04T16:01:34.403Z</time></trkpt><trkpt lat="46.0250552" lon="11.9522864"><ele>348.0</ele><time>2026-05-04T16:01:36.401Z</time></trkpt><trkpt lat="46.0250284" lon="11.9521474"><ele>348.0</ele><time>2026-05-04T16:01:38.403Z</time></trkpt><trkpt lat="46.0250093" lon="11.9520102"><ele>348.5</ele><time>2026-05-04T16:01:40.403Z</time></trkpt><trkpt lat="46.0250023" lon="11.9518763"><ele>349.0</ele><time>2026-05-04T16:01:42.401Z</time></trkpt><trkpt lat="46.0250016" lon="11.9517526"><ele>349.5</ele><time>2026-05-04T16:01:44.401Z</time></trkpt><trkpt lat="46.0249957" lon="11.9516395"><ele>350.0</ele><time>2026-05-04T16:01:46.401Z</time></trkpt><trkpt lat="46.0249881" lon="11.9515214"><ele>350.5</ele><time>2026-05-04T16:01:48.404Z</time></trkpt><trkpt lat="46.0249803" lon="11.9513926"><ele>351.0</ele><time>2026-05-04T16:01:50.402Z</time></trkpt><trkpt lat="46.0249728" lon="11.9512598"><ele>352.5</ele><time>2026-05-04T16:01:52.402Z</time></trkpt><trkpt lat="46.0249668" lon="11.9511343"><ele>354.0</ele><time>2026-05-04T16:01:54.401Z</time></trkpt><trkpt lat="46.0249569" lon="11.9510087"><ele>355.5</ele><time>2026-05-04T16:01:56.401Z</time></trkpt><trkpt lat="46.0249457" lon="11.9508808"><ele>357.0</ele><time>2026-05-04T16:01:58.401Z</time></trkpt><trkpt lat="46.0249319" lon="11.9507558"><ele>358.5</ele><time>2026-05-04T16:02:00.4Z</time></trkpt><trkpt lat="46.0249111" lon="11.9506348"><ele>360.0</ele><time>2026-05-04T16:02:02.4Z</time></trkpt><trkpt lat="46.0248892" lon="11.9505043"><ele>360.0</ele><time>2026-05-04T16:02:04.398Z</time></trkpt><trkpt lat="46.0248541" lon="11.950365"><ele>360.0</ele><time>2026-05-04T16:02:06.398Z</time></trkpt><trkpt lat="46.024837" lon="11.9502519"><ele>360.0</ele><time>2026-05-04T16:02:08.398Z</time></trkpt><trkpt lat="46.024814" lon="11.9501233"><ele>360.0</ele><time>2026-05-04T16:02:10.398Z</time></trkpt><trkpt lat="46.0247869" lon="11.9500011"><ele>360.0</ele><time>2026-05-04T16:02:12.398Z</time></trkpt><trkpt lat="46.0247656" lon="11.9498758"><ele>359.5</ele><time>2026-05-04T16:02:14.403Z</time></trkpt><trkpt lat="46.0247511" lon="11.9497501"><ele>359.0</ele><time>2026-05-04T16:02:16.403Z</time></trkpt><trkpt lat="46.0247369" lon="11.9496286"><ele>358.5</ele><time>2026-05-04T16:02:18.399Z</time></trkpt><trkpt lat="46.0247233" lon="11.9494966"><ele>358.0</ele><time>2026-05-04T16:02:20.402Z</time></trkpt><trkpt lat="46.0247097" lon="11.949376"><ele>357.5</ele><time>2026-05-04T16:02:22.401Z</time></trkpt><trkpt lat="46.0246906" lon="11.9492609"><ele>357.0</ele><time>2026-05-04T16:02:24.4Z</time></trkpt><trkpt lat="46.024684" lon="11.9491435"><ele>357.0</ele><time>2026-05-04T16:02:26.402Z</time></trkpt><trkpt lat="46.0247112" lon="11.9490429"><ele>357.0</ele><time>2026-05-04T16:02:28.402Z</time></trkpt><trkpt lat="46.0247644" lon="11.9489386"><ele>357.0</ele><time>2026-05-04T16:02:30.401Z</time></trkpt><trkpt lat="46.0248242" lon="11.9488377"><ele>357.0</ele><time>2026-05-04T16:02:32.402Z</time></trkpt><trkpt lat="46.0248826" lon="11.9487402"><ele>357.0</ele><time>2026-05-04T16:02:34.403Z</time></trkpt><trkpt lat="46.0249388" lon="11.9486545"><ele>357.0</ele><time>2026-05-04T16:02:36.402Z</time></trkpt><trkpt lat="46.0250041" lon="11.948589"><ele>357.0</ele><time>2026-05-04T16:02:38.402Z</time></trkpt><trkpt lat="46.0250715" lon="11.9485292"><ele>357.0</ele><time>2026-05-04T16:02:40.402Z</time></trkpt><trkpt lat="46.0251429" lon="11.9484762"><ele>357.0</ele><time>2026-05-04T16:02:42.403Z</time></trkpt><trkpt lat="46.0252105" lon="11.9484251"><ele>357.0</ele><time>2026-05-04T16:02:44.402Z</time></trkpt><trkpt lat="46.0252775" lon="11.948373"><ele>357.0</ele><time>2026-05-04T16:02:46.402Z</time></trkpt><trkpt lat="46.0253448" lon="11.9483048"><ele>357.0</ele><time>2026-05-04T16:02:48.4Z</time></trkpt><trkpt lat="46.0254159" lon="11.9482313"><ele>356.8</ele><time>2026-05-04T16:02:50.403Z</time></trkpt><trkpt lat="46.0254723" lon="11.9481455"><ele>356.6</ele><time>2026-05-04T16:02:52.402Z</time></trkpt><trkpt lat="46.0254904" lon="11.9479947"><ele>356.40000000000003</ele><time>2026-05-04T16:02:54.4Z</time></trkpt><trkpt lat="46.02548" lon="11.9478163"><ele>356.20000000000005</ele><time>2026-05-04T16:02:56.403Z</time></trkpt><trkpt lat="46.0254856" lon="11.9476338"><ele>356.0</ele><time>2026-05-04T16:02:58.403Z</time></trkpt><trkpt lat="46.0254996" lon="11.9474737"><ele>356.33333333333337</ele><time>2026-05-04T16:03:00.402Z</time></trkpt><trkpt lat="46.0254986" lon="11.9473344"><ele>356.6666666666667</ele><time>2026-05-04T16:03:02.401Z</time></trkpt><trkpt lat="46.0254787" lon="11.9472003"><ele>357.0</ele><time>2026-05-04T16:03:04.402Z</time></trkpt><trkpt lat="46.0254421" lon="11.9470799"><ele>357.3333333333333</ele><time>2026-05-04T16:03:06.398Z</time></trkpt><trkpt lat="46.0254137" lon="11.9469677"><ele>357.66666666666663</ele><time>2026-05-04T16:03:08.402Z</time></trkpt><trkpt lat="46.0253815" lon="11.9468601"><ele>358.0</ele><time>2026-05-04T16:03:10.404Z</time></trkpt><trkpt lat="46.0253462" lon="11.946754"><ele>358.0</ele><time>2026-05-04T16:03:12.402Z</time></trkpt><trkpt lat="46.0253096" lon="11.9466451"><ele>358.0</ele><time>2026-05-04T16:03:14.4Z</time></trkpt><trkpt lat="46.0252825" lon="11.9465336"><ele>358.0</ele><time>2026-05-04T16:03:16.402Z</time></trkpt><trkpt lat="46.0252569" lon="11.9464271"><ele>358.0</ele><time>2026-05-04T16:03:18.402Z</time></trkpt><trkpt lat="46.0252308" lon="11.9463159"><ele>358.0</ele><time>2026-05-04T16:03:20.402Z</time></trkpt><trkpt lat="46.0252028" lon="11.9462019"><ele>358.0</ele><time>2026-05-04T16:03:22.403Z</time></trkpt><trkpt lat="46.025166" lon="11.9460757"><ele>358.0</ele><time>2026-05-04T16:03:24.4Z</time></trkpt><trkpt lat="46.0251276" lon="11.9459342"><ele>358.0</ele><time>2026-05-04T16:03:26.4Z</time></trkpt><trkpt lat="46.0250729" lon="11.945787"><ele>358.0</ele><time>2026-05-04T16:03:28.402Z</time></trkpt><trkpt lat="46.0249954" lon="11.9456643"><ele>358.0</ele><time>2026-05-04T16:03:30.402Z</time></trkpt><trkpt lat="46.0249062" lon="11.9455495"><ele>357.5</ele><time>2026-05-04T16:03:32.401Z</time></trkpt><trkpt lat="46.0248141" lon="11.9454444"><ele>357.0</ele><time>2026-05-04T16:03:34.402Z</time></trkpt><trkpt lat="46.0247" lon="11.9453807"><ele>356.5</ele><time>2026-05-04T16:03:36.401Z</time></trkpt><trkpt lat="46.0245862" lon="11.9453317"><ele>356.0</ele><time>2026-05-04T16:03:38.4Z</time></trkpt><trkpt lat="46.0244933" lon="11.9452517"><ele>356.0</ele><time>2026-05-04T16:03:40.4Z</time></trkpt><trkpt lat="46.024415" lon="11.9451663"><ele>356.0</ele><time>2026-05-04T16:03:42.401Z</time></trkpt><trkpt lat="46.0243414" lon="11.9450829"><ele>356.0</ele><time>2026-05-04T16:03:44.4Z</time></trkpt><trkpt lat="46.0242764" lon="11.9449937"><ele>356.0</ele><time>2026-05-04T16:03:46.403Z</time></trkpt><trkpt lat="46.0242104" lon="11.9449135"><ele>356.0</ele><time>2026-05-04T16:03:48.402Z</time></trkpt><trkpt lat="46.0241468" lon="11.9448295"><ele>357.0</ele><time>2026-05-04T16:03:50.402Z</time></trkpt><trkpt lat="46.0240831" lon="11.9447457"><ele>358.0</ele><time>2026-05-04T16:03:52.401Z</time></trkpt><trkpt lat="46.0240184" lon="11.9446603"><ele>359.0</ele><time>2026-05-04T16:03:54.402Z</time></trkpt><trkpt lat="46.0239544" lon="11.9445699"><ele>360.0</ele><time>2026-05-04T16:03:56.401Z</time></trkpt><trkpt lat="46.0238861" lon="11.9444849"><ele>361.0</ele><time>2026-05-04T16:03:58.402Z</time></trkpt><trkpt lat="46.0238161" lon="11.9444008"><ele>362.0</ele><time>2026-05-04T16:04:00.401Z</time></trkpt><trkpt lat="46.0237499" lon="11.9443064"><ele>362.20000000000005</ele><time>2026-05-04T16:04:02.402Z</time></trkpt><trkpt lat="46.0236809" lon="11.9442062"><ele>362.4</ele><time>2026-05-04T16:04:04.402Z</time></trkpt><trkpt lat="46.0236181" lon="11.9440985"><ele>362.6</ele><time>2026-05-04T16:04:06.402Z</time></trkpt><trkpt lat="46.0235656" lon="11.9439862"><ele>362.79999999999995</ele><time>2026-05-04T16:04:08.401Z</time></trkpt><trkpt lat="46.023528" lon="11.9438643"><ele>363.0</ele><time>2026-05-04T16:04:10.401Z</time></trkpt><trkpt lat="46.0235121" lon="11.9437327"><ele>363.0</ele><time>2026-05-04T16:04:12.4Z</time></trkpt><trkpt lat="46.0235156" lon="11.9436094"><ele>363.0</ele><time>2026-05-04T16:04:14.401Z</time></trkpt><trkpt lat="46.0235322" lon="11.9434887"><ele>363.0</ele><time>2026-05-04T16:04:16.402Z</time></trkpt><trkpt lat="46.0235619" lon="11.9433722"><ele>363.0</ele><time>2026-05-04T16:04:18.4Z</time></trkpt><trkpt lat="46.0235991" lon="11.9432566"><ele>363.0</ele><time>2026-05-04T16:04:20.403Z</time></trkpt><trkpt lat="46.0236325" lon="11.9431519"><ele>363.0</ele><time>2026-05-04T16:04:22.402Z</time></trkpt><trkpt lat="46.0236621" lon="11.9430558"><ele>363.1666666666667</ele><time>2026-05-04T16:04:24.403Z</time></trkpt><trkpt lat="46.0236776" lon="11.9429577"><ele>363.3333333333333</ele><time>2026-05-04T16:04:26.402Z</time></trkpt><trkpt lat="46.0236732" lon="11.9428415"><ele>363.5</ele><time>2026-05-04T16:04:28.4Z</time></trkpt><trkpt lat="46.0236699" lon="11.9427072"><ele>363.66666666666663</ele><time>2026-05-04T16:04:30.403Z</time></trkpt><trkpt lat="46.023659" lon="11.9425625"><ele>363.8333333333333</ele><time>2026-05-04T16:04:32.401Z</time></trkpt><trkpt lat="46.0236409" lon="11.9424325"><ele>364.0</ele><time>2026-05-04T16:04:34.401Z</time></trkpt><trkpt lat="46.0236107" lon="11.94231"><ele>364.66666666666663</ele><time>2026-05-04T16:04:36.402Z</time></trkpt><trkpt lat="46.0235613" lon="11.9422149"><ele>365.3333333333333</ele><time>2026-05-04T16:04:38.4Z</time></trkpt><trkpt lat="46.0234941" lon="11.942124"><ele>366.0</ele><time>2026-05-04T16:04:40.401Z</time></trkpt><trkpt lat="46.0234201" lon="11.942049"><ele>366.6666666666667</ele><time>2026-05-04T16:04:42.402Z</time></trkpt><trkpt lat="46.0233502" lon="11.941971"><ele>367.33333333333337</ele><time>2026-05-04T16:04:44.402Z</time></trkpt><trkpt lat="46.0232999" lon="11.9418895"><ele>368.0</ele><time>2026-05-04T16:04:46.402Z</time></trkpt><trkpt lat="46.0232545" lon="11.9418117"><ele>368.14285714285717</ele><time>2026-05-04T16:04:48.401Z</time></trkpt><trkpt lat="46.0232146" lon="11.9417345"><ele>368.2857142857143</ele><time>2026-05-04T16:04:50.504Z</time></trkpt><trkpt lat="46.0231733" lon="11.9416617"><ele>368.42857142857144</ele><time>2026-05-04T16:04:52.403Z</time></trkpt><trkpt lat="46.0231346" lon="11.9415847"><ele>368.57142857142856</ele><time>2026-05-04T16:04:54.402Z</time></trkpt><trkpt lat="46.023095" lon="11.9415103"><ele>368.71428571428567</ele><time>2026-05-04T16:04:56.4Z</time></trkpt><trkpt lat="46.0230564" lon="11.9414372"><ele>368.85714285714283</ele><time>2026-05-04T16:04:58.402Z</time></trkpt><trkpt lat="46.0229962" lon="11.941337"><ele>369.0</ele><time>2026-05-04T16:05:01.402Z</time></trkpt><trkpt lat="46.0229517" lon="11.9412682"><ele>370.0</ele><time>2026-05-04T16:05:03.402Z</time></trkpt><trkpt lat="46.0229045" lon="11.9411969"><ele>371.0</ele><time>2026-05-04T16:05:05.401Z</time></trkpt><trkpt lat="46.0228505" lon="11.9410951"><ele>372.0</ele><time>2026-05-04T16:05:08.402Z</time></trkpt><trkpt lat="46.0228289" lon="11.9409733"><ele>373.0</ele><time>2026-05-04T16:05:11.402Z</time></trkpt><trkpt lat="46.0228203" lon="11.940881"><ele>374.0</ele><time>2026-05-04T16:05:13.402Z</time></trkpt><trkpt lat="46.0228092" lon="11.9407907"><ele>375.0</ele><time>2026-05-04T16:05:15.4Z</time></trkpt><trkpt lat="46.0227937" lon="11.9407011"><ele>376.0</ele><time>2026-05-04T16:05:17.403Z</time></trkpt><trkpt lat="46.0227796" lon="11.940611"><ele>376.57142857142856</ele><time>2026-05-04T16:05:19.402Z</time></trkpt><trkpt lat="46.0227661" lon="11.9405178"><ele>377.1428571428571</ele><time>2026-05-04T16:05:21.403Z</time></trkpt><trkpt lat="46.0227532" lon="11.9404201"><ele>377.7142857142857</ele><time>2026-05-04T16:05:23.403Z</time></trkpt><trkpt lat="46.0227478" lon="11.9403238"><ele>378.2857142857143</ele><time>2026-05-04T16:05:25.402Z</time></trkpt><trkpt lat="46.0227583" lon="11.9402291"><ele>378.8571428571429</ele><time>2026-05-04T16:05:27.402Z</time></trkpt><trkpt lat="46.022761" lon="11.9401377"><ele>379.42857142857144</ele><time>2026-05-04T16:05:29.402Z</time></trkpt><trkpt lat="46.0227652" lon="11.9400356"><ele>380.0</ele><time>2026-05-04T16:05:31.402Z</time></trkpt><trkpt lat="46.022773" lon="11.9399392"><ele>380.1666666666667</ele><time>2026-05-04T16:05:33.402Z</time></trkpt><trkpt lat="46.0227679" lon="11.9398197"><ele>380.33333333333337</ele><time>2026-05-04T16:05:36.401Z</time></trkpt><trkpt lat="46.0227385" lon="11.9397367"><ele>380.5</ele><time>2026-05-04T16:05:38.4Z</time></trkpt><trkpt lat="46.0227109" lon="11.9396536"><ele>380.6666666666667</ele><time>2026-05-04T16:05:40.399Z</time></trkpt><trkpt lat="46.0226797" lon="11.9395248"><ele>380.8333333333333</ele><time>2026-05-04T16:05:43.399Z</time></trkpt><trkpt lat="46.0226659" lon="11.9393972"><ele>381.0</ele><time>2026-05-04T16:05:46.4Z</time></trkpt><trkpt lat="46.0226589" lon="11.9392681"><ele>381.0</ele><time>2026-05-04T16:05:49.4Z</time></trkpt><trkpt lat="46.022653" lon="11.9391651"><ele>381.0</ele><time>2026-05-04T16:05:51.402Z</time></trkpt><trkpt lat="46.0226452" lon="11.9390652"><ele>381.0</ele><time>2026-05-04T16:05:53.403Z</time></trkpt><trkpt lat="46.0226229" lon="11.938976"><ele>381.0</ele><time>2026-05-04T16:05:55.402Z</time></trkpt><trkpt lat="46.0225835" lon="11.9388873"><ele>381.0</ele><time>2026-05-04T16:05:57.403Z</time></trkpt><trkpt lat="46.0225446" lon="11.9388021"><ele>381.0</ele><time>2026-05-04T16:05:59.403Z</time></trkpt><trkpt lat="46.0225072" lon="11.9387212"><ele>381.0</ele><time>2026-05-04T16:06:01.4Z</time></trkpt><trkpt lat="46.0224643" lon="11.9386374"><ele>381.0</ele><time>2026-05-04T16:06:03.403Z</time></trkpt><trkpt lat="46.0224221" lon="11.9385364"><ele>381.0</ele><time>2026-05-04T16:06:05.401Z</time></trkpt><trkpt lat="46.0223932" lon="11.9384455"><ele>381.0</ele><time>2026-05-04T16:06:07.403Z</time></trkpt><trkpt lat="46.0223749" lon="11.938345"><ele>381.0</ele><time>2026-05-04T16:06:09.402Z</time></trkpt><trkpt lat="46.0223636" lon="11.9382345"><ele>381.0</ele><time>2026-05-04T16:06:11.403Z</time></trkpt><trkpt lat="46.0223446" lon="11.9381114"><ele>381.0</ele><time>2026-05-04T16:06:13.403Z</time></trkpt><trkpt lat="46.0223242" lon="11.9379991"><ele>381.3333333333333</ele><time>2026-05-04T16:06:15.403Z</time></trkpt><trkpt lat="46.0222965" lon="11.9379011"><ele>381.6666666666667</ele><time>2026-05-04T16:06:17.401Z</time></trkpt><trkpt lat="46.0222675" lon="11.9378108"><ele>382.0</ele><time>2026-05-04T16:06:19.402Z</time></trkpt><trkpt lat="46.0222199" lon="11.9376937"><ele>382.33333333333337</ele><time>2026-05-04T16:06:22.403Z</time></trkpt><trkpt lat="46.0221867" lon="11.937606"><ele>382.6666666666667</ele><time>2026-05-04T16:06:24.404Z</time></trkpt><trkpt lat="46.0221609" lon="11.937507"><ele>383.0</ele><time>2026-05-04T16:06:26.403Z</time></trkpt><trkpt lat="46.0221427" lon="11.9374052"><ele>384.0</ele><time>2026-05-04T16:06:28.404Z</time></trkpt><trkpt lat="46.0221351" lon="11.9373016"><ele>385.0</ele><time>2026-05-04T16:06:30.403Z</time></trkpt><trkpt lat="46.0221256" lon="11.937211"><ele>386.0</ele><time>2026-05-04T16:06:32.403Z</time></trkpt><trkpt lat="46.0221185" lon="11.9370739"><ele>387.0</ele><time>2026-05-04T16:06:35.403Z</time></trkpt><trkpt lat="46.0221142" lon="11.9369718"><ele>388.0</ele><time>2026-05-04T16:06:37.405Z</time></trkpt><trkpt lat="46.0221098" lon="11.9368752"><ele>389.0</ele><time>2026-05-04T16:06:39.404Z</time></trkpt><trkpt lat="46.0221016" lon="11.9367727"><ele>390.0</ele><time>2026-05-04T16:06:41.401Z</time></trkpt><trkpt lat="46.0220946" lon="11.9366396"><ele>391.1666666666667</ele><time>2026-05-04T16:06:44.403Z</time></trkpt><trkpt lat="46.0220928" lon="11.9365323"><ele>392.33333333333337</ele><time>2026-05-04T16:06:46.404Z</time></trkpt><trkpt lat="46.0220821" lon="11.9364295"><ele>393.5</ele><time>2026-05-04T16:06:48.402Z</time></trkpt><trkpt lat="46.022054" lon="11.9363297"><ele>394.6666666666667</ele><time>2026-05-04T16:06:50.403Z</time></trkpt><trkpt lat="46.0220306" lon="11.9362184"><ele>395.83333333333337</ele><time>2026-05-04T16:06:52.402Z</time></trkpt><trkpt lat="46.0220214" lon="11.9361079"><ele>397.0</ele><time>2026-05-04T16:06:54.403Z</time></trkpt><trkpt lat="46.0220062" lon="11.936005"><ele>397.00000000000006</ele><time>2026-05-04T16:06:56.403Z</time></trkpt><trkpt lat="46.0219867" lon="11.9359101"><ele>397.0</ele><time>2026-05-04T16:06:58.404Z</time></trkpt><trkpt lat="46.0219665" lon="11.9357781"><ele>397.0</ele><time>2026-05-04T16:07:01.401Z</time></trkpt><trkpt lat="46.0219475" lon="11.9356835"><ele>397.0</ele><time>2026-05-04T16:07:03.404Z</time></trkpt><trkpt lat="46.0219241" lon="11.9355896"><ele>397.00000000000006</ele><time>2026-05-04T16:07:05.398Z</time></trkpt><trkpt lat="46.0218902" lon="11.9354973"><ele>397.0</ele><time>2026-05-04T16:07:07.403Z</time></trkpt><trkpt lat="46.0218148" lon="11.9354131"><ele>396.83333333333337</ele><time>2026-05-04T16:07:10.401Z</time></trkpt><trkpt lat="46.0217648" lon="11.935345"><ele>396.6666666666667</ele><time>2026-05-04T16:07:12.403Z</time></trkpt><trkpt lat="46.0217121" lon="11.9352637"><ele>396.5</ele><time>2026-05-04T16:07:15.399Z</time></trkpt><trkpt lat="46.0216571" lon="11.9351931"><ele>396.33333333333337</ele><time>2026-05-04T16:07:17.402Z</time></trkpt><trkpt lat="46.0215919" lon="11.9351121"><ele>396.1666666666667</ele><time>2026-05-04T16:07:19.402Z</time></trkpt><trkpt lat="46.02152" lon="11.9350325"><ele>396.0</ele><time>2026-05-04T16:07:21.403Z</time></trkpt><trkpt lat="46.0214618" lon="11.9349533"><ele>397.5</ele><time>2026-05-04T16:07:23.402Z</time></trkpt><trkpt lat="46.0214143" lon="11.934857"><ele>399.0</ele><time>2026-05-04T16:07:25.403Z</time></trkpt><trkpt lat="46.0213871" lon="11.9347458"><ele>400.5</ele><time>2026-05-04T16:07:27.403Z</time></trkpt><trkpt lat="46.0214231" lon="11.9346569"><ele>402.0</ele><time>2026-05-04T16:07:29.403Z</time></trkpt><trkpt lat="46.021494" lon="11.9345697"><ele>403.5</ele><time>2026-05-04T16:07:31.399Z</time></trkpt><trkpt lat="46.0215428" lon="11.934496"><ele>405.0</ele><time>2026-05-04T16:07:33.401Z</time></trkpt><trkpt lat="46.021559" lon="11.9344047"><ele>405.0</ele><time>2026-05-04T16:07:35.401Z</time></trkpt><trkpt lat="46.0215601" lon="11.9343028"><ele>405.0</ele><time>2026-05-04T16:07:37.401Z</time></trkpt><trkpt lat="46.0215538" lon="11.9341866"><ele>405.0</ele><time>2026-05-04T16:07:39.403Z</time></trkpt><trkpt lat="46.0215515" lon="11.9340555"><ele>405.0</ele><time>2026-05-04T16:07:41.402Z</time></trkpt><trkpt lat="46.0215339" lon="11.9339027"><ele>405.0</ele><time>2026-05-04T16:07:43.404Z</time></trkpt><trkpt lat="46.0214962" lon="11.9337578"><ele>404.3333333333333</ele><time>2026-05-04T16:07:45.404Z</time></trkpt><trkpt lat="46.0214569" lon="11.9336125"><ele>403.66666666666663</ele><time>2026-05-04T16:07:47.403Z</time></trkpt><trkpt lat="46.021405" lon="11.9334852"><ele>403.0</ele><time>2026-05-04T16:07:49.403Z</time></trkpt><trkpt lat="46.0213676" lon="11.9333755"><ele>402.3333333333333</ele><time>2026-05-04T16:07:51.403Z</time></trkpt><trkpt lat="46.0213294" lon="11.9332812"><ele>401.66666666666663</ele><time>2026-05-04T16:07:53.402Z</time></trkpt><trkpt lat="46.0212975" lon="11.9331964"><ele>401.0</ele><time>2026-05-04T16:07:55.402Z</time></trkpt><trkpt lat="46.0212676" lon="11.9331091"><ele>400.8571428571429</ele><time>2026-05-04T16:07:57.402Z</time></trkpt><trkpt lat="46.0212344" lon="11.933012"><ele>400.7142857142857</ele><time>2026-05-04T16:07:59.401Z</time></trkpt><trkpt lat="46.0211974" lon="11.9329219"><ele>400.57142857142856</ele><time>2026-05-04T16:08:01.403Z</time></trkpt><trkpt lat="46.0211554" lon="11.9328476"><ele>400.42857142857144</ele><time>2026-05-04T16:08:03.403Z</time></trkpt><trkpt lat="46.0211185" lon="11.932764"><ele>400.2857142857143</ele><time>2026-05-04T16:08:05.403Z</time></trkpt><trkpt lat="46.0210959" lon="11.9326708"><ele>400.14285714285717</ele><time>2026-05-04T16:08:07.403Z</time></trkpt><trkpt lat="46.0210793" lon="11.9325809"><ele>400.0</ele><time>2026-05-04T16:08:09.402Z</time></trkpt><trkpt lat="46.0210495" lon="11.9324789"><ele>399.00000000000006</ele><time>2026-05-04T16:08:11.4Z</time></trkpt><trkpt lat="46.0210126" lon="11.9323737"><ele>398.0</ele><time>2026-05-04T16:08:13.403Z</time></trkpt><trkpt lat="46.0209866" lon="11.9322792"><ele>397.0</ele><time>2026-05-04T16:08:15.404Z</time></trkpt><trkpt lat="46.020957" lon="11.9321892"><ele>396.0</ele><time>2026-05-04T16:08:17.401Z</time></trkpt><trkpt lat="46.0209199" lon="11.9321049"><ele>395.00000000000006</ele><time>2026-05-04T16:08:19.401Z</time></trkpt><trkpt lat="46.020878" lon="11.9320152"><ele>394.0</ele><time>2026-05-04T16:08:21.403Z</time></trkpt><trkpt lat="46.0208356" lon="11.9319005"><ele>397.1666666666667</ele><time>2026-05-04T16:08:23.403Z</time></trkpt><trkpt lat="46.0207937" lon="11.9317887"><ele>400.33333333333337</ele><time>2026-05-04T16:08:25.402Z</time></trkpt><trkpt lat="46.0207536" lon="11.9316792"><ele>403.5</ele><time>2026-05-04T16:08:27.403Z</time></trkpt><trkpt lat="46.0207236" lon="11.9315862"><ele>406.66666666666663</ele><time>2026-05-04T16:08:29.403Z</time></trkpt><trkpt lat="46.0207004" lon="11.9314939"><ele>409.8333333333333</ele><time>2026-05-04T16:08:31.404Z</time></trkpt><trkpt lat="46.0206766" lon="11.931375"><ele>413.0</ele><time>2026-05-04T16:08:33.403Z</time></trkpt><trkpt lat="46.0206623" lon="11.9312325"><ele>413.0</ele><time>2026-05-04T16:08:35.404Z</time></trkpt><trkpt lat="46.0206573" lon="11.9310845"><ele>413.0</ele><time>2026-05-04T16:08:37.402Z</time></trkpt><trkpt lat="46.0206627" lon="11.9309326"><ele>413.0</ele><time>2026-05-04T16:08:39.403Z</time></trkpt><trkpt lat="46.0206727" lon="11.9307792"><ele>413.0</ele><time>2026-05-04T16:08:41.401Z</time></trkpt><trkpt lat="46.020685" lon="11.9306183"><ele>413.0</ele><time>2026-05-04T16:08:43.403Z</time></trkpt><trkpt lat="46.0207041" lon="11.9304583"><ele>411.3333333333333</ele><time>2026-05-04T16:08:45.403Z</time></trkpt><trkpt lat="46.0207242" lon="11.9303022"><ele>409.66666666666663</ele><time>2026-05-04T16:08:47.403Z</time></trkpt><trkpt lat="46.0207427" lon="11.9301565"><ele>408.0</ele><time>2026-05-04T16:08:49.402Z</time></trkpt><trkpt lat="46.0207592" lon="11.930022"><ele>406.33333333333337</ele><time>2026-05-04T16:08:51.403Z</time></trkpt><trkpt lat="46.0207746" lon="11.9299122"><ele>404.6666666666667</ele><time>2026-05-04T16:08:53.403Z</time></trkpt><trkpt lat="46.0207897" lon="11.9298238"><ele>403.0</ele><time>2026-05-04T16:08:55.401Z</time></trkpt><trkpt lat="46.0207922" lon="11.9297025"><ele>401.2857142857143</ele><time>2026-05-04T16:08:58.401Z</time></trkpt><trkpt lat="46.0207657" lon="11.9296135"><ele>399.57142857142856</ele><time>2026-05-04T16:09:01.404Z</time></trkpt><trkpt lat="46.0207027" lon="11.9295339"><ele>397.85714285714283</ele><time>2026-05-04T16:09:04.402Z</time></trkpt><trkpt lat="46.0206298" lon="11.9294828"><ele>396.1428571428571</ele><time>2026-05-04T16:09:07.398Z</time></trkpt><trkpt lat="46.0205729" lon="11.9294404"><ele>394.42857142857144</ele><time>2026-05-04T16:09:09.402Z</time></trkpt><trkpt lat="46.0205218" lon="11.9293874"><ele>392.71428571428567</ele><time>2026-05-04T16:09:11.405Z</time></trkpt><trkpt lat="46.0204701" lon="11.9292856"><ele>391.0</ele><time>2026-05-04T16:09:14.403Z</time></trkpt><trkpt lat="46.0204224" lon="11.9292209"><ele>390.6666666666667</ele><time>2026-05-04T16:09:16.402Z</time></trkpt><trkpt lat="46.0203668" lon="11.929149"><ele>390.33333333333337</ele><time>2026-05-04T16:09:18.403Z</time></trkpt><trkpt lat="46.0202985" lon="11.9290681"><ele>390.0</ele><time>2026-05-04T16:09:21.403Z</time></trkpt><trkpt lat="46.0202449" lon="11.9290157"><ele>389.66666666666663</ele><time>2026-05-04T16:09:23.404Z</time></trkpt><trkpt lat="46.020184" lon="11.9289644"><ele>389.3333333333333</ele><time>2026-05-04T16:09:25.402Z</time></trkpt><trkpt lat="46.0201186" lon="11.9289052"><ele>389.0</ele><time>2026-05-04T16:09:28.402Z</time></trkpt><trkpt lat="46.020035" lon="11.9288786"><ele>388.99999999999994</ele><time>2026-05-04T16:09:31.4Z</time></trkpt><trkpt lat="46.0199834" lon="11.928822"><ele>389.0</ele><time>2026-05-04T16:09:35.401Z</time></trkpt><trkpt lat="46.0199823" lon="11.9287206"><ele>389.0</ele><time>2026-05-04T16:09:38.402Z</time></trkpt><trkpt lat="46.0199551" lon="11.9286216"><ele>389.0</ele><time>2026-05-04T16:09:41.403Z</time></trkpt><trkpt lat="46.0199854" lon="11.9284891"><ele>388.99999999999994</ele><time>2026-05-04T16:09:44.4Z</time></trkpt><trkpt lat="46.0200296" lon="11.9284036"><ele>389.0</ele><time>2026-05-04T16:09:46.4Z</time></trkpt><trkpt lat="46.0200861" lon="11.9282967"><ele>388.3333333333333</ele><time>2026-05-04T16:09:49.403Z</time></trkpt><trkpt lat="46.02013" lon="11.9281752"><ele>387.66666666666663</ele><time>2026-05-04T16:09:52.401Z</time></trkpt><trkpt lat="46.0201619" lon="11.9280753"><ele>387.0</ele><time>2026-05-04T16:09:54.403Z</time></trkpt><trkpt lat="46.0202024" lon="11.9279749"><ele>386.33333333333337</ele><time>2026-05-04T16:09:56.404Z</time></trkpt><trkpt lat="46.0202434" lon="11.9278691"><ele>385.6666666666667</ele><time>2026-05-04T16:09:58.403Z</time></trkpt><trkpt lat="46.0202779" lon="11.9277625"><ele>385.0</ele><time>2026-05-04T16:10:00.401Z</time></trkpt><trkpt lat="46.0203023" lon="11.9276501"><ele>384.50000000000006</ele><time>2026-05-04T16:10:02.403Z</time></trkpt><trkpt lat="46.0203021" lon="11.927535"><ele>384.0</ele><time>2026-05-04T16:10:04.4Z</time></trkpt><trkpt lat="46.0202954" lon="11.9274194"><ele>383.5</ele><time>2026-05-04T16:10:06.401Z</time></trkpt><trkpt lat="46.0202945" lon="11.9273046"><ele>383.0</ele><time>2026-05-04T16:10:08.403Z</time></trkpt><trkpt lat="46.0202998" lon="11.9271792"><ele>382.5</ele><time>2026-05-04T16:10:10.401Z</time></trkpt><trkpt lat="46.0203042" lon="11.9270749"><ele>382.0</ele><time>2026-05-04T16:10:12.403Z</time></trkpt><trkpt lat="46.0202991" lon="11.9269843"><ele>382.0</ele><time>2026-05-04T16:10:14.403Z</time></trkpt><trkpt lat="46.0202865" lon="11.9268926"><ele>382.0</ele><time>2026-05-04T16:10:16.403Z</time></trkpt><trkpt lat="46.0202787" lon="11.9267819"><ele>382.0</ele><time>2026-05-04T16:10:18.403Z</time></trkpt><trkpt lat="46.0202711" lon="11.9266698"><ele>382.0</ele><time>2026-05-04T16:10:20.402Z</time></trkpt><trkpt lat="46.0202748" lon="11.9265478"><ele>382.0</ele><time>2026-05-04T16:10:22.404Z</time></trkpt><trkpt lat="46.0202668" lon="11.9264464"><ele>382.0</ele><time>2026-05-04T16:10:24.402Z</time></trkpt><trkpt lat="46.0202454" lon="11.9263568"><ele>382.0</ele><time>2026-05-04T16:10:26.404Z</time></trkpt><trkpt lat="46.0202125" lon="11.9262672"><ele>382.16666666666663</ele><time>2026-05-04T16:10:28.4Z</time></trkpt><trkpt lat="46.0201921" lon="11.9261456"><ele>382.3333333333333</ele><time>2026-05-04T16:10:31.403Z</time></trkpt><trkpt lat="46.0201797" lon="11.9260457"><ele>382.5</ele><time>2026-05-04T16:10:33.401Z</time></trkpt><trkpt lat="46.020155" lon="11.9259375"><ele>382.6666666666667</ele><time>2026-05-04T16:10:35.399Z</time></trkpt><trkpt lat="46.0201194" lon="11.9258275"><ele>382.83333333333337</ele><time>2026-05-04T16:10:37.402Z</time></trkpt><trkpt lat="46.0200749" lon="11.9257036"><ele>383.0</ele><time>2026-05-04T16:10:40.402Z</time></trkpt><trkpt lat="46.0200354" lon="11.9256147"><ele>384.59999999999997</ele><time>2026-05-04T16:10:43.4Z</time></trkpt><trkpt lat="46.0199647" lon="11.9255314"><ele>386.2</ele><time>2026-05-04T16:10:47.403Z</time></trkpt><trkpt lat="46.0198947" lon="11.925439"><ele>387.8</ele><time>2026-05-04T16:10:50.402Z</time></trkpt><trkpt lat="46.0198272" lon="11.9253539"><ele>389.4</ele><time>2026-05-04T16:10:53.402Z</time></trkpt><trkpt lat="46.0197521" lon="11.9252891"><ele>391.0</ele><time>2026-05-04T16:10:56.403Z</time></trkpt><trkpt lat="46.0196815" lon="11.9251959"><ele>391.00000000000006</ele><time>2026-05-04T16:10:59.402Z</time></trkpt><trkpt lat="46.0196249" lon="11.9251078"><ele>391.0</ele><time>2026-05-04T16:11:01.402Z</time></trkpt><trkpt lat="46.0195727" lon="11.9250217"><ele>391.0</ele><time>2026-05-04T16:11:03.403Z</time></trkpt><trkpt lat="46.0195177" lon="11.9249404"><ele>391.0</ele><time>2026-05-04T16:11:05.401Z</time></trkpt><trkpt lat="46.0194528" lon="11.9248728"><ele>391.00000000000006</ele><time>2026-05-04T16:11:07.402Z</time></trkpt><trkpt lat="46.0193917" lon="11.9248166"><ele>391.0</ele><time>2026-05-04T16:11:09.403Z</time></trkpt><trkpt lat="46.0193104" lon="11.9247692"><ele>388.83333333333337</ele><time>2026-05-04T16:11:12.401Z</time></trkpt><trkpt lat="46.0192482" lon="11.9247459"><ele>386.6666666666667</ele><time>2026-05-04T16:11:14.403Z</time></trkpt><trkpt lat="46.0191601" lon="11.9247628"><ele>384.5</ele><time>2026-05-04T16:11:16.403Z</time></trkpt><trkpt lat="46.0190619" lon="11.9248212"><ele>382.33333333333337</ele><time>2026-05-04T16:11:18.402Z</time></trkpt><trkpt lat="46.0189686" lon="11.9248698"><ele>380.1666666666667</ele><time>2026-05-04T16:11:20.403Z</time></trkpt><trkpt lat="46.0188828" lon="11.9249103"><ele>378.0</ele><time>2026-05-04T16:11:22.401Z</time></trkpt><trkpt lat="46.0188233" lon="11.9249894"><ele>378.0</ele><time>2026-05-04T16:11:25.401Z</time></trkpt><trkpt lat="46.018781" lon="11.92506"><ele>378.0</ele><time>2026-05-04T16:11:27.401Z</time></trkpt><trkpt lat="46.018724" lon="11.9251153"><ele>378.0</ele><time>2026-05-04T16:11:29.403Z</time></trkpt><trkpt lat="46.0186555" lon="11.9251484"><ele>378.0</ele><time>2026-05-04T16:11:31.4Z</time></trkpt><trkpt lat="46.0185842" lon="11.9251501"><ele>378.0</ele><time>2026-05-04T16:11:33.403Z</time></trkpt><trkpt lat="46.0185166" lon="11.9251304"><ele>378.0</ele><time>2026-05-04T16:11:35.4Z</time></trkpt><trkpt lat="46.0184538" lon="11.9250981"><ele>378.0</ele><time>2026-05-04T16:11:37.401Z</time></trkpt><trkpt lat="46.0183909" lon="11.9250502"><ele>378.0</ele><time>2026-05-04T16:11:39.402Z</time></trkpt><trkpt lat="46.0183347" lon="11.9249937"><ele>378.0</ele><time>2026-05-04T16:11:41.403Z</time></trkpt><trkpt lat="46.0182755" lon="11.924927"><ele>378.0</ele><time>2026-05-04T16:11:43.402Z</time></trkpt><trkpt lat="46.018218" lon="11.9248726"><ele>378.0</ele><time>2026-05-04T16:11:45.402Z</time></trkpt><trkpt lat="46.0181589" lon="11.9248301"><ele>378.0</ele><time>2026-05-04T16:11:47.402Z</time></trkpt><trkpt lat="46.0180866" lon="11.924798"><ele>378.0</ele><time>2026-05-04T16:11:50.4Z</time></trkpt><trkpt lat="46.0180073" lon="11.9247406"><ele>378.0</ele><time>2026-05-04T16:11:54.401Z</time></trkpt><trkpt lat="46.0179237" lon="11.9246799"><ele>377.57142857142856</ele><time>2026-05-04T16:11:57.401Z</time></trkpt><trkpt lat="46.01787" lon="11.9246305"><ele>377.1428571428571</ele><time>2026-05-04T16:11:59.403Z</time></trkpt><trkpt lat="46.0178165" lon="11.9245691"><ele>376.7142857142857</ele><time>2026-05-04T16:12:01.402Z</time></trkpt><trkpt lat="46.0177679" lon="11.9244918"><ele>376.2857142857143</ele><time>2026-05-04T16:12:03.403Z</time></trkpt><trkpt lat="46.0177211" lon="11.9244054"><ele>375.85714285714283</ele><time>2026-05-04T16:12:05.402Z</time></trkpt><trkpt lat="46.0176699" lon="11.924338"><ele>375.42857142857144</ele><time>2026-05-04T16:12:07.402Z</time></trkpt><trkpt lat="46.0176181" lon="11.9242574"><ele>375.0</ele><time>2026-05-04T16:12:10.4Z</time></trkpt><trkpt lat="46.0176329" lon="11.924169"><ele>375.0</ele><time>2026-05-04T16:12:13.402Z</time></trkpt><trkpt lat="46.0176734" lon="11.9240667"><ele>375.0</ele><time>2026-05-04T16:12:16.403Z</time></trkpt><trkpt lat="46.0176861" lon="11.9239779"><ele>375.0</ele><time>2026-05-04T16:12:18.402Z</time></trkpt><trkpt lat="46.0176784" lon="11.9238526"><ele>375.0</ele><time>2026-05-04T16:12:21.402Z</time></trkpt><trkpt lat="46.0176561" lon="11.9237678"><ele>375.0</ele><time>2026-05-04T16:12:23.402Z</time></trkpt><trkpt lat="46.0176204" lon="11.9236555"><ele>375.0</ele><time>2026-05-04T16:12:26.402Z</time></trkpt><trkpt lat="46.0175972" lon="11.9235676"><ele>375.0</ele><time>2026-05-04T16:12:29.399Z</time></trkpt><trkpt lat="46.0175969" lon="11.9234505"><ele>372.8333333333333</ele><time>2026-05-04T16:12:32.397Z</time></trkpt><trkpt lat="46.0175509" lon="11.9233411"><ele>370.6666666666667</ele><time>2026-05-04T16:12:35.397Z</time></trkpt><trkpt lat="46.0174976" lon="11.9232566"><ele>368.5</ele><time>2026-05-04T16:12:38.401Z</time></trkpt><trkpt lat="46.0175457" lon="11.9231782"><ele>366.33333333333337</ele><time>2026-05-04T16:12:43.402Z</time></trkpt><trkpt lat="46.017611" lon="11.9232104"><ele>364.1666666666667</ele><time>2026-05-04T16:12:45.401Z</time></trkpt><trkpt lat="46.0176754" lon="11.9232806"><ele>362.0</ele><time>2026-05-04T16:12:47.402Z</time></trkpt><trkpt lat="46.0177302" lon="11.9233376"><ele>364.1666666666667</ele><time>2026-05-04T16:12:49.402Z</time></trkpt><trkpt lat="46.0177838" lon="11.9234073"><ele>366.33333333333337</ele><time>2026-05-04T16:12:51.401Z</time></trkpt><trkpt lat="46.0178399" lon="11.923492"><ele>368.5</ele><time>2026-05-04T16:12:53.4Z</time></trkpt><trkpt lat="46.0178985" lon="11.9235898"><ele>370.6666666666667</ele><time>2026-05-04T16:12:55.4Z</time></trkpt><trkpt lat="46.0179515" lon="11.9236778"><ele>372.8333333333333</ele><time>2026-05-04T16:12:57.402Z</time></trkpt><trkpt lat="46.0180204" lon="11.9237487"><ele>375.0</ele><time>2026-05-04T16:12:59.4Z</time></trkpt><trkpt lat="46.0181048" lon="11.9237837"><ele>375.0</ele><time>2026-05-04T16:13:01.402Z</time></trkpt><trkpt lat="46.0181832" lon="11.9238186"><ele>375.0</ele><time>2026-05-04T16:13:03.402Z</time></trkpt><trkpt lat="46.0182579" lon="11.9238642"><ele>375.0</ele><time>2026-05-04T16:13:05.401Z</time></trkpt><trkpt lat="46.0183248" lon="11.9239049"><ele>375.0</ele><time>2026-05-04T16:13:07.402Z</time></trkpt><trkpt lat="46.0183861" lon="11.9239457"><ele>375.0</ele><time>2026-05-04T16:13:09.399Z</time></trkpt><trkpt lat="46.0184484" lon="11.9239902"><ele>375.0</ele><time>2026-05-04T16:13:11.4Z</time></trkpt><trkpt lat="46.0185138" lon="11.9240537"><ele>375.5</ele><time>2026-05-04T16:13:13.4Z</time></trkpt><trkpt lat="46.018591" lon="11.9241164"><ele>376.0</ele><time>2026-05-04T16:13:15.401Z</time></trkpt><trkpt lat="46.0186795" lon="11.9241692"><ele>376.5</ele><time>2026-05-04T16:13:17.402Z</time></trkpt><trkpt lat="46.0187711" lon="11.9242047"><ele>377.0</ele><time>2026-05-04T16:13:19.401Z</time></trkpt><trkpt lat="46.0188535" lon="11.9242537"><ele>377.5</ele><time>2026-05-04T16:13:21.4Z</time></trkpt><trkpt lat="46.0189289" lon="11.9242685"><ele>378.0</ele><time>2026-05-04T16:13:23.403Z</time></trkpt><trkpt lat="46.0189921" lon="11.9242555"><ele>378.0</ele><time>2026-05-04T16:13:25.403Z</time></trkpt><trkpt lat="46.0190645" lon="11.924241"><ele>378.0</ele><time>2026-05-04T16:13:28.401Z</time></trkpt><trkpt lat="46.019042" lon="11.9241427"><ele>378.0</ele><time>2026-05-04T16:13:35.402Z</time></trkpt><trkpt lat="46.0189786" lon="11.9241079"><ele>378.0</ele><time>2026-05-04T16:13:37.402Z</time></trkpt><trkpt lat="46.0189059" lon="11.9240682"><ele>378.0</ele><time>2026-05-04T16:13:39.402Z</time></trkpt><trkpt lat="46.0188357" lon="11.9240147"><ele>378.0</ele><time>2026-05-04T16:13:41.402Z</time></trkpt><trkpt lat="46.0187826" lon="11.923939"><ele>378.0</ele><time>2026-05-04T16:13:43.4Z</time></trkpt><trkpt lat="46.0188011" lon="11.9238342"><ele>376.0</ele><time>2026-05-04T16:13:46.4Z</time></trkpt><trkpt lat="46.0188643" lon="11.9238643"><ele>374.0</ele><time>2026-05-04T16:13:48.403Z</time></trkpt><trkpt lat="46.0189173" lon="11.9239474"><ele>372.0</ele><time>2026-05-04T16:13:50.402Z</time></trkpt><trkpt lat="46.0189833" lon="11.9239839"><ele>370.0</ele><time>2026-05-04T16:13:52.403Z</time></trkpt><trkpt lat="46.0190638" lon="11.9239729"><ele>368.0</ele><time>2026-05-04T16:13:54.4Z</time></trkpt><trkpt lat="46.0191295" lon="11.9239165"><ele>366.0</ele><time>2026-05-04T16:13:56.401Z</time></trkpt><trkpt lat="46.0191763" lon="11.9238285"><ele>364.8333333333333</ele><time>2026-05-04T16:13:58.402Z</time></trkpt><trkpt lat="46.0191881" lon="11.9237347"><ele>363.6666666666667</ele><time>2026-05-04T16:14:00.399Z</time></trkpt><trkpt lat="46.0192072" lon="11.9236092"><ele>362.5</ele><time>2026-05-04T16:14:03.402Z</time></trkpt><trkpt lat="46.0192351" lon="11.9234838"><ele>361.33333333333337</ele><time>2026-05-04T16:14:06.403Z</time></trkpt><trkpt lat="46.0192634" lon="11.9233808"><ele>360.1666666666667</ele><time>2026-05-04T16:14:08.403Z</time></trkpt><trkpt lat="46.0192871" lon="11.9232753"><ele>359.0</ele><time>2026-05-04T16:14:10.401Z</time></trkpt><trkpt lat="46.0193105" lon="11.9231676"><ele>356.2</ele><time>2026-05-04T16:14:12.402Z</time></trkpt><trkpt lat="46.0193414" lon="11.9230406"><ele>353.4</ele><time>2026-05-04T16:14:14.403Z</time></trkpt><trkpt lat="46.0193607" lon="11.9228954"><ele>350.6</ele><time>2026-05-04T16:14:16.4Z</time></trkpt><trkpt lat="46.0193673" lon="11.9227665"><ele>347.8</ele><time>2026-05-04T16:14:18.402Z</time></trkpt><trkpt lat="46.0193637" lon="11.9226445"><ele>345.0</ele><time>2026-05-04T16:14:20.4Z</time></trkpt><trkpt lat="46.0193584" lon="11.9225172"><ele>343.5</ele><time>2026-05-04T16:14:22.4Z</time></trkpt><trkpt lat="46.0193515" lon="11.9223885"><ele>342.0</ele><time>2026-05-04T16:14:24.401Z</time></trkpt><trkpt lat="46.0193364" lon="11.922281"><ele>340.5</ele><time>2026-05-04T16:14:26.403Z</time></trkpt><trkpt lat="46.0193227" lon="11.9221721"><ele>339.0</ele><time>2026-05-04T16:14:28.402Z</time></trkpt><trkpt lat="46.0193014" lon="11.9220531"><ele>337.5</ele><time>2026-05-04T16:14:30.401Z</time></trkpt><trkpt lat="46.0192787" lon="11.9219355"><ele>336.0</ele><time>2026-05-04T16:14:32.401Z</time></trkpt><trkpt lat="46.0192571" lon="11.9218323"><ele>336.0</ele><time>2026-05-04T16:14:34.402Z</time></trkpt><trkpt lat="46.0192405" lon="11.9217359"><ele>336.0</ele><time>2026-05-04T16:14:36.403Z</time></trkpt><trkpt lat="46.0192182" lon="11.9216216"><ele>336.0</ele><time>2026-05-04T16:14:38.4Z</time></trkpt><trkpt lat="46.019203" lon="11.9215084"><ele>336.0</ele><time>2026-05-04T16:14:40.402Z</time></trkpt><trkpt lat="46.0192062" lon="11.9214072"><ele>336.0</ele><time>2026-05-04T16:14:42.401Z</time></trkpt><trkpt lat="46.0192177" lon="11.9213013"><ele>336.0</ele><time>2026-05-04T16:14:44.402Z</time></trkpt><trkpt lat="46.0192178" lon="11.9211733"><ele>333.42857142857144</ele><time>2026-05-04T16:14:47.398Z</time></trkpt><trkpt lat="46.0191446" lon="11.9211491"><ele>330.8571428571429</ele><time>2026-05-04T16:14:50.402Z</time></trkpt><trkpt lat="46.0190997" lon="11.9212197"><ele>328.2857142857143</ele><time>2026-05-04T16:14:52.403Z</time></trkpt><trkpt lat="46.0190788" lon="11.9213195"><ele>325.7142857142857</ele><time>2026-05-04T16:14:54.403Z</time></trkpt><trkpt lat="46.0190615" lon="11.9214151"><ele>323.14285714285717</ele><time>2026-05-04T16:14:56.401Z</time></trkpt><trkpt lat="46.0190401" lon="11.921507"><ele>320.57142857142856</ele><time>2026-05-04T16:14:58.399Z</time></trkpt><trkpt lat="46.0190282" lon="11.9216052"><ele>318.0</ele><time>2026-05-04T16:15:00.4Z</time></trkpt><trkpt lat="46.0189934" lon="11.9217251"><ele>318.0</ele><time>2026-05-04T16:15:02.401Z</time></trkpt><trkpt lat="46.018957" lon="11.9218349"><ele>318.0</ele><time>2026-05-04T16:15:04.403Z</time></trkpt><trkpt lat="46.0189172" lon="11.9219139"><ele>318.0</ele><time>2026-05-04T16:15:06.403Z</time></trkpt><trkpt lat="46.0188557" lon="11.9219486"><ele>318.0</ele><time>2026-05-04T16:15:08.403Z</time></trkpt><trkpt lat="46.0187921" lon="11.9219267"><ele>318.0</ele><time>2026-05-04T16:15:10.403Z</time></trkpt><trkpt lat="46.0187226" lon="11.9218443"><ele>318.0</ele><time>2026-05-04T16:15:13.402Z</time></trkpt><trkpt lat="46.0186629" lon="11.9217827"><ele>318.0</ele><time>2026-05-04T16:15:15.403Z</time></trkpt><trkpt lat="46.0185966" lon="11.9217089"><ele>318.0</ele><time>2026-05-04T16:15:17.403Z</time></trkpt><trkpt lat="46.0185305" lon="11.9216346"><ele>318.0</ele><time>2026-05-04T16:15:19.4Z</time></trkpt><trkpt lat="46.0184568" lon="11.9215624"><ele>318.0</ele><time>2026-05-04T16:15:21.403Z</time></trkpt><trkpt lat="46.0183999" lon="11.9214828"><ele>318.0</ele><time>2026-05-04T16:15:23.403Z</time></trkpt><trkpt lat="46.0183396" lon="11.9213883"><ele>318.0</ele><time>2026-05-04T16:15:25.404Z</time></trkpt><trkpt lat="46.0182653" lon="11.9213158"><ele>318.0</ele><time>2026-05-04T16:15:27.401Z</time></trkpt><trkpt lat="46.0181948" lon="11.9212457"><ele>319.1666666666667</ele><time>2026-05-04T16:15:29.403Z</time></trkpt><trkpt lat="46.0181257" lon="11.9211822"><ele>320.3333333333333</ele><time>2026-05-04T16:15:31.402Z</time></trkpt><trkpt lat="46.0180615" lon="11.9211328"><ele>321.5</ele><time>2026-05-04T16:15:33.404Z</time></trkpt><trkpt lat="46.0179995" lon="11.9210921"><ele>322.66666666666663</ele><time>2026-05-04T16:15:35.4Z</time></trkpt><trkpt lat="46.0179445" lon="11.9210303"><ele>323.8333333333333</ele><time>2026-05-04T16:15:37.403Z</time></trkpt><trkpt lat="46.0178832" lon="11.9209534"><ele>325.0</ele><time>2026-05-04T16:15:39.404Z</time></trkpt><trkpt lat="46.0178439" lon="11.9208532"><ele>322.0</ele><time>2026-05-04T16:15:41.401Z</time></trkpt><trkpt lat="46.0178364" lon="11.9207558"><ele>319.0</ele><time>2026-05-04T16:15:43.403Z</time></trkpt><trkpt lat="46.017924" lon="11.9207271"><ele>316.0</ele><time>2026-05-04T16:15:46.401Z</time></trkpt><trkpt lat="46.0180106" lon="11.920812"><ele>313.0</ele><time>2026-05-04T16:15:48.403Z</time></trkpt><trkpt lat="46.0181078" lon="11.9208651"><ele>310.0</ele><time>2026-05-04T16:15:50.402Z</time></trkpt><trkpt lat="46.0182141" lon="11.9208495"><ele>309.4</ele><time>2026-05-04T16:15:52.398Z</time></trkpt><trkpt lat="46.0183218" lon="11.9207749"><ele>308.8</ele><time>2026-05-04T16:15:54.403Z</time></trkpt><trkpt lat="46.0184296" lon="11.9206776"><ele>308.2</ele><time>2026-05-04T16:15:56.401Z</time></trkpt><trkpt lat="46.018522" lon="11.9205895"><ele>307.6</ele><time>2026-05-04T16:15:58.402Z</time></trkpt><trkpt lat="46.018586" lon="11.9205209"><ele>307.0</ele><time>2026-05-04T16:16:00.402Z</time></trkpt><trkpt lat="46.0186421" lon="11.9204171"><ele>307.0</ele><time>2026-05-04T16:16:02.399Z</time></trkpt><trkpt lat="46.0186788" lon="11.9203005"><ele>307.0</ele><time>2026-05-04T16:16:04.401Z</time></trkpt><trkpt lat="46.0186948" lon="11.9201818"><ele>307.0</ele><time>2026-05-04T16:16:06.401Z</time></trkpt><trkpt lat="46.0187011" lon="11.9200863"><ele>307.0</ele><time>2026-05-04T16:16:08.401Z</time></trkpt><trkpt lat="46.0186972" lon="11.9199627"><ele>307.0</ele><time>2026-05-04T16:16:11.402Z</time></trkpt><trkpt lat="46.0186806" lon="11.9198655"><ele>307.0</ele><time>2026-05-04T16:16:15.402Z</time></trkpt><trkpt lat="46.018636" lon="11.9197947"><ele>304.6</ele><time>2026-05-04T16:16:18.403Z</time></trkpt><trkpt lat="46.0185579" lon="11.9197229"><ele>302.2</ele><time>2026-05-04T16:16:21.403Z</time></trkpt><trkpt lat="46.0184745" lon="11.9196483"><ele>299.8</ele><time>2026-05-04T16:16:23.404Z</time></trkpt><trkpt lat="46.0183817" lon="11.9195594"><ele>297.4</ele><time>2026-05-04T16:16:25.402Z</time></trkpt><trkpt lat="46.0182734" lon="11.9194663"><ele>295.0</ele><time>2026-05-04T16:16:27.402Z</time></trkpt><trkpt lat="46.0181646" lon="11.9193767"><ele>294.14285714285717</ele><time>2026-05-04T16:16:29.402Z</time></trkpt><trkpt lat="46.0181043" lon="11.9193257"><ele>293.2857142857143</ele><time>2026-05-04T16:16:30.403Z</time></trkpt><trkpt lat="46.018039" lon="11.9192759"><ele>292.42857142857144</ele><time>2026-05-04T16:16:31.401Z</time></trkpt><trkpt lat="46.017973" lon="11.9192263"><ele>291.57142857142856</ele><time>2026-05-04T16:16:32.403Z</time></trkpt><trkpt lat="46.0179076" lon="11.9191774"><ele>290.7142857142857</ele><time>2026-05-04T16:16:33.401Z</time></trkpt><trkpt lat="46.0178382" lon="11.9191274"><ele>289.8571428571429</ele><time>2026-05-04T16:16:34.403Z</time></trkpt><trkpt lat="46.0177723" lon="11.9190728"><ele>289.0</ele><time>2026-05-04T16:16:35.402Z</time></trkpt><trkpt lat="46.0177064" lon="11.9190163"><ele>287.7142857142857</ele><time>2026-05-04T16:16:36.399Z</time></trkpt><trkpt lat="46.0176424" lon="11.9189595"><ele>286.42857142857144</ele><time>2026-05-04T16:16:37.402Z</time></trkpt><trkpt lat="46.0175754" lon="11.9189141"><ele>285.1428571428571</ele><time>2026-05-04T16:16:38.402Z</time></trkpt><trkpt lat="46.0175086" lon="11.9188697"><ele>283.8571428571429</ele><time>2026-05-04T16:16:39.403Z</time></trkpt><trkpt lat="46.0174434" lon="11.9188264"><ele>282.57142857142856</ele><time>2026-05-04T16:16:40.403Z</time></trkpt><trkpt lat="46.0173788" lon="11.918788"><ele>281.2857142857143</ele><time>2026-05-04T16:16:41.402Z</time></trkpt><trkpt lat="46.0173175" lon="11.9187516"><ele>280.0</ele><time>2026-05-04T16:16:42.403Z</time></trkpt><trkpt lat="46.0172063" lon="11.9186911"><ele>279.5</ele><time>2026-05-04T16:16:44.404Z</time></trkpt><trkpt lat="46.0171003" lon="11.9186484"><ele>279.0</ele><time>2026-05-04T16:16:46.403Z</time></trkpt><trkpt lat="46.01701" lon="11.9186131"><ele>278.5</ele><time>2026-05-04T16:16:48.404Z</time></trkpt><trkpt lat="46.0169521" lon="11.9185518"><ele>278.0</ele><time>2026-05-04T16:16:50.401Z</time></trkpt><trkpt lat="46.0169665" lon="11.9184625"><ele>277.5</ele><time>2026-05-04T16:16:53.4Z</time></trkpt><trkpt lat="46.0170335" lon="11.9183824"><ele>277.0</ele><time>2026-05-04T16:16:55.4Z</time></trkpt><trkpt lat="46.0170983" lon="11.9182864"><ele>276.4</ele><time>2026-05-04T16:16:57.401Z</time></trkpt><trkpt lat="46.0171597" lon="11.9181824"><ele>275.79999999999995</ele><time>2026-05-04T16:16:59.402Z</time></trkpt><trkpt lat="46.0172179" lon="11.9180706"><ele>275.2</ele><time>2026-05-04T16:17:01.401Z</time></trkpt><trkpt lat="46.0172773" lon="11.9179605"><ele>274.59999999999997</ele><time>2026-05-04T16:17:03.402Z</time></trkpt><trkpt lat="46.0173274" lon="11.9178481"><ele>274.0</ele><time>2026-05-04T16:17:05.399Z</time></trkpt><trkpt lat="46.0173732" lon="11.9177358"><ele>274.0</ele><time>2026-05-04T16:17:07.403Z</time></trkpt><trkpt lat="46.0174089" lon="11.917628"><ele>274.0</ele><time>2026-05-04T16:17:09.402Z</time></trkpt><trkpt lat="46.0174366" lon="11.9175202"><ele>274.0</ele><time>2026-05-04T16:17:11.402Z</time></trkpt><trkpt lat="46.0174673" lon="11.9174133"><ele>274.0</ele><time>2026-05-04T16:17:13.403Z</time></trkpt><trkpt lat="46.0175034" lon="11.9173215"><ele>274.0</ele><time>2026-05-04T16:17:15.401Z</time></trkpt><trkpt lat="46.01754" lon="11.9172291"><ele>274.0</ele><time>2026-05-04T16:17:17.403Z</time></trkpt><trkpt lat="46.0175767" lon="11.9171414"><ele>274.3333333333333</ele><time>2026-05-04T16:17:19.402Z</time></trkpt><trkpt lat="46.0176165" lon="11.9170589"><ele>274.66666666666663</ele><time>2026-05-04T16:17:21.404Z</time></trkpt><trkpt lat="46.0176561" lon="11.9169676"><ele>275.0</ele><time>2026-05-04T16:17:23.4Z</time></trkpt><trkpt lat="46.017699" lon="11.9168749"><ele>275.3333333333333</ele><time>2026-05-04T16:17:25.401Z</time></trkpt><trkpt lat="46.0177348" lon="11.9167814"><ele>275.6666666666667</ele><time>2026-05-04T16:17:27.403Z</time></trkpt><trkpt lat="46.0177647" lon="11.9166862"><ele>276.0</ele><time>2026-05-04T16:17:29.402Z</time></trkpt><trkpt lat="46.017795" lon="11.9165651"><ele>276.8333333333333</ele><time>2026-05-04T16:17:32.403Z</time></trkpt><trkpt lat="46.0178327" lon="11.9164516"><ele>277.6666666666667</ele><time>2026-05-04T16:17:35.403Z</time></trkpt><trkpt lat="46.0178604" lon="11.9163262"><ele>278.5</ele><time>2026-05-04T16:17:38.403Z</time></trkpt><trkpt lat="46.017874" lon="11.9162253"><ele>279.33333333333337</ele><time>2026-05-04T16:17:40.403Z</time></trkpt><trkpt lat="46.0178872" lon="11.9161212"><ele>280.1666666666667</ele><time>2026-05-04T16:17:42.403Z</time></trkpt><trkpt lat="46.0178987" lon="11.9160083"><ele>281.0</ele><time>2026-05-04T16:17:44.401Z</time></trkpt><trkpt lat="46.0179145" lon="11.9159058"><ele>281.42857142857144</ele><time>2026-05-04T16:17:46.403Z</time></trkpt><trkpt lat="46.0179325" lon="11.915804"><ele>281.8571428571429</ele><time>2026-05-04T16:17:48.403Z</time></trkpt><trkpt lat="46.0179517" lon="11.9157115"><ele>282.2857142857143</ele><time>2026-05-04T16:17:50.401Z</time></trkpt><trkpt lat="46.0179775" lon="11.9156251"><ele>282.7142857142857</ele><time>2026-05-04T16:17:52.401Z</time></trkpt><trkpt lat="46.0180291" lon="11.915524"><ele>283.1428571428571</ele><time>2026-05-04T16:17:55.402Z</time></trkpt><trkpt lat="46.0180812" lon="11.9154694"><ele>283.57142857142856</ele><time>2026-05-04T16:17:57.404Z</time></trkpt><trkpt lat="46.0181604" lon="11.9154055"><ele>284.0</ele><time>2026-05-04T16:18:00.402Z</time></trkpt><trkpt lat="46.0182412" lon="11.915382"><ele>284.0</ele><time>2026-05-04T16:18:03.402Z</time></trkpt><trkpt lat="46.0183063" lon="11.9153588"><ele>284.0</ele><time>2026-05-04T16:18:05.402Z</time></trkpt><trkpt lat="46.0183739" lon="11.9153421"><ele>284.0</ele><time>2026-05-04T16:18:07.402Z</time></trkpt><trkpt lat="46.0184423" lon="11.9153324"><ele>284.0</ele><time>2026-05-04T16:18:09.404Z</time></trkpt><trkpt lat="46.0185273" lon="11.915328"><ele>284.0</ele><time>2026-05-04T16:18:12.404Z</time></trkpt><trkpt lat="46.0185589" lon="11.9152475"><ele>284.0</ele><time>2026-05-04T16:18:36.403Z</time></trkpt><trkpt lat="46.0186097" lon="11.9151735"><ele>284.0</ele><time>2026-05-04T16:18:40.4Z</time></trkpt><trkpt lat="46.0186945" lon="11.9151486"><ele>283.33333333333337</ele><time>2026-05-04T16:18:43.399Z</time></trkpt><trkpt lat="46.0187616" lon="11.9150856"><ele>282.6666666666667</ele><time>2026-05-04T16:18:45.403Z</time></trkpt><trkpt lat="46.0188287" lon="11.9150277"><ele>282.0</ele><time>2026-05-04T16:18:47.401Z</time></trkpt><trkpt lat="46.0189043" lon="11.9149666"><ele>281.3333333333333</ele><time>2026-05-04T16:18:49.4Z</time></trkpt><trkpt lat="46.0189752" lon="11.9148794"><ele>280.66666666666663</ele><time>2026-05-04T16:18:51.403Z</time></trkpt><trkpt lat="46.0190423" lon="11.9147798"><ele>280.0</ele><time>2026-05-04T16:18:53.403Z</time></trkpt><trkpt lat="46.0190955" lon="11.9146517"><ele>280.0</ele><time>2026-05-04T16:18:55.401Z</time></trkpt><trkpt lat="46.0191389" lon="11.9144988"><ele>280.0</ele><time>2026-05-04T16:18:57.403Z</time></trkpt><trkpt lat="46.0191696" lon="11.9143338"><ele>280.0</ele><time>2026-05-04T16:18:59.402Z</time></trkpt><trkpt lat="46.0191876" lon="11.9141856"><ele>280.0</ele><time>2026-05-04T16:19:01.403Z</time></trkpt><trkpt lat="46.0192064" lon="11.9140651"><ele>280.0</ele><time>2026-05-04T16:19:03.404Z</time></trkpt><trkpt lat="46.0192336" lon="11.9139645"><ele>279.3333333333333</ele><time>2026-05-04T16:19:05.402Z</time></trkpt><trkpt lat="46.0192752" lon="11.9138655"><ele>278.66666666666663</ele><time>2026-05-04T16:19:08.402Z</time></trkpt><trkpt lat="46.019317" lon="11.9137843"><ele>278.0</ele><time>2026-05-04T16:19:11.4Z</time></trkpt><trkpt lat="46.0193813" lon="11.9137285"><ele>277.3333333333333</ele><time>2026-05-04T16:19:14.401Z</time></trkpt><trkpt lat="46.0194597" lon="11.9137386"><ele>276.6666666666667</ele><time>2026-05-04T16:19:17.402Z</time></trkpt><trkpt lat="46.0195324" lon="11.9137694"><ele>276.0</ele><time>2026-05-04T16:19:20.402Z</time></trkpt><trkpt lat="46.0196076" lon="11.9137993"><ele>276.0</ele><time>2026-05-04T16:19:23.402Z</time></trkpt><trkpt lat="46.0196913" lon="11.913811"><ele>276.0</ele><time>2026-05-04T16:19:26.402Z</time></trkpt><trkpt lat="46.0197675" lon="11.9138352"><ele>276.0</ele><time>2026-05-04T16:19:29.402Z</time></trkpt><trkpt lat="46.0198367" lon="11.9138268"><ele>276.0</ele><time>2026-05-04T16:19:32.401Z</time></trkpt><trkpt lat="46.0199037" lon="11.9137976"><ele>276.0</ele><time>2026-05-04T16:19:35.401Z</time></trkpt><trkpt lat="46.0199497" lon="11.9137055"><ele>276.0</ele><time>2026-05-04T16:19:38.4Z</time></trkpt><trkpt lat="46.0199757" lon="11.9136189"><ele>276.0</ele><time>2026-05-04T16:19:40.401Z</time></trkpt><trkpt lat="46.0200076" lon="11.9135294"><ele>277.0</ele><time>2026-05-04T16:19:42.402Z</time></trkpt><trkpt lat="46.0200369" lon="11.9134474"><ele>278.0</ele><time>2026-05-04T16:19:44.4Z</time></trkpt><trkpt lat="46.0200676" lon="11.913362"><ele>279.0</ele><time>2026-05-04T16:19:46.4Z</time></trkpt><trkpt lat="46.0201122" lon="11.9132849"><ele>280.0</ele><time>2026-05-04T16:19:48.399Z</time></trkpt><trkpt lat="46.0201638" lon="11.9132136"><ele>281.0</ele><time>2026-05-04T16:19:50.402Z</time></trkpt><trkpt lat="46.0202265" lon="11.9131656"><ele>282.0</ele><time>2026-05-04T16:19:52.401Z</time></trkpt><trkpt lat="46.0202961" lon="11.9131288"><ele>283.0</ele><time>2026-05-04T16:19:54.4Z</time></trkpt><trkpt lat="46.0203265" lon="11.9130383"><ele>283.6</ele><time>2026-05-04T16:19:56.401Z</time></trkpt><trkpt lat="46.0203564" lon="11.9129101"><ele>284.20000000000005</ele><time>2026-05-04T16:19:58.401Z</time></trkpt><trkpt lat="46.0204263" lon="11.9128058"><ele>284.8</ele><time>2026-05-04T16:20:00.403Z</time></trkpt><trkpt lat="46.0205091" lon="11.9126948"><ele>285.40000000000003</ele><time>2026-05-04T16:20:02.402Z</time></trkpt><trkpt lat="46.0205965" lon="11.9125957"><ele>286.0</ele><time>2026-05-04T16:20:04.401Z</time></trkpt><trkpt lat="46.0206878" lon="11.9125385"><ele>286.3333333333333</ele><time>2026-05-04T16:20:06.402Z</time></trkpt><trkpt lat="46.0207689" lon="11.9125233"><ele>286.66666666666663</ele><time>2026-05-04T16:20:08.401Z</time></trkpt><trkpt lat="46.0208461" lon="11.9125068"><ele>287.0</ele><time>2026-05-04T16:20:10.4Z</time></trkpt><trkpt lat="46.0209201" lon="11.9124892"><ele>287.3333333333333</ele><time>2026-05-04T16:20:12.403Z</time></trkpt><trkpt lat="46.0209848" lon="11.9124626"><ele>287.6666666666667</ele><time>2026-05-04T16:20:14.403Z</time></trkpt><trkpt lat="46.0210702" lon="11.9124551"><ele>288.0</ele><time>2026-05-04T16:20:18.402Z</time></trkpt><trkpt lat="46.0211628" lon="11.9124485"><ele>286.8571428571429</ele><time>2026-05-04T16:20:21.403Z</time></trkpt><trkpt lat="46.0212262" lon="11.9124715"><ele>285.7142857142857</ele><time>2026-05-04T16:20:23.402Z</time></trkpt><trkpt lat="46.0213053" lon="11.9124753"><ele>284.57142857142856</ele><time>2026-05-04T16:20:25.403Z</time></trkpt><trkpt lat="46.0213776" lon="11.912489"><ele>283.42857142857144</ele><time>2026-05-04T16:20:27.4Z</time></trkpt><trkpt lat="46.0214505" lon="11.9124975"><ele>282.2857142857143</ele><time>2026-05-04T16:20:29.402Z</time></trkpt><trkpt lat="46.0215198" lon="11.9124937"><ele>281.14285714285717</ele><time>2026-05-04T16:20:31.403Z</time></trkpt><trkpt lat="46.0215919" lon="11.9124921"><ele>280.0</ele><time>2026-05-04T16:20:33.403Z</time></trkpt><trkpt lat="46.0216693" lon="11.9124994"><ele>279.16666666666663</ele><time>2026-05-04T16:20:35.402Z</time></trkpt><trkpt lat="46.0217407" lon="11.9125174"><ele>278.3333333333333</ele><time>2026-05-04T16:20:37.4Z</time></trkpt><trkpt lat="46.0218143" lon="11.9125315"><ele>277.5</ele><time>2026-05-04T16:20:39.403Z</time></trkpt><trkpt lat="46.0218878" lon="11.9125341"><ele>276.6666666666667</ele><time>2026-05-04T16:20:41.403Z</time></trkpt><trkpt lat="46.0219647" lon="11.9125509"><ele>275.83333333333337</ele><time>2026-05-04T16:20:43.402Z</time></trkpt><trkpt lat="46.0220385" lon="11.9125559"><ele>275.0</ele><time>2026-05-04T16:20:45.398Z</time></trkpt><trkpt lat="46.0221363" lon="11.9125537"><ele>275.0</ele><time>2026-05-04T16:20:48.402Z</time></trkpt><trkpt lat="46.0222111" lon="11.912545"><ele>275.0</ele><time>2026-05-04T16:20:50.403Z</time></trkpt><trkpt lat="46.022283" lon="11.9125426"><ele>275.0</ele><time>2026-05-04T16:20:52.398Z</time></trkpt><trkpt lat="46.022353" lon="11.9125449"><ele>275.0</ele><time>2026-05-04T16:20:54.402Z</time></trkpt><trkpt lat="46.0224411" lon="11.9125621"><ele>275.0</ele><time>2026-05-04T16:20:57.401Z</time></trkpt><trkpt lat="46.0225072" lon="11.9125749"><ele>275.0</ele><time>2026-05-04T16:20:59.401Z</time></trkpt><trkpt lat="46.0225801" lon="11.9125864"><ele>275.0</ele><time>2026-05-04T16:21:01.4Z</time></trkpt><trkpt lat="46.022654" lon="11.9125816"><ele>275.33333333333337</ele><time>2026-05-04T16:21:03.4Z</time></trkpt><trkpt lat="46.0227291" lon="11.9125503"><ele>275.6666666666667</ele><time>2026-05-04T16:21:05.402Z</time></trkpt><trkpt lat="46.0228023" lon="11.9125076"><ele>276.0</ele><time>2026-05-04T16:21:07.4Z</time></trkpt><trkpt lat="46.0228828" lon="11.9124867"><ele>276.3333333333333</ele><time>2026-05-04T16:21:09.401Z</time></trkpt><trkpt lat="46.0229667" lon="11.9124909"><ele>276.66666666666663</ele><time>2026-05-04T16:21:11.402Z</time></trkpt><trkpt lat="46.023047" lon="11.9124947"><ele>277.0</ele><time>2026-05-04T16:21:13.403Z</time></trkpt><trkpt lat="46.0231274" lon="11.9124935"><ele>277.0</ele><time>2026-05-04T16:21:15.402Z</time></trkpt><trkpt lat="46.0232058" lon="11.9125"><ele>277.0</ele><time>2026-05-04T16:21:17.401Z</time></trkpt><trkpt lat="46.0232822" lon="11.9124966"><ele>277.0</ele><time>2026-05-04T16:21:19.403Z</time></trkpt><trkpt lat="46.0233506" lon="11.9124956"><ele>277.0</ele><time>2026-05-04T16:21:21.403Z</time></trkpt><trkpt lat="46.0234221" lon="11.9125034"><ele>277.0</ele><time>2026-05-04T16:21:23.401Z</time></trkpt><trkpt lat="46.0234944" lon="11.9125113"><ele>277.0</ele><time>2026-05-04T16:21:25.4Z</time></trkpt><trkpt lat="46.0235685" lon="11.9125191"><ele>277.0</ele><time>2026-05-04T16:21:27.402Z</time></trkpt><trkpt lat="46.0236471" lon="11.9125244"><ele>277.16666666666663</ele><time>2026-05-04T16:21:29.403Z</time></trkpt><trkpt lat="46.0237272" lon="11.9125332"><ele>277.3333333333333</ele><time>2026-05-04T16:21:31.402Z</time></trkpt><trkpt lat="46.0238122" lon="11.9125404"><ele>277.5</ele><time>2026-05-04T16:21:33.4Z</time></trkpt><trkpt lat="46.0238974" lon="11.9125458"><ele>277.6666666666667</ele><time>2026-05-04T16:21:35.403Z</time></trkpt><trkpt lat="46.023983" lon="11.912552"><ele>277.83333333333337</ele><time>2026-05-04T16:21:37.402Z</time></trkpt><trkpt lat="46.0240709" lon="11.9125528"><ele>278.0</ele><time>2026-05-04T16:21:39.402Z</time></trkpt><trkpt lat="46.0241551" lon="11.9125563"><ele>278.33333333333337</ele><time>2026-05-04T16:21:41.402Z</time></trkpt><trkpt lat="46.0242373" lon="11.9125554"><ele>278.6666666666667</ele><time>2026-05-04T16:21:43.401Z</time></trkpt><trkpt lat="46.0243247" lon="11.9125546"><ele>279.0</ele><time>2026-05-04T16:21:45.4Z</time></trkpt><trkpt lat="46.0244087" lon="11.912552"><ele>279.3333333333333</ele><time>2026-05-04T16:21:47.401Z</time></trkpt><trkpt lat="46.0244898" lon="11.9125484"><ele>279.66666666666663</ele><time>2026-05-04T16:21:49.402Z</time></trkpt><trkpt lat="46.0245584" lon="11.9125452"><ele>280.0</ele><time>2026-05-04T16:21:51.401Z</time></trkpt><trkpt lat="46.0246556" lon="11.9125476"><ele>280.0</ele><time>2026-05-04T16:21:54.4Z</time></trkpt><trkpt lat="46.0247349" lon="11.9125586"><ele>280.0</ele><time>2026-05-04T16:21:56.4Z</time></trkpt><trkpt lat="46.0248186" lon="11.9125662"><ele>280.0</ele><time>2026-05-04T16:21:58.403Z</time></trkpt><trkpt lat="46.0249007" lon="11.9125749"><ele>280.0</ele><time>2026-05-04T16:22:00.401Z</time></trkpt><trkpt lat="46.0249809" lon="11.9125657"><ele>280.0</ele><time>2026-05-04T16:22:02.403Z</time></trkpt><trkpt lat="46.0250646" lon="11.9125608"><ele>280.0</ele><time>2026-05-04T16:22:04.401Z</time></trkpt><trkpt lat="46.0251485" lon="11.9125642"><ele>280.16666666666663</ele><time>2026-05-04T16:22:06.401Z</time></trkpt><trkpt lat="46.025231" lon="11.9125667"><ele>280.3333333333333</ele><time>2026-05-04T16:22:08.4Z</time></trkpt><trkpt lat="46.0253103" lon="11.9125775"><ele>280.5</ele><time>2026-05-04T16:22:10.403Z</time></trkpt><trkpt lat="46.0253907" lon="11.9125867"><ele>280.6666666666667</ele><time>2026-05-04T16:22:12.402Z</time></trkpt><trkpt lat="46.0254766" lon="11.9125921"><ele>280.83333333333337</ele><time>2026-05-04T16:22:14.402Z</time></trkpt><trkpt lat="46.0255555" lon="11.912598"><ele>281.0</ele><time>2026-05-04T16:22:16.401Z</time></trkpt><trkpt lat="46.0256364" lon="11.9125978"><ele>281.1666666666667</ele><time>2026-05-04T16:22:18.398Z</time></trkpt><trkpt lat="46.0257174" lon="11.9126062"><ele>281.33333333333337</ele><time>2026-05-04T16:22:20.4Z</time></trkpt><trkpt lat="46.0258029" lon="11.912609"><ele>281.5</ele><time>2026-05-04T16:22:22.4Z</time></trkpt><trkpt lat="46.0258845" lon="11.9126124"><ele>281.6666666666667</ele><time>2026-05-04T16:22:24.4Z</time></trkpt><trkpt lat="46.0259682" lon="11.91261"><ele>281.8333333333333</ele><time>2026-05-04T16:22:26.401Z</time></trkpt><trkpt lat="46.0260532" lon="11.9126058"><ele>282.0</ele><time>2026-05-04T16:22:28.403Z</time></trkpt><trkpt lat="46.0261374" lon="11.9126062"><ele>282.3333333333333</ele><time>2026-05-04T16:22:30.402Z</time></trkpt><trkpt lat="46.0262214" lon="11.9126103"><ele>282.6666666666667</ele><time>2026-05-04T16:22:32.402Z</time></trkpt><trkpt lat="46.0263053" lon="11.9126078"><ele>283.0</ele><time>2026-05-04T16:22:34.401Z</time></trkpt><trkpt lat="46.0263856" lon="11.9126089"><ele>283.33333333333337</ele><time>2026-05-04T16:22:36.401Z</time></trkpt><trkpt lat="46.0264633" lon="11.9126034"><ele>283.6666666666667</ele><time>2026-05-04T16:22:38.401Z</time></trkpt><trkpt lat="46.0265408" lon="11.9125964"><ele>284.0</ele><time>2026-05-04T16:22:40.402Z</time></trkpt><trkpt lat="46.0266255" lon="11.9125886"><ele>284.1666666666667</ele><time>2026-05-04T16:22:42.402Z</time></trkpt><trkpt lat="46.0267074" lon="11.9125742"><ele>284.33333333333337</ele><time>2026-05-04T16:22:44.402Z</time></trkpt><trkpt lat="46.0267928" lon="11.9125721"><ele>284.5</ele><time>2026-05-04T16:22:46.402Z</time></trkpt><trkpt lat="46.0268754" lon="11.9125659"><ele>284.6666666666667</ele><time>2026-05-04T16:22:48.4Z</time></trkpt><trkpt lat="46.0269619" lon="11.9125697"><ele>284.8333333333333</ele><time>2026-05-04T16:22:50.403Z</time></trkpt><trkpt lat="46.0270423" lon="11.9125678"><ele>285.0</ele><time>2026-05-04T16:22:52.403Z</time></trkpt><trkpt lat="46.0271203" lon="11.9125563"><ele>285.0</ele><time>2026-05-04T16:22:54.401Z</time></trkpt><trkpt lat="46.0271875" lon="11.9125489"><ele>285.0</ele><time>2026-05-04T16:22:56.402Z</time></trkpt><trkpt lat="46.0272527" lon="11.9125471"><ele>285.0</ele><time>2026-05-04T16:22:58.402Z</time></trkpt><trkpt lat="46.0273401" lon="11.9125463"><ele>285.0</ele><time>2026-05-04T16:23:01.401Z</time></trkpt><trkpt lat="46.0274028" lon="11.9125889"><ele>285.0</ele><time>2026-05-04T16:23:04.4Z</time></trkpt><trkpt lat="46.0274166" lon="11.9127156"><ele>285.0</ele><time>2026-05-04T16:23:07.402Z</time></trkpt><trkpt lat="46.0274177" lon="11.9128393"><ele>286.0</ele><time>2026-05-04T16:23:10.401Z</time></trkpt><trkpt lat="46.0274181" lon="11.9129457"><ele>286.0</ele><time>2026-05-04T16:23:13.4Z</time></trkpt></trkseg></trk></gpx>